<
# Wetter Temperatur Luftdruck Luftfeuchtigkeit Sichtweite Windgeschwindigkeit Windrichtung Zeit
1 Clear -5 1031 42 0 2.1 110 20:25 02.04.2020
2 Clear -5 1031 42 0 2.1 110 19:57 02.04.2020
3 Clear -5 1031 42 0 2.1 110 19:39 02.04.2020
4 Clear -5 1031 42 0 2.1 110 19:20 02.04.2020
5 Clear -5 1031 42 0 2.1 110 18:55 02.04.2020
6 Clear -5 1031 42 0 2.1 110 18:36 02.04.2020
7 Clear -5 1030 43 0 2.14 106 18:18 02.04.2020
8 Clear -5 1030 43 0 2.14 106 18:18 02.04.2020
9 Clear -5 1030 43 0 2.14 106 17:42 02.04.2020
10 Clear -5 1030 43 0 2.14 106 17:24 02.04.2020
11 Clear -5 1030 43 0 2.14 106 16:58 02.04.2020
12 Clear -5 1030 43 0 2.14 106 16:40 02.04.2020
13 Clear -5 1030 43 0 2.14 106 16:21 02.04.2020
14 Clear -5 1030 43 0 2.14 106 15:56 02.04.2020
15 Clear -5 1030 43 0 2.14 106 15:38 02.04.2020
16 Clear -3 1027 45 0 1.68 102 15:18 02.04.2020
17 Clear -3 1027 45 0 1.68 102 14:56 02.04.2020
18 Clear -3 1027 45 0 1.68 102 14:37 02.04.2020
19 Clear -3 1027 45 0 1.67 102 14:18 02.04.2020
20 Clear -3 1027 45 0 1.67 102 13:54 02.04.2020
21 Clear -3 1027 45 0 1.67 102 13:36 02.04.2020
22 Clear -3 1027 45 0 1.67 102 13:18 02.04.2020
23 Clear -3 1027 45 0 1.67 102 12:41 02.04.2020
24 Clear 3 1026 36 0 0.59 89 12:19 02.04.2020
25 Clear 3 1026 36 0 0.59 89 11:57 02.04.2020
26 Clear 3 1026 36 0 0.59 89 11:38 02.04.2020
27 Clear 3 1026 36 0 0.59 89 11:19 02.04.2020
28 Clear 3 1026 36 0 0.59 89 10:56 02.04.2020
29 Clear 3 1026 36 0 0.59 89 10:37 02.04.2020
30 Clear 3 1026 36 0 0.59 89 10:19 02.04.2020
31 Clear 3 1026 36 0 0.59 89 09:58 02.04.2020
32 Clear 3 1026 36 0 0.59 89 09:39 02.04.2020
33 Clear 2 1027 35 0 0.44 167 09:19 02.04.2020
34 Clear 2 1027 35 0 0.41 156 08:47 02.04.2020
35 Clear 2 1027 35 0 0.41 156 08:27 02.04.2020
36 Clear 2 1027 35 0 0.41 156 07:45 02.04.2020
37 Clear 2 1027 35 0 0.41 156 07:21 02.04.2020
38 Clear 2 1027 35 0 0.41 156 06:59 02.04.2020
39 Clear 2 1027 35 0 0.41 156 06:22 02.04.2020
40 Clear 0 1031 39 0 1.1 123 05:45 02.04.2020
41 Clear 0 1031 39 0 1.1 123 04:46 02.04.2020
42 Clear -8 1033 50 0 1.77 106 02:18 02.04.2020
43 Clear -8 1033 49 0 1.75 104 00:54 02.04.2020
44 Clear -8 1033 49 0 1.75 104 00:31 02.04.2020
45 Clear -8 1033 52 0 1.75 100 23:59 01.04.2020
46 Clear -8 1033 52 0 1.75 100 23:37 01.04.2020
47 Clear -8 1033 52 0 1.75 100 23:18 01.04.2020
48 Clear -8 1033 52 0 1.75 100 22:41 01.04.2020
49 Clear -8 1033 52 0 1.75 100 22:22 01.04.2020
50 Clear -8 1033 52 0 1.75 100 21:58 01.04.2020
51 Clear -8 1033 52 0 1.75 100 21:58 01.04.2020
52 Clear -8 1033 52 0 1.75 100 21:39 01.04.2020
53 Clear -8 1032 54 0 1.76 95 21:19 01.04.2020
54 Clear -8 1033 54 0 1.81 96 21:19 01.04.2020
55 Clear -8 1033 54 0 1.81 96 20:55 01.04.2020
56 Clear -8 1033 54 0 1.81 96 20:37 01.04.2020
57 Clear -8 1033 54 0 1.81 96 20:18 01.04.2020
58 Clear -8 1033 54 0 1.81 96 19:43 01.04.2020
59 Clear -8 1033 54 0 1.81 96 19:43 01.04.2020
60 Clear -8 1033 54 0 1.81 96 19:23 01.04.2020
61 Clear -8 1033 54 0 1.81 96 18:59 01.04.2020
62 Clear -8 1033 54 0 1.81 96 18:41 01.04.2020
63 Clear -8 1033 54 0 1.81 96 18:21 01.04.2020
64 Clear -8 1032 56 0 2.07 88 17:56 01.04.2020
65 Clear -8 1032 56 0 2.07 88 17:37 01.04.2020
66 Clear -8 1032 56 0 2.07 88 17:18 01.04.2020
67 Clear -8 1032 56 0 2.07 88 16:54 01.04.2020
68 Clear -8 1032 56 0 2.07 88 16:36 01.04.2020
69 Clear -8 1032 56 0 2.07 88 16:18 01.04.2020
70 Clear -8 1032 56 0 2.07 88 15:42 01.04.2020
71 Clear -8 1032 56 0 2.07 88 15:22 01.04.2020
72 Clear -7 1029 55 0 1.58 71 14:58 01.04.2020
73 Clear -7 1029 55 0 1.58 71 14:39 01.04.2020
74 Clear -7 1029 55 0 1.56 73 14:20 01.04.2020
75 Clear -7 1029 55 0 1.56 73 13:58 01.04.2020
76 Clear -7 1029 55 0 1.56 73 13:38 01.04.2020
77 Clear -7 1029 55 0 1.56 73 13:19 01.04.2020
78 Clear -7 1029 55 0 1.56 73 12:56 01.04.2020
79 Clear -7 1029 55 0 1.56 73 12:37 01.04.2020
80 Clear -1 1027 42 0 0.7 346 12:18 01.04.2020
81 Clear -1 1027 42 0 0.7 346 11:54 01.04.2020
82 Clear -1 1027 42 0 0.7 346 11:36 01.04.2020
83 Clear -1 1027 42 0 0.7 346 11:18 01.04.2020
84 Clear -1 1027 42 0 0.7 346 10:38 01.04.2020
85 Clear -1 1027 42 0 0.7 346 10:20 01.04.2020
86 Clear -1 1027 42 0 0.7 346 09:57 01.04.2020
87 Clear -1 1027 42 0 0.7 346 09:39 01.04.2020
88 Clear -2 1029 39 0 0.62 325 09:19 01.04.2020
89 Clear -2 1029 39 0 0.62 325 08:43 01.04.2020
90 Clear -2 1029 39 0 0.62 325 08:18 01.04.2020
91 Clear -2 1029 39 0 0.62 325 07:48 01.04.2020
92 Clear -2 1029 39 0 0.62 325 07:22 01.04.2020
93 Clear -2 1029 39 0 0.62 325 06:58 01.04.2020
94 Clear -2 1029 39 0 0.62 325 06:27 01.04.2020
95 Clear -5 1033 46 0 0.94 96 05:59 01.04.2020
96 Clear -5 1033 46 0 0.94 96 04:38 01.04.2020
97 Clear -5 1033 46 0 0.94 96 03:35 01.04.2020
98 Clear -12 1037 54 0 1.64 101 02:57 01.04.2020
99 Clear -12 1037 54 0 1.68 101 02:21 01.04.2020
100 Clear -12 1037 54 0 1.68 101 01:40 01.04.2020
101 Clear -12 1037 54 0 1.68 101 01:22 01.04.2020
102 Clear -12 1037 54 0 1.68 101 00:46 01.04.2020
103 Clear -12 1037 54 0 1.68 101 00:46 01.04.2020
104 Clear -12 1037 54 0 1.68 101 00:21 01.04.2020
105 Clear -13 1037 54 0 1.84 109 23:49 31.03.2020
106 Clear -13 1037 54 0 1.84 109 23:28 31.03.2020
107 Clear -13 1037 54 0 1.84 109 22:59 31.03.2020
108 Clear -13 1037 54 0 1.84 109 22:37 31.03.2020
109 Clear -13 1037 54 0 1.84 109 22:19 31.03.2020
110 Clear -13 1037 54 0 1.84 109 21:57 31.03.2020
111 Clear -13 1037 54 0 1.84 109 21:39 31.03.2020
112 Clear -13 1037 55 0 1.86 110 21:20 31.03.2020
113 Clear -13 1037 54 0 1.84 109 21:20 31.03.2020
114 Clear -13 1037 55 0 1.86 110 21:20 31.03.2020
115 Clear -13 1038 57 0 1.83 105 20:56 31.03.2020
116 Clear -13 1038 57 0 1.83 105 20:37 31.03.2020
117 Clear -13 1038 57 0 1.83 105 20:18 31.03.2020
118 Clear -13 1038 57 0 1.83 105 19:42 31.03.2020
119 Clear -13 1038 57 0 1.83 105 19:24 31.03.2020
120 Clear -13 1038 57 0 1.83 105 18:59 31.03.2020
121 Clear -13 1038 57 0 1.83 105 18:41 31.03.2020
122 Clear -13 1038 62 0 2.1 100 18:19 31.03.2020
123 Clear -13 1038 62 0 2.1 100 17:56 31.03.2020
124 Clear -13 1038 62 0 2.1 100 17:37 31.03.2020
125 Clear -13 1038 62 0 2.1 100 17:37 31.03.2020
126 Clear -13 1038 62 0 2.1 100 17:19 31.03.2020
127 Clear -13 1038 62 0 2.1 100 16:41 31.03.2020
128 Clear -13 1038 62 0 2.1 100 16:20 31.03.2020
129 Clear -13 1038 62 0 2.1 100 15:59 31.03.2020
130 Clear -13 1038 62 0 2.1 100 15:41 31.03.2020
131 Clear -13 1038 62 0 2.1 100 15:23 31.03.2020
132 Clear -12 1037 68 0 1.46 86 14:59 31.03.2020
133 Clear -12 1037 68 0 1.46 86 14:40 31.03.2020
134 Clear -12 1036 68 0 1.48 87 14:21 31.03.2020
135 Clear -12 1036 68 0 1.48 87 13:54 31.03.2020
136 Clear -12 1036 68 0 1.48 87 13:36 31.03.2020
137 Clear -12 1036 68 0 1.48 87 13:18 31.03.2020
138 Clear -12 1036 68 0 1.48 87 12:42 31.03.2020
139 Clear -6 1034 51 0 0.27 342 12:20 31.03.2020
140 Clear -6 1034 51 0 0.27 342 11:55 31.03.2020
141 Clear -6 1034 51 0 0.27 342 11:36 31.03.2020
142 Clear -6 1034 51 0 0.27 342 11:18 31.03.2020
143 Clear -6 1034 51 0 0.27 342 10:54 31.03.2020
144 Clear -6 1034 51 0 0.27 342 10:36 31.03.2020
145 Clear -6 1034 51 0 0.27 342 10:18 31.03.2020
146 Clear -6 1034 51 0 0.27 342 09:42 31.03.2020
147 Clear -6 1034 51 0 0.27 342 09:24 31.03.2020
148 Clear -7 1036 50 0 0.72 234 08:57 31.03.2020
149 Clear -7 1036 50 0 0.72 234 08:39 31.03.2020
150 Clear -7 1036 50 0 0.72 234 08:19 31.03.2020
151 Clear -7 1036 50 0 0.72 234 08:19 31.03.2020
152 Clear -7 1036 50 0 0.72 234 07:56 31.03.2020
153 Clear -7 1036 50 0 0.72 234 07:37 31.03.2020
154 Clear -7 1036 50 0 0.72 234 07:18 31.03.2020
155 Clear -7 1036 50 0 0.72 234 06:45 31.03.2020
156 Clear -10 1040 59 0 1 118 06:20 31.03.2020
157 Clear -10 1040 59 0 1 118 05:39 31.03.2020
158 Clear -10 1040 59 0 1 118 03:34 31.03.2020
159 Clear -18 1045 58 0 2.19 90 01:59 31.03.2020
160 Clear -18 1045 58 0 2.19 90 01:40 31.03.2020
161 Clear -18 1045 58 0 2.19 90 00:47 31.03.2020
162 Clear -18 1045 58 0 2.19 90 00:25 31.03.2020
163 Clear -18 1045 58 0 2.19 90 00:25 31.03.2020
164 Clear -19 1043 62 0 2.55 79 23:42 30.03.2020
165 Clear -19 1043 62 0 2.55 79 23:20 30.03.2020
166 Clear -19 1043 62 0 2.55 79 23:20 30.03.2020
167 Clear -19 1043 62 0 2.55 79 22:58 30.03.2020
168 Clear -19 1043 62 0 2.55 79 22:39 30.03.2020
169 Clear -19 1043 62 0 2.55 79 22:21 30.03.2020
170 Clear -19 1043 62 0 2.55 79 21:58 30.03.2020
171 Clear -19 1043 62 0 2.55 79 21:39 30.03.2020
172 Clear -19 1043 62 0 2.54 81 21:21 30.03.2020
173 Clear -18 1043 65 0 2.86 70 20:59 30.03.2020
174 Clear -18 1043 65 0 2.86 70 20:39 30.03.2020
175 Clear -18 1043 65 0 2.86 70 20:20 30.03.2020
176 Clear -18 1043 65 0 2.86 70 19:57 30.03.2020
177 Clear -18 1043 65 0 2.86 70 19:39 30.03.2020
178 Clear -18 1043 65 0 2.86 70 19:39 30.03.2020
179 Clear -18 1043 65 0 2.86 70 19:20 30.03.2020
180 Clear -18 1043 65 0 2.86 70 18:44 30.03.2020
181 Clear -18 1043 65 0 2.86 70 18:26 30.03.2020
182 Clear -17 1040 67 0 2.83 66 17:58 30.03.2020
183 Clear -17 1040 67 0 2.83 66 17:58 30.03.2020
184 Clear -17 1040 67 0 2.83 66 17:40 30.03.2020
185 Clear -17 1040 67 0 2.83 66 17:22 30.03.2020
186 Clear -17 1040 67 0 2.83 66 16:59 30.03.2020
187 Clear -17 1040 67 0 2.83 66 16:40 30.03.2020
188 Clear -17 1040 67 0 2.83 66 16:21 30.03.2020
189 Clear -17 1040 67 0 2.83 66 15:56 30.03.2020
190 Clear -17 1040 67 0 2.83 66 15:38 30.03.2020
191 Clouds -15 1036 68 0 2.52 42 15:20 30.03.2020
192 Clouds -15 1036 68 0 2.52 42 14:58 30.03.2020
193 Clouds -15 1036 68 0 2.52 42 14:37 30.03.2020
194 Clouds -14 1036 69 0 2.56 44 14:19 30.03.2020
195 Clouds -14 1036 69 0 2.56 44 13:57 30.03.2020
196 Clouds -14 1036 69 0 2.56 44 13:38 30.03.2020
197 Clouds -14 1036 69 0 2.56 44 13:19 30.03.2020
198 Clouds -14 1036 69 0 2.56 44 12:45 30.03.2020
199 Clouds -14 1036 69 0 2.56 44 12:21 30.03.2020
200 Clouds -14 1036 69 0 2.56 44 12:21 30.03.2020
201 Clouds -8 1031 59 0 3.02 25 11:58 30.03.2020
202 Clouds -8 1031 59 0 3.02 25 11:40 30.03.2020
203 Clouds -8 1031 59 0 3.02 25 11:21 30.03.2020
204 Clouds -8 1031 59 0 3.02 25 10:55 30.03.2020
205 Clouds -8 1031 59 0 3.02 25 10:37 30.03.2020
206 Clouds -8 1031 59 0 3.02 25 10:18 30.03.2020
207 Clouds -8 1031 59 0 3.02 25 09:40 30.03.2020
208 Clouds -8 1031 59 0 2.82 21 09:19 30.03.2020
209 Clouds -8 1031 59 0 2.82 21 08:56 30.03.2020
210 Clouds -8 1031 59 0 2.82 21 08:36 30.03.2020
211 Clouds -8 1031 59 0 2.82 21 08:18 30.03.2020
212 Clouds -8 1031 59 0 2.82 21 07:42 30.03.2020
213 Clouds -8 1031 59 0 2.82 21 07:20 30.03.2020
214 Clouds -8 1031 59 0 2.82 21 06:43 30.03.2020
215 Clouds -8 1031 59 0 2.82 21 06:25 30.03.2020
216 Clouds -10 1032 68 0 2.68 34 05:43 30.03.2020
217 Clouds -10 1032 68 0 2.68 34 04:29 30.03.2020
218 Clouds -10 1032 68 0 2.68 34 03:54 30.03.2020
219 Clouds -14 1031 72 0 2.48 50 02:44 30.03.2020
220 Clouds -14 1032 72 0 2.47 49 01:55 30.03.2020
221 Clouds -14 1032 72 0 2.47 49 00:57 30.03.2020
222 Clouds -14 1032 72 0 2.47 49 00:27 30.03.2020
223 Clouds -13 1026 73 0 2.65 41 23:55 29.03.2020
224 Clouds -13 1026 73 0 2.65 41 23:36 29.03.2020
225 Clouds -13 1026 73 0 2.65 41 23:18 29.03.2020
226 Clouds -13 1026 73 0 2.65 41 22:40 29.03.2020
227 Clouds -13 1026 73 0 2.65 41 22:20 29.03.2020
228 Clouds -13 1026 73 0 2.65 41 21:59 29.03.2020
229 Clouds -13 1026 73 0 2.65 41 21:38 29.03.2020
230 Clouds -11 1024 72 0 2.47 34 21:20 29.03.2020
231 Clouds -11 1024 72 0 2.47 34 20:55 29.03.2020
232 Clouds -11 1024 72 0 2.47 34 20:55 29.03.2020
233 Clouds -11 1024 72 0 2.47 34 20:37 29.03.2020
234 Clouds -11 1024 72 0 2.47 34 20:19 29.03.2020
235 Clouds -11 1024 72 0 2.47 34 19:56 29.03.2020
236 Clouds -11 1024 72 0 2.47 34 19:38 29.03.2020
237 Clouds -11 1024 72 0 2.47 34 19:19 29.03.2020
238 Clouds -11 1024 72 0 2.47 34 18:56 29.03.2020
239 Clouds -11 1024 72 0 2.47 34 18:38 29.03.2020
240 Clouds -8 1020 60 0 1.8 34 18:18 29.03.2020
241 Clouds -8 1020 60 0 1.8 34 17:55 29.03.2020
242 Clouds -8 1020 60 0 1.8 34 17:36 29.03.2020
243 Clouds -8 1020 60 0 1.8 34 17:18 29.03.2020
244 Clouds -8 1020 60 0 1.8 34 16:55 29.03.2020
245 Clouds -8 1020 60 0 1.8 34 16:36 29.03.2020
246 Clouds -8 1020 60 0 1.8 34 16:18 29.03.2020
247 Clouds -8 1020 60 0 1.8 34 15:41 29.03.2020
248 Clouds -8 1020 60 0 1.8 34 15:23 29.03.2020
249 Clouds -8 1020 60 0 1.8 34 15:23 29.03.2020
250 Clouds -7 1015 57 0 1.27 50 14:57 29.03.2020
251 Clouds -7 1015 57 0 1.27 50 14:39 29.03.2020
252 Clouds -7 1015 56 0 1.02 61 14:19 29.03.2020
253 Clouds -7 1015 56 0 1.02 61 13:56 29.03.2020
254 Clouds -7 1015 56 0 1.02 61 13:38 29.03.2020
255 Clouds -7 1015 56 0 1.02 61 13:19 29.03.2020
256 Clouds -7 1015 56 0 1.02 61 12:55 29.03.2020
257 Clouds -7 1015 56 0 1.02 61 12:37 29.03.2020
258 Clouds -2 1011 45 0 2.65 289 12:18 29.03.2020
259 Clouds -2 1011 45 0 2.65 289 11:40 29.03.2020
260 Clouds -2 1011 45 0 2.65 289 11:21 29.03.2020
261 Clouds -2 1011 45 0 2.65 289 10:59 29.03.2020
262 Clouds -2 1011 45 0 2.65 289 10:38 29.03.2020
263 Clouds -2 1011 45 0 2.65 289 10:18 29.03.2020
264 Clouds -2 1011 45 0 2.65 289 09:40 29.03.2020
265 Clouds -2 1012 41 0 2.85 263 09:20 29.03.2020
266 Clouds -2 1012 41 0 2.85 263 08:54 29.03.2020
267 Clouds -2 1012 41 0 2.85 263 08:28 29.03.2020
268 Clouds -2 1012 41 0 2.85 263 07:58 29.03.2020
269 Clouds -2 1012 41 0 2.85 263 07:58 29.03.2020
270 Clouds -2 1012 41 0 2.85 263 07:40 29.03.2020
271 Clouds -2 1012 41 0 2.85 263 07:20 29.03.2020
272 Clouds -4 1015 46 0 1.23 197 04:59 29.03.2020
273 Clouds -4 1015 46 0 1.23 197 03:55 29.03.2020
274 Clouds -4 1015 46 0 1.23 197 03:26 29.03.2020
275 Clouds -10 1017 53 0 1.2 160 01:51 29.03.2020
276 Clouds -10 1017 53 0 1.29 150 01:23 29.03.2020
277 Clouds -10 1017 53 0 1.29 150 00:55 29.03.2020
278 Clouds -10 1017 53 0 1.29 150 00:31 29.03.2020
279 Clouds -10 1017 53 0 1.29 150 23:43 28.03.2020
280 Clouds -10 1017 53 0 1.29 150 23:43 28.03.2020
281 Clouds -10 1017 53 0 1.29 150 23:23 28.03.2020
282 Clear -10 1015 53 0 1.94 142 22:58 28.03.2020
283 Clear -10 1015 53 0 1.94 142 22:38 28.03.2020
284 Clear -10 1015 53 0 1.94 142 22:20 28.03.2020
285 Clear -10 1015 53 0 1.94 142 21:43 28.03.2020
286 Clear -10 1015 53 0 1.94 142 21:24 28.03.2020
287 Clear -10 1015 53 0 1.94 142 20:59 28.03.2020
288 Clear -10 1015 53 0 1.94 142 20:41 28.03.2020
289 Clear -10 1015 54 0 1.96 139 20:23 28.03.2020
290 Clear -10 1015 51 0 2.34 132 19:57 28.03.2020
291 Clear -10 1015 51 0 2.34 132 19:38 28.03.2020
292 Clear -10 1015 51 0 2.34 132 19:38 28.03.2020
293 Clear -10 1015 51 0 2.34 132 19:20 28.03.2020
294 Clear -10 1015 51 0 2.34 132 18:56 28.03.2020
295 Clear -10 1015 51 0 2.34 132 18:38 28.03.2020
296 Clear -10 1015 51 0 2.34 132 18:38 28.03.2020
297 Clear -10 1015 51 0 2.34 132 18:19 28.03.2020
298 Clear -10 1015 51 0 2.34 132 17:38 28.03.2020
299 Clear -9 1015 51 0 2.48 132 17:20 28.03.2020
300 Clear -9 1015 51 0 2.48 132 16:43 28.03.2020
301 Clear -9 1015 51 0 2.48 132 16:20 28.03.2020
302 Clear -9 1015 51 0 2.48 132 15:58 28.03.2020
303 Clear -9 1015 51 0 2.48 132 15:39 28.03.2020
304 Clear -9 1015 51 0 2.48 132 15:19 28.03.2020
305 Clear -9 1015 51 0 2.48 132 14:43 28.03.2020
306 Clear -9 1015 51 0 2.48 132 14:23 28.03.2020
307 Clear -8 1013 54 0 2.3 134 13:59 28.03.2020
308 Clear -8 1013 54 0 2.3 134 13:38 28.03.2020
309 Clear -8 1013 53 0 2.37 135 13:19 28.03.2020
310 Clear -8 1013 53 0 2.37 135 12:39 28.03.2020
311 Clear -8 1013 53 0 2.37 135 12:21 28.03.2020
312 Clear -8 1013 53 0 2.37 135 11:42 28.03.2020
313 Clear -8 1013 53 0 2.37 135 11:21 28.03.2020
314 Clear -2 1011 44 0 1.47 156 10:56 28.03.2020
315 Clear -2 1011 44 0 1.47 156 10:37 28.03.2020
316 Clear -2 1011 44 0 1.47 156 10:18 28.03.2020
317 Clear -2 1011 44 0 1.47 156 09:41 28.03.2020
318 Clear -2 1011 44 0 1.47 156 09:22 28.03.2020
319 Clear -2 1011 44 0 1.47 156 08:45 28.03.2020
320 Clear -2 1011 44 0 1.47 156 08:27 28.03.2020
321 Clear -2 1014 43 0 1.93 178 07:59 28.03.2020
322 Clear -2 1014 43 0 1.93 178 07:41 28.03.2020
323 Clear -2 1014 43 0 1.93 178 06:55 28.03.2020
324 Clear -2 1014 43 0 1.93 178 06:32 28.03.2020
325 Clear -2 1014 43 0 1.93 178 05:40 28.03.2020
326 Clear -5 1020 50 0 1.74 152 05:19 28.03.2020
327 Clear -5 1020 50 0 1.74 152 04:39 28.03.2020
328 Clear -5 1020 50 0 1.74 152 02:55 28.03.2020
329 Clear -12 1024 59 0 2.04 115 01:48 28.03.2020
330 Clear -12 1024 59 0 2.04 115 01:24 28.03.2020
331 Clear -12 1024 58 0 2.03 115 00:54 28.03.2020
332 Clear -12 1024 58 0 2.03 115 00:33 28.03.2020
333 Clear -12 1024 58 0 2.03 115 23:45 27.03.2020
334 Clear -12 1024 58 0 2.03 115 23:26 27.03.2020
335 Clear -12 1024 58 0 2.03 115 23:26 27.03.2020
336 Clear -12 1024 60 0 2.25 126 22:58 27.03.2020
337 Clear -12 1024 60 0 2.25 126 22:39 27.03.2020
338 Clear -12 1024 60 0 2.25 126 22:21 27.03.2020
339 Clear -12 1024 60 0 2.25 126 21:59 27.03.2020
340 Clear -12 1024 60 0 2.25 126 21:40 27.03.2020
341 Clear -12 1024 60 0 2.25 126 21:22 27.03.2020
342 Clear -12 1024 60 0 2.25 126 20:57 27.03.2020
343 Clear -12 1024 60 0 2.25 126 20:39 27.03.2020
344 Clear -11 1025 61 0 2.36 134 20:19 27.03.2020
345 Clear -12 1026 61 0 2.45 134 19:55 27.03.2020
346 Clear -12 1026 61 0 2.45 134 19:36 27.03.2020
347 Clear -12 1026 61 0 2.45 134 19:18 27.03.2020
348 Clear -12 1026 61 0 2.45 134 18:42 27.03.2020
349 Clear -12 1026 61 0 2.45 134 18:23 27.03.2020
350 Clear -12 1026 61 0 2.45 134 17:54 27.03.2020
351 Clear -12 1026 61 0 2.45 134 17:36 27.03.2020
352 Clear -11 1027 61 0 2.51 132 17:18 27.03.2020
353 Clear -11 1027 61 0 2.51 132 16:43 27.03.2020
354 Clear -11 1027 61 0 2.51 132 16:24 27.03.2020
355 Clear -11 1027 61 0 2.51 132 15:44 27.03.2020
356 Clear -11 1027 61 0 2.51 132 15:26 27.03.2020
357 Clear -11 1027 61 0 2.51 132 14:56 27.03.2020
358 Clear -11 1027 61 0 2.51 132 14:36 27.03.2020
359 Clear -10 1026 63 0 2.18 128 14:18 27.03.2020
360 Clear -10 1026 63 0 2.18 128 13:42 27.03.2020
361 Clear -10 1026 63 0 2.18 128 13:21 27.03.2020
362 Clear -10 1026 62 0 2.26 128 12:58 27.03.2020
363 Clear -10 1026 62 0 2.26 128 12:39 27.03.2020
364 Clear -10 1026 62 0 2.26 128 12:19 27.03.2020
365 Clear -10 1026 62 0 2.26 128 11:42 27.03.2020
366 Clear -10 1026 62 0 2.26 128 11:24 27.03.2020
367 Clear -4 1025 49 0 1.14 157 10:55 27.03.2020
368 Clear -4 1025 49 0 1.14 157 10:37 27.03.2020
369 Clear -4 1025 49 0 1.14 157 10:19 27.03.2020
370 Clear -4 1025 49 0 1.14 157 09:57 27.03.2020
371 Clear -4 1025 49 0 1.14 157 09:38 27.03.2020
372 Clear -4 1025 49 0 1.14 157 09:19 27.03.2020
373 Clear -4 1025 49 0 1.14 157 08:56 27.03.2020
374 Clear -4 1025 49 0 1.14 157 08:38 27.03.2020
375 Clear -5 1029 49 0 1.43 194 08:20 27.03.2020
376 Clear -5 1029 49 0 1.43 194 07:52 27.03.2020
377 Clear -5 1029 49 0 1.43 194 07:25 27.03.2020
378 Clear -5 1029 49 0 1.43 194 06:53 27.03.2020
379 Clear -5 1029 49 0 1.43 194 06:35 27.03.2020
380 Clear -9 1036 59 0 1.22 126 04:59 27.03.2020
381 Clear -9 1036 59 0 1.22 126 02:36 27.03.2020
382 Clear -16 1041 61 0 1.93 97 01:23 27.03.2020
383 Clear -16 1041 61 0 1.95 98 00:51 27.03.2020
384 Clear -16 1041 61 0 1.95 98 00:31 27.03.2020
385 Clear -16 1041 61 0 1.95 98 23:44 26.03.2020
386 Clear -16 1041 61 0 1.95 98 23:23 26.03.2020
387 Clear -17 1042 62 0 1.77 97 22:59 26.03.2020
388 Clear -17 1042 62 0 1.77 97 22:39 26.03.2020
389 Clear -17 1042 62 0 1.77 97 22:20 26.03.2020
390 Clear -17 1042 62 0 1.77 97 21:57 26.03.2020
391 Clear -17 1042 62 0 1.77 97 21:39 26.03.2020
392 Clear -17 1042 62 0 1.77 97 21:20 26.03.2020
393 Clear -17 1042 62 0 1.77 97 20:58 26.03.2020
394 Clear -17 1042 62 0 1.77 97 20:38 26.03.2020
395 Clear -17 1042 62 0 1.77 97 20:38 26.03.2020
396 Clear -17 1043 63 0 2.01 83 20:20 26.03.2020
397 Clear -17 1043 63 0 2.01 83 19:55 26.03.2020
398 Clear -17 1043 63 0 2.01 83 19:37 26.03.2020
399 Clear -17 1043 63 0 2.01 83 19:19 26.03.2020
400 Clear -17 1043 63 0 2.01 83 18:55 26.03.2020
401 Clear -17 1043 63 0 2.01 83 18:36 26.03.2020
402 Clear -17 1043 63 0 2.01 83 18:18 26.03.2020
403 Clear -17 1043 63 0 2.01 83 17:42 26.03.2020
404 Clear -17 1043 65 0 2.14 79 17:18 26.03.2020
405 Clear -17 1043 65 0 2.14 79 16:45 26.03.2020
406 Clear -17 1043 65 0 2.14 79 16:45 26.03.2020
407 Clear -17 1043 65 0 2.14 79 16:26 26.03.2020
408 Clear -17 1043 65 0 2.14 79 15:58 26.03.2020
409 Clear -17 1043 65 0 2.14 79 15:40 26.03.2020
410 Clear -17 1043 65 0 2.14 79 15:21 26.03.2020
411 Clear -17 1043 65 0 2.14 79 14:57 26.03.2020
412 Clear -17 1043 65 0 2.14 79 14:38 26.03.2020
413 Clear -16 1040 67 0 1.36 60 14:18 26.03.2020
414 Clear -16 1040 67 0 1.36 60 13:43 26.03.2020
415 Clear -16 1040 67 0 1.39 61 13:23 26.03.2020
416 Clear -16 1040 67 0 1.39 61 12:56 26.03.2020
417 Clear -16 1040 67 0 1.39 61 12:37 26.03.2020
418 Clear -16 1040 67 0 1.39 61 12:19 26.03.2020
419 Clear -16 1040 67 0 1.39 61 11:44 26.03.2020
420 Clear -10 1038 63 0 1.42 338 11:20 26.03.2020
421 Clear -10 1038 63 0 1.42 338 10:56 26.03.2020
422 Clear -10 1038 63 0 1.42 338 10:36 26.03.2020
423 Clear -10 1038 63 0 1.42 338 10:18 26.03.2020
424 Clear -10 1038 63 0 1.42 338 10:18 26.03.2020
425 Clear -10 1038 63 0 1.42 338 09:42 26.03.2020
426 Clear -10 1038 63 0 1.42 338 09:19 26.03.2020
427 Clear -10 1038 63 0 1.42 338 08:46 26.03.2020
428 Clear -10 1038 63 0 1.42 338 08:27 26.03.2020
429 Clear -11 1040 63 0 1.49 315 07:58 26.03.2020
430 Clear -11 1040 63 0 1.49 315 07:40 26.03.2020
431 Clear -11 1040 63 0 1.49 315 07:20 26.03.2020
432 Clear -11 1040 63 0 1.49 315 06:46 26.03.2020
433 Clear -11 1040 63 0 1.49 315 05:52 26.03.2020
434 Clear -14 1045 61 0 0.76 58 03:52 26.03.2020
435 Clear -14 1045 61 0 0.76 58 03:33 26.03.2020
436 Clear -14 1045 61 0 0.76 58 02:53 26.03.2020
437 Clear -21 1048 54 0 1.62 75 01:20 26.03.2020
438 Clear -21 1048 54 0 1.63 74 00:33 26.03.2020
439 Clear -21 1048 54 0 1.63 74 23:44 25.03.2020
440 Clear -21 1048 54 0 1.63 74 23:26 25.03.2020
441 Clear -22 1047 53 0 1.34 82 22:56 25.03.2020
442 Clear -22 1047 53 0 1.34 82 22:38 25.03.2020
443 Clear -22 1047 53 0 1.34 82 22:19 25.03.2020
444 Clear -22 1047 53 0 1.34 82 21:54 25.03.2020
445 Clear -22 1047 53 0 1.34 82 21:36 25.03.2020
446 Clear -22 1047 53 0 1.34 82 21:18 25.03.2020
447 Clear -22 1047 53 0 1.34 82 20:39 25.03.2020
448 Clear -23 1047 57 0 1.59 75 20:20 25.03.2020
449 Clear -23 1048 56 0 1.59 78 19:57 25.03.2020
450 Clear -23 1048 56 0 1.59 78 19:38 25.03.2020
451 Clear -23 1048 56 0 1.59 78 19:20 25.03.2020
452 Clear -23 1048 56 0 1.59 78 18:54 25.03.2020
453 Clear -23 1048 56 0 1.59 78 18:36 25.03.2020
454 Clear -23 1048 56 0 1.59 78 18:18 25.03.2020
455 Clear -23 1048 56 0 1.59 78 17:41 25.03.2020
456 Clear -23 1048 56 0 1.59 78 17:22 25.03.2020
457 Clear -22 1048 55 0 1.53 82 17:22 25.03.2020
458 Clear -22 1046 60 0 1.77 74 16:59 25.03.2020
459 Clear -22 1046 60 0 1.77 74 16:39 25.03.2020
460 -273 0 0 0 0 0 16:21 25.03.2020
461 -273 0 0 0 0 0 16:21 25.03.2020
462 Clear -22 1046 60 0 1.83 76 16:21 25.03.2020
463 Clear -22 1046 60 0 1.77 74 15:43 25.03.2020
464 Clear -22 1046 60 0 1.77 74 15:21 25.03.2020
465 Clear -22 1046 60 0 1.77 74 14:59 25.03.2020
466 Clear -22 1046 60 0 1.77 74 14:40 25.03.2020
467 Clouds -21 1042 63 0 1.23 37 14:20 25.03.2020
468 Clouds -21 1042 63 0 1.23 37 13:45 25.03.2020
469 Clouds -21 1042 62 0 1.35 40 13:24 25.03.2020
470 Clouds -21 1042 62 0 1.35 40 12:40 25.03.2020
471 Clouds -21 1042 62 0 1.35 40 12:21 25.03.2020
472 Clouds -21 1042 62 0 1.35 40 11:59 25.03.2020
473 Clouds -21 1042 62 0 1.35 40 11:41 25.03.2020
474 Clouds -21 1042 62 0 1.35 40 11:21 25.03.2020
475 Clouds -21 1042 62 0 1.35 40 11:21 25.03.2020
476 Clouds -13 1037 67 0 4.9 325 10:58 25.03.2020
477 Clouds -13 1037 67 0 4.9 325 10:40 25.03.2020
478 Clouds -13 1037 67 0 4.9 325 10:40 25.03.2020
479 Clouds -13 1037 67 0 4.9 325 10:19 25.03.2020
480 Clouds -13 1037 67 0 4.9 325 09:56 25.03.2020
481 Clouds -13 1037 67 0 4.9 325 09:38 25.03.2020
482 Clouds -13 1037 67 0 4.9 325 09:20 25.03.2020
483 Clouds -13 1037 67 0 4.9 325 08:42 25.03.2020
484 Clouds -13 1037 67 0 4.9 325 08:42 25.03.2020
485 Clouds -13 1037 67 0 4.9 325 08:24 25.03.2020
486 Clear -13 1037 65 0 4.23 315 07:57 25.03.2020
487 Clear -13 1037 65 0 4.23 315 07:38 25.03.2020
488 Clear -13 1037 65 0 4.23 315 07:18 25.03.2020
489 Clear -13 1037 65 0 4.23 315 06:42 25.03.2020
490 Clear -13 1037 65 0 4.23 315 06:23 25.03.2020
491 Clear -13 1037 65 0 4.23 315 05:47 25.03.2020
492 Clear -16 1037 63 0 1.51 11 04:46 25.03.2020
493 Clear -16 1037 63 0 1.51 11 03:58 25.03.2020
494 Clear -16 1037 63 0 1.51 11 03:33 25.03.2020
495 Clear -22 1037 60 0 1.86 48 01:41 25.03.2020
496 Clouds -22 1037 59 0 1.89 51 00:51 25.03.2020
497 Clouds -22 1037 59 0 1.89 51 00:30 25.03.2020
498 Clouds -22 1037 59 0 1.89 51 23:58 24.03.2020
499 Clouds -22 1037 59 0 1.89 51 23:39 24.03.2020
500 Clouds -21 1034 62 0 1.82 53 23:19 24.03.2020
501 Clouds -21 1034 62 0 1.82 53 22:54 24.03.2020
502 Clouds -21 1034 62 0 1.82 53 22:36 24.03.2020
503 Clouds -21 1034 62 0 1.82 53 22:18 24.03.2020
504 Clouds -21 1034 62 0 1.82 53 21:42 24.03.2020
505 Clouds -21 1034 62 0 1.82 53 21:19 24.03.2020
506 Clouds -21 1034 62 0 1.82 53 20:59 24.03.2020
507 Clouds -21 1034 62 0 1.82 53 20:40 24.03.2020
508 Clouds -21 1034 62 0 1.82 53 20:22 24.03.2020
509 Clouds -20 1032 65 0 1.91 53 19:48 24.03.2020
510 Clouds -20 1032 65 0 1.91 53 19:22 24.03.2020
511 Clouds -20 1032 65 0 1.91 53 18:59 24.03.2020
512 Clouds -20 1032 65 0 1.91 53 18:39 24.03.2020
513 Clouds -20 1032 65 0 1.91 53 18:20 24.03.2020
514 Clouds -20 1032 65 0 1.91 53 17:58 24.03.2020
515 Clouds -20 1032 65 0 1.91 53 17:40 24.03.2020
516 Clouds -20 1032 65 0 1.91 53 17:40 24.03.2020
517 Clouds -20 1032 65 0 1.91 53 17:22 24.03.2020
518 Clouds -21 1029 92 0 2.07 97 16:57 24.03.2020
519 Clouds -21 1029 92 0 2.07 97 16:38 24.03.2020
520 Clouds -21 1029 92 0 2.07 97 16:20 24.03.2020
521 Clouds -21 1029 92 0 2.07 97 15:43 24.03.2020
522 Clouds -21 1029 92 0 2.07 97 15:25 24.03.2020
523 Clouds -21 1029 92 0 2.07 97 14:44 24.03.2020
524 Clouds -21 1029 92 0 2.07 97 14:44 24.03.2020
525 Clouds -18 1030 69 0 2.07 53 14:23 24.03.2020
526 Clouds -16 1026 72 0 1.79 357 13:59 24.03.2020
527 Clouds -16 1026 72 0 1.79 357 13:41 24.03.2020
528 Clouds -16 1026 72 0 1.79 357 13:41 24.03.2020
529 Clouds -16 1026 71 0 1.73 11 13:22 24.03.2020
530 Clouds -16 1026 71 0 1.73 11 12:43 24.03.2020
531 Clouds -16 1026 71 0 1.73 11 12:25 24.03.2020
532 Clouds -16 1026 71 0 1.73 11 11:56 24.03.2020
533 Clouds -16 1026 71 0 1.73 11 11:37 24.03.2020
534 Snow -12 1021 75 0 5.91 301 11:18 24.03.2020
535 Snow -12 1021 75 0 5.91 301 10:41 24.03.2020
536 Snow -12 1021 75 0 5.91 301 10:19 24.03.2020
537 Snow -12 1021 75 0 5.91 301 10:19 24.03.2020
538 Snow -12 1021 75 0 5.91 301 09:47 24.03.2020
539 Snow -12 1021 75 0 5.91 301 09:27 24.03.2020
540 Snow -12 1021 75 0 5.91 301 08:58 24.03.2020
541 Snow -12 1021 75 0 5.91 301 08:38 24.03.2020
542 Snow -12 1021 83 0 6.45 277 08:20 24.03.2020
543 Snow -12 1021 83 0 6.45 277 07:44 24.03.2020
544 Snow -12 1021 83 0 6.45 277 07:22 24.03.2020
545 Snow -12 1021 83 0 6.45 277 06:42 24.03.2020
546 Snow -12 1021 83 0 6.45 277 06:21 24.03.2020
547 Snow -12 1020 94 0 7.89 271 04:52 24.03.2020
548 Snow -12 1020 94 0 7.89 271 03:41 24.03.2020
549 Snow -12 1020 94 0 7.89 271 02:44 24.03.2020
550 Clouds -13 1013 75 0 5.32 249 00:57 24.03.2020
551 Clouds -13 1013 75 0 5.32 249 00:28 24.03.2020
552 Clouds -13 1013 75 0 5.32 249 23:59 23.03.2020
553 Clouds -13 1013 75 0 5.32 249 23:38 23.03.2020
554 Clouds -4 1007 79 0 6.09 207 23:19 23.03.2020
555 Clouds -4 1007 79 0 6.09 207 22:45 23.03.2020
556 Clouds -4 1007 79 0 6.09 207 22:23 23.03.2020
557 Clouds -4 1007 79 0 6.09 207 21:55 23.03.2020
558 Clouds -4 1007 79 0 6.09 207 21:37 23.03.2020
559 Clouds -4 1007 79 0 6.09 207 21:19 23.03.2020
560 Clouds -4 1007 79 0 6.09 207 20:55 23.03.2020
561 Clouds -4 1007 79 0 6.09 207 20:36 23.03.2020
562 Clouds -6 1009 72 0 3.47 181 20:18 23.03.2020
563 Clouds -6 1009 72 0 3.47 181 20:18 23.03.2020
564 Clouds -6 1009 72 0 3.47 181 19:41 23.03.2020
565 Clouds -6 1009 72 0 3.47 181 19:22 23.03.2020
566 Clouds -6 1009 72 0 3.47 181 18:56 23.03.2020
567 Clouds -6 1009 72 0 3.47 181 18:38 23.03.2020
568 Clouds -6 1009 72 0 3.47 181 18:18 23.03.2020
569 Clouds -6 1009 72 0 3.47 181 17:41 23.03.2020
570 Clouds -4 1010 65 0 3.69 139 17:20 23.03.2020
571 Clouds -4 1010 65 0 3.69 139 16:55 23.03.2020
572 Clouds -4 1010 65 0 3.69 139 16:36 23.03.2020
573 Clouds -4 1010 65 0 3.69 139 16:18 23.03.2020
574 Clouds -4 1010 65 0 3.69 139 15:40 23.03.2020
575 Clouds -4 1010 65 0 3.69 139 15:19 23.03.2020
576 Clouds -4 1010 65 0 3.69 139 14:38 23.03.2020
577 Clouds -3 1011 65 0 2.51 150 14:19 23.03.2020
578 Clouds -3 1011 65 0 2.51 150 13:57 23.03.2020
579 Clouds -3 1011 65 0 2.51 150 13:39 23.03.2020
580 Clouds -3 1011 65 0 2.51 150 13:20 23.03.2020
581 Clouds -3 1011 66 0 2.56 146 12:44 23.03.2020
582 Clouds -3 1011 66 0 2.56 146 12:25 23.03.2020
583 Clouds -3 1011 66 0 2.56 146 11:57 23.03.2020
584 Clouds -3 1011 66 0 2.56 146 11:38 23.03.2020
585 Clouds 0 1010 91 0 0.81 231 11:19 23.03.2020
586 Clouds 0 1010 91 0 0.81 231 10:56 23.03.2020
587 Clouds 0 1010 91 0 0.81 231 10:37 23.03.2020
588 Clouds 0 1010 91 0 0.81 231 10:19 23.03.2020
589 Clouds 0 1010 91 0 0.81 231 09:43 23.03.2020
590 Clouds 0 1010 91 0 0.81 231 09:21 23.03.2020
591 Clouds 0 1010 91 0 0.81 231 08:40 23.03.2020
592 Clouds 0 1013 83 0 0.52 237 08:20 23.03.2020
593 Clouds 0 1013 83 0 0.52 237 07:59 23.03.2020
594 Clouds 0 1013 83 0 0.52 237 07:59 23.03.2020
595 Clouds 0 1013 83 0 0.52 237 07:40 23.03.2020
596 Clouds 0 1013 83 0 0.52 237 07:19 23.03.2020
597 Clouds 0 1013 83 0 0.52 237 06:48 23.03.2020
598 Clouds 0 1013 83 0 0.52 237 05:50 23.03.2020
599 Clouds -1 1016 68 0 0.99 182 04:57 23.03.2020
600 Clouds -1 1016 68 0 0.99 182 03:24 23.03.2020
601 Clouds -6 1019 61 0 2.06 138 01:50 23.03.2020
602 Clouds -6 1019 63 0 2.36 137 00:52 23.03.2020
603 Clouds -6 1019 63 0 2.36 137 00:33 23.03.2020
604 Clouds -6 1019 63 0 2.36 137 23:46 22.03.2020
605 Clouds -6 1019 63 0 2.36 137 23:25 22.03.2020
606 Clear -6 1018 65 0 3.19 136 22:45 22.03.2020
607 Clear -6 1018 65 0 3.19 136 22:23 22.03.2020
608 Clear -6 1018 65 0 3.19 136 21:55 22.03.2020
609 Clear -6 1018 65 0 3.19 136 21:37 22.03.2020
610 Clear -6 1018 65 0 3.19 136 21:19 22.03.2020
611 Clear -6 1018 65 0 3.19 136 20:46 22.03.2020
612 Clear -6 1018 65 0 3.19 136 20:25 22.03.2020
613 Clear -6 1019 61 0 3.7 133 19:58 22.03.2020
614 Clear -6 1019 61 0 3.7 133 19:40 22.03.2020
615 Clear -6 1019 61 0 3.7 133 19:20 22.03.2020
616 Clear -6 1019 61 0 3.7 133 18:59 22.03.2020
617 Clear -6 1019 61 0 3.7 133 18:41 22.03.2020
618 Clear -6 1019 61 0 3.7 133 18:22 22.03.2020
619 Clear -6 1019 61 0 3.7 133 17:58 22.03.2020
620 Clear -6 1019 61 0 3.7 133 17:38 22.03.2020
621 Clear -6 1019 56 0 3.93 129 17:20 22.03.2020
622 Clear -6 1019 56 0 3.93 129 16:57 22.03.2020
623 Clear -6 1019 56 0 3.93 129 16:39 22.03.2020
624 Clear -6 1019 56 0 3.93 129 16:21 22.03.2020
625 Clear -6 1019 56 0 3.93 129 16:21 22.03.2020
626 Clear -6 1019 56 0 3.93 129 15:44 22.03.2020
627 Clear -6 1019 56 0 3.93 129 15:26 22.03.2020
628 Clear -6 1019 56 0 3.93 129 14:46 22.03.2020
629 Clear -5 1017 48 0 3.51 128 14:19 22.03.2020
630 Clear -5 1017 48 0 3.51 128 13:45 22.03.2020
631 Clear -5 1017 50 0 3.5 128 13:21 22.03.2020
632 Clear -5 1017 50 0 3.5 128 12:59 22.03.2020
633 Clear -5 1017 50 0 3.5 128 12:41 22.03.2020
634 Clear -5 1017 50 0 3.5 128 12:19 22.03.2020
635 Clear -5 1017 50 0 3.5 128 11:44 22.03.2020
636 Clear -5 1017 50 0 3.5 128 11:25 22.03.2020
637 Clear 1 1014 69 0 2.32 138 10:58 22.03.2020
638 Clear 1 1014 69 0 2.32 138 10:40 22.03.2020
639 Clear 1 1014 69 0 2.32 138 10:22 22.03.2020
640 Clear 1 1014 69 0 2.32 138 09:47 22.03.2020
641 Clear 1 1014 69 0 2.32 138 09:28 22.03.2020
642 Clear 1 1014 69 0 2.32 138 08:51 22.03.2020
643 Clear 1 1014 69 0 2.32 138 08:33 22.03.2020
644 Clear 1 1014 69 0 2.32 138 08:33 22.03.2020
645 Clear 1 1016 91 0 1.95 141 07:56 22.03.2020
646 Clear 1 1016 91 0 1.95 141 07:38 22.03.2020
647 Clear 1 1016 91 0 1.95 141 06:48 22.03.2020
648 Clear 1 1016 91 0 1.95 141 05:52 22.03.2020
649 Clear -2 1020 64 0 2.68 133 04:39 22.03.2020
650 Clear -8 1022 39 0 3.26 122 01:47 22.03.2020
651 Clear -8 1022 40 0 3.28 122 00:50 22.03.2020
652 Clear -8 1022 40 0 3.28 122 00:31 22.03.2020
653 Clear -8 1022 40 0 3.28 122 23:46 21.03.2020
654 Clear -8 1022 40 0 3.28 122 23:22 21.03.2020
655 Clear -8 1021 36 0 3.1 123 22:59 21.03.2020
656 Clear -8 1021 36 0 3.1 123 22:38 21.03.2020
657 Clear -8 1021 36 0 3.1 123 22:20 21.03.2020
658 Clear -8 1021 36 0 3.1 123 21:58 21.03.2020
659 Clear -8 1021 36 0 3.1 123 21:38 21.03.2020
660 Clear -8 1021 36 0 3.1 123 21:19 21.03.2020
661 Clear -8 1021 36 0 3.1 123 20:42 21.03.2020
662 Clear -8 1022 38 0 3.18 122 20:22 21.03.2020
663 Clear -8 1022 38 0 3.18 120 19:55 21.03.2020
664 Clear -8 1022 38 0 3.18 120 19:36 21.03.2020
665 Clear -8 1022 38 0 3.18 120 19:18 21.03.2020
666 Clear -8 1022 38 0 3.18 120 18:41 21.03.2020
667 Clear -8 1022 38 0 3.18 120 18:21 21.03.2020
668 Clear -8 1022 38 0 3.18 120 17:58 21.03.2020
669 Clear -8 1022 38 0 3.18 120 17:40 21.03.2020
670 Clear -8 1022 38 0 3.18 120 17:22 21.03.2020
671 Clear -8 1022 38 0 3.18 120 17:22 21.03.2020
672 Clear -8 1021 41 0 3.06 120 16:42 21.03.2020
673 Clear -8 1021 41 0 3.06 120 16:23 21.03.2020
674 Clear -8 1021 41 0 3.06 120 15:59 21.03.2020
675 Clear -8 1021 41 0 3.06 120 15:40 21.03.2020
676 Clear -8 1021 41 0 3.06 120 15:40 21.03.2020
677 Clear -8 1021 41 0 3.06 120 15:21 21.03.2020
678 Clear -8 1021 41 0 3.06 120 14:56 21.03.2020
679 Clear -8 1021 41 0 3.06 120 14:37 21.03.2020
680 Clear -7 1019 58 0 2.52 120 14:19 21.03.2020
681 Clear -7 1019 58 0 2.52 120 13:57 21.03.2020
682 Clear -7 1019 58 0 2.52 120 13:38 21.03.2020
683 Clear -6 1019 56 0 2.65 121 13:20 21.03.2020
684 Clear -6 1019 56 0 2.65 121 12:54 21.03.2020
685 Clear -6 1019 56 0 2.65 121 12:36 21.03.2020
686 Clear -6 1019 56 0 2.65 121 12:18 21.03.2020
687 Clear -6 1019 56 0 2.65 121 11:54 21.03.2020
688 Clear -6 1019 56 0 2.65 121 11:36 21.03.2020
689 Clear 0 1016 79 0 0.46 111 11:18 21.03.2020
690 Clear 0 1016 79 0 0.46 111 10:55 21.03.2020
691 Clear 0 1016 79 0 0.46 111 10:37 21.03.2020
692 Clear 0 1016 79 0 0.46 111 10:18 21.03.2020
693 Clear 0 1016 79 0 0.46 111 09:39 21.03.2020
694 Clear 0 1016 79 0 0.46 111 09:21 21.03.2020
695 Clear 0 1016 79 0 0.46 111 08:56 21.03.2020
696 Clear 0 1016 79 0 0.46 111 08:38 21.03.2020
697 Clear -1 1018 57 0 0.56 179 08:19 21.03.2020
698 Clear -1 1018 57 0 0.56 179 07:39 21.03.2020
699 Clear -1 1018 57 0 0.56 179 07:20 21.03.2020
700 Clear -1 1018 57 0 0.56 179 06:44 21.03.2020
701 Clear -1 1018 57 0 0.56 179 06:25 21.03.2020
702 Clear -1 1018 57 0 0.56 179 05:40 21.03.2020
703 Clear -4 1021 63 0 1.97 117 04:26 21.03.2020
704 Clear -4 1021 63 0 1.97 117 02:37 21.03.2020
705 Clear -11 1024 47 0 2.49 114 01:45 21.03.2020
706 Clear -12 1024 46 0 2.52 115 01:25 21.03.2020
707 Clear -12 1024 46 0 2.52 115 00:39 21.03.2020
708 Clear -12 1024 46 0 2.52 115 00:21 21.03.2020
709 Clear -12 1024 46 0 2.52 115 23:43 20.03.2020
710 Clear -12 1024 46 0 2.52 115 23:22 20.03.2020
711 Clear -12 1023 52 0 2.1 117 22:44 20.03.2020
712 Clear -12 1023 52 0 2.1 117 22:25 20.03.2020
713 Clear -12 1023 52 0 2.1 117 21:58 20.03.2020
714 Clear -12 1023 52 0 2.1 117 21:40 20.03.2020
715 Clear -12 1023 52 0 2.1 117 21:20 20.03.2020
716 Clear -12 1023 52 0 2.1 117 20:58 20.03.2020
717 Clear -12 1023 52 0 2.1 117 20:40 20.03.2020
718 Clear -12 1022 58 0 1.75 115 20:20 20.03.2020
719 Clear -13 1023 51 0 1.83 120 19:48 20.03.2020
720 Clear -13 1023 51 0 1.83 120 19:21 20.03.2020
721 Clear -13 1023 51 0 1.83 120 18:58 20.03.2020
722 Clear -13 1023 51 0 1.83 120 18:38 20.03.2020
723 Clear -13 1023 51 0 1.83 120 18:20 20.03.2020
724 Clear -13 1023 51 0 1.83 120 17:56 20.03.2020
725 Clear -13 1023 51 0 1.83 120 17:37 20.03.2020
726 Clear -12 1022 71 0 1.95 117 17:19 20.03.2020
727 Clear -12 1022 71 0 1.95 117 16:42 20.03.2020
728 Clear -12 1022 71 0 1.95 117 16:21 20.03.2020
729 Clear -12 1022 71 0 1.95 117 15:55 20.03.2020
730 Clear -12 1022 71 0 1.95 117 15:37 20.03.2020
731 Clear -12 1022 71 0 1.95 117 15:18 20.03.2020
732 Clear -12 1022 71 0 1.95 117 14:42 20.03.2020
733 Clear -12 1022 71 0 1.95 117 14:21 20.03.2020
734 Clouds -12 1019 97 0 0.94 109 13:49 20.03.2020
735 Clouds -12 1018 96 0 0.95 104 13:25 20.03.2020
736 Clouds -12 1018 96 0 0.95 104 12:58 20.03.2020
737 Clouds -12 1018 96 0 0.95 104 12:38 20.03.2020
738 Clouds -12 1018 96 0 0.95 104 12:20 20.03.2020
739 Clouds -12 1018 96 0 0.95 104 11:39 20.03.2020
740 Clouds -12 1018 96 0 0.95 104 11:21 20.03.2020
741 Clouds -5 1015 85 0 1.64 281 10:56 20.03.2020
742 Clouds -5 1015 85 0 1.64 281 10:38 20.03.2020
743 Clouds -5 1015 85 0 1.64 281 10:18 20.03.2020
744 Clouds -5 1015 85 0 1.64 281 10:18 20.03.2020
745 Clouds -5 1015 85 0 1.64 281 10:18 20.03.2020
746 Clouds -5 1015 85 0 1.64 281 09:45 20.03.2020
747 Clouds -5 1015 85 0 1.64 281 09:21 20.03.2020
748 Clouds -5 1015 85 0 1.64 281 08:57 20.03.2020
749 Clouds -5 1015 85 0 1.64 281 08:38 20.03.2020
750 Clouds -5 1016 85 0 2.14 289 08:18 20.03.2020
751 Clouds -5 1016 85 0 2.14 289 07:41 20.03.2020
752 Clouds -5 1016 85 0 2.14 289 07:23 20.03.2020
753 Clouds -5 1016 85 0 2.14 289 06:42 20.03.2020
754 Clouds -5 1016 85 0 2.14 289 06:18 20.03.2020
755 Snow -7 1018 91 0 1.27 325 04:39 20.03.2020
756 Snow -7 1018 91 0 1.27 325 02:51 20.03.2020
757 Snow -10 1016 96 0 0.16 10 01:50 20.03.2020
758 Snow -12 1016 97 0 1.3 277 00:45 20.03.2020
759 Snow -12 1016 97 0 1.3 277 00:23 20.03.2020
760 Snow -12 1016 97 0 1.3 277 23:42 19.03.2020
761 Snow -12 1016 97 0 1.3 277 23:23 19.03.2020
762 Snow -8 1013 95 0 1.99 310 22:41 19.03.2020
763 Snow -8 1013 95 0 1.99 310 22:23 19.03.2020
764 Snow -8 1013 95 0 1.99 310 21:58 19.03.2020
765 Snow -8 1013 95 0 1.99 310 21:38 19.03.2020
766 Snow -8 1013 95 0 1.99 310 21:20 19.03.2020
767 Snow -8 1013 95 0 1.99 310 20:54 19.03.2020
768 Snow -8 1013 95 0 1.99 310 20:36 19.03.2020
769 Clouds -8 1013 75 0 3.45 114 20:18 19.03.2020
770 Clouds -8 1013 75 0 3.45 114 19:39 19.03.2020
771 Clouds -8 1013 75 0 3.45 114 19:21 19.03.2020
772 Clouds -8 1013 75 0 3.45 114 18:59 19.03.2020
773 Clouds -8 1013 75 0 3.45 114 18:41 19.03.2020
774 Clouds -8 1013 75 0 3.45 114 18:22 19.03.2020
775 Clouds -8 1013 75 0 3.45 114 17:55 19.03.2020
776 Clouds -8 1013 75 0 3.45 114 17:37 19.03.2020
777 Clouds -11 1015 48 0 2.79 118 17:18 19.03.2020
778 Clouds -11 1015 48 0 2.79 118 16:42 19.03.2020
779 Clouds -11 1015 48 0 2.79 118 16:21 19.03.2020
780 Clouds -11 1015 48 0 2.79 118 15:44 19.03.2020
781 Clouds -11 1015 48 0 2.79 118 15:24 19.03.2020
782 Clouds -11 1015 48 0 2.79 118 14:43 19.03.2020
783 Clouds -11 1015 48 0 2.79 118 14:23 19.03.2020
784 Clouds -10 1015 79 0 1.68 126 13:59 19.03.2020
785 Clouds -10 1015 79 0 1.68 126 13:38 19.03.2020
786 Clouds -9 1014 81 0 1.3 127 13:18 19.03.2020
787 Clouds -9 1014 81 0 1.3 127 12:42 19.03.2020
788 Clouds -9 1014 81 0 1.3 127 12:24 19.03.2020
789 Clouds -9 1014 81 0 1.3 127 11:58 19.03.2020
790 Clouds -9 1014 81 0 1.3 127 11:40 19.03.2020
791 Clouds -9 1014 81 0 1.3 127 11:22 19.03.2020
792 Clouds -3 1012 75 0 0.85 301 10:43 19.03.2020
793 Clouds -3 1012 75 0 0.85 301 10:22 19.03.2020
794 Clouds -3 1012 75 0 0.85 301 09:58 19.03.2020
795 Clouds -3 1012 75 0 0.85 301 09:39 19.03.2020
796 Clouds -3 1012 75 0 0.85 301 09:19 19.03.2020
797 Clouds -3 1012 75 0 0.85 301 08:46 19.03.2020
798 Clouds -3 1012 75 0 0.85 301 08:22 19.03.2020
799 Clouds -3 1013 84 0 2.51 290 07:47 19.03.2020
800 Clouds -3 1013 84 0 2.51 290 07:29 19.03.2020
801 Clouds -3 1013 84 0 2.51 290 06:51 19.03.2020
802 Clouds -3 1013 84 0 2.51 290 05:52 19.03.2020
803 Snow -4 1015 87 0 2.11 257 05:19 19.03.2020
804 Snow -4 1015 87 0 2.11 257 04:40 19.03.2020
805 Snow -4 1015 87 0 2.11 257 03:20 19.03.2020
806 Clouds -5 1015 68 0 1.36 227 01:27 19.03.2020
807 Clouds -6 1016 65 0 0.92 209 00:37 19.03.2020
808 Clouds -6 1016 65 0 0.92 209 23:58 18.03.2020
809 Clouds -6 1016 65 0 0.92 209 23:36 18.03.2020
810 Clear -7 1013 54 0 1.64 198 23:18 18.03.2020
811 Clear -7 1013 54 0 1.64 198 22:42 18.03.2020
812 Clear -7 1013 54 0 1.64 198 22:22 18.03.2020
813 Clear -7 1013 54 0 1.64 198 21:54 18.03.2020
814 Clear -7 1013 54 0 1.64 198 21:36 18.03.2020
815 Clear -7 1013 54 0 1.64 198 21:18 18.03.2020
816 Clear -7 1013 54 0 1.64 198 20:41 18.03.2020
817 Clouds -7 1013 53 0 1.52 203 20:21 18.03.2020
818 Clouds -4 1013 51 0 2.28 163 19:58 18.03.2020
819 Clouds -4 1013 51 0 2.28 163 19:40 18.03.2020
820 Clouds -4 1013 51 0 2.28 163 19:21 18.03.2020
821 Clouds -4 1013 51 0 2.28 163 19:21 18.03.2020
822 Clouds -4 1013 51 0 2.28 163 18:54 18.03.2020
823 Clouds -4 1013 51 0 2.28 163 18:36 18.03.2020
824 Clouds -4 1013 51 0 2.28 163 18:18 18.03.2020
825 Clouds -4 1013 51 0 2.28 163 17:41 18.03.2020
826 Clouds -4 1013 51 0 2.28 163 17:22 18.03.2020
827 Clouds -5 1014 51 0 1.87 152 16:59 18.03.2020
828 Clouds -5 1014 51 0 1.87 152 16:40 18.03.2020
829 Clouds -5 1014 51 0 1.87 152 16:20 18.03.2020
830 Clouds -5 1014 51 0 1.87 152 15:46 18.03.2020
831 Clouds -5 1014 51 0 1.87 152 15:27 18.03.2020
832 Clouds -5 1014 51 0 1.87 152 14:58 18.03.2020
833 Clouds -5 1014 51 0 1.87 152 14:40 18.03.2020
834 Clouds -5 1014 51 0 1.87 152 14:21 18.03.2020
835 Clouds -5 1015 59 0 2.18 153 13:40 18.03.2020
836 Clouds -5 1015 59 0 2.18 153 13:19 18.03.2020
837 Clouds -5 1015 59 0 2.18 153 13:19 18.03.2020
838 Clouds -5 1014 60 0 2.05 147 12:42 18.03.2020
839 Clouds -5 1014 60 0 2.05 147 12:21 18.03.2020
840 Clouds -5 1014 60 0 2.05 147 12:21 18.03.2020
841 Clouds -5 1014 60 0 2.05 147 11:58 18.03.2020
842 Clouds -5 1014 60 0 2.05 147 11:37 18.03.2020
843 Clouds 0 1013 79 0 1.76 152 11:18 18.03.2020
844 Clouds 0 1013 79 0 1.76 152 10:55 18.03.2020
845 Clouds 0 1013 79 0 1.76 152 10:36 18.03.2020
846 Clouds 0 1013 79 0 1.76 152 10:18 18.03.2020
847 Clouds 0 1013 79 0 1.76 152 09:41 18.03.2020
848 Clouds 0 1013 79 0 1.76 152 09:22 18.03.2020
849 Clouds 0 1013 79 0 1.76 152 08:40 18.03.2020
850 Clouds 0 1013 79 0 1.76 152 08:22 18.03.2020
851 Clouds 0 1017 73 0 1.42 154 07:59 18.03.2020
852 Clouds 0 1017 73 0 1.42 154 07:37 18.03.2020
853 Clouds 0 1017 73 0 1.42 154 07:19 18.03.2020
854 Clouds 0 1017 73 0 1.42 154 06:39 18.03.2020
855 Clouds 0 1017 73 0 1.42 154 05:37 18.03.2020
856 Clear -4 1023 50 0 1.62 149 04:38 18.03.2020
857 Clear -4 1023 50 0 1.62 149 03:21 18.03.2020
858 Clear -4 1023 50 0 1.62 149 02:37 18.03.2020
859 Clouds -11 1027 25 0 2.23 126 01:43 18.03.2020
860 Clear -11 1027 26 0 2.27 130 00:45 18.03.2020
861 Clear -11 1027 26 0 2.27 130 00:21 18.03.2020
862 Clear -11 1027 26 0 2.27 130 23:42 17.03.2020
863 Clear -11 1027 26 0 2.27 130 23:21 17.03.2020
864 Clear -11 1027 56 0 2.16 96 22:45 17.03.2020
865 Clear -11 1026 59 0 1.62 105 22:26 17.03.2020
866 Clear -11 1026 59 0 1.62 105 21:44 17.03.2020
867 Clear -11 1026 59 0 1.62 105 21:25 17.03.2020
868 Clear -11 1027 56 0 2.16 96 20:58 17.03.2020
869 Clear -11 1027 56 0 2.16 96 20:38 17.03.2020
870 Clear -11 1026 58 0 1.83 86 20:19 17.03.2020
871 Clear -11 1026 58 0 1.83 86 19:42 17.03.2020
872 Clear -11 1026 58 0 1.83 86 19:20 17.03.2020
873 Clear -11 1026 58 0 1.83 86 18:57 17.03.2020
874 Clear -11 1026 58 0 1.83 86 18:39 17.03.2020
875 Clear -11 1026 58 0 1.83 86 18:21 17.03.2020
876 Clear -11 1026 58 0 1.83 86 17:56 17.03.2020
877 Clear -11 1026 58 0 1.83 86 17:37 17.03.2020
878 Clear -10 1024 53 0 1.56 69 17:18 17.03.2020
879 Clear -10 1024 53 0 1.56 69 16:41 17.03.2020
880 Clear -10 1024 53 0 1.56 69 16:19 17.03.2020
881 Clear -10 1024 53 0 1.56 69 15:45 17.03.2020
882 Clear -10 1024 53 0 1.56 69 15:22 17.03.2020
883 Clear -10 1024 53 0 1.56 69 14:44 17.03.2020
884 Clear -10 1024 53 0 1.56 69 14:26 17.03.2020
885 Clear -9 1021 52 0 0.69 230 13:58 17.03.2020
886 Clear -9 1021 52 0 0.69 230 13:39 17.03.2020
887 Clear -9 1021 52 0 0.69 230 13:21 17.03.2020
888 Clear -9 1021 52 0 0.52 237 12:44 17.03.2020
889 Clear -9 1021 52 0 0.52 237 12:24 17.03.2020
890 Clear -9 1021 52 0 0.52 237 11:55 17.03.2020
891 Clear -9 1021 54 0 0.23 220 11:37 17.03.2020
892 Clear -2 1016 71 0 1.91 257 11:19 17.03.2020
893 Clear -1 1016 71 0 1.86 253 10:54 17.03.2020
894 Clear -1 1016 71 0 1.86 253 10:36 17.03.2020
895 Clear -1 1016 71 0 1.86 253 10:18 17.03.2020
896 Clear -2 1016 71 0 1.91 257 09:44 17.03.2020
897 Clear -1 1016 71 0 1.86 253 09:20 17.03.2020
898 Clear -1 1016 71 0 1.86 253 08:51 17.03.2020
899 Clear -2 1016 71 0 1.91 257 08:24 17.03.2020
900 Clouds 0 1017 66 0 1.93 244 07:58 17.03.2020
901 Clouds 0 1017 66 0 1.93 244 07:39 17.03.2020
902 Clouds 0 1017 66 0 1.93 244 07:19 17.03.2020
903 Clouds 0 1017 66 0 1.93 244 06:40 17.03.2020
904 Clouds 0 1017 66 0 1.93 244 06:19 17.03.2020
905 Clouds -1 1020 60 0 0.92 227 04:40 17.03.2020
906 Clouds -1 1020 60 0 0.92 227 03:19 17.03.2020
907 Clouds -7 1022 30 0 1.2 144 01:49 17.03.2020
908 Clouds -7 1022 30 0 1.2 144 01:28 17.03.2020
909 Clouds -7 1022 30 0 1.34 135 00:48 17.03.2020
910 Clouds -7 1022 30 0 1.34 135 23:51 16.03.2020
911 Clouds -7 1022 30 0 1.34 135 23:32 16.03.2020
912 Clouds -8 1022 27 0 1.64 139 22:43 16.03.2020
913 Clouds -8 1022 27 0 1.64 139 22:25 16.03.2020
914 Clouds -8 1022 27 0 1.64 139 21:59 16.03.2020
915 Clouds -8 1022 27 0 1.64 139 21:40 16.03.2020
916 Clouds -8 1022 27 0 1.64 139 21:22 16.03.2020
917 Clouds -8 1022 27 0 1.64 139 20:56 16.03.2020
918 Clouds -8 1022 27 0 1.64 139 20:38 16.03.2020
919 Clouds -7 1022 33 0 2.72 134 20:19 16.03.2020
920 Clouds -7 1022 33 0 2.72 134 19:41 16.03.2020
921 Clouds -7 1022 33 0 2.72 134 19:21 16.03.2020
922 Clouds -7 1022 33 0 2.72 134 18:56 16.03.2020
923 Clouds -7 1022 33 0 2.72 134 18:37 16.03.2020
924 Clouds -7 1022 33 0 2.72 134 18:18 16.03.2020
925 Clouds -7 1022 33 0 2.72 134 17:42 16.03.2020
926 Clouds -7 1022 33 0 2.72 134 17:22 16.03.2020
927 Clouds -6 1023 37 0 3.02 136 16:46 16.03.2020
928 Clouds -6 1023 37 0 3.02 136 16:27 16.03.2020
929 Clouds -6 1023 37 0 3.02 136 15:56 16.03.2020
930 Clouds -6 1023 37 0 3.02 136 15:37 16.03.2020
931 Clouds -6 1023 37 0 3.02 136 15:18 16.03.2020
932 Clouds -6 1023 37 0 3.02 136 14:39 16.03.2020
933 Clouds -5 1022 42 0 3.16 136 14:19 16.03.2020
934 Clouds -5 1022 42 0 3.16 136 13:41 16.03.2020
935 Clouds -5 1022 42 0 3.16 136 13:22 16.03.2020
936 Clouds -5 1021 42 0 3.15 137 12:45 16.03.2020
937 Clouds -5 1021 42 0 3.15 137 12:26 16.03.2020
938 Clouds -5 1021 42 0 3.15 137 11:56 16.03.2020
939 Clouds -5 1021 42 0 3.15 137 11:37 16.03.2020
940 Clouds 1 1020 73 0 1.78 159 11:18 16.03.2020
941 Clouds 1 1020 73 0 1.78 159 10:40 16.03.2020
942 Clouds 1 1020 73 0 1.78 159 10:19 16.03.2020
943 Clouds 1 1020 73 0 1.78 159 09:42 16.03.2020
944 Clouds 1 1020 73 0 1.78 159 09:24 16.03.2020
945 Clouds 1 1020 73 0 1.78 159 08:53 16.03.2020
946 Clouds 1 1020 73 0 1.78 159 08:25 16.03.2020
947 Clouds 0 1023 91 0 1.12 163 07:49 16.03.2020
948 Clouds 0 1023 91 0 1.12 163 07:27 16.03.2020
949 Clouds 0 1023 91 0 1.12 163 06:54 16.03.2020
950 Clouds 0 1023 91 0 1.12 163 06:25 16.03.2020
951 Clouds 0 1023 91 0 1.12 163 05:42 16.03.2020
952 Clouds -3 1027 64 0 2.01 130 02:44 16.03.2020
953 Clouds -10 1031 31 0 2.26 121 01:20 16.03.2020
954 Clouds -10 1031 31 0 2.26 121 00:39 16.03.2020
955 Clouds -10 1031 31 0 2.26 121 00:39 16.03.2020
956 Clouds -10 1031 31 0 2.26 121 23:47 15.03.2020
957 Clear -10 1029 36 0 1.32 132 23:20 15.03.2020
958 Clear -10 1029 36 0 1.32 132 22:43 15.03.2020
959 Clear -10 1029 36 0 1.32 132 22:23 15.03.2020
960 Clear -10 1029 36 0 1.32 132 21:58 15.03.2020
961 Clear -10 1029 36 0 1.32 132 21:38 15.03.2020
962 Clear -10 1029 36 0 1.32 132 21:18 15.03.2020
963 Clear -10 1029 36 0 1.32 132 20:42 15.03.2020
964 Clear -10 1029 33 0 1.44 129 20:21 15.03.2020
965 Clear -10 1029 36 0 1.55 122 19:58 15.03.2020
966 Clear -10 1029 36 0 1.55 122 19:39 15.03.2020
967 Clear -10 1029 36 0 1.55 122 19:39 15.03.2020
968 Clear -10 1029 36 0 1.55 122 19:20 15.03.2020
969 Clear -10 1029 36 0 1.55 122 19:20 15.03.2020
970 Clear -10 1029 36 0 1.55 122 18:55 15.03.2020
971 Clear -10 1029 36 0 1.55 122 18:37 15.03.2020
972 Clear -10 1029 36 0 1.55 122 18:19 15.03.2020
973 Clear -10 1029 36 0 1.55 122 17:41 15.03.2020
974 Clear -10 1029 36 0 1.55 122 17:21 15.03.2020
975 Clear -10 1029 43 0 1.9 115 16:58 15.03.2020
976 Clear -10 1029 43 0 1.9 115 16:39 15.03.2020
977 Clear -10 1029 43 0 1.9 115 16:21 15.03.2020
978 Clear -10 1029 43 0 1.9 115 15:46 15.03.2020
979 Clear -10 1029 43 0 1.9 115 15:28 15.03.2020
980 Clear -10 1029 43 0 1.9 115 14:58 15.03.2020
981 Clear -10 1029 43 0 1.9 115 14:38 15.03.2020
982 Clear -10 1027 53 0 1.12 143 14:19 15.03.2020
983 Clear -10 1027 53 0 1.12 143 13:55 15.03.2020
984 Clear -10 1027 53 0 1.12 143 13:36 15.03.2020
985 Clear -10 1027 53 0 1.12 143 13:18 15.03.2020
986 Clear -10 1027 54 0 1.14 129 12:40 15.03.2020
987 Clear -10 1027 54 0 1.14 129 12:21 15.03.2020
988 Clear -10 1027 54 0 1.14 129 12:21 15.03.2020
989 Clear -10 1027 54 0 1.14 129 11:43 15.03.2020
990 Clear -10 1027 54 0 1.14 129 11:24 15.03.2020
991 Clear -2 1023 72 0 0.76 270 10:57 15.03.2020
992 Clear -2 1023 72 0 0.76 270 10:39 15.03.2020
993 Clear -2 1023 72 0 0.76 270 10:39 15.03.2020
994 Clear -2 1023 72 0 0.76 270 10:21 15.03.2020
995 Clear -2 1023 72 0 0.76 270 09:44 15.03.2020
996 Clear -2 1023 72 0 0.76 270 09:25 15.03.2020
997 Clear -2 1023 72 0 0.76 270 08:58 15.03.2020
998 Clear -2 1023 72 0 0.76 270 08:40 15.03.2020
999 Clear -2 1023 72 0 0.76 270 08:40 15.03.2020
1000 Clear -2 1025 49 0 1.27 295 08:18 15.03.2020
1001 Clear -3 1025 50 0 1.37 280 07:44 15.03.2020
1002 Clear -3 1025 50 0 1.37 280 06:59 15.03.2020
1003 Clear -3 1025 50 0 1.37 280 06:35 15.03.2020
1004 Clear -3 1025 50 0 1.37 280 05:46 15.03.2020
1005 Clear -5 1028 55 0 0.26 61 04:49 15.03.2020
1006 Clear -5 1028 55 0 0.26 61 04:29 15.03.2020
1007 Clear -5 1028 55 0 0.26 61 03:55 15.03.2020
1008 Clear -5 1028 55 0 0.26 61 02:48 15.03.2020
1009 Clear -12 1029 43 0 1.51 133 01:56 15.03.2020
1010 Clear -12 1029 42 0 1.49 137 00:53 15.03.2020
1011 Clear -12 1029 42 0 1.49 137 00:28 15.03.2020
1012 Clear -12 1029 42 0 1.49 137 23:58 14.03.2020
1013 Clear -12 1029 42 0 1.49 137 23:37 14.03.2020
1014 Clear -12 1027 42 0 1.27 153 23:19 14.03.2020
1015 Clear -12 1027 42 0 1.27 153 22:46 14.03.2020
1016 Clear -12 1027 42 0 1.27 153 22:27 14.03.2020
1017 Clear -12 1027 42 0 1.27 153 21:57 14.03.2020
1018 Clear -12 1027 42 0 1.27 153 21:37 14.03.2020
1019 Clear -12 1027 42 0 1.27 153 21:19 14.03.2020
1020 Clear -12 1027 42 0 1.27 153 21:19 14.03.2020
1021 Clear -12 1027 42 0 1.27 153 20:59 14.03.2020
1022 Clear -12 1027 42 0 1.27 153 20:41 14.03.2020
1023 Clear -11 1025 39 0 1.52 149 20:20 14.03.2020
1024 Clear -11 1026 40 0 1.44 147 19:59 14.03.2020
1025 Clear -11 1026 40 0 1.44 147 19:40 14.03.2020
1026 Clear -11 1026 40 0 1.44 147 19:20 14.03.2020
1027 Clear -11 1026 40 0 1.44 147 18:39 14.03.2020
1028 Clear -11 1026 40 0 1.44 147 18:19 14.03.2020
1029 Clear -11 1026 40 0 1.44 147 17:40 14.03.2020
1030 Clear -11 1026 40 0 1.44 147 17:21 14.03.2020
1031 Clear -10 1024 45 0 2.38 147 16:57 14.03.2020
1032 Clear -10 1024 45 0 2.38 147 16:38 14.03.2020
1033 Clear -10 1024 45 0 2.38 147 16:18 14.03.2020
1034 Clear -10 1024 45 0 2.38 147 15:28 14.03.2020
1035 Clear -10 1024 45 0 2.38 147 14:59 14.03.2020
1036 Clear -10 1024 45 0 2.38 147 14:38 14.03.2020
1037 Clouds -8 1022 52 0 3.16 144 14:20 14.03.2020
1038 Clouds -8 1022 52 0 3.16 144 13:56 14.03.2020
1039 Clouds -8 1022 52 0 3.16 144 13:38 14.03.2020
1040 Clouds -8 1022 52 0 2.83 145 13:18 14.03.2020
1041 Clouds -8 1022 52 0 2.83 145 12:43 14.03.2020
1042 Clouds -8 1022 52 0 2.83 145 12:43 14.03.2020
1043 Clouds -8 1022 52 0 2.83 145 12:24 14.03.2020
1044 Clouds -8 1022 52 0 2.83 145 11:43 14.03.2020
1045 Clouds -8 1022 52 0 2.83 145 11:43 14.03.2020
1046 Clouds -8 1022 52 0 2.83 145 11:25 14.03.2020
1047 Clouds -2 1019 70 0 2.86 147 10:47 14.03.2020
1048 Clouds -2 1019 70 0 2.86 147 10:47 14.03.2020
1049 Clouds -2 1019 70 0 2.86 147 10:28 14.03.2020
1050 Clouds -2 1019 70 0 2.86 147 09:59 14.03.2020
1051 Clouds -2 1019 70 0 2.86 147 09:40 14.03.2020
1052 Clouds -2 1019 70 0 2.86 147 09:21 14.03.2020
1053 Clouds -2 1019 70 0 2.86 147 08:46 14.03.2020
1054 Clouds -2 1019 70 0 2.86 147 08:26 14.03.2020
1055 Clouds -1 1021 76 0 2.57 141 07:40 14.03.2020
1056 Clouds -1 1021 76 0 2.57 141 07:21 14.03.2020
1057 Clouds -1 1021 76 0 2.57 141 06:55 14.03.2020
1058 Clouds -1 1021 76 0 2.57 141 06:34 14.03.2020
1059 Clear -4 1027 66 0 3.04 119 04:56 14.03.2020
1060 Clear -4 1027 66 0 3.04 119 03:37 14.03.2020
1061 Clear -4 1027 66 0 3.04 119 02:53 14.03.2020
1062 Clear -11 1031 50 0 3.34 117 01:47 14.03.2020
1063 Clear -11 1031 50 0 3.34 117 00:34 14.03.2020
1064 Clear -11 1031 50 0 3.34 117 23:42 13.03.2020
1065 Clear -11 1031 50 0 3.34 117 23:23 13.03.2020
1066 Clear -11 1033 53 0 2.78 118 22:45 13.03.2020
1067 Clear -11 1033 53 0 2.78 118 22:22 13.03.2020
1068 Clear -11 1033 53 0 2.78 118 21:41 13.03.2020
1069 Clear -11 1033 53 0 2.78 118 21:19 13.03.2020
1070 Clear -11 1033 53 0 2.78 118 20:43 13.03.2020
1071 Clear -11 1033 53 0 2.78 118 20:23 13.03.2020
1072 Clear -12 1036 55 0 2.7 116 19:58 13.03.2020
1073 Clear -12 1036 55 0 2.7 116 19:39 13.03.2020
1074 Clear -12 1036 55 0 2.7 116 19:19 13.03.2020
1075 Clear -12 1036 55 0 2.7 116 18:43 13.03.2020
1076 Clear -12 1036 55 0 2.7 116 18:23 13.03.2020
1077 Clear -12 1036 55 0 2.7 116 17:43 13.03.2020
1078 Clear -12 1036 55 0 2.7 116 17:21 13.03.2020
1079 Clear -12 1037 60 0 2.66 101 16:57 13.03.2020
1080 Clear -12 1037 60 0 2.66 101 16:38 13.03.2020
1081 Clear -12 1037 60 0 2.66 101 16:20 13.03.2020
1082 Clear -12 1037 60 0 2.66 101 15:45 13.03.2020
1083 Clear -12 1037 60 0 2.66 101 15:22 13.03.2020
1084 Clear -12 1037 60 0 2.66 101 14:58 13.03.2020
1085 Clear -12 1037 60 0 2.66 101 14:40 13.03.2020
1086 Clear -12 1037 60 0 2.66 101 14:21 13.03.2020
1087 Clear -13 1037 66 0 1.97 98 13:42 13.03.2020
1088 Clear -13 1037 66 0 2.06 99 13:24 13.03.2020
1089 Clear -13 1037 66 0 2.06 99 12:59 13.03.2020
1090 Clear -13 1037 66 0 2.06 99 12:38 13.03.2020
1091 Clear -13 1037 66 0 2.06 99 12:20 13.03.2020
1092 Clear -13 1037 66 0 2.06 99 11:56 13.03.2020
1093 Clear -13 1037 66 0 2.06 99 11:36 13.03.2020
1094 Clear -8 1034 69 0 1.05 314 11:18 13.03.2020
1095 Clear -8 1034 69 0 1.05 314 10:46 13.03.2020
1096 Clear -8 1034 69 0 1.05 314 10:26 13.03.2020
1097 Clear -8 1034 69 0 1.05 314 09:49 13.03.2020
1098 Clear -8 1034 69 0 1.05 314 09:30 13.03.2020
1099 Clear -8 1034 69 0 1.05 314 08:59 13.03.2020
1100 Clear -8 1034 69 0 1.05 314 08:41 13.03.2020
1101 Clear -8 1034 69 0 1.05 314 08:22 13.03.2020
1102 Clear -8 1036 57 0 1.6 295 07:44 13.03.2020
1103 Clear -8 1036 57 0 1.6 295 07:25 13.03.2020
1104 Clear -8 1036 57 0 1.6 295 06:46 13.03.2020
1105 Clear -8 1036 57 0 1.6 295 06:23 13.03.2020
1106 Clear -8 1036 57 0 1.6 295 05:46 13.03.2020
1107 Clear -12 1041 53 0 0.91 82 04:57 13.03.2020
1108 Clear -12 1041 53 0 0.91 82 04:26 13.03.2020
1109 Clear -12 1041 53 0 0.91 82 02:58 13.03.2020
1110 Clear -19 1044 47 0 1.76 99 01:39 13.03.2020
1111 Clear -19 1044 47 0 1.76 99 01:18 13.03.2020
1112 Clear -19 1044 47 0 1.66 99 00:42 13.03.2020
1113 Clear -19 1044 47 0 1.66 99 00:19 13.03.2020
1114 Clear -19 1044 47 0 1.66 99 23:39 12.03.2020
1115 Clear -20 1044 49 0 1.67 103 23:19 12.03.2020
1116 Clear -20 1044 49 0 1.67 103 22:47 12.03.2020
1117 Clear -20 1044 49 0 1.67 103 22:28 12.03.2020
1118 Clear -20 1044 49 0 1.67 103 21:57 12.03.2020
1119 Clear -20 1044 49 0 1.67 103 21:39 12.03.2020
1120 Clear -20 1044 49 0 1.67 103 21:20 12.03.2020
1121 Clear -20 1044 49 0 1.67 103 20:42 12.03.2020
1122 Clear -21 1045 53 0 1.64 110 20:20 12.03.2020
1123 Clear -21 1045 53 0 1.64 110 19:56 12.03.2020
1124 Clear -21 1045 53 0 1.64 110 19:37 12.03.2020
1125 Clear -21 1045 53 0 1.64 110 19:18 12.03.2020
1126 Clear -21 1045 53 0 1.64 110 18:42 12.03.2020
1127 Clear -21 1045 53 0 1.64 110 18:22 12.03.2020
1128 Clear -21 1045 53 0 1.64 110 17:56 12.03.2020
1129 Clear -21 1045 53 0 1.64 110 17:37 12.03.2020
1130 Clear -22 1045 67 0 1.69 108 17:18 12.03.2020
1131 Clear -22 1045 67 0 1.69 108 16:41 12.03.2020
1132 Clear -22 1045 67 0 1.69 108 16:22 12.03.2020
1133 Clear -22 1045 67 0 1.69 108 15:49 12.03.2020
1134 Clear -22 1045 67 0 1.69 108 15:28 12.03.2020
1135 Clear -22 1045 67 0 1.69 108 14:56 12.03.2020
1136 Clear -22 1045 67 0 1.69 108 14:38 12.03.2020
1137 Clouds -21 1043 85 0 0.99 120 14:18 12.03.2020
1138 Clouds -21 1043 85 0 0.99 120 13:40 12.03.2020
1139 Clouds -21 1043 85 0 0.95 118 13:21 12.03.2020
1140 Clouds -21 1043 85 0 0.95 118 12:55 12.03.2020
1141 Clouds -21 1043 85 0 0.95 118 12:55 12.03.2020
1142 Clouds -21 1043 85 0 0.95 118 12:37 12.03.2020
1143 Clouds -21 1043 85 0 0.95 118 12:18 12.03.2020
1144 Clouds -21 1043 85 0 0.95 118 11:55 12.03.2020
1145 Clouds -21 1043 85 0 0.95 118 11:36 12.03.2020
1146 Clear -15 1039 75 0 1.75 293 11:18 12.03.2020
1147 Clear -15 1039 75 0 1.75 293 10:43 12.03.2020
1148 Clear -15 1039 75 0 1.75 293 10:23 12.03.2020
1149 Clear -15 1039 75 0 1.75 293 09:59 12.03.2020
1150 Clear -15 1039 75 0 1.75 293 09:40 12.03.2020
1151 Clear -15 1039 75 0 1.75 293 09:22 12.03.2020
1152 Clear -15 1039 75 0 1.75 293 08:39 12.03.2020
1153 Clear -15 1042 62 0 1.74 299 08:18 12.03.2020
1154 Clear -15 1042 62 0 1.74 299 07:47 12.03.2020
1155 Clear -15 1042 62 0 1.74 299 07:22 12.03.2020
1156 Clear -15 1042 62 0 1.74 299 06:26 12.03.2020
1157 Clear -15 1042 62 0 1.74 299 05:35 12.03.2020
1158 Clear -19 1045 61 0 0.83 94 03:44 12.03.2020
1159 Clear -25 1047 62 0 2.16 107 01:58 12.03.2020
1160 Clear -25 1047 62 0 2.16 107 01:23 12.03.2020
1161 Clear -25 1047 62 0 2.14 107 00:42 12.03.2020
1162 Clear -25 1047 62 0 2.14 107 23:58 11.03.2020
1163 Clear -25 1047 62 0 2.14 107 23:29 11.03.2020
1164 Clear -25 1044 68 0 2.62 96 22:59 11.03.2020
1165 Clear -25 1044 68 0 2.62 96 22:40 11.03.2020
1166 Clear -25 1044 68 0 2.62 96 22:21 11.03.2020
1167 Clear -25 1044 68 0 2.62 96 21:58 11.03.2020
1168 Clear -25 1044 68 0 2.62 96 21:39 11.03.2020
1169 Clear -25 1044 68 0 2.62 96 21:21 11.03.2020
1170 Clear -25 1044 68 0 2.62 96 20:56 11.03.2020
1171 Clear -25 1044 68 0 2.62 96 20:37 11.03.2020
1172 Clear -25 1044 74 0 2.7 90 20:19 11.03.2020
1173 Clear -25 1044 74 0 2.7 90 19:42 11.03.2020
1174 Clear -25 1044 74 0 2.7 90 19:24 11.03.2020
1175 Clear -25 1044 74 0 2.7 90 18:57 11.03.2020
1176 Clear -25 1044 74 0 2.7 90 18:37 11.03.2020
1177 Clear -25 1044 74 0 2.7 90 18:18 11.03.2020
1178 Clear -25 1044 74 0 2.7 90 17:55 11.03.2020
1179 Clear -25 1044 74 0 2.7 90 17:37 11.03.2020
1180 Clear -24 1040 81 0 2.84 83 17:18 11.03.2020
1181 Clear -24 1040 81 0 2.84 83 16:43 11.03.2020
1182 Clear -24 1040 81 0 2.84 83 16:19 11.03.2020
1183 Clear -24 1040 81 0 2.84 83 15:43 11.03.2020
1184 Clear -24 1040 81 0 2.84 83 15:23 11.03.2020
1185 Clear -24 1040 81 0 2.84 83 15:23 11.03.2020
1186 Clear -24 1040 81 0 2.84 83 14:46 11.03.2020
1187 Clear -24 1040 81 0 2.84 83 14:25 11.03.2020
1188 Clouds -21 1036 89 0 1.74 56 13:59 11.03.2020
1189 Clouds -21 1036 89 0 1.74 56 13:40 11.03.2020
1190 Clouds -21 1036 92 0 1.38 43 13:22 11.03.2020
1191 Clouds -21 1036 92 0 1.38 43 12:56 11.03.2020
1192 Clouds -21 1036 92 0 1.38 43 12:37 11.03.2020
1193 Clouds -21 1036 92 0 1.38 43 12:18 11.03.2020
1194 Clouds -21 1036 92 0 1.38 43 11:40 11.03.2020
1195 Clouds -14 1029 76 0 2.53 312 11:20 11.03.2020
1196 Clouds -14 1029 76 0 2.53 312 10:47 11.03.2020
1197 Clouds -14 1029 76 0 2.53 312 10:20 11.03.2020
1198 Clouds -14 1029 76 0 2.53 312 09:58 11.03.2020
1199 Clouds -14 1029 76 0 2.53 312 09:38 11.03.2020
1200 Clouds -14 1029 76 0 2.53 312 09:19 11.03.2020
1201 Clouds -14 1029 76 0 2.53 312 08:42 11.03.2020
1202 Clouds -13 1029 76 0 2.5 318 08:23 11.03.2020
1203 Clouds -13 1028 67 0 2.38 315 07:47 11.03.2020
1204 Clouds -13 1028 67 0 2.38 315 07:20 11.03.2020
1205 Clouds -13 1028 67 0 2.38 315 06:49 11.03.2020
1206 Clouds -13 1028 67 0 2.38 315 06:30 11.03.2020
1207 Clouds -13 1028 67 0 2.38 315 05:32 11.03.2020
1208 Clouds -14 1029 85 0 1.69 301 02:43 11.03.2020
1209 Snow -17 1027 92 0 0.95 349 01:51 11.03.2020
1210 Clouds -17 1028 92 0 1.23 341 00:53 11.03.2020
1211 Clouds -17 1028 92 0 1.23 341 00:32 11.03.2020
1212 Clouds -17 1028 92 0 1.23 341 23:47 10.03.2020
1213 Clouds -17 1028 92 0 1.23 341 23:22 10.03.2020
1214 Snow -13 1022 96 0 2.2 348 22:55 10.03.2020
1215 Snow -13 1022 96 0 2.2 348 22:36 10.03.2020
1216 Snow -13 1022 96 0 2.2 348 22:18 10.03.2020
1217 Snow -13 1022 96 0 2.2 348 21:55 10.03.2020
1218 Snow -13 1022 96 0 2.2 348 21:37 10.03.2020
1219 Snow -13 1022 96 0 2.2 348 21:18 10.03.2020
1220 Snow -13 1022 96 0 2.2 348 21:18 10.03.2020
1221 Snow -13 1022 96 0 2.2 348 20:42 10.03.2020
1222 Clouds -13 1018 83 0 1.17 251 20:19 10.03.2020
1223 Clouds -13 1018 83 0 1.17 251 19:58 10.03.2020
1224 Clouds -13 1018 83 0 1.17 251 19:40 10.03.2020
1225 Clouds -13 1018 83 0 1.17 251 19:21 10.03.2020
1226 Clouds -13 1018 83 0 1.17 251 18:54 10.03.2020
1227 Clouds -13 1018 83 0 1.17 251 18:36 10.03.2020
1228 Clouds -13 1018 83 0 1.17 251 18:18 10.03.2020
1229 Clouds -13 1018 83 0 1.17 251 17:40 10.03.2020
1230 Clouds -13 1018 83 0 1.17 251 17:22 10.03.2020
1231 Snow -10 1014 93 0 1.78 165 16:40 10.03.2020
1232 Snow -10 1014 93 0 1.78 165 16:20 10.03.2020
1233 Snow -10 1014 93 0 1.78 165 15:58 10.03.2020
1234 Snow -10 1014 93 0 1.78 165 15:39 10.03.2020
1235 Snow -10 1014 93 0 1.78 165 15:19 10.03.2020
1236 Snow -10 1014 93 0 1.78 165 14:57 10.03.2020
1237 Snow -10 1014 93 0 1.78 165 14:39 10.03.2020
1238 Clouds -10 1012 72 0 0.71 246 14:18 10.03.2020
1239 Clouds -10 1012 72 0 0.71 246 13:42 10.03.2020
1240 Clouds -10 1012 72 0 0.71 246 13:42 10.03.2020
1241 Clouds -10 1012 72 0 0.71 246 13:42 10.03.2020
1242 Clouds -10 1012 65 0 1.54 213 13:24 10.03.2020
1243 Clouds -10 1012 65 0 1.54 213 12:42 10.03.2020
1244 Clouds -10 1012 65 0 1.54 213 12:21 10.03.2020
1245 Clouds -10 1012 65 0 1.54 213 12:21 10.03.2020
1246 Clouds -10 1012 65 0 1.54 213 11:59 10.03.2020
1247 Clouds -10 1012 65 0 1.54 213 11:41 10.03.2020
1248 Clouds -10 1012 65 0 1.54 213 11:23 10.03.2020
1249 Clouds -5 1010 76 0 1.73 220 10:54 10.03.2020
1250 Clouds -5 1010 76 0 1.73 220 10:36 10.03.2020
1251 Clouds -5 1010 76 0 1.73 220 10:18 10.03.2020
1252 Clouds -5 1010 76 0 1.73 220 09:44 10.03.2020
1253 Clouds -5 1010 76 0 1.73 220 09:19 10.03.2020
1254 Clouds -5 1010 76 0 1.73 220 08:53 10.03.2020
1255 Clouds -5 1010 76 0 1.73 220 08:34 10.03.2020
1256 Clouds -5 1013 57 0 1.91 209 07:53 10.03.2020
1257 Clouds -5 1013 57 0 1.91 209 07:35 10.03.2020
1258 Clouds -5 1013 57 0 1.91 209 06:57 10.03.2020
1259 Clouds -5 1013 57 0 1.91 209 06:37 10.03.2020
1260 Clouds -5 1013 57 0 1.91 209 05:42 10.03.2020
1261 Clouds -8 1018 66 0 2.09 145 04:59 10.03.2020
1262 Clouds -8 1018 66 0 2.09 145 04:25 10.03.2020
1263 Clouds -8 1018 66 0 2.09 145 02:58 10.03.2020
1264 Clouds -15 1023 57 0 1.95 147 01:32 10.03.2020
1265 Clear -15 1023 56 0 1.93 146 00:50 10.03.2020
1266 Clear -15 1023 56 0 1.93 146 00:28 10.03.2020
1267 Clear -15 1023 56 0 1.93 146 23:42 09.03.2020
1268 Clear -15 1023 56 0 1.93 146 23:22 09.03.2020
1269 Clear -15 1024 59 0 2.13 142 22:57 09.03.2020
1270 Clear -15 1024 59 0 2.13 142 22:37 09.03.2020
1271 Clear -15 1024 59 0 2.13 142 22:18 09.03.2020
1272 Clear -15 1024 59 0 2.13 142 21:43 09.03.2020
1273 Clear -15 1024 59 0 2.13 142 21:22 09.03.2020
1274 Clear -15 1024 59 0 2.13 142 20:58 09.03.2020
1275 Clear -15 1024 59 0 2.13 142 20:40 09.03.2020
1276 Clouds -13 1027 59 0 2.35 130 20:20 09.03.2020
1277 Clouds -13 1027 59 0 2.35 130 19:45 09.03.2020
1278 Clouds -13 1027 59 0 2.35 130 19:26 09.03.2020
1279 Clouds -13 1027 59 0 2.35 130 18:59 09.03.2020
1280 Clouds -13 1027 59 0 2.35 130 18:40 09.03.2020
1281 Clouds -13 1027 59 0 2.35 130 18:20 09.03.2020
1282 Clouds -13 1027 59 0 2.35 130 17:58 09.03.2020
1283 Clouds -13 1027 59 0 2.35 130 17:38 09.03.2020
1284 Clouds -14 1029 58 0 2.27 138 17:20 09.03.2020
1285 Clouds -14 1029 58 0 2.27 138 16:59 09.03.2020
1286 Clouds -14 1029 58 0 2.27 138 16:41 09.03.2020
1287 Clouds -14 1029 58 0 2.27 138 16:22 09.03.2020
1288 Clouds -14 1029 58 0 2.27 138 15:58 09.03.2020
1289 Clouds -14 1029 58 0 2.27 138 15:39 09.03.2020
1290 Clouds -14 1029 58 0 2.27 138 15:21 09.03.2020
1291 Clouds -14 1029 58 0 2.27 138 15:21 09.03.2020
1292 Clouds -14 1029 58 0 2.27 138 14:57 09.03.2020
1293 Clouds -14 1029 58 0 2.27 138 14:38 09.03.2020
1294 Clouds -15 1030 62 0 1.91 146 14:19 09.03.2020
1295 Clouds -15 1030 62 0 1.91 146 13:58 09.03.2020
1296 Clouds -15 1030 62 0 1.91 146 13:38 09.03.2020
1297 Clouds -15 1030 62 0 1.91 146 13:18 09.03.2020
1298 Clouds -15 1029 59 0 2.17 141 12:43 09.03.2020
1299 Clouds -15 1029 59 0 2.17 141 12:22 09.03.2020
1300 Clouds -15 1029 59 0 2.17 141 11:58 09.03.2020
1301 Clouds -15 1029 59 0 2.17 141 11:38 09.03.2020
1302 Clear -12 1028 67 0 1.07 252 11:19 09.03.2020
1303 Clear -12 1028 67 0 1.07 252 10:55 09.03.2020
1304 Clear -12 1028 67 0 1.07 252 10:36 09.03.2020
1305 Clear -12 1028 67 0 1.07 252 10:18 09.03.2020
1306 Clear -12 1028 67 0 1.07 252 09:40 09.03.2020
1307 Clear -12 1028 67 0 1.07 252 09:21 09.03.2020
1308 Clear -12 1028 67 0 1.07 252 08:44 09.03.2020
1309 Clear -12 1028 67 0 1.07 252 08:26 09.03.2020
1310 Clouds -11 1031 56 0 1.79 273 07:43 09.03.2020
1311 Clouds -11 1031 56 0 1.79 273 07:22 09.03.2020
1312 Clouds -11 1031 56 0 1.79 273 06:46 09.03.2020
1313 Clouds -11 1031 56 0 1.79 273 06:28 09.03.2020
1314 Clouds -11 1031 56 0 1.79 273 05:58 09.03.2020
1315 Clouds -11 1031 56 0 1.79 273 05:40 09.03.2020
1316 Clouds -14 1035 55 0 0.15 104 04:46 09.03.2020
1317 Clouds -14 1035 55 0 0.15 104 04:23 09.03.2020
1318 Clouds -14 1035 55 0 0.15 104 03:29 09.03.2020
1319 Clouds -21 1037 47 0 1.14 127 01:58 09.03.2020
1320 Clouds -22 1037 48 0 0.85 141 00:40 09.03.2020
1321 Clouds -22 1037 48 0 0.85 141 00:22 09.03.2020
1322 Clouds -22 1037 48 0 0.85 141 23:53 08.03.2020
1323 Clouds -22 1037 48 0 0.85 141 23:25 08.03.2020
1324 Clouds -22 1037 44 0 0.71 95 22:58 08.03.2020
1325 Clouds -22 1037 44 0 0.71 95 22:39 08.03.2020
1326 Clouds -22 1037 44 0 0.71 95 22:21 08.03.2020
1327 Clouds -22 1037 44 0 0.71 95 22:21 08.03.2020
1328 Clouds -22 1037 44 0 0.71 95 21:57 08.03.2020
1329 Clouds -22 1037 44 0 0.71 95 21:38 08.03.2020
1330 Clouds -22 1037 44 0 0.71 95 21:19 08.03.2020
1331 Clouds -22 1037 44 0 0.71 95 20:40 08.03.2020
1332 Clouds -20 1036 42 0 0.8 115 20:21 08.03.2020
1333 Clouds -20 1036 42 0 0.8 115 20:21 08.03.2020
1334 Clear -22 1039 36 0 1.52 142 19:57 08.03.2020
1335 Clear -22 1039 36 0 1.52 142 19:37 08.03.2020
1336 Clear -22 1039 36 0 1.52 142 19:19 08.03.2020
1337 Clear -22 1039 36 0 1.52 142 18:42 08.03.2020
1338 Clear -22 1039 36 0 1.52 142 18:24 08.03.2020
1339 Clear -22 1039 36 0 1.52 142 18:24 08.03.2020
1340 Clear -22 1039 36 0 1.52 142 17:57 08.03.2020
1341 Clear -22 1039 36 0 1.52 142 17:38 08.03.2020
1342 Clear -25 1042 68 0 2.25 99 17:19 08.03.2020
1343 Clear -25 1042 68 0 2.25 99 16:46 08.03.2020
1344 Clear -25 1042 68 0 2.25 99 16:28 08.03.2020
1345 Clear -25 1042 68 0 2.25 99 15:58 08.03.2020
1346 Clear -25 1042 68 0 2.25 99 15:39 08.03.2020
1347 Clear -25 1042 68 0 2.25 99 15:20 08.03.2020
1348 Clear -25 1042 68 0 2.25 99 14:42 08.03.2020
1349 Clear -25 1042 68 0 2.25 99 14:21 08.03.2020
1350 Clouds -27 1044 97 0 1.26 122 13:59 08.03.2020
1351 Clouds -27 1044 97 0 1.26 122 13:39 08.03.2020
1352 Clouds -26 1043 93 0 1.63 130 13:19 08.03.2020
1353 Clouds -26 1043 93 0 1.63 130 12:43 08.03.2020
1354 Clouds -26 1043 93 0 1.63 130 12:24 08.03.2020
1355 Clouds -26 1043 93 0 1.63 130 11:56 08.03.2020
1356 Clouds -26 1043 93 0 1.63 130 11:37 08.03.2020
1357 Clouds -26 1043 93 0 1.63 130 11:37 08.03.2020
1358 Clouds -20 1040 86 0 1.79 292 11:19 08.03.2020
1359 Clouds -20 1040 86 0 1.79 292 10:41 08.03.2020
1360 Clouds -20 1040 86 0 1.79 292 10:23 08.03.2020
1361 Clouds -20 1040 86 0 1.79 292 09:43 08.03.2020
1362 Clouds -20 1040 86 0 1.79 292 09:25 08.03.2020
1363 Clouds -20 1040 86 0 1.79 292 08:54 08.03.2020
1364 Clouds -20 1040 86 0 1.79 292 08:54 08.03.2020
1365 Clouds -20 1040 86 0 1.79 292 08:36 08.03.2020
1366 Clouds -19 1042 82 0 2.42 293 08:18 08.03.2020
1367 Clouds -19 1042 82 0 2.42 293 07:41 08.03.2020
1368 Clouds -19 1042 82 0 2.42 293 07:22 08.03.2020
1369 Clouds -19 1042 82 0 2.42 293 06:42 08.03.2020
1370 Clouds -19 1042 82 0 2.42 293 06:22 08.03.2020
1371 Clouds -19 1042 82 0 2.42 293 05:28 08.03.2020
1372 Clouds -21 1043 96 0 1.52 282 03:51 08.03.2020
1373 Clouds -21 1043 96 0 1.52 282 02:29 08.03.2020
1374 Clouds -25 1042 97 0 0.48 118 01:23 08.03.2020
1375 Clouds -25 1042 97 0 0.48 118 01:23 08.03.2020
1376 Clouds -25 1042 99 0 0.89 254 01:23 08.03.2020
1377 Clouds -25 1042 97 0 0.48 118 01:23 08.03.2020
1378 Clouds -25 1042 99 0 0.89 254 01:23 08.03.2020
1379 Clouds -25 1042 97 0 0.48 118 00:44 08.03.2020
1380 Clouds -25 1042 97 0 0.48 118 00:25 08.03.2020
1381 Clouds -25 1042 97 0 0.48 118 23:44 07.03.2020
1382 Clouds -25 1042 97 0 0.48 118 23:23 07.03.2020
1383 Snow -20 1035 98 0 2.05 342 22:41 07.03.2020
1384 Snow -20 1035 98 0 2.05 342 22:22 07.03.2020
1385 Snow -20 1035 98 0 2.05 342 21:49 07.03.2020
1386 Snow -20 1035 98 0 2.05 342 21:26 07.03.2020
1387 Snow -20 1035 98 0 2.05 342 20:57 07.03.2020
1388 Snow -20 1035 98 0 2.05 342 20:57 07.03.2020
1389 Snow -20 1035 98 0 2.05 342 20:38 07.03.2020
1390 Snow -18 1029 99 0 2.64 272 20:19 07.03.2020
1391 Snow -17 1030 99 0 2.61 265 19:41 07.03.2020
1392 Snow -17 1030 99 0 2.61 265 19:22 07.03.2020
1393 Snow -17 1030 99 0 2.61 265 18:46 07.03.2020
1394 Snow -17 1030 99 0 2.61 265 18:27 07.03.2020
1395 Snow -17 1030 99 0 2.61 265 17:57 07.03.2020
1396 Snow -17 1030 99 0 2.61 265 17:39 07.03.2020
1397 Clouds -14 1023 79 0 3.31 242 17:19 07.03.2020
1398 Clouds -14 1023 79 0 3.31 242 16:43 07.03.2020
1399 Clouds -14 1023 79 0 3.31 242 16:43 07.03.2020
1400 Clouds -14 1023 79 0 3.31 242 16:24 07.03.2020
1401 Clouds -14 1023 79 0 3.31 242 15:59 07.03.2020
1402 Clouds -14 1023 79 0 3.31 242 15:41 07.03.2020
1403 Clouds -14 1023 79 0 3.31 242 15:41 07.03.2020
1404 Clouds -14 1023 79 0 3.31 242 15:21 07.03.2020
1405 Clouds -14 1023 79 0 3.31 242 14:58 07.03.2020
1406 Clouds -14 1023 79 0 3.31 242 14:39 07.03.2020
1407 Clouds -14 1023 79 0 3.31 242 14:21 07.03.2020
1408 Clouds -13 1017 78 0 2.15 267 13:41 07.03.2020
1409 Clouds -13 1017 78 0 2.15 267 13:21 07.03.2020
1410 Clouds -13 1017 84 0 2.17 240 12:45 07.03.2020
1411 Clouds -13 1017 84 0 2.17 240 12:45 07.03.2020
1412 Clouds -13 1017 84 0 2.17 240 12:23 07.03.2020
1413 Clouds -13 1017 84 0 2.17 240 11:59 07.03.2020
1414 Clouds -13 1017 84 0 2.17 240 11:41 07.03.2020
1415 Clouds -13 1017 84 0 2.17 240 11:23 07.03.2020
1416 Clouds -9 1010 76 0 3.1 261 10:56 07.03.2020
1417 Clouds -9 1010 76 0 3.1 261 10:36 07.03.2020
1418 Clouds -9 1010 76 0 3.1 261 10:18 07.03.2020
1419 Clouds -9 1010 76 0 3.1 261 09:40 07.03.2020
1420 Clouds -9 1010 76 0 3.1 261 09:19 07.03.2020
1421 Clouds -9 1010 76 0 3.1 261 08:56 07.03.2020
1422 Clouds -9 1010 76 0 3.1 261 08:38 07.03.2020
1423 Clouds -8 1009 69 0 4.36 266 08:19 07.03.2020
1424 Clouds -8 1010 65 0 4.03 265 07:44 07.03.2020
1425 Clouds -8 1010 65 0 4.03 265 07:21 07.03.2020
1426 Clouds -8 1010 65 0 4.03 265 06:39 07.03.2020
1427 Clouds -8 1010 65 0 4.03 265 05:59 07.03.2020
1428 Clouds -8 1010 65 0 4.03 265 05:38 07.03.2020
1429 Clouds -9 1012 73 0 2.17 233 03:35 07.03.2020
1430 Clouds -9 1012 73 0 2.17 233 02:42 07.03.2020
1431 Clouds -10 1012 65 0 1.96 190 01:51 07.03.2020
1432 Clouds -11 1012 68 0 1.82 185 00:43 07.03.2020
1433 Clouds -11 1012 68 0 1.82 185 00:23 07.03.2020
1434 Clouds -11 1012 68 0 1.82 185 23:56 06.03.2020
1435 Clouds -11 1012 68 0 1.82 185 23:38 06.03.2020
1436 Clouds -9 1010 63 0 2.09 151 23:20 06.03.2020
1437 Clouds -9 1010 63 0 2.09 151 22:42 06.03.2020
1438 Clouds -9 1010 63 0 2.09 151 22:19 06.03.2020
1439 Clouds -9 1010 63 0 2.09 151 22:19 06.03.2020
1440 Clouds -9 1010 63 0 2.09 151 21:45 06.03.2020
1441 Clouds -9 1010 63 0 2.09 151 21:19 06.03.2020
1442 Clouds -9 1010 63 0 2.09 151 20:42 06.03.2020
1443 Clouds -10 1011 64 0 2.55 150 20:21 06.03.2020
1444 Clouds -9 1010 63 0 2.09 151 20:21 06.03.2020
1445 Clouds -9 1011 59 0 2.61 136 19:54 06.03.2020
1446 Clouds -9 1011 59 0 2.61 136 19:36 06.03.2020
1447 Clouds -9 1011 59 0 2.61 136 19:18 06.03.2020
1448 Clouds -9 1011 59 0 2.61 136 18:41 06.03.2020
1449 Clouds -9 1011 59 0 2.61 136 18:20 06.03.2020
1450 Clouds -9 1011 59 0 2.61 136 18:20 06.03.2020
1451 Clouds -9 1011 59 0 2.61 136 17:56 06.03.2020
1452 Clouds -9 1011 59 0 2.61 136 17:36 06.03.2020
1453 Clouds -10 1012 51 0 2.54 142 17:18 06.03.2020
1454 Clouds -10 1012 51 0 2.54 142 16:42 06.03.2020
1455 Clouds -10 1012 51 0 2.54 142 16:20 06.03.2020
1456 Clouds -10 1012 51 0 2.54 142 15:45 06.03.2020
1457 Clouds -10 1012 51 0 2.54 142 15:25 06.03.2020
1458 Clouds -10 1012 51 0 2.54 142 14:59 06.03.2020
1459 Clouds -10 1012 51 0 2.54 142 14:39 06.03.2020
1460 Clouds -10 1012 51 0 2.54 142 14:39 06.03.2020
1461 Clouds -10 1013 48 0 2.52 149 14:19 06.03.2020
1462 Clouds -10 1013 48 0 2.52 149 13:43 06.03.2020
1463 Clouds -10 1012 47 0 2.32 150 13:22 06.03.2020
1464 Clouds -10 1012 47 0 2.32 150 12:57 06.03.2020
1465 Clouds -10 1012 47 0 2.32 150 12:38 06.03.2020
1466 Clouds -10 1012 47 0 2.32 150 12:19 06.03.2020
1467 Clouds -10 1012 47 0 2.32 150 12:19 06.03.2020
1468 Clouds -10 1012 47 0 2.32 150 11:57 06.03.2020
1469 Clouds -10 1012 47 0 2.32 150 11:38 06.03.2020
1470 Clouds -5 1009 70 0 2.5 169 11:19 06.03.2020
1471 Clouds -5 1009 70 0 2.5 169 10:39 06.03.2020
1472 Clouds -5 1009 70 0 2.5 169 10:20 06.03.2020
1473 Clouds -5 1009 70 0 2.5 169 09:55 06.03.2020
1474 Clouds -5 1009 70 0 2.5 169 09:36 06.03.2020
1475 Clouds -5 1009 70 0 2.5 169 09:18 06.03.2020
1476 Clouds -5 1009 70 0 2.5 169 08:43 06.03.2020
1477 Clouds -5 1009 71 0 1.82 179 08:25 06.03.2020
1478 Clouds -5 1009 71 0 1.82 179 08:25 06.03.2020
1479 Clouds -5 1010 59 0 2.63 169 07:57 06.03.2020
1480 Clouds -5 1010 59 0 2.63 169 07:37 06.03.2020
1481 Clouds -5 1010 59 0 2.63 169 06:58 06.03.2020
1482 Clouds -5 1010 59 0 2.63 169 06:39 06.03.2020
1483 Clouds -5 1010 59 0 2.63 169 05:42 06.03.2020
1484 Clouds -5 1010 59 0 2.63 169 05:24 06.03.2020
1485 Clouds -9 1014 61 0 3.75 150 04:57 06.03.2020
1486 Clouds -9 1014 61 0 3.75 150 02:36 06.03.2020
1487 Clouds -13 1018 41 0 4.48 131 01:39 06.03.2020
1488 Clouds -13 1018 42 0 4.58 131 01:20 06.03.2020
1489 Clouds -13 1018 42 0 4.58 131 00:32 06.03.2020
1490 Clouds -13 1018 42 0 4.58 131 23:56 05.03.2020
1491 Clouds -13 1018 42 0 4.58 131 23:38 05.03.2020
1492 Clouds -15 1020 39 0 3.64 131 23:19 05.03.2020
1493 Clouds -15 1020 39 0 3.64 131 22:39 05.03.2020
1494 Clouds -15 1020 39 0 3.64 131 22:21 05.03.2020
1495 Clouds -15 1020 39 0 3.64 131 21:57 05.03.2020
1496 Clouds -15 1020 39 0 3.64 131 21:38 05.03.2020
1497 Clouds -15 1020 39 0 3.64 131 21:20 05.03.2020
1498 Clouds -15 1020 39 0 3.64 131 20:57 05.03.2020
1499 Clouds -15 1020 39 0 3.64 131 20:38 05.03.2020
1500 Clear -17 1024 51 0 2.9 125 20:19 05.03.2020
1501 Clear -17 1024 51 0 2.93 121 19:56 05.03.2020
1502 Clear -17 1024 51 0 2.93 121 19:37 05.03.2020
1503 Clear -17 1024 51 0 2.93 121 19:18 05.03.2020
1504 Clear -17 1024 51 0 2.93 121 18:39 05.03.2020
1505 Clear -17 1024 51 0 2.93 121 18:20 05.03.2020
1506 Clear -17 1024 51 0 2.93 121 17:59 05.03.2020
1507 Clear -17 1024 51 0 2.93 121 17:40 05.03.2020
1508 Clear -17 1024 51 0 2.93 121 17:22 05.03.2020
1509 Clouds -18 1026 85 0 2.66 114 16:55 05.03.2020
1510 Clouds -18 1026 85 0 2.66 114 16:36 05.03.2020
1511 Clouds -18 1026 85 0 2.66 114 16:18 05.03.2020
1512 Clouds -18 1026 85 0 2.66 114 15:44 05.03.2020
1513 Clouds -18 1026 85 0 2.66 114 15:22 05.03.2020
1514 Clouds -18 1026 85 0 2.66 114 14:57 05.03.2020
1515 Clouds -18 1026 85 0 2.66 114 14:39 05.03.2020
1516 Clouds -19 1025 100 0 0.88 111 14:20 05.03.2020
1517 Clouds -19 1025 100 0 0.88 111 13:55 05.03.2020
1518 Clouds -19 1025 100 0 0.88 111 13:36 05.03.2020
1519 Clouds -19 1025 100 0 0.89 106 13:18 05.03.2020
1520 Clouds -19 1025 100 0 0.89 106 12:40 05.03.2020
1521 Clouds -19 1025 100 0 0.89 106 12:40 05.03.2020
1522 Clouds -19 1025 100 0 0.89 106 12:40 05.03.2020
1523 Clouds -19 1025 100 0 0.89 106 12:20 05.03.2020
1524 Clouds -19 1025 100 0 0.89 106 11:57 05.03.2020
1525 Clouds -19 1025 100 0 0.89 106 11:37 05.03.2020
1526 Clouds -11 1020 91 0 2.12 308 11:19 05.03.2020
1527 Clouds -11 1020 91 0 2.12 308 10:57 05.03.2020
1528 Clouds -11 1020 91 0 2.12 308 10:39 05.03.2020
1529 Clouds -11 1020 91 0 2.12 308 10:20 05.03.2020
1530 Clouds -11 1020 91 0 2.12 308 09:45 05.03.2020
1531 Clouds -11 1020 91 0 2.12 308 09:26 05.03.2020
1532 Clouds -11 1020 91 0 2.12 308 08:47 05.03.2020
1533 Clouds -11 1021 88 0 1.96 305 08:29 05.03.2020
1534 Clouds -10 1021 82 0 2.33 301 07:49 05.03.2020
1535 Clouds -10 1021 82 0 2.33 301 07:23 05.03.2020
1536 Clouds -10 1021 82 0 2.33 301 06:50 05.03.2020
1537 Clouds -10 1021 82 0 2.33 301 06:23 05.03.2020
1538 Clouds -10 1021 82 0 2.33 301 05:57 05.03.2020
1539 Clouds -10 1021 82 0 2.33 301 05:32 05.03.2020
1540 Clouds -11 1023 90 0 1.18 306 04:23 05.03.2020
1541 Clouds -11 1023 90 0 1.18 306 03:58 05.03.2020
1542 Clouds -11 1023 90 0 1.18 306 02:21 05.03.2020
1543 Clouds -13 1022 77 0 1.39 17 01:24 05.03.2020
1544 Clouds -13 1022 77 0 1.39 17 00:29 05.03.2020
1545 Clouds -13 1022 77 0 1.39 17 23:43 04.03.2020
1546 Clouds -13 1022 77 0 1.39 17 23:24 04.03.2020
1547 Clouds -12 1019 69 0 0.78 158 22:59 04.03.2020
1548 Clouds -12 1019 69 0 0.78 158 22:40 04.03.2020
1549 Clouds -12 1019 69 0 0.78 158 22:19 04.03.2020
1550 Clouds -12 1019 69 0 0.78 158 21:59 04.03.2020
1551 Clouds -12 1019 69 0 0.78 158 21:41 04.03.2020
1552 Clouds -12 1019 69 0 0.78 158 21:20 04.03.2020
1553 Clouds -12 1019 69 0 0.78 158 20:57 04.03.2020
1554 Clouds -12 1019 69 0 0.78 158 20:39 04.03.2020
1555 Clouds -11 1017 65 0 0.68 116 20:20 04.03.2020
1556 Clouds -11 1017 65 0 0.68 116 19:42 04.03.2020
1557 Clouds -11 1017 65 0 0.68 116 19:24 04.03.2020
1558 Clouds -11 1017 65 0 0.68 116 18:57 04.03.2020
1559 Clouds -11 1017 65 0 0.68 116 18:38 04.03.2020
1560 Clouds -11 1017 65 0 0.68 116 18:20 04.03.2020
1561 Clouds -11 1017 65 0 0.68 116 17:56 04.03.2020
1562 Clouds -11 1017 65 0 0.68 116 17:38 04.03.2020
1563 Clouds -11 1017 63 0 2.65 131 17:19 04.03.2020
1564 Clouds -11 1017 63 0 2.65 131 16:44 04.03.2020
1565 Clouds -11 1017 63 0 2.65 131 16:25 04.03.2020
1566 Clouds -11 1017 63 0 2.65 131 15:59 04.03.2020
1567 Clouds -11 1017 63 0 2.65 131 15:41 04.03.2020
1568 Clouds -11 1017 63 0 2.65 131 15:22 04.03.2020
1569 Clouds -11 1017 63 0 2.65 131 14:55 04.03.2020
1570 Clouds -11 1017 63 0 2.65 131 14:55 04.03.2020
1571 Clouds -11 1017 63 0 2.65 131 14:37 04.03.2020
1572 Clouds -10 1015 57 0 2.62 153 14:18 04.03.2020
1573 Clouds -10 1015 57 0 2.62 153 13:56 04.03.2020
1574 Clouds -10 1015 57 0 2.62 153 13:37 04.03.2020
1575 Clouds -10 1015 57 0 2.62 153 13:19 04.03.2020
1576 Clouds -10 1015 54 0 2.52 147 12:43 04.03.2020
1577 Clouds -10 1015 54 0 2.52 147 12:43 04.03.2020
1578 Clouds -10 1015 54 0 2.52 147 12:25 04.03.2020
1579 Clouds -10 1015 54 0 2.52 147 11:56 04.03.2020
1580 Clouds -10 1015 54 0 2.52 147 11:37 04.03.2020
1581 Clouds -10 1015 54 0 2.52 147 11:37 04.03.2020
1582 Clouds -5 1012 72 0 1.43 178 11:19 04.03.2020
1583 Clouds -5 1012 72 0 1.43 178 10:47 04.03.2020
1584 Clouds -5 1012 72 0 1.43 178 10:26 04.03.2020
1585 Clouds -5 1012 72 0 1.43 178 09:58 04.03.2020
1586 Clouds -5 1012 72 0 1.43 178 09:40 04.03.2020
1587 Clouds -5 1012 72 0 1.43 178 09:20 04.03.2020
1588 Clouds -5 1012 72 0 1.43 178 08:43 04.03.2020
1589 Clouds -5 1012 72 0 1.43 178 08:24 04.03.2020
1590 Clouds -4 1014 59 0 2.37 161 07:48 04.03.2020
1591 Clouds -4 1014 59 0 2.37 161 07:30 04.03.2020
1592 Clouds -4 1014 59 0 2.37 161 06:54 04.03.2020
1593 Clouds -4 1014 59 0 2.37 161 06:26 04.03.2020
1594 Clouds -4 1014 59 0 2.37 161 05:59 04.03.2020
1595 Clouds -4 1014 59 0 2.37 161 05:32 04.03.2020
1596 Clouds -7 1018 63 0 2.99 140 03:57 04.03.2020
1597 Clouds -7 1018 63 0 2.99 140 03:35 04.03.2020
1598 Clouds -7 1018 63 0 2.99 140 02:58 04.03.2020
1599 Clouds -7 1018 63 0 2.99 140 02:30 04.03.2020
1600 Clouds -10 1020 43 0 3.36 132 01:56 04.03.2020
1601 Clouds -10 1020 43 0 3.36 132 01:37 04.03.2020
1602 Clouds -11 1020 44 0 3.11 133 00:42 04.03.2020
1603 Clouds -11 1020 44 0 3.11 133 00:22 04.03.2020
1604 Clouds -11 1020 44 0 3.11 133 23:43 03.03.2020
1605 Clouds -11 1020 44 0 3.11 133 23:24 03.03.2020
1606 Clouds -8 1019 44 0 3.12 128 22:56 03.03.2020
1607 Clouds -8 1019 44 0 3.12 128 22:37 03.03.2020
1608 Clouds -8 1019 44 0 3.12 128 22:19 03.03.2020
1609 Clouds -8 1019 44 0 3.12 128 21:55 03.03.2020
1610 Clouds -8 1019 44 0 3.12 128 21:36 03.03.2020
1611 Clouds -8 1019 44 0 3.12 128 21:18 03.03.2020
1612 Clouds -8 1019 44 0 3.12 128 20:40 03.03.2020
1613 Clouds -9 1021 42 0 3.4 122 20:19 03.03.2020
1614 Clouds -9 1022 41 0 3.25 123 19:56 03.03.2020
1615 Clouds -9 1022 41 0 3.25 123 19:37 03.03.2020
1616 Clouds -9 1022 42 0 3.42 123 19:37 03.03.2020
1617 Clouds -9 1022 42 0 3.42 123 19:37 03.03.2020
1618 Clouds -9 1022 41 0 3.25 123 19:37 03.03.2020
1619 Clouds -9 1022 41 0 3.25 123 19:18 03.03.2020
1620 Clouds -9 1022 42 0 3.42 123 18:57 03.03.2020
1621 Clouds -9 1022 41 0 3.25 123 18:57 03.03.2020
1622 Clouds -9 1022 41 0 3.25 123 18:39 03.03.2020
1623 Clouds -9 1022 41 0 3.25 123 18:19 03.03.2020
1624 Clouds -9 1022 41 0 3.25 123 17:55 03.03.2020
1625 Clouds -9 1022 42 0 3.42 123 17:36 03.03.2020
1626 Clouds -10 1023 41 0 3 123 17:18 03.03.2020
1627 Clouds -10 1023 41 0 3 123 16:55 03.03.2020
1628 Clouds -10 1023 39 0 3.21 120 16:36 03.03.2020
1629 Clouds -10 1023 39 0 3.21 120 16:18 03.03.2020
1630 Clouds -10 1023 39 0 3.21 120 15:43 03.03.2020
1631 Clouds -10 1023 41 0 3 123 15:21 03.03.2020
1632 Clouds -10 1023 41 0 3 123 15:21 03.03.2020
1633 Clouds -10 1023 41 0 3 123 14:55 03.03.2020
1634 Clouds -10 1023 39 0 3.21 120 14:36 03.03.2020
1635 Clouds -10 1023 47 0 2.71 132 14:18 03.03.2020
1636 Clouds -9 1023 48 0 2.47 132 13:42 03.03.2020
1637 Clouds -10 1023 47 0 2.71 132 13:24 03.03.2020
1638 Clouds -10 1023 47 0 2.71 132 12:55 03.03.2020
1639 Clouds -10 1023 47 0 2.71 132 12:37 03.03.2020
1640 Clouds -10 1023 47 0 2.71 132 12:18 03.03.2020
1641 Clouds -10 1023 47 0 2.71 132 11:38 03.03.2020
1642 Clear -4 1021 70 0 0.61 142 11:19 03.03.2020
1643 Clear -4 1021 70 0 0.61 142 10:57 03.03.2020
1644 Clear -4 1021 70 0 0.61 142 10:39 03.03.2020
1645 Clear -4 1021 70 0 0.61 142 10:19 03.03.2020
1646 Clear -4 1021 70 0 0.61 142 10:19 03.03.2020
1647 Clear -4 1021 70 0 0.61 142 09:45 03.03.2020
1648 Clear -4 1021 70 0 0.61 142 09:23 03.03.2020
1649 Clear -4 1021 70 0 0.61 142 08:59 03.03.2020
1650 Clear -4 1021 70 0 0.61 142 08:40 03.03.2020
1651 Clear -5 1021 70 0 0.63 141 08:22 03.03.2020
1652 Clear -5 1023 56 0 1.05 249 07:44 03.03.2020
1653 Clear -5 1023 56 0 1.05 249 07:24 03.03.2020
1654 Clear -5 1023 56 0 1.05 249 06:55 03.03.2020
1655 Clear -5 1023 56 0 1.05 249 06:27 03.03.2020
1656 Clear -5 1023 56 0 1.05 249 05:49 03.03.2020
1657 Clear -5 1023 56 0 1.05 249 05:31 03.03.2020
1658 Clear -8 1028 65 0 0.87 145 04:44 03.03.2020
1659 Clear -8 1028 65 0 0.87 145 02:24 03.03.2020
1660 Clear -14 1031 44 0 1.52 133 01:20 03.03.2020
1661 Clear -14 1031 44 0 1.52 133 00:38 03.03.2020
1662 Clear -14 1031 44 0 1.52 133 00:19 03.03.2020
1663 Clear -14 1031 44 0 1.52 133 23:43 02.03.2020
1664 Clear -14 1031 44 0 1.52 133 23:23 02.03.2020
1665 Clear -16 1030 38 0 1.14 136 22:56 02.03.2020
1666 Clear -16 1030 38 0 1.14 136 22:56 02.03.2020
1667 Clear -16 1030 38 0 1.14 136 22:56 02.03.2020
1668 Clear -16 1030 38 0 1.14 136 22:38 02.03.2020
1669 Clear -16 1030 38 0 1.14 136 22:19 02.03.2020
1670 Clear -16 1030 38 0 1.14 136 21:43 02.03.2020
1671 Clear -16 1030 38 0 1.14 136 21:24 02.03.2020
1672 Clear -16 1030 38 0 1.14 136 20:59 02.03.2020
1673 Clear -16 1030 38 0 1.14 136 20:41 02.03.2020
1674 Clear -16 1031 38 0 1.09 134 20:22 02.03.2020
1675 Clear -17 1033 36 0 1.24 119 19:58 02.03.2020
1676 Clear -17 1033 36 0 1.24 119 19:39 02.03.2020
1677 Clear -17 1033 36 0 1.24 119 19:20 02.03.2020
1678 Clear -17 1033 36 0 1.24 119 18:56 02.03.2020
1679 Clear -17 1033 36 0 1.24 119 18:38 02.03.2020
1680 Clear -17 1033 36 0 1.24 119 18:18 02.03.2020
1681 Clear -17 1033 36 0 1.24 119 17:56 02.03.2020
1682 Clear -17 1033 36 0 1.24 119 17:38 02.03.2020
1683 Clear -18 1033 40 0 1.83 106 17:19 02.03.2020
1684 Clear -18 1033 40 0 1.83 106 16:42 02.03.2020
1685 Clear -18 1033 40 0 1.83 106 16:23 02.03.2020
1686 Clear -18 1033 40 0 1.83 106 15:54 02.03.2020
1687 Clear -18 1033 40 0 1.83 106 15:36 02.03.2020
1688 Clear -18 1033 40 0 1.83 106 15:18 02.03.2020
1689 Clear -18 1033 40 0 1.83 106 14:37 02.03.2020
1690 Clear -18 1033 50 0 1.59 95 14:19 02.03.2020
1691 Clear -18 1033 50 0 1.59 95 14:19 02.03.2020
1692 Clear -18 1033 50 0 1.59 95 13:44 02.03.2020
1693 Clear -18 1033 49 0 1.6 100 13:20 02.03.2020
1694 Clear -18 1033 49 0 1.6 100 12:59 02.03.2020
1695 Clear -18 1033 49 0 1.6 100 12:41 02.03.2020
1696 Clear -18 1033 49 0 1.6 100 12:19 02.03.2020
1697 Clear -18 1033 49 0 1.6 100 11:39 02.03.2020
1698 Clear -12 1030 73 0 0.49 321 11:19 02.03.2020
1699 Clear -12 1030 73 0 0.49 321 10:56 02.03.2020
1700 Clear -12 1030 73 0 0.49 321 10:37 02.03.2020
1701 Clear -12 1030 73 0 0.49 321 10:18 02.03.2020
1702 Clear -12 1030 73 0 0.49 321 09:49 02.03.2020
1703 Clear -12 1030 73 0 0.49 321 09:49 02.03.2020
1704 Clear -12 1030 73 0 0.49 321 09:30 02.03.2020
1705 Clear -12 1030 73 0 0.49 321 08:49 02.03.2020
1706 Clear -12 1030 73 0 0.49 321 08:23 02.03.2020
1707 Clear -12 1033 42 0 0.58 305 07:51 02.03.2020
1708 Clear -12 1033 42 0 0.58 305 07:31 02.03.2020
1709 Clear -12 1033 42 0 0.58 305 06:50 02.03.2020
1710 Clear -12 1033 42 0 0.58 305 06:26 02.03.2020
1711 Clear -12 1033 42 0 0.58 305 05:25 02.03.2020
1712 Clear -17 1038 52 0 1.48 83 03:28 02.03.2020
1713 Clear -17 1038 52 0 1.48 83 02:55 02.03.2020
1714 Clear -17 1038 52 0 1.48 83 02:30 02.03.2020
1715 Clear -24 1041 55 0 2.06 91 01:36 02.03.2020
1716 Clear -24 1041 55 0 2.06 91 01:18 02.03.2020
1717 Clear -24 1041 54 0 1.97 90 00:22 02.03.2020
1718 Clear -24 1041 54 0 1.97 90 23:42 01.03.2020
1719 Clear -24 1041 54 0 1.97 90 23:23 01.03.2020
1720 Clear -24 1041 79 0 1.84 81 22:45 01.03.2020
1721 Clear -24 1041 79 0 1.84 81 22:21 01.03.2020
1722 Clear -24 1041 79 0 1.84 81 21:59 01.03.2020
1723 Clear -24 1041 79 0 1.84 81 21:59 01.03.2020
1724 Clear -24 1041 79 0 1.84 81 21:40 01.03.2020
1725 Clear -24 1041 79 0 1.84 81 21:22 01.03.2020
1726 Clear -24 1041 79 0 1.84 81 20:55 01.03.2020
1727 Clear -24 1041 79 0 1.84 81 20:37 01.03.2020
1728 Clouds -23 1041 95 0 1.8 83 20:19 01.03.2020
1729 Clouds -23 1041 95 0 1.8 83 19:41 01.03.2020
1730 Clouds -23 1041 95 0 1.8 83 19:21 01.03.2020
1731 Clouds -23 1041 95 0 1.8 83 18:57 01.03.2020
1732 Clouds -23 1041 95 0 1.8 83 18:39 01.03.2020
1733 Clouds -23 1041 95 0 1.8 83 18:19 01.03.2020
1734 Clouds -23 1041 95 0 1.8 83 17:55 01.03.2020
1735 Clouds -23 1041 95 0 1.8 83 17:37 01.03.2020
1736 Clouds -23 1039 100 0 1.03 99 17:18 01.03.2020
1737 Clouds -23 1039 100 0 1.03 99 16:40 01.03.2020
1738 Clouds -23 1039 100 0 1.03 99 16:20 01.03.2020
1739 Clouds -23 1039 100 0 1.03 99 15:59 01.03.2020
1740 Clouds -23 1039 100 0 1.03 99 15:41 01.03.2020
1741 Clouds -23 1039 100 0 1.03 99 15:23 01.03.2020
1742 Clouds -23 1039 100 0 1.03 99 14:58 01.03.2020
1743 Clouds -23 1039 100 0 1.03 99 14:40 01.03.2020
1744 Clouds -23 1039 100 0 1.03 99 14:22 01.03.2020
1745 Clouds -20 1036 98 0 1.19 284 13:59 01.03.2020
1746 Clouds -20 1036 98 0 1.19 284 13:41 01.03.2020
1747 Clouds -20 1036 99 0 1.06 274 13:20 01.03.2020
1748 Clouds -20 1036 99 0 1.06 274 12:57 01.03.2020
1749 Clouds -20 1036 98 0 1.12 279 12:38 01.03.2020
1750 Clouds -20 1036 99 0 1.06 274 12:20 01.03.2020
1751 Clouds -20 1036 99 0 1.06 274 11:40 01.03.2020
1752 Clouds -20 1036 99 0 1.06 274 11:40 01.03.2020
1753 Clouds -12 1030 84 0 2.86 294 11:20 01.03.2020
1754 Clouds -12 1030 84 0 2.86 294 10:56 01.03.2020
1755 Clouds -12 1029 82 0 2.92 282 10:37 01.03.2020
1756 Clouds -12 1029 82 0 2.92 282 10:19 01.03.2020
1757 Clouds -12 1030 84 0 2.86 294 09:46 01.03.2020
1758 Clouds -12 1030 84 0 2.86 294 09:26 01.03.2020
1759 Clouds -12 1029 82 0 2.92 282 08:52 01.03.2020
1760 Clouds -12 1030 84 0 2.86 294 08:29 01.03.2020
1761 Clouds -9 1029 62 0 3.24 272 07:59 01.03.2020
1762 Clouds -9 1029 62 0 3.24 272 07:40 01.03.2020
1763 Clouds -9 1029 62 0 3.24 272 07:22 01.03.2020
1764 Clouds -9 1029 62 0 3.24 272 06:44 01.03.2020
1765 Clouds -9 1029 62 0 3.24 272 06:23 01.03.2020
1766 Clouds -11 1032 57 0 1.14 245 03:40 01.03.2020
1767 Clouds -11 1032 57 0 1.14 245 02:23 01.03.2020
1768 Clouds -17 1035 40 0 1 152 01:48 01.03.2020
1769 Clouds -17 1035 40 0 1 152 01:20 01.03.2020
1770 Clouds -16 1035 40 0 1.28 152 00:41 01.03.2020
1771 Clouds -16 1035 40 0 1.28 152 00:20 01.03.2020
1772 Clouds -16 1035 40 0 1.28 152 23:45 29.02.2020
1773 Clouds -16 1035 40 0 1.28 152 23:26 29.02.2020
1774 Clouds -16 1036 44 0 1.76 124 22:42 29.02.2020
1775 Clouds -16 1036 44 0 1.76 124 22:22 29.02.2020
1776 Clouds -16 1036 44 0 1.76 124 21:42 29.02.2020
1777 Clouds -16 1036 44 0 1.76 124 21:22 29.02.2020
1778 Clouds -16 1036 44 0 1.76 124 20:43 29.02.2020
1779 Clouds -16 1036 44 0 1.76 124 20:43 29.02.2020
1780 Clouds -16 1036 44 0 1.79 123 20:21 29.02.2020
1781 Clouds -16 1038 52 0 2.15 133 19:56 29.02.2020
1782 Clouds -16 1038 52 0 2.15 133 19:38 29.02.2020
1783 Clouds -16 1038 52 0 2.15 133 19:19 29.02.2020
1784 Clouds -16 1038 52 0 2.15 133 18:43 29.02.2020
1785 Clouds -16 1038 52 0 2.15 133 18:24 29.02.2020
1786 Clouds -16 1038 52 0 2.15 133 17:57 29.02.2020
1787 Clouds -16 1038 52 0 2.15 133 17:39 29.02.2020
1788 Clear -18 1039 72 0 2.3 112 17:20 29.02.2020
1789 Clear -18 1039 72 0 2.3 112 16:45 29.02.2020
1790 Clear -18 1039 72 0 2.3 112 16:22 29.02.2020
1791 Clear -18 1039 72 0 2.3 112 15:58 29.02.2020
1792 Clear -18 1039 72 0 2.3 112 15:40 29.02.2020
1793 Clear -18 1039 72 0 2.3 112 15:21 29.02.2020
1794 Clear -18 1039 72 0 2.3 112 14:41 29.02.2020
1795 Clear -18 1039 72 0 2.3 112 14:22 29.02.2020
1796 Clear -18 1038 84 0 1.37 123 13:47 29.02.2020
1797 Clear -18 1038 84 0 1.37 123 13:28 29.02.2020
1798 Clear -18 1037 80 0 1.37 128 12:59 29.02.2020
1799 Clear -18 1037 80 0 1.37 128 12:40 29.02.2020
1800 Clear -18 1037 80 0 1.37 128 12:21 29.02.2020
1801 Clear -18 1037 80 0 1.37 128 11:55 29.02.2020
1802 Clear -18 1037 80 0 1.37 128 11:37 29.02.2020
1803 Clear -11 1035 82 0 0.78 292 11:18 29.02.2020
1804 Clear -11 1035 82 0 0.78 292 10:44 29.02.2020
1805 Clear -11 1035 82 0 0.78 292 10:26 29.02.2020
1806 Clear -11 1035 82 0 0.78 292 09:47 29.02.2020
1807 Clear -11 1035 82 0 0.78 292 09:23 29.02.2020
1808 Clear -11 1035 82 0 0.78 292 08:42 29.02.2020
1809 Clear -11 1034 81 0 0.82 278 08:22 29.02.2020
1810 Clear -11 1036 64 0 1.26 303 07:56 29.02.2020
1811 Clear -11 1036 64 0 1.26 303 07:36 29.02.2020
1812 Clear -11 1036 64 0 1.26 303 07:18 29.02.2020
1813 Clear -11 1036 64 0 1.26 303 06:41 29.02.2020
1814 Clear -11 1036 64 0 1.26 303 06:22 29.02.2020
1815 Clear -11 1036 64 0 1.26 303 05:40 29.02.2020
1816 Clouds -14 1039 75 0 1.06 68 04:45 29.02.2020
1817 Clouds -14 1039 75 0 1.06 68 03:40 29.02.2020
1818 Clouds -14 1039 75 0 1.06 68 03:21 29.02.2020
1819 Clouds -14 1039 75 0 1.06 68 02:34 29.02.2020
1820 Clear -19 1039 81 0 2.41 92 00:58 29.02.2020
1821 Clear -19 1039 81 0 2.41 92 00:36 29.02.2020
1822 Clear -19 1039 81 0 2.41 92 23:43 28.02.2020
1823 Clear -19 1039 81 0 2.41 92 23:24 28.02.2020
1824 Clear -20 1037 85 0 1.52 79 22:54 28.02.2020
1825 Clear -20 1037 85 0 1.52 79 22:36 28.02.2020
1826 Clear -20 1037 85 0 1.52 79 22:18 28.02.2020
1827 Clear -20 1037 85 0 1.52 79 21:41 28.02.2020
1828 Clear -20 1037 85 0 1.52 79 21:20 28.02.2020
1829 Clear -20 1037 85 0 1.52 79 20:40 28.02.2020
1830 Clear -19 1036 72 0 2.6 87 20:22 28.02.2020
1831 Clouds -20 1035 79 0 1.14 100 19:57 28.02.2020
1832 Clouds -20 1035 79 0 1.14 100 19:39 28.02.2020
1833 Clouds -20 1035 79 0 1.14 100 19:20 28.02.2020
1834 Clouds -20 1035 79 0 1.14 100 18:55 28.02.2020
1835 Clouds -20 1035 79 0 1.14 100 18:55 28.02.2020
1836 Clouds -20 1035 79 0 1.14 100 18:37 28.02.2020
1837 Clouds -20 1035 79 0 1.14 100 18:19 28.02.2020
1838 Clouds -20 1035 79 0 1.14 100 17:40 28.02.2020
1839 Clouds -20 1035 79 0 1.14 100 17:40 28.02.2020
1840 Clouds -20 1035 79 0 1.14 100 17:22 28.02.2020
1841 Clouds -18 1032 90 0 1.08 90 16:44 28.02.2020
1842 Clouds -18 1032 90 0 1.08 90 16:20 28.02.2020
1843 Clouds -18 1032 90 0 1.08 90 15:58 28.02.2020
1844 Clouds -18 1032 90 0 1.08 90 15:40 28.02.2020
1845 Clouds -18 1032 90 0 1.08 90 15:19 28.02.2020
1846 Clouds -18 1032 90 0 1.08 90 14:57 28.02.2020
1847 Clouds -18 1032 90 0 1.08 90 14:38 28.02.2020
1848 Snow -15 1027 99 0 1.62 308 14:18 28.02.2020
1849 Snow -15 1027 99 0 1.62 308 13:41 28.02.2020
1850 Snow -15 1027 98 0 2.08 287 13:20 28.02.2020
1851 Snow -15 1027 98 0 2.08 287 12:58 28.02.2020
1852 Snow -15 1027 98 0 2.08 287 12:39 28.02.2020
1853 Snow -15 1027 98 0 2.08 287 12:21 28.02.2020
1854 Snow -15 1027 98 0 2.08 287 11:41 28.02.2020
1855 Snow -15 1027 98 0 2.08 287 11:22 28.02.2020
1856 Clouds -9 1019 85 0 3.23 250 10:55 28.02.2020
1857 Clouds -9 1019 85 0 3.23 250 10:36 28.02.2020
1858 Clouds -9 1019 85 0 3.23 250 10:18 28.02.2020
1859 Clouds -9 1019 85 0 3.23 250 09:42 28.02.2020
1860 Clouds -9 1019 85 0 3.23 250 09:20 28.02.2020
1861 Clouds -9 1019 85 0 3.23 250 08:42 28.02.2020
1862 Clouds -9 1019 85 0 3.23 250 08:22 28.02.2020
1863 Clouds -6 1015 76 0 3.3 298 07:47 28.02.2020
1864 Clouds -6 1015 76 0 3.3 298 07:27 28.02.2020
1865 Clouds -6 1015 76 0 3.3 298 06:59 28.02.2020
1866 Clouds -6 1015 76 0 3.3 298 06:38 28.02.2020
1867 Clouds -6 1015 76 0 3.3 298 05:31 28.02.2020
1868 Snow -6 1014 93 0 1.97 255 04:32 28.02.2020
1869 Snow -6 1014 93 0 1.97 255 03:34 28.02.2020
1870 Snow -6 1014 93 0 1.97 255 02:41 28.02.2020
1871 Snow -8 1014 87 0 2.07 162 01:48 28.02.2020
1872 Snow -7 1014 92 0 1.63 177 00:33 28.02.2020
1873 Snow -7 1014 92 0 1.63 177 23:47 27.02.2020
1874 Snow -7 1014 92 0 1.63 177 23:23 27.02.2020
1875 Snow -7 1013 66 0 1.16 235 22:59 27.02.2020
1876 Snow -7 1013 66 0 1.16 235 22:40 27.02.2020
1877 Snow -7 1013 66 0 1.16 235 22:21 27.02.2020
1878 Snow -7 1013 66 0 1.16 235 21:42 27.02.2020
1879 Snow -7 1013 66 0 1.16 235 21:24 27.02.2020
1880 Snow -7 1013 66 0 1.16 235 21:24 27.02.2020
1881 Snow -7 1013 66 0 1.16 235 20:59 27.02.2020
1882 Snow -7 1013 66 0 1.16 235 20:41 27.02.2020
1883 Snow -7 1013 71 0 0.86 233 20:23 27.02.2020
1884 Clouds -9 1016 55 0 2.06 144 19:57 27.02.2020
1885 Clouds -9 1016 55 0 2.06 144 19:39 27.02.2020
1886 Clouds -9 1016 55 0 2.06 144 19:21 27.02.2020
1887 Clouds -9 1016 55 0 2.06 144 18:56 27.02.2020
1888 Clouds -9 1016 55 0 2.06 144 18:37 27.02.2020
1889 Clouds -9 1016 55 0 2.06 144 18:19 27.02.2020
1890 Clouds -9 1016 55 0 2.06 144 17:54 27.02.2020
1891 Clouds -9 1016 55 0 2.06 144 17:36 27.02.2020
1892 Clouds -11 1017 58 0 2.42 140 17:18 27.02.2020
1893 Clouds -11 1017 58 0 2.42 140 16:41 27.02.2020
1894 Clouds -11 1017 58 0 2.42 140 16:41 27.02.2020
1895 Clouds -11 1017 58 0 2.42 140 16:20 27.02.2020
1896 Clouds -11 1017 58 0 2.42 140 15:59 27.02.2020
1897 Clouds -11 1017 58 0 2.42 140 15:38 27.02.2020
1898 Clouds -11 1017 58 0 2.42 140 15:38 27.02.2020
1899 Clouds -11 1017 58 0 2.42 140 15:19 27.02.2020
1900 Clouds -11 1017 58 0 2.42 140 14:58 27.02.2020
1901 Clouds -11 1017 58 0 2.42 140 14:37 27.02.2020
1902 Clouds -10 1018 63 0 2.4 139 14:19 27.02.2020
1903 Clouds -10 1018 63 0 2.4 139 13:42 27.02.2020
1904 Clouds -10 1018 62 0 2.51 135 13:21 27.02.2020
1905 Clouds -10 1018 62 0 2.51 135 12:56 27.02.2020
1906 Clouds -10 1018 62 0 2.51 135 12:38 27.02.2020
1907 Clouds -10 1018 62 0 2.51 135 12:18 27.02.2020
1908 Clouds -10 1018 62 0 2.51 135 11:41 27.02.2020
1909 Clouds -10 1018 62 0 2.51 135 11:21 27.02.2020
1910 Clouds -10 1018 62 0 2.51 135 11:21 27.02.2020
1911 Clouds -7 1017 78 0 0.82 172 10:44 27.02.2020
1912 Clouds -7 1017 78 0 0.82 172 10:24 27.02.2020
1913 Clouds -7 1017 78 0 0.82 172 09:49 27.02.2020
1914 Clouds -7 1017 78 0 0.82 172 09:30 27.02.2020
1915 Clouds -7 1017 78 0 0.82 172 08:58 27.02.2020
1916 Clouds -7 1017 78 0 0.82 172 08:40 27.02.2020
1917 Clouds -7 1017 78 0 0.82 172 08:22 27.02.2020
1918 Clouds -7 1021 62 0 1.31 234 07:44 27.02.2020
1919 Clouds -7 1021 62 0 1.31 234 07:25 27.02.2020
1920 Clouds -7 1021 62 0 1.31 234 06:46 27.02.2020
1921 Clouds -7 1021 62 0 1.31 234 05:43 27.02.2020
1922 Clouds -11 1026 73 0 1.52 144 03:40 27.02.2020
1923 Clouds -11 1026 73 0 1.52 144 02:21 27.02.2020
1924 Clouds -16 1030 61 0 1.43 126 00:45 27.02.2020
1925 Clouds -16 1030 61 0 1.43 126 00:26 27.02.2020
1926 Clouds -16 1030 61 0 1.43 126 23:40 26.02.2020
1927 Clouds -16 1030 61 0 1.43 126 23:40 26.02.2020
1928 Clouds -17 1029 60 0 1.21 118 23:19 26.02.2020
1929 Clouds -17 1029 60 0 1.21 118 22:57 26.02.2020
1930 Clouds -17 1029 60 0 1.21 118 22:39 26.02.2020
1931 Clouds -17 1029 60 0 1.21 118 22:19 26.02.2020
1932 Clouds -17 1029 60 0 1.21 118 21:55 26.02.2020
1933 Clouds -17 1029 60 0 1.21 118 21:36 26.02.2020
1934 Clouds -17 1029 60 0 1.21 118 21:18 26.02.2020
1935 Clouds -17 1029 60 0 1.21 118 20:54 26.02.2020
1936 Clouds -17 1029 60 0 1.21 118 20:54 26.02.2020
1937 Clouds -17 1029 60 0 1.21 118 20:36 26.02.2020
1938 Clouds -17 1030 59 0 1.64 130 20:18 26.02.2020
1939 Clouds -17 1031 61 0 1.66 125 19:44 26.02.2020
1940 Clouds -17 1031 61 0 1.66 125 19:20 26.02.2020
1941 Clouds -17 1031 61 0 1.66 125 18:58 26.02.2020
1942 Clouds -17 1031 61 0 1.66 125 18:39 26.02.2020
1943 Clouds -17 1031 61 0 1.66 125 18:21 26.02.2020
1944 Clouds -17 1031 61 0 1.66 125 17:42 26.02.2020
1945 Clouds -17 1031 61 0 1.66 125 17:23 26.02.2020
1946 Clouds -17 1031 65 0 1.93 115 16:57 26.02.2020
1947 Clouds -17 1031 65 0 1.93 115 16:39 26.02.2020
1948 Clouds -17 1031 65 0 1.93 115 16:39 26.02.2020
1949 Clouds -17 1031 65 0 1.93 115 16:21 26.02.2020
1950 Clouds -17 1031 65 0 1.93 115 15:46 26.02.2020
1951 Clouds -17 1031 65 0 1.93 115 15:28 26.02.2020
1952 Clouds -17 1031 65 0 1.93 115 14:57 26.02.2020
1953 Clouds -17 1031 65 0 1.93 115 14:39 26.02.2020
1954 Clouds -17 1030 75 0 1.81 130 14:21 26.02.2020
1955 Clouds -17 1030 75 0 1.81 130 13:42 26.02.2020
1956 Clouds -17 1030 75 0 1.81 130 13:42 26.02.2020
1957 Clouds -17 1030 76 0 1.69 128 13:20 26.02.2020
1958 Clouds -17 1030 76 0 1.69 128 12:39 26.02.2020
1959 Clouds -17 1030 76 0 1.69 128 12:20 26.02.2020
1960 Clouds -17 1030 76 0 1.69 128 11:57 26.02.2020
1961 Clouds -17 1030 76 0 1.69 128 11:39 26.02.2020
1962 Clouds -11 1027 81 0 1.59 275 11:21 26.02.2020
1963 Clouds -11 1027 81 0 1.59 275 10:42 26.02.2020
1964 Clouds -11 1027 81 0 1.59 275 10:23 26.02.2020
1965 Clouds -11 1027 81 0 1.59 275 09:57 26.02.2020
1966 Clouds -11 1027 81 0 1.59 275 09:39 26.02.2020
1967 Clouds -11 1027 81 0 1.59 275 09:20 26.02.2020
1968 Clouds -11 1027 81 0 1.59 275 08:39 26.02.2020
1969 Clouds -9 1027 70 0 2.12 297 08:19 26.02.2020
1970 Clouds -9 1027 70 0 2.12 297 07:51 26.02.2020
1971 Clouds -9 1027 70 0 2.12 297 07:30 26.02.2020
1972 Clouds -9 1027 70 0 2.12 297 06:58 26.02.2020
1973 Clouds -9 1027 70 0 2.12 297 06:39 26.02.2020
1974 Clouds -9 1027 70 0 2.12 297 06:18 26.02.2020
1975 Clouds -9 1027 70 0 2.12 297 05:47 26.02.2020
1976 Clouds -10 1028 73 0 1.39 248 04:52 26.02.2020
1977 Clouds -10 1028 73 0 1.39 248 02:55 26.02.2020
1978 Clouds -14 1027 71 0 1.56 189 01:51 26.02.2020
1979 Clouds -13 1028 71 0 1.62 202 01:21 26.02.2020
1980 Clouds -13 1028 71 0 1.62 202 00:28 26.02.2020
1981 Clouds -13 1028 71 0 1.62 202 23:59 25.02.2020
1982 Clouds -13 1028 71 0 1.62 202 23:41 25.02.2020
1983 Clouds -13 1028 71 0 1.62 202 23:21 25.02.2020
1984 Clouds -13 1028 71 0 1.62 202 23:21 25.02.2020
1985 Clouds -13 1026 69 0 2.28 174 22:43 25.02.2020
1986 Clouds -13 1026 69 0 2.28 174 22:20 25.02.2020
1987 Clouds -13 1026 69 0 2.28 174 21:58 25.02.2020
1988 Clouds -13 1026 69 0 2.28 174 21:37 25.02.2020
1989 Clouds -13 1026 69 0 2.28 174 21:19 25.02.2020
1990 Clouds -13 1026 69 0 2.28 174 20:56 25.02.2020
1991 Clouds -13 1026 69 0 2.28 174 20:37 25.02.2020
1992 Clouds -13 1025 69 0 3.45 155 20:19 25.02.2020
1993 Clouds -13 1025 69 0 3.45 155 19:43 25.02.2020
1994 Clouds -13 1025 69 0 3.45 155 19:22 25.02.2020
1995 Clouds -13 1025 69 0 3.45 155 18:58 25.02.2020
1996 Clouds -13 1025 69 0 3.45 155 18:39 25.02.2020
1997 Clouds -13 1025 69 0 3.45 155 18:20 25.02.2020
1998 Clouds -13 1025 69 0 3.45 155 17:55 25.02.2020
1999 Clouds -13 1025 69 0 3.45 155 17:36 25.02.2020
2000 Clouds -12 1024 62 0 4.2 140 17:18 25.02.2020
2001 Clouds -12 1024 62 0 4.2 140 16:42 25.02.2020
2002 Clouds -12 1024 62 0 4.2 140 16:22 25.02.2020
2003 Clouds -12 1024 62 0 4.2 140 16:22 25.02.2020
2004 Clouds -12 1024 62 0 4.2 140 15:59 25.02.2020
2005 Clouds -12 1024 62 0 4.2 140 15:59 25.02.2020
2006 Clouds -12 1024 62 0 4.2 140 15:41 25.02.2020
2007 Clouds -12 1024 62 0 4.2 140 15:20 25.02.2020
2008 Clouds -12 1024 62 0 4.2 140 14:58 25.02.2020
2009 Clouds -12 1024 62 0 4.2 140 14:38 25.02.2020
2010 Clouds -13 1024 57 0 3.4 149 14:18 25.02.2020
2011 Clouds -13 1024 57 0 3.4 149 13:58 25.02.2020
2012 Clouds -13 1024 57 0 3.4 149 13:39 25.02.2020
2013 Clouds -13 1024 57 0 3.4 149 13:20 25.02.2020
2014 Clouds -13 1024 56 0 3.63 146 12:55 25.02.2020
2015 Clouds -13 1024 56 0 3.63 146 12:37 25.02.2020
2016 Clouds -13 1024 56 0 3.63 146 12:18 25.02.2020
2017 Clouds -13 1024 56 0 3.63 146 11:42 25.02.2020
2018 Clear -9 1020 75 0 2.87 159 11:20 25.02.2020
2019 Clear -9 1020 75 0 2.87 159 10:59 25.02.2020
2020 Clear -9 1020 75 0 2.87 159 10:41 25.02.2020
2021 Clear -9 1020 75 0 2.87 159 10:22 25.02.2020
2022 Clear -9 1020 75 0 2.87 159 09:42 25.02.2020
2023 Clear -9 1020 75 0 2.87 159 09:23 25.02.2020
2024 Clear -9 1020 75 0 2.87 159 08:56 25.02.2020
2025 Clear -9 1020 75 0 2.87 159 08:37 25.02.2020
2026 Clear -8 1023 62 0 1.92 162 08:19 25.02.2020
2027 Clear -8 1023 62 0 1.92 162 07:41 25.02.2020
2028 Clear -8 1023 62 0 1.92 162 07:20 25.02.2020
2029 Clear -8 1023 62 0 1.92 162 06:41 25.02.2020
2030 Clear -8 1023 62 0 1.92 162 05:37 25.02.2020
2031 Clear -12 1027 73 0 2.46 132 03:35 25.02.2020
2032 Clear -17 1028 81 0 2.47 125 01:36 25.02.2020
2033 Clouds -17 1028 82 0 2.35 125 00:48 25.02.2020
2034 Clouds -17 1028 82 0 2.35 125 00:48 25.02.2020
2035 Clouds -17 1028 82 0 2.35 125 00:29 25.02.2020
2036 Clouds -17 1028 82 0 2.35 125 23:44 24.02.2020
2037 Clouds -17 1028 82 0 2.35 125 23:21 24.02.2020
2038 Clouds -17 1027 95 0 1.82 124 22:43 24.02.2020
2039 Clouds -17 1027 95 0 1.82 124 22:21 24.02.2020
2040 Clouds -17 1027 95 0 1.82 124 21:57 24.02.2020
2041 Clouds -17 1027 95 0 1.82 124 21:57 24.02.2020
2042 Clouds -17 1027 95 0 1.82 124 21:39 24.02.2020
2043 Clouds -17 1027 95 0 1.82 124 21:20 24.02.2020
2044 Clouds -17 1027 95 0 1.82 124 20:58 24.02.2020
2045 Clouds -17 1027 95 0 1.82 124 20:40 24.02.2020
2046 Clouds -17 1027 95 0 1.82 124 20:40 24.02.2020
2047 Clouds -18 1027 99 0 0.93 160 20:19 24.02.2020
2048 Clouds -18 1027 99 0 0.93 160 19:57 24.02.2020
2049 Clouds -18 1027 99 0 0.93 160 19:38 24.02.2020
2050 Clouds -18 1027 99 0 0.93 160 19:20 24.02.2020
2051 Clouds -18 1027 99 0 0.93 160 18:55 24.02.2020
2052 Clouds -18 1027 99 0 0.93 160 18:36 24.02.2020
2053 Clouds -18 1027 99 0 0.93 160 18:18 24.02.2020
2054 Clouds -18 1027 99 0 0.93 160 17:40 24.02.2020
2055 Clouds -16 1026 98 0 1.33 142 17:20 24.02.2020
2056 -273 0 0 0 0 0 16:58 24.02.2020
2057 -273 0 0 0 0 0 16:39 24.02.2020
2058 Clouds -16 1026 98 0 1.33 142 16:20 24.02.2020
2059 Clouds -16 1026 98 0 1.33 142 15:58 24.02.2020
2060 Clouds -16 1026 98 0 1.33 142 15:39 24.02.2020
2061 Clouds -16 1026 98 0 1.33 142 15:21 24.02.2020
2062 Clouds -16 1026 98 0 1.33 142 14:57 24.02.2020
2063 Clouds -16 1026 98 0 1.33 142 14:38 24.02.2020
2064 Snow -15 1024 99 0 1.07 227 14:18 24.02.2020
2065 Snow -15 1024 99 0 1.07 227 13:55 24.02.2020
2066 Snow -15 1024 99 0 1.07 227 13:36 24.02.2020
2067 Clouds -15 1023 99 0 1.08 230 13:18 24.02.2020
2068 Clouds -15 1023 99 0 1.08 230 12:42 24.02.2020
2069 Clouds -15 1023 99 0 1.08 230 12:23 24.02.2020
2070 Clouds -15 1023 99 0 1.08 230 12:23 24.02.2020
2071 Clouds -15 1023 99 0 1.08 230 11:50 24.02.2020
2072 Clouds -15 1023 99 0 1.08 230 11:32 24.02.2020
2073 Snow -9 1018 93 0 2.47 251 10:58 24.02.2020
2074 Snow -9 1018 93 0 2.47 251 10:40 24.02.2020
2075 Snow -9 1018 93 0 2.47 251 10:22 24.02.2020
2076 Snow -9 1018 93 0 2.47 251 09:40 24.02.2020
2077 Snow -9 1018 93 0 2.47 251 09:19 24.02.2020
2078 Snow -9 1018 93 0 2.47 251 09:19 24.02.2020
2079 Snow -9 1018 93 0 2.47 251 08:51 24.02.2020
2080 Snow -9 1018 93 0 2.47 251 08:29 24.02.2020
2081 Snow -9 1018 93 0 2.47 251 08:29 24.02.2020
2082 Snow -8 1017 92 0 3.47 253 07:55 24.02.2020
2083 Snow -8 1017 92 0 3.47 253 07:33 24.02.2020
2084 Snow -8 1017 92 0 3.47 253 06:52 24.02.2020
2085 Snow -8 1017 92 0 3.47 253 06:24 24.02.2020
2086 Snow -8 1017 92 0 3.47 253 05:45 24.02.2020
2087 Snow -8 1017 92 0 3.47 253 05:25 24.02.2020
2088 Snow -7 1017 95 0 3.16 253 02:58 24.02.2020
2089 Snow -8 1016 96 0 2.13 312 02:18 24.02.2020
2090 Snow -8 1016 96 0 2.13 312 01:30 24.02.2020
2091 Snow -8 1016 96 0 1.73 335 00:44 24.02.2020
2092 Snow -8 1016 96 0 1.73 335 00:20 24.02.2020
2093 Snow -8 1016 96 0 1.73 335 23:45 23.02.2020
2094 Snow -8 1016 96 0 1.73 335 23:24 23.02.2020
2095 Snow -8 1014 95 0 1.63 63 22:59 23.02.2020
2096 Snow -8 1014 95 0 1.63 63 22:41 23.02.2020
2097 Snow -8 1014 95 0 1.63 63 22:21 23.02.2020
2098 Snow -8 1014 95 0 1.63 63 21:54 23.02.2020
2099 Snow -8 1014 95 0 1.63 63 21:36 23.02.2020
2100 Snow -8 1014 95 0 1.63 63 21:18 23.02.2020
2101 Snow -8 1014 95 0 1.63 63 20:55 23.02.2020
2102 Snow -8 1014 95 0 1.63 63 20:36 23.02.2020
2103 Clouds -10 1015 73 0 0.19 224 20:18 23.02.2020
2104 Clouds -10 1015 73 0 0.19 224 19:41 23.02.2020
2105 Clouds -10 1015 73 0 0.19 224 19:20 23.02.2020
2106 Clouds -10 1015 73 0 0.19 224 18:59 23.02.2020
2107 Clouds -10 1015 73 0 0.19 224 18:40 23.02.2020
2108 Clouds -10 1015 73 0 0.19 224 18:20 23.02.2020
2109 Clouds -10 1015 73 0 0.19 224 17:58 23.02.2020
2110 Clouds -10 1015 73 0 0.19 224 17:39 23.02.2020
2111 Clouds -6 1014 70 0 1.41 198 17:21 23.02.2020
2112 Clouds -6 1014 70 0 1.41 198 16:56 23.02.2020
2113 Clouds -6 1014 70 0 1.41 198 16:36 23.02.2020
2114 Clouds -6 1014 70 0 1.41 198 16:18 23.02.2020
2115 Clouds -6 1014 70 0 1.41 198 15:40 23.02.2020
2116 Clouds -6 1014 70 0 1.41 198 15:21 23.02.2020
2117 Clouds -6 1014 70 0 1.41 198 14:59 23.02.2020
2118 Clouds -6 1014 70 0 1.41 198 14:59 23.02.2020
2119 Clouds -6 1014 70 0 1.41 198 14:41 23.02.2020
2120 Clouds -6 1014 70 0 1.41 198 14:23 23.02.2020
2121 Clouds -5 1013 67 0 1.4 242 13:58 23.02.2020
2122 Clouds -5 1013 67 0 1.4 242 13:39 23.02.2020
2123 Clouds -7 1013 69 0 1.15 280 13:21 23.02.2020
2124 Clouds -7 1013 69 0 1.15 280 12:44 23.02.2020
2125 Clouds -7 1013 69 0 1.15 280 12:23 23.02.2020
2126 Clouds -7 1013 69 0 1.15 280 11:59 23.02.2020
2127 Clouds -7 1013 69 0 1.15 280 11:37 23.02.2020
2128 Clouds -2 1010 75 0 2.11 244 11:19 23.02.2020
2129 Clouds -2 1010 75 0 2.11 244 10:56 23.02.2020
2130 Clouds -2 1010 75 0 2.11 244 10:56 23.02.2020
2131 Clouds -2 1010 75 0 2.11 244 10:37 23.02.2020
2132 Clouds -2 1010 75 0 2.11 244 10:19 23.02.2020
2133 Clouds -2 1010 75 0 2.11 244 09:40 23.02.2020
2134 Clouds -2 1010 75 0 2.11 244 09:21 23.02.2020
2135 Clouds -2 1010 75 0 2.11 244 08:57 23.02.2020
2136 Clouds -2 1010 75 0 2.11 244 08:39 23.02.2020
2137 Snow 0 1010 68 0 3.42 215 08:19 23.02.2020
2138 Snow 0 1010 68 0 3.42 215 07:40 23.02.2020
2139 Snow 0 1010 68 0 3.42 215 07:40 23.02.2020
2140 Snow 0 1010 68 0 3.42 215 06:54 23.02.2020
2141 Snow 0 1010 68 0 3.42 215 05:54 23.02.2020
2142 Clouds -2 1013 62 0 1.68 164 04:44 23.02.2020
2143 Clouds -2 1013 62 0 1.68 164 03:25 23.02.2020
2144 Clouds -2 1013 62 0 1.68 164 02:35 23.02.2020
2145 Clouds -6 1014 46 0 2.34 148 01:25 23.02.2020
2146 Clouds -6 1014 45 0 2.43 150 00:49 23.02.2020
2147 Clouds -6 1014 45 0 2.43 150 00:27 23.02.2020
2148 Clouds -6 1014 45 0 2.43 150 00:27 23.02.2020
2149 Clouds -6 1014 45 0 2.43 150 23:48 22.02.2020
2150 Clouds -6 1014 45 0 2.43 150 23:30 22.02.2020
2151 Clouds -7 1015 49 0 1.35 157 22:59 22.02.2020
2152 Clouds -7 1015 49 0 1.35 157 22:40 22.02.2020
2153 Clouds -7 1015 49 0 1.35 157 22:18 22.02.2020
2154 Clouds -7 1015 49 0 1.35 157 21:41 22.02.2020
2155 Clouds -7 1015 49 0 1.35 157 21:23 22.02.2020
2156 Clouds -7 1015 49 0 1.35 157 20:46 22.02.2020
2157 Clouds -7 1015 49 0 1.35 157 20:46 22.02.2020
2158 Clouds -7 1015 49 0 1.35 157 20:25 22.02.2020
2159 Clouds -7 1015 49 0 1.35 157 20:25 22.02.2020
2160 Clouds -7 1017 48 0 1.95 161 19:58 22.02.2020
2161 Clouds -7 1017 48 0 1.95 161 19:39 22.02.2020
2162 Clouds -7 1017 48 0 1.95 161 19:20 22.02.2020
2163 Clouds -7 1017 48 0 1.95 161 18:39 22.02.2020
2164 Clouds -7 1017 48 0 1.95 161 18:21 22.02.2020
2165 Clouds -7 1017 48 0 1.95 161 17:58 22.02.2020
2166 Clouds -7 1017 48 0 1.95 161 17:39 22.02.2020
2167 Clouds -7 1017 48 0 1.95 161 17:21 22.02.2020
2168 Clouds -8 1019 45 0 2.26 147 16:57 22.02.2020
2169 Clouds -8 1019 45 0 2.26 147 16:38 22.02.2020
2170 Clouds -8 1019 45 0 2.26 147 16:20 22.02.2020
2171 Clouds -8 1019 45 0 2.26 147 15:43 22.02.2020
2172 Clouds -8 1019 45 0 2.26 147 15:25 22.02.2020
2173 Clouds -8 1019 45 0 2.26 147 14:45 22.02.2020
2174 Clouds -8 1019 45 0 2.26 147 14:24 22.02.2020
2175 Clouds -10 1020 53 0 2.15 144 13:59 22.02.2020
2176 Clouds -10 1020 53 0 2.15 144 13:40 22.02.2020
2177 Clouds -10 1020 54 0 2.18 145 13:19 22.02.2020
2178 Clouds -10 1020 54 0 2.18 145 12:46 22.02.2020
2179 Clouds -10 1020 54 0 2.18 145 12:24 22.02.2020
2180 Clouds -10 1020 54 0 2.18 145 12:24 22.02.2020
2181 Clouds -10 1020 54 0 2.18 145 11:55 22.02.2020
2182 Clouds -10 1020 54 0 2.18 145 11:36 22.02.2020
2183 Clouds -5 1019 75 0 1.36 211 11:18 22.02.2020
2184 Clouds -5 1019 75 0 1.36 211 10:40 22.02.2020
2185 Clouds -5 1019 75 0 1.36 211 10:20 22.02.2020
2186 Clouds -5 1019 75 0 1.36 211 09:58 22.02.2020
2187 Clouds -5 1019 75 0 1.36 211 09:39 22.02.2020
2188 Clouds -5 1019 75 0 1.36 211 09:20 22.02.2020
2189 Clouds -5 1019 75 0 1.36 211 08:48 22.02.2020
2190 Clouds -5 1019 75 0 1.36 211 08:28 22.02.2020
2191 Clouds -5 1021 58 0 0.56 182 07:49 22.02.2020
2192 Clouds -5 1021 58 0 0.56 182 07:20 22.02.2020
2193 Clouds -5 1021 58 0 0.56 182 06:48 22.02.2020
2194 Clouds -5 1021 58 0 0.56 182 06:29 22.02.2020
2195 Clouds -9 1026 66 0 1.97 138 04:33 22.02.2020
2196 Clouds -9 1026 66 0 1.97 138 03:24 22.02.2020
2197 Clouds -9 1026 66 0 1.97 138 02:31 22.02.2020
2198 Clouds -14 1028 54 0 2.78 133 01:46 22.02.2020
2199 Clouds -14 1028 55 0 2.67 133 01:25 22.02.2020
2200 Clouds -14 1028 55 0 2.67 133 00:45 22.02.2020
2201 Clouds -14 1028 55 0 2.67 133 00:26 22.02.2020
2202 Clouds -14 1028 55 0 2.67 133 23:47 21.02.2020
2203 Clouds -14 1028 55 0 2.67 133 23:22 21.02.2020
2204 Clouds -12 1028 58 0 2.77 135 22:55 21.02.2020
2205 Clouds -12 1028 58 0 2.77 135 22:37 21.02.2020
2206 Clouds -12 1028 58 0 2.77 135 22:18 21.02.2020
2207 Clouds -12 1028 58 0 2.77 135 21:42 21.02.2020
2208 Clouds -12 1028 58 0 2.77 135 21:23 21.02.2020
2209 Clouds -12 1028 58 0 2.77 135 21:23 21.02.2020
2210 Clouds -12 1028 58 0 2.77 135 21:23 21.02.2020
2211 Clouds -12 1028 58 0 2.77 135 20:48 21.02.2020
2212 Clouds -12 1028 58 0 2.77 135 20:29 21.02.2020
2213 Clear -15 1032 58 0 3.5 121 19:57 21.02.2020
2214 Clear -15 1032 58 0 3.5 121 19:37 21.02.2020
2215 Clear -15 1032 58 0 3.5 121 19:18 21.02.2020
2216 Clear -15 1032 58 0 3.5 121 18:40 21.02.2020
2217 Clear -15 1032 58 0 3.5 121 18:22 21.02.2020
2218 Clear -15 1032 58 0 3.5 121 17:41 21.02.2020
2219 Clear -15 1032 58 0 3.5 121 17:23 21.02.2020
2220 Clear -15 1034 58 0 3.39 121 16:58 21.02.2020
2221 Clear -15 1034 58 0 3.39 121 16:40 21.02.2020
2222 Clear -15 1034 58 0 3.39 121 16:21 21.02.2020
2223 Clear -15 1034 58 0 3.39 121 15:47 21.02.2020
2224 Clear -15 1034 58 0 3.39 121 15:19 21.02.2020
2225 Clear -15 1034 58 0 3.39 121 14:59 21.02.2020
2226 Clear -15 1034 58 0 3.39 121 14:41 21.02.2020
2227 Clear -16 1035 60 0 2.97 121 14:19 21.02.2020
2228 Clear -16 1035 60 0 2.97 121 13:44 21.02.2020
2229 Clear -16 1035 60 0 2.97 121 13:24 21.02.2020
2230 Clear -16 1034 59 0 3.23 119 12:55 21.02.2020
2231 Clear -16 1034 59 0 3.23 119 12:36 21.02.2020
2232 Clear -16 1034 59 0 3.23 119 12:18 21.02.2020
2233 Clear -16 1034 59 0 3.23 119 11:42 21.02.2020
2234 Clear -11 1033 72 0 1.22 126 11:21 21.02.2020
2235 Clear -11 1033 72 0 1.22 126 10:57 21.02.2020
2236 Clear -11 1033 72 0 1.22 126 10:38 21.02.2020
2237 Clear -11 1033 72 0 1.22 126 10:19 21.02.2020
2238 Clear -11 1033 72 0 1.22 126 10:19 21.02.2020
2239 Clear -11 1033 72 0 1.22 126 09:57 21.02.2020
2240 Clear -11 1033 72 0 1.22 126 09:37 21.02.2020
2241 Clear -11 1033 72 0 1.22 126 09:19 21.02.2020
2242 Clear -11 1033 72 0 1.22 126 08:42 21.02.2020
2243 Clear -11 1033 72 0 1.22 126 08:22 21.02.2020
2244 Clear -11 1036 57 0 1.08 154 07:59 21.02.2020
2245 Clear -11 1036 57 0 1.08 154 07:40 21.02.2020
2246 Clear -11 1036 57 0 1.08 154 07:18 21.02.2020
2247 Clear -11 1036 57 0 1.08 154 06:50 21.02.2020
2248 Clear -11 1036 57 0 1.08 154 06:30 21.02.2020
2249 Clear -11 1036 57 0 1.08 154 05:43 21.02.2020
2250 Clear -16 1042 72 0 2.1 124 04:36 21.02.2020
2251 Clear -16 1042 72 0 2.1 124 04:18 21.02.2020
2252 Clear -16 1042 72 0 2.1 124 04:18 21.02.2020
2253 Clear -16 1042 72 0 2.1 124 03:39 21.02.2020
2254 Clear -16 1042 72 0 2.1 124 02:29 21.02.2020
2255 Clear -22 1045 66 0 2.59 120 01:24 21.02.2020
2256 Clear -22 1045 66 0 2.59 120 00:45 21.02.2020
2257 Clear -22 1045 66 0 2.59 120 00:23 21.02.2020
2258 Clear -22 1045 66 0 2.59 120 23:46 20.02.2020
2259 Clear -22 1045 66 0 2.59 120 23:46 20.02.2020
2260 Clear -22 1045 66 0 2.59 120 23:46 20.02.2020
2261 Clear -22 1045 66 0 2.59 120 23:46 20.02.2020
2262 Clear -22 1045 66 0 2.59 120 23:25 20.02.2020
2263 Clear -23 1045 75 0 2.09 108 22:57 20.02.2020
2264 Clear -23 1045 75 0 2.09 108 22:38 20.02.2020
2265 Clear -23 1045 75 0 2.09 108 22:20 20.02.2020
2266 Clear -23 1045 75 0 2.09 108 21:56 20.02.2020
2267 Clear -23 1045 75 0 2.09 108 21:37 20.02.2020
2268 Clear -23 1045 75 0 2.09 108 21:37 20.02.2020
2269 Clear -23 1045 75 0 2.09 108 21:37 20.02.2020
2270 Clear -23 1045 75 0 2.09 108 21:37 20.02.2020
2271 Clear -23 1045 75 0 2.09 108 21:19 20.02.2020
2272 Clear -23 1045 75 0 2.09 108 21:19 20.02.2020
2273 Clear -23 1045 75 0 2.09 108 20:54 20.02.2020
2274 Clear -23 1045 75 0 2.09 108 20:36 20.02.2020
2275 Clear -23 1045 85 0 1.93 100 20:18 20.02.2020
2276 Clear -23 1045 83 0 1.95 105 19:56 20.02.2020
2277 Clear -23 1045 83 0 1.95 105 19:38 20.02.2020
2278 Clear -23 1045 83 0 1.95 105 19:20 20.02.2020
2279 Clear -23 1045 83 0 1.95 105 18:39 20.02.2020
2280 Clear -23 1045 83 0 1.95 105 18:20 20.02.2020
2281 Clear -23 1045 83 0 1.95 105 17:41 20.02.2020
2282 Clear -23 1045 83 0 1.95 105 17:23 20.02.2020
2283 Clear -23 1045 83 0 1.95 105 17:22 20.02.2020
2284 Clear -23 1045 83 0 1.95 105 17:22 20.02.2020
2285 Clear -24 1044 95 0 1.85 98 16:59 20.02.2020
2286 Clear -24 1044 95 0 1.85 98 16:40 20.02.2020
2287 Clear -24 1044 95 0 1.85 98 16:21 20.02.2020
2288 Clear -24 1044 95 0 1.85 98 15:59 20.02.2020
2289 Clear -24 1044 95 0 1.85 98 15:41 20.02.2020
2290 Clear -24 1044 95 0 1.85 98 15:20 20.02.2020
2291 Clear -24 1044 95 0 1.85 98 14:54 20.02.2020
2292 Clear -24 1044 95 0 1.85 98 14:36 20.02.2020
2293 Clouds -24 1041 99 0 0.29 115 14:18 20.02.2020
2294 Clouds -24 1041 99 0 0.29 115 14:18 20.02.2020
2295 Clouds -24 1041 99 0 0.29 115 13:44 20.02.2020
2296 Clouds -24 1041 99 0 0.29 115 13:19 20.02.2020
2297 Clouds -24 1041 100 0 0.28 131 12:56 20.02.2020
2298 Clouds -24 1041 100 0 0.28 131 12:37 20.02.2020
2299 Clouds -24 1041 100 0 0.28 131 12:18 20.02.2020
2300 Clouds -24 1041 100 0 0.28 131 11:42 20.02.2020
2301 Clouds -24 1041 100 0 0.28 131 11:22 20.02.2020
2302 Clouds -24 1041 100 0 0.28 131 11:22 20.02.2020
2303 Clouds -16 1037 88 0 1.96 279 10:57 20.02.2020
2304 Clouds -16 1037 88 0 1.96 279 10:39 20.02.2020
2305 Clouds -16 1037 88 0 1.96 279 10:21 20.02.2020
2306 Clouds -16 1037 88 0 1.96 279 09:46 20.02.2020
2307 Clouds -16 1037 88 0 1.96 279 09:25 20.02.2020
2308 Clouds -16 1037 88 0 1.96 279 08:59 20.02.2020
2309 Clouds -16 1037 88 0 1.96 279 08:38 20.02.2020
2310 Clouds -16 1037 78 0 2.25 285 08:20 20.02.2020
2311 Clouds -16 1037 78 0 2.25 285 07:45 20.02.2020
2312 Clouds -16 1037 78 0 2.25 285 07:23 20.02.2020
2313 Clouds -16 1037 78 0 2.25 285 06:53 20.02.2020
2314 Clouds -16 1037 78 0 2.25 285 06:26 20.02.2020
2315 Clouds -16 1037 78 0 2.25 285 05:46 20.02.2020
2316 Clear -20 1040 85 0 1.07 91 04:54 20.02.2020
2317 Clear -20 1040 85 0 1.07 91 03:58 20.02.2020
2318 Clear -20 1040 85 0 1.07 91 03:29 20.02.2020
2319 Clear -20 1040 85 0 1.07 91 02:25 20.02.2020
2320 Clear -25 1041 94 0 1.57 105 00:59 20.02.2020
2321 Clear -25 1041 94 0 1.57 105 00:32 20.02.2020
2322 Clear -25 1041 94 0 1.57 105 23:49 19.02.2020
2323 Clear -25 1041 94 0 1.57 105 23:22 19.02.2020
2324 Clouds -26 1039 99 0 1.16 121 22:47 19.02.2020
2325 Clouds -26 1039 99 0 1.16 121 22:28 19.02.2020
2326 Clouds -26 1039 99 0 1.16 121 21:59 19.02.2020
2327 Clouds -26 1039 99 0 1.16 121 21:41 19.02.2020
2328 Clouds -26 1039 99 0 1.16 121 21:19 19.02.2020
2329 Clouds -26 1039 99 0 1.16 121 20:58 19.02.2020
2330 Clouds -26 1039 99 0 1.16 121 20:58 19.02.2020
2331 Clouds -26 1039 99 0 1.16 121 20:39 19.02.2020
2332 Clouds -25 1039 99 0 1.49 131 20:20 19.02.2020
2333 Clouds -25 1039 99 0 1.49 131 19:58 19.02.2020
2334 Clouds -25 1039 99 0 1.49 131 19:39 19.02.2020
2335 Clouds -25 1039 99 0 1.49 131 19:20 19.02.2020
2336 Clouds -25 1039 99 0 1.49 131 18:58 19.02.2020
2337 Clouds -25 1039 99 0 1.49 131 18:40 19.02.2020
2338 Clouds -25 1039 99 0 1.49 131 18:22 19.02.2020
2339 Clouds -25 1039 99 0 1.49 131 17:59 19.02.2020
2340 Clouds -25 1039 99 0 1.49 131 17:40 19.02.2020
2341 Clouds -23 1038 100 0 0.75 158 17:19 19.02.2020
2342 Clouds -23 1038 100 0 0.75 158 16:43 19.02.2020
2343 Clouds -23 1038 100 0 0.75 158 16:43 19.02.2020
2344 Clouds -23 1038 100 0 0.75 158 16:19 19.02.2020
2345 Clouds -23 1038 100 0 0.75 158 15:57 19.02.2020
2346 Clouds -23 1038 100 0 0.75 158 15:38 19.02.2020
2347 Clouds -23 1038 100 0 0.75 158 15:19 19.02.2020
2348 Clouds -23 1038 100 0 0.75 158 14:41 19.02.2020
2349 Clouds -23 1038 100 0 0.75 158 14:23 19.02.2020
2350 Snow -22 1036 100 0 1.23 216 13:55 19.02.2020
2351 Snow -22 1036 100 0 1.23 216 13:36 19.02.2020
2352 Snow -22 1035 100 0 1.02 219 13:18 19.02.2020
2353 Snow -22 1035 100 0 1.02 219 12:38 19.02.2020
2354 Snow -22 1035 100 0 1.02 219 12:19 19.02.2020
2355 Snow -22 1035 100 0 1.02 219 12:19 19.02.2020
2356 Snow -22 1035 100 0 1.02 219 11:54 19.02.2020
2357 Snow -22 1035 100 0 1.02 219 11:36 19.02.2020
2358 Snow -16 1030 95 0 3.02 259 11:18 19.02.2020
2359 Snow -16 1030 95 0 3.02 259 10:54 19.02.2020
2360 Snow -16 1030 95 0 3.02 259 10:36 19.02.2020
2361 Snow -16 1030 95 0 3.02 259 10:18 19.02.2020
2362 Snow -16 1030 95 0 3.02 259 09:41 19.02.2020
2363 Snow -16 1030 95 0 3.02 259 09:20 19.02.2020
2364 Snow -16 1030 95 0 3.02 259 08:48 19.02.2020
2365 Snow -16 1030 95 0 3.02 259 08:24 19.02.2020
2366 Snow -16 1030 95 0 3.02 259 08:24 19.02.2020
2367 Snow -16 1030 95 0 3.02 259 08:24 19.02.2020
2368 Snow -15 1028 92 0 2.82 259 07:59 19.02.2020
2369 Snow -15 1028 92 0 2.82 259 07:39 19.02.2020
2370 Snow -15 1028 92 0 2.82 259 07:20 19.02.2020
2371 Snow -15 1028 92 0 2.82 259 06:45 19.02.2020
2372 Snow -15 1028 92 0 2.82 259 05:26 19.02.2020
2373 Clouds -15 1029 63 0 1.41 252 03:52 19.02.2020
2374 Clouds -15 1029 63 0 1.41 252 02:36 19.02.2020
2375 Clouds -17 1028 55 0 1.55 136 01:44 19.02.2020
2376 Clouds -17 1028 55 0 1.55 136 01:23 19.02.2020
2377 Clouds -17 1028 54 0 1.61 130 00:41 19.02.2020
2378 Clouds -17 1028 54 0 1.61 130 00:19 19.02.2020
2379 Clouds -17 1028 54 0 1.61 130 23:40 18.02.2020
2380 Clouds -18 1028 52 0 2.18 131 23:20 18.02.2020
2381 Clouds -18 1028 52 0 2.18 131 22:55 18.02.2020
2382 Clouds -18 1028 52 0 2.18 131 22:36 18.02.2020
2383 Clouds -18 1028 52 0 2.18 131 22:18 18.02.2020
2384 Clouds -18 1028 52 0 2.18 131 21:54 18.02.2020
2385 Clouds -18 1028 52 0 2.18 131 21:36 18.02.2020
2386 Clouds -18 1028 52 0 2.18 131 21:36 18.02.2020
2387 Clouds -18 1028 52 0 2.18 131 21:18 18.02.2020
2388 Clouds -18 1028 52 0 2.18 131 20:40 18.02.2020
2389 Clouds -18 1028 52 0 2.55 118 20:22 18.02.2020
2390 Clouds -18 1028 56 0 1.95 128 19:58 18.02.2020
2391 Clouds -18 1028 56 0 1.95 128 19:40 18.02.2020
2392 Clouds -18 1028 56 0 1.95 128 19:19 18.02.2020
2393 Clouds -18 1028 56 0 1.95 128 18:42 18.02.2020
2394 Clouds -18 1028 56 0 1.95 128 18:21 18.02.2020
2395 Clouds -18 1028 56 0 1.95 128 17:58 18.02.2020
2396 Clouds -18 1028 56 0 1.95 128 17:40 18.02.2020
2397 Clouds -18 1028 56 0 1.95 128 17:40 18.02.2020
2398 Clouds -16 1029 61 0 1.87 118 17:19 18.02.2020
2399 Clouds -16 1029 61 0 1.87 118 16:40 18.02.2020
2400 Clouds -16 1029 61 0 1.87 118 16:21 18.02.2020
2401 Clouds -16 1029 61 0 1.87 118 15:55 18.02.2020
2402 Clouds -16 1029 61 0 1.87 118 15:36 18.02.2020
2403 Clouds -16 1029 61 0 1.87 118 15:36 18.02.2020
2404 Clouds -16 1029 61 0 1.87 118 15:18 18.02.2020
2405 Clouds -16 1029 61 0 1.87 118 14:54 18.02.2020
2406 Clouds -16 1029 61 0 1.87 118 14:36 18.02.2020
2407 Clouds -17 1029 76 0 1.11 132 14:18 18.02.2020
2408 Clouds -17 1029 76 0 1.11 132 13:41 18.02.2020
2409 Clouds -17 1029 76 0 1.11 132 13:21 18.02.2020
2410 Clouds -17 1029 73 0 1.16 128 12:47 18.02.2020
2411 Clouds -17 1029 73 0 1.16 128 12:29 18.02.2020
2412 Clouds -17 1029 73 0 1.16 128 11:59 18.02.2020
2413 Clouds -17 1029 73 0 1.16 128 11:41 18.02.2020
2414 Clouds -17 1029 73 0 1.16 128 11:41 18.02.2020
2415 Clouds -17 1029 73 0 1.16 128 11:22 18.02.2020
2416 Clouds -12 1027 79 0 0.91 273 10:44 18.02.2020
2417 Clouds -12 1027 79 0 0.91 273 10:24 18.02.2020
2418 Clouds -12 1027 79 0 0.91 273 09:57 18.02.2020
2419 Clouds -12 1027 79 0 0.91 273 09:39 18.02.2020
2420 Clouds -12 1027 79 0 0.91 273 09:20 18.02.2020
2421 Clouds -12 1027 79 0 0.91 273 08:57 18.02.2020
2422 Clouds -12 1027 79 0 0.91 273 08:38 18.02.2020
2423 Clouds -11 1029 55 0 0.51 290 08:19 18.02.2020
2424 Clouds -11 1029 55 0 0.51 290 07:48 18.02.2020
2425 Clouds -11 1029 55 0 0.51 290 07:25 18.02.2020
2426 Clouds -11 1029 55 0 0.51 290 06:55 18.02.2020
2427 Clouds -11 1029 55 0 0.51 290 06:29 18.02.2020
2428 Clouds -11 1029 55 0 0.51 290 05:48 18.02.2020
2429 Clouds -15 1033 60 0 1.33 126 05:21 18.02.2020
2430 Clouds -15 1033 60 0 1.33 126 03:52 18.02.2020
2431 Clouds -15 1033 60 0 1.33 126 02:58 18.02.2020
2432 Clear -19 1035 49 0 2 116 01:25 18.02.2020
2433 Clear -19 1035 50 0 1.88 116 00:43 18.02.2020
2434 Clear -19 1035 50 0 1.88 116 00:18 18.02.2020
2435 Clear -19 1035 50 0 1.88 116 23:39 17.02.2020
2436 Clear -20 1036 51 0 1.36 115 23:20 17.02.2020
2437 Clear -20 1036 51 0 1.36 115 22:58 17.02.2020
2438 Clear -20 1036 51 0 1.36 115 22:39 17.02.2020
2439 Clear -20 1036 51 0 1.36 115 22:18 17.02.2020
2440 Clear -20 1036 51 0 1.36 115 21:39 17.02.2020
2441 Clear -20 1036 51 0 1.36 115 21:19 17.02.2020
2442 Clear -20 1036 51 0 1.36 115 20:55 17.02.2020
2443 Clear -20 1036 51 0 1.36 115 20:37 17.02.2020
2444 Clear -19 1036 54 0 1.59 117 20:19 17.02.2020
2445 Clear -19 1036 54 0 1.59 117 19:43 17.02.2020
2446 Clear -19 1036 54 0 1.59 117 19:22 17.02.2020
2447 Clear -19 1036 54 0 1.59 117 18:57 17.02.2020
2448 Clear -19 1036 54 0 1.59 117 18:36 17.02.2020
2449 Clear -19 1036 54 0 1.59 117 18:18 17.02.2020
2450 Clear -19 1036 54 0 1.59 117 17:38 17.02.2020
2451 Clear -19 1036 54 0 1.59 117 17:38 17.02.2020
2452 Clear -19 1037 60 0 1.53 111 17:20 17.02.2020
2453 Clear -19 1037 60 0 1.53 111 16:59 17.02.2020
2454 Clear -19 1037 60 0 1.53 111 16:59 17.02.2020
2455 Clear -19 1037 60 0 1.53 111 16:40 17.02.2020
2456 Clear -19 1037 60 0 1.53 111 16:22 17.02.2020
2457 Clear -19 1037 60 0 1.53 111 15:46 17.02.2020
2458 Clear -19 1037 60 0 1.53 111 15:46 17.02.2020
2459 -273 0 0 0 0 0 15:28 17.02.2020
2460 Clear -19 1037 60 0 1.53 111 14:59 17.02.2020
2461 Clear -19 1037 60 0 1.53 111 14:40 17.02.2020
2462 Clear -19 1037 60 0 1.53 111 14:22 17.02.2020
2463 Clear -19 1037 60 0 1.53 111 14:22 17.02.2020
2464 Clear -19 1036 70 0 1.06 118 13:56 17.02.2020
2465 Clear -19 1036 70 0 1.06 118 13:56 17.02.2020
2466 Clear -19 1036 70 0 1.06 118 13:38 17.02.2020
2467 Clear -18 1035 70 0 1.35 105 13:18 17.02.2020
2468 Clear -18 1035 70 0 1.35 105 12:42 17.02.2020
2469 Clear -18 1035 70 0 1.35 105 12:23 17.02.2020
2470 Clear -18 1035 70 0 1.35 105 11:57 17.02.2020
2471 Clear -18 1035 70 0 1.35 105 11:39 17.02.2020
2472 Clear -18 1035 70 0 1.35 105 11:39 17.02.2020
2473 Clear -12 1033 76 0 1.23 290 11:20 17.02.2020
2474 Clear -12 1033 76 0 1.23 290 10:41 17.02.2020
2475 Clear -12 1033 76 0 1.23 290 10:22 17.02.2020
2476 Clear -12 1033 76 0 1.23 290 09:59 17.02.2020
2477 Clear -12 1033 76 0 1.23 290 09:41 17.02.2020
2478 Clear -12 1033 76 0 1.23 290 09:21 17.02.2020
2479 Clear -12 1033 76 0 1.23 290 08:56 17.02.2020
2480 Clear -12 1033 76 0 1.23 290 08:38 17.02.2020
2481 Clear -9 1034 54 0 0.94 337 08:19 17.02.2020
2482 Clear -9 1034 54 0 0.94 337 08:19 17.02.2020
2483 Clear -9 1034 54 0 0.94 337 07:43 17.02.2020
2484 Clear -9 1034 54 0 0.94 337 07:23 17.02.2020
2485 Clear -9 1034 54 0 0.94 337 06:51 17.02.2020
2486 Clear -9 1034 54 0 0.94 337 06:30 17.02.2020
2487 Clear -9 1034 54 0 0.94 337 05:41 17.02.2020
2488 Clear -13 1039 58 0 1.43 135 04:59 17.02.2020
2489 Clear -13 1039 58 0 1.43 135 03:20 17.02.2020
2490 Clouds -17 1040 43 0 2.1 118 01:47 17.02.2020
2491 Clouds -17 1041 42 0 2.06 117 00:41 17.02.2020
2492 Clouds -17 1041 42 0 2.06 117 00:19 17.02.2020
2493 Clouds -17 1041 42 0 2.06 117 23:53 16.02.2020
2494 Clouds -17 1041 42 0 2.06 117 23:29 16.02.2020
2495 Clouds -16 1041 43 0 2.16 129 22:57 16.02.2020
2496 Clouds -16 1041 43 0 2.16 129 22:38 16.02.2020
2497 Clouds -16 1041 43 0 2.16 129 22:20 16.02.2020
2498 Clouds -16 1041 43 0 2.16 129 21:56 16.02.2020
2499 Clouds -16 1041 43 0 2.16 129 21:38 16.02.2020
2500 Clouds -16 1041 43 0 2.16 129 21:20 16.02.2020
2501 Clouds -16 1041 43 0 2.16 129 20:56 16.02.2020
2502 Clouds -16 1041 43 0 2.16 129 20:38 16.02.2020
2503 Clouds -15 1042 43 0 2.21 121 20:20 16.02.2020
2504 Clouds -16 1042 43 0 2.01 125 19:56 16.02.2020
2505 Clouds -16 1042 43 0 2.01 125 19:37 16.02.2020
2506 Clouds -16 1042 43 0 2.01 125 19:18 16.02.2020
2507 Clouds -16 1042 43 0 2.01 125 18:42 16.02.2020
2508 Clouds -16 1042 43 0 2.01 125 18:42 16.02.2020
2509 Clouds -16 1042 43 0 2.01 125 18:23 16.02.2020
2510 Clouds -16 1042 43 0 2.01 125 17:46 16.02.2020
2511 Clouds -15 1042 42 0 2.36 129 17:21 16.02.2020
2512 Clouds -15 1042 42 0 2.36 129 16:58 16.02.2020
2513 Clouds -15 1042 42 0 2.36 129 16:39 16.02.2020
2514 Clouds -15 1042 42 0 2.36 129 16:39 16.02.2020
2515 Clouds -15 1042 42 0 2.36 129 16:21 16.02.2020
2516 Clouds -15 1042 42 0 2.36 129 16:21 16.02.2020
2517 Clouds -15 1042 42 0 2.36 129 16:21 16.02.2020
2518 Clouds -15 1042 42 0 2.36 129 15:58 16.02.2020
2519 Clouds -15 1042 42 0 2.36 129 15:38 16.02.2020
2520 Clouds -15 1042 42 0 2.36 129 15:20 16.02.2020
2521 Clouds -15 1042 42 0 2.36 129 14:41 16.02.2020
2522 Clouds -15 1042 42 0 2.36 129 14:23 16.02.2020
2523 Clear -15 1041 45 0 2.14 124 13:48 16.02.2020
2524 Clear -15 1041 45 0 2.14 124 13:25 16.02.2020
2525 Clear -15 1041 45 0 2.11 126 12:58 16.02.2020
2526 Clear -15 1041 45 0 2.11 126 12:38 16.02.2020
2527 Clear -15 1041 45 0 2.11 126 12:19 16.02.2020
2528 Clear -15 1041 45 0 2.11 126 11:40 16.02.2020
2529 Clear -9 1037 65 0 1.38 148 11:19 16.02.2020
2530 Clear -9 1037 65 0 1.38 148 10:58 16.02.2020
2531 Clear -9 1037 65 0 1.38 148 10:58 16.02.2020
2532 Clear -9 1037 65 0 1.38 148 10:39 16.02.2020
2533 Clear -9 1037 65 0 1.38 148 10:39 16.02.2020
2534 Clear -9 1037 65 0 1.38 148 10:21 16.02.2020
2535 Clear -9 1037 65 0 1.38 148 09:58 16.02.2020
2536 Clear -9 1037 65 0 1.38 148 09:37 16.02.2020
2537 Clear -9 1037 65 0 1.38 148 09:19 16.02.2020
2538 Clear -9 1037 65 0 1.38 148 08:49 16.02.2020
2539 Clear -9 1038 64 0 1.43 146 08:22 16.02.2020
2540 Clear -7 1038 61 0 1.79 131 07:56 16.02.2020
2541 Clear -7 1038 61 0 1.79 131 07:38 16.02.2020
2542 Clear -7 1038 61 0 1.79 131 06:36 16.02.2020
2543 Clear -7 1038 61 0 1.79 131 05:37 16.02.2020
2544 Clear -12 1041 58 0 2.6 123 03:58 16.02.2020
2545 Clear -12 1041 58 0 2.6 123 02:35 16.02.2020
2546 Clear -15 1041 43 0 3.19 122 01:57 16.02.2020
2547 Clear -15 1041 43 0 3.19 122 01:37 16.02.2020
2548 Clear -15 1041 44 0 3 122 01:18 16.02.2020
2549 Clear -15 1041 44 0 3 122 00:40 16.02.2020
2550 Clear -15 1041 44 0 3 122 00:19 16.02.2020
2551 Clear -15 1041 44 0 3 122 23:42 15.02.2020
2552 Clear -15 1041 44 0 3 122 23:23 15.02.2020
2553 Clear -15 1040 43 0 3.31 118 22:56 15.02.2020
2554 Clear -15 1040 43 0 3.31 118 22:38 15.02.2020
2555 Clear -15 1040 43 0 3.31 118 22:18 15.02.2020
2556 Clear -15 1040 43 0 3.31 118 21:43 15.02.2020
2557 Clear -15 1040 43 0 3.31 118 21:23 15.02.2020
2558 Clear -15 1040 43 0 3.31 118 20:55 15.02.2020
2559 Clear -15 1040 43 0 3.31 118 20:36 15.02.2020
2560 Clear -15 1041 43 0 3.21 119 20:18 15.02.2020
2561 Clear -15 1041 43 0 3.21 119 19:40 15.02.2020
2562 Clear -15 1041 43 0 3.21 119 19:21 15.02.2020
2563 Clear -15 1041 43 0 3.21 119 18:40 15.02.2020
2564 Clear -15 1041 43 0 3.21 119 18:20 15.02.2020
2565 Clear -15 1041 43 0 3.21 119 17:55 15.02.2020
2566 Clear -15 1041 43 0 3.21 119 17:37 15.02.2020
2567 Clear -14 1041 40 0 3.08 122 17:18 15.02.2020
2568 Clear -14 1041 40 0 3.08 122 16:40 15.02.2020
2569 Clear -14 1041 40 0 3.08 122 16:20 15.02.2020
2570 Clear -14 1041 40 0 3.08 122 15:49 15.02.2020
2571 Clear -14 1041 40 0 3.08 122 15:31 15.02.2020
2572 Clear -14 1041 40 0 3.08 122 14:57 15.02.2020
2573 Clear -14 1041 40 0 3.08 122 14:38 15.02.2020
2574 Clear -14 1041 39 0 2.91 117 14:18 15.02.2020
2575 Clear -14 1041 39 0 2.91 117 13:41 15.02.2020
2576 Clear -14 1041 39 0 2.91 117 13:22 15.02.2020
2577 Clear -14 1041 39 0 2.9 116 12:56 15.02.2020
2578 Clear -14 1041 39 0 2.9 116 12:38 15.02.2020
2579 Clear -14 1041 39 0 2.9 116 12:19 15.02.2020
2580 Clear -14 1041 39 0 2.9 116 11:45 15.02.2020
2581 Clear -14 1041 39 0 2.9 116 11:25 15.02.2020
2582 Clear -10 1039 65 0 0.32 126 10:47 15.02.2020
2583 Clear -10 1039 65 0 0.32 126 10:29 15.02.2020
2584 Clear -10 1039 65 0 0.32 126 09:45 15.02.2020
2585 Clear -10 1039 65 0 0.32 126 09:26 15.02.2020
2586 Clear -10 1039 65 0 0.32 126 08:59 15.02.2020
2587 Clear -10 1039 65 0 0.32 126 08:41 15.02.2020
2588 Clear -10 1039 64 0 0.44 126 08:22 15.02.2020
2589 Clear -8 1041 54 0 0.31 160 07:42 15.02.2020
2590 Clear -8 1041 54 0 0.31 160 07:23 15.02.2020
2591 Clear -8 1041 54 0 0.31 160 06:39 15.02.2020
2592 Clear -8 1041 54 0 0.31 160 06:21 15.02.2020
2593 Clear -13 1046 47 0 1.85 110 04:57 15.02.2020
2594 Clear -13 1046 47 0 1.85 110 04:31 15.02.2020
2595 Clear -13 1046 47 0 1.85 110 02:59 15.02.2020
2596 Clear -13 1046 47 0 1.85 110 02:29 15.02.2020
2597 Clear -18 1048 20 0 2.01 111 01:59 15.02.2020
2598 Clear -18 1048 20 0 2.01 111 01:37 15.02.2020
2599 Clear -18 1048 18 0 1.86 110 00:31 15.02.2020
2600 Clear -18 1048 18 0 1.86 110 23:59 14.02.2020
2601 Clear -18 1048 18 0 1.86 110 23:38 14.02.2020
2602 Clear -19 1049 20 0 1.67 116 23:18 14.02.2020
2603 Clear -19 1049 20 0 1.67 116 22:43 14.02.2020
2604 Clear -19 1049 20 0 1.67 116 22:22 14.02.2020
2605 Clear -19 1049 20 0 1.67 116 21:49 14.02.2020
2606 Clear -19 1049 20 0 1.67 116 21:49 14.02.2020
2607 Clear -19 1049 20 0 1.67 116 21:31 14.02.2020
2608 Clear -19 1049 20 0 1.67 116 20:58 14.02.2020
2609 Clear -19 1049 20 0 1.67 116 20:38 14.02.2020
2610 Clear -19 1049 20 0 1.67 116 20:38 14.02.2020
2611 Clear -20 1050 24 0 1.55 110 20:19 14.02.2020
2612 Clear -20 1050 24 0 1.55 110 20:19 14.02.2020
2613 Clear -20 1050 25 0 1.69 112 19:42 14.02.2020
2614 Clear -20 1050 25 0 1.69 112 19:23 14.02.2020
2615 Clear -20 1050 25 0 1.69 112 18:57 14.02.2020
2616 Clear -20 1050 25 0 1.69 112 18:39 14.02.2020
2617 Clear -20 1050 25 0 1.69 112 18:20 14.02.2020
2618 Clear -20 1050 25 0 1.69 112 17:44 14.02.2020
2619 Clear -20 1050 25 0 1.69 112 17:23 14.02.2020
2620 Clear -20 1050 25 0 1.69 112 17:23 14.02.2020
2621 Clear -21 1050 37 0 1.88 107 16:59 14.02.2020
2622 Clear -21 1050 37 0 1.88 107 16:41 14.02.2020
2623 Clear -21 1050 37 0 1.88 107 16:22 14.02.2020
2624 Clear -21 1050 37 0 1.88 107 15:56 14.02.2020
2625 Clear -21 1050 37 0 1.88 107 15:56 14.02.2020
2626 Clear -21 1050 37 0 1.88 107 15:38 14.02.2020
2627 Clear -21 1050 37 0 1.88 107 15:20 14.02.2020
2628 Clear -21 1050 37 0 1.88 107 14:58 14.02.2020
2629 Clear -21 1050 37 0 1.88 107 14:40 14.02.2020
2630 Clear -21 1050 37 0 1.88 107 14:22 14.02.2020
2631 Clear -21 1050 37 0 1.88 107 14:22 14.02.2020
2632 Clear -22 1050 51 0 1.53 105 13:55 14.02.2020
2633 Clear -22 1050 51 0 1.53 105 13:37 14.02.2020
2634 Clear -21 1050 48 0 1.57 105 13:18 14.02.2020
2635 Clear -21 1050 48 0 1.57 105 12:56 14.02.2020
2636 Clear -21 1050 48 0 1.57 105 12:56 14.02.2020
2637 Clear -21 1050 48 0 1.57 105 12:37 14.02.2020
2638 Clear -21 1050 48 0 1.57 105 12:18 14.02.2020
2639 Clear -21 1050 48 0 1.57 105 11:54 14.02.2020
2640 Clear -21 1050 48 0 1.57 105 11:36 14.02.2020
2641 Clear -18 1047 71 0 0.66 346 11:18 14.02.2020
2642 Clear -18 1047 71 0 0.66 346 10:40 14.02.2020
2643 Clear -18 1047 71 0 0.66 346 10:21 14.02.2020
2644 Clear -18 1047 71 0 0.66 346 09:44 14.02.2020
2645 Clear -18 1047 71 0 0.66 346 09:22 14.02.2020
2646 Clear -18 1047 71 0 0.66 346 08:56 14.02.2020
2647 Clear -18 1047 71 0 0.66 346 08:38 14.02.2020
2648 Clear -16 1048 47 0 0.88 288 08:19 14.02.2020
2649 Clear -16 1048 47 0 0.88 288 07:49 14.02.2020
2650 Clear -16 1048 47 0 0.88 288 07:49 14.02.2020
2651 Clear -16 1048 47 0 0.88 288 07:49 14.02.2020
2652 Clear -16 1048 47 0 0.88 288 07:24 14.02.2020
2653 Clear -16 1048 47 0 0.88 288 06:33 14.02.2020
2654 Clear -16 1048 47 0 0.88 288 05:59 14.02.2020
2655 Clear -16 1048 47 0 0.88 288 05:27 14.02.2020
2656 Clear -20 1051 52 0 1.37 114 03:31 14.02.2020
2657 Clear -20 1051 52 0 1.37 114 02:52 14.02.2020
2658 Clear -25 1052 39 0 2.09 115 01:54 14.02.2020
2659 Clear -25 1052 38 0 2.12 113 00:44 14.02.2020
2660 Clear -25 1052 38 0 2.12 113 00:25 14.02.2020
2661 Clear -25 1052 38 0 2.12 113 23:52 13.02.2020
2662 Clear -25 1052 38 0 2.12 113 23:23 13.02.2020
2663 Clear -25 1052 47 0 2.6 112 22:56 13.02.2020
2664 Clear -25 1052 47 0 2.6 112 22:38 13.02.2020
2665 Clear -25 1052 47 0 2.6 112 22:18 13.02.2020
2666 Clear -25 1052 47 0 2.6 112 21:42 13.02.2020
2667 Clear -25 1052 47 0 2.6 112 21:23 13.02.2020
2668 Clear -25 1052 47 0 2.6 112 20:58 13.02.2020
2669 Clear -25 1052 47 0 2.6 112 20:40 13.02.2020
2670 Clear -25 1052 47 0 2.6 112 20:22 13.02.2020
2671 Clear -25 1051 58 0 2.66 108 19:56 13.02.2020
2672 Clear -25 1051 58 0 2.66 108 19:37 13.02.2020
2673 Clear -25 1051 58 0 2.66 108 19:19 13.02.2020
2674 Clear -25 1051 58 0 2.66 108 18:45 13.02.2020
2675 Clear -25 1051 58 0 2.66 108 18:25 13.02.2020
2676 Clear -25 1051 58 0 2.66 108 17:59 13.02.2020
2677 Clear -25 1051 58 0 2.66 108 17:40 13.02.2020
2678 Clear -25 1051 58 0 2.66 108 17:22 13.02.2020
2679 Clear -25 1049 69 0 2.56 99 16:58 13.02.2020
2680 Clear -25 1049 69 0 2.56 99 16:40 13.02.2020
2681 Clear -25 1049 69 0 2.56 99 16:20 13.02.2020
2682 Clear -25 1049 69 0 2.56 99 15:56 13.02.2020
2683 Clear -25 1049 69 0 2.56 99 15:38 13.02.2020
2684 Clear -25 1049 69 0 2.56 99 15:19 13.02.2020
2685 Clear -25 1049 69 0 2.56 99 14:57 13.02.2020
2686 Clear -25 1049 69 0 2.56 99 14:38 13.02.2020
2687 Clear -25 1047 79 0 2.43 89 14:20 13.02.2020
2688 Clear -25 1047 79 0 2.43 89 13:48 13.02.2020
2689 Clear -25 1046 79 0 2.4 90 13:19 13.02.2020
2690 -273 0 0 0 0 0 12:56 13.02.2020
2691 Clear -25 1046 79 0 2.4 90 12:56 13.02.2020
2692 Clear -25 1046 79 0 2.4 90 12:37 13.02.2020
2693 Clear -25 1046 79 0 2.4 90 12:37 13.02.2020
2694 Clear -25 1046 79 0 2.4 90 12:19 13.02.2020
2695 Clear -25 1046 79 0 2.4 90 11:43 13.02.2020
2696 Clear -25 1046 79 0 2.4 90 11:43 13.02.2020
2697 Clear -19 1041 81 0 1.48 14 11:20 13.02.2020
2698 Clear -19 1041 81 0 1.48 14 10:49 13.02.2020
2699 Clear -19 1041 81 0 1.48 14 10:28 13.02.2020
2700 Clear -19 1041 81 0 1.48 14 09:57 13.02.2020
2701 Clear -19 1041 81 0 1.48 14 09:38 13.02.2020
2702 Clear -19 1041 81 0 1.48 14 09:20 13.02.2020
2703 Clear -19 1041 81 0 1.48 14 08:41 13.02.2020
2704 Clear -18 1040 75 0 2.13 18 08:19 13.02.2020
2705 Clear -18 1041 76 0 2.09 19 07:40 13.02.2020
2706 Clear -18 1041 76 0 2.09 19 07:21 13.02.2020
2707 Clear -18 1041 76 0 2.09 19 06:44 13.02.2020
2708 Clear -18 1041 76 0 2.09 19 06:21 13.02.2020
2709 Clear -18 1041 76 0 2.09 19 05:37 13.02.2020
2710 Clear -22 1042 85 0 1.95 65 04:26 13.02.2020
2711 Clear -22 1042 85 0 1.95 65 03:52 13.02.2020
2712 Clear -22 1042 85 0 1.95 65 03:26 13.02.2020
2713 Clear -22 1042 85 0 1.95 65 02:52 13.02.2020
2714 Clear -26 1041 87 0 2.17 75 02:19 13.02.2020
2715 Clear -26 1041 87 0 2.17 75 01:35 13.02.2020
2716 Clear -26 1041 87 0 2.2 77 00:40 13.02.2020
2717 Clear -26 1041 87 0 2.2 77 00:21 13.02.2020
2718 Clear -26 1041 87 0 2.2 77 23:40 12.02.2020
2719 Clear -26 1041 87 0 2.2 77 23:22 12.02.2020
2720 Clear -26 1038 88 0 2.19 71 22:45 12.02.2020
2721 Clear -26 1038 88 0 2.19 71 22:27 12.02.2020
2722 Clear -26 1038 88 0 2.19 71 21:59 12.02.2020
2723 Clear -26 1038 88 0 2.19 71 21:40 12.02.2020
2724 Clear -26 1038 88 0 2.19 71 21:19 12.02.2020
2725 Clear -26 1038 88 0 2.19 71 20:58 12.02.2020
2726 Clear -26 1038 88 0 2.19 71 20:39 12.02.2020
2727 Clouds -25 1035 89 0 2 59 20:20 12.02.2020
2728 Clouds -25 1036 89 0 2 65 19:55 12.02.2020
2729 Clouds -25 1035 89 0 2 59 19:36 12.02.2020
2730 Clouds -25 1035 89 0 2 59 19:36 12.02.2020
2731 Clouds -25 1035 89 0 2 59 19:18 12.02.2020
2732 Clouds -25 1035 89 0 2 59 18:45 12.02.2020
2733 Clouds -25 1035 89 0 2 59 18:19 12.02.2020
2734 Clouds -25 1035 89 0 2 59 17:43 12.02.2020
2735 Clouds -25 1035 89 0 2 59 17:43 12.02.2020
2736 Clouds -22 1031 92 0 2.26 38 17:21 12.02.2020
2737 Clouds -21 1030 94 0 2.29 39 16:59 12.02.2020
2738 Clouds -21 1030 94 0 2.29 39 16:40 12.02.2020
2739 Clouds -22 1031 92 0 2.26 38 16:19 12.02.2020
2740 Clouds -21 1030 94 0 2.29 39 15:43 12.02.2020
2741 Clouds -21 1030 94 0 2.29 39 15:43 12.02.2020
2742 Clouds -22 1031 92 0 2.26 38 15:24 12.02.2020
2743 Clouds -21 1030 94 0 2.29 39 14:57 12.02.2020
2744 Clouds -22 1031 92 0 2.26 38 14:39 12.02.2020
2745 Snow -19 1025 100 0 0.93 281 14:20 12.02.2020
2746 Snow -20 1026 100 0 0.79 328 13:57 12.02.2020
2747 Snow -19 1025 100 0 0.93 281 13:39 12.02.2020
2748 Snow -20 1026 100 0 0.79 328 13:20 12.02.2020
2749 Snow -20 1026 100 0 0.79 328 12:57 12.02.2020
2750 Snow -20 1026 100 0 0.79 328 12:38 12.02.2020
2751 Snow -20 1026 100 0 0.79 328 12:18 12.02.2020
2752 Snow -20 1026 100 0 0.79 328 12:18 12.02.2020
2753 Snow -20 1026 100 0 0.79 328 11:56 12.02.2020
2754 Snow -20 1026 100 0 0.79 328 11:37 12.02.2020
2755 Snow -15 1020 95 0 2.62 268 11:19 12.02.2020
2756 Snow -15 1020 95 0 2.62 268 10:55 12.02.2020
2757 Snow -15 1020 95 0 2.62 268 10:36 12.02.2020
2758 Snow -15 1020 95 0 2.62 268 10:18 12.02.2020
2759 Snow -15 1020 95 0 2.62 268 09:41 12.02.2020
2760 Snow -15 1020 95 0 2.62 268 09:41 12.02.2020
2761 Snow -15 1020 95 0 2.62 268 09:41 12.02.2020
2762 Snow -15 1020 95 0 2.62 268 09:21 12.02.2020
2763 Snow -15 1020 95 0 2.62 268 09:21 12.02.2020
2764 Snow -15 1020 95 0 2.62 268 08:57 12.02.2020
2765 Snow -15 1020 95 0 2.62 268 08:37 12.02.2020
2766 Snow -12 1017 93 0 3.59 260 08:19 12.02.2020
2767 Snow -12 1017 93 0 3.59 260 07:44 12.02.2020
2768 Snow -12 1017 93 0 3.59 260 07:23 12.02.2020
2769 Snow -12 1017 93 0 3.59 260 06:53 12.02.2020
2770 Snow -12 1017 93 0 3.59 260 06:21 12.02.2020
2771 Snow -12 1017 93 0 3.59 260 05:37 12.02.2020
2772 Snow -11 1015 94 0 2.22 233 04:57 12.02.2020
2773 Snow -11 1015 94 0 2.22 233 04:39 12.02.2020
2774 Snow -11 1015 94 0 2.22 233 03:32 12.02.2020
2775 Snow -11 1015 94 0 2.22 233 02:58 12.02.2020
2776 Snow -11 1015 94 0 2.22 233 02:28 12.02.2020
2777 Snow -11 1015 94 0 2.22 233 02:28 12.02.2020
2778 Clouds -10 1012 85 0 2.51 248 01:50 12.02.2020
2779 Clouds -11 1013 85 0 2.64 249 00:45 12.02.2020
2780 Clouds -11 1013 85 0 2.64 249 00:26 12.02.2020
2781 Clouds -11 1013 85 0 2.64 249 23:55 11.02.2020
2782 Clouds -11 1013 85 0 2.64 249 23:37 11.02.2020
2783 Clouds -11 1013 85 0 2.64 249 23:37 11.02.2020
2784 Snow -9 1011 93 0 2.78 169 23:19 11.02.2020
2785 Snow -9 1011 93 0 2.78 169 22:55 11.02.2020
2786 Snow -9 1011 93 0 2.78 169 22:37 11.02.2020
2787 Snow -9 1011 93 0 2.78 169 22:37 11.02.2020
2788 Snow -9 1011 93 0 2.78 169 22:18 11.02.2020
2789 Snow -9 1011 93 0 2.78 169 21:55 11.02.2020
2790 Snow -9 1011 93 0 2.78 169 21:37 11.02.2020
2791 Snow -9 1011 93 0 2.78 169 21:18 11.02.2020
2792 Snow -9 1011 93 0 2.78 169 20:40 11.02.2020
2793 Clouds -8 1009 68 0 2.5 156 20:20 11.02.2020
2794 Snow -10 1009 67 0 2.85 162 19:59 11.02.2020
2795 Snow -10 1009 67 0 2.85 162 19:41 11.02.2020
2796 Snow -10 1009 67 0 2.85 162 19:23 11.02.2020
2797 Snow -10 1009 67 0 2.85 162 18:55 11.02.2020
2798 Snow -10 1009 67 0 2.85 162 18:37 11.02.2020
2799 Snow -10 1009 67 0 2.85 162 18:19 11.02.2020
2800 Snow -10 1009 67 0 2.85 162 17:54 11.02.2020
2801 Snow -10 1009 67 0 2.85 162 17:36 11.02.2020
2802 Snow -5 1008 84 0 1.68 119 17:18 11.02.2020
2803 Snow -5 1008 84 0 1.68 119 17:18 11.02.2020
2804 Snow -5 1008 84 0 1.68 119 17:18 11.02.2020
2805 Snow -5 1008 84 0 1.68 119 16:55 11.02.2020
2806 Snow -5 1008 84 0 1.68 119 16:36 11.02.2020
2807 Snow -5 1008 84 0 1.68 119 16:36 11.02.2020
2808 Snow -5 1008 84 0 1.68 119 16:18 11.02.2020
2809 Snow -5 1008 84 0 1.68 119 15:42 11.02.2020
2810 Snow -5 1008 84 0 1.68 119 15:23 11.02.2020
2811 Snow -5 1008 84 0 1.68 119 14:44 11.02.2020
2812 Snow -4 1009 64 0 3.45 173 14:20 11.02.2020
2813 Snow -4 1009 64 0 3.45 173 13:59 11.02.2020
2814 Snow -4 1009 64 0 3.45 173 13:40 11.02.2020
2815 Snow -4 1008 62 0 1.85 146 13:20 11.02.2020
2816 Snow -4 1008 62 0 1.85 146 12:57 11.02.2020
2817 Snow -4 1008 62 0 1.85 146 12:39 11.02.2020
2818 Snow -4 1008 62 0 1.85 146 12:20 11.02.2020
2819 Snow -4 1008 62 0 1.85 146 11:41 11.02.2020
2820 Clouds -3 1007 70 0 2.62 177 11:20 11.02.2020
2821 Clouds -3 1007 70 0 2.62 177 10:56 11.02.2020
2822 Clouds -3 1007 70 0 2.62 177 10:37 11.02.2020
2823 Clouds -3 1007 70 0 2.62 177 10:19 11.02.2020
2824 Clouds -3 1007 70 0 2.62 177 09:55 11.02.2020
2825 Clouds -3 1007 70 0 2.62 177 09:37 11.02.2020
2826 Clouds -3 1007 70 0 2.62 177 09:18 11.02.2020
2827 Clouds -3 1007 70 0 2.62 177 08:42 11.02.2020
2828 Clouds -3 1007 68 0 2.53 170 08:23 11.02.2020
2829 Clouds -2 1009 71 0 3.61 148 07:48 11.02.2020
2830 Clouds -2 1009 71 0 3.61 148 07:25 11.02.2020
2831 Clouds -2 1009 71 0 3.61 148 06:44 11.02.2020
2832 Clouds -2 1009 71 0 3.61 148 06:22 11.02.2020
2833 Clouds -2 1009 71 0 3.61 148 05:54 11.02.2020
2834 Clouds -2 1009 71 0 3.61 148 05:24 11.02.2020
2835 Clouds -5 1013 64 0 3.19 143 04:39 11.02.2020
2836 Clouds -5 1013 64 0 3.19 143 03:20 11.02.2020
2837 Clouds -5 1013 64 0 3.19 143 02:32 11.02.2020
2838 Clouds -8 1013 46 0 2.08 148 01:38 11.02.2020
2839 Clouds -8 1013 48 0 2.4 144 00:40 11.02.2020
2840 Clouds -8 1013 48 0 2.4 144 23:57 10.02.2020
2841 Clouds -8 1013 48 0 2.4 144 23:38 10.02.2020
2842 Clouds -6 1012 40 0 1.28 140 23:20 10.02.2020
2843 Clouds -6 1012 40 0 1.28 140 22:40 10.02.2020
2844 Clouds -6 1012 40 0 1.28 140 22:20 10.02.2020
2845 Clouds -6 1012 40 0 1.28 140 21:46 10.02.2020
2846 Clouds -6 1012 40 0 1.28 140 21:27 10.02.2020
2847 Clouds -6 1012 40 0 1.28 140 20:58 10.02.2020
2848 Clouds -6 1012 40 0 1.28 140 20:39 10.02.2020
2849 Clouds -6 1012 42 0 1.81 152 20:21 10.02.2020
2850 Clouds -6 1012 42 0 1.81 152 19:59 10.02.2020
2851 Clouds -6 1012 42 0 1.81 152 19:38 10.02.2020
2852 Clouds -6 1012 42 0 1.81 152 19:19 10.02.2020
2853 Clouds -6 1012 42 0 1.81 152 19:19 10.02.2020
2854 Clouds -6 1012 42 0 1.81 152 18:59 10.02.2020
2855 Clouds -6 1012 42 0 1.81 152 18:40 10.02.2020
2856 Clouds -6 1012 42 0 1.81 152 18:21 10.02.2020
2857 Clouds -6 1012 42 0 1.81 152 17:58 10.02.2020
2858 Clouds -6 1012 42 0 1.81 152 17:38 10.02.2020
2859 Clouds -7 1011 29 0 2.11 151 17:19 10.02.2020
2860 Clouds -7 1011 29 0 2.11 151 16:58 10.02.2020
2861 Clouds -7 1011 29 0 2.11 151 16:40 10.02.2020
2862 Clouds -7 1011 29 0 2.11 151 16:19 10.02.2020
2863 Clouds -7 1011 29 0 2.11 151 15:56 10.02.2020
2864 Clouds -7 1011 29 0 2.11 151 15:56 10.02.2020
2865 Clouds -7 1011 29 0 2.11 151 15:38 10.02.2020
2866 Clouds -7 1011 29 0 2.11 151 15:20 10.02.2020
2867 Clouds -7 1011 29 0 2.11 151 14:56 10.02.2020
2868 Clouds -7 1011 29 0 2.11 151 14:36 10.02.2020
2869 Clear -7 1011 24 0 2.34 136 14:18 10.02.2020
2870 Clear -7 1011 24 0 2.34 136 13:42 10.02.2020
2871 Clouds -6 1010 31 0 2.18 140 13:24 10.02.2020
2872 Clouds -6 1010 31 0 2.18 140 12:50 10.02.2020
2873 Clouds -6 1010 31 0 2.18 140 12:26 10.02.2020
2874 Clouds -6 1010 31 0 2.18 140 11:56 10.02.2020
2875 Clouds -6 1010 31 0 2.18 140 11:38 10.02.2020
2876 Clear -4 1009 46 0 1.31 169 11:20 10.02.2020
2877 Clear -4 1009 46 0 1.31 169 10:46 10.02.2020
2878 Clear -4 1009 46 0 1.31 169 10:27 10.02.2020
2879 Clear -4 1009 46 0 1.31 169 09:48 10.02.2020
2880 Clear -4 1009 46 0 1.31 169 09:26 10.02.2020
2881 Clear -4 1009 46 0 1.31 169 08:57 10.02.2020
2882 Clear -4 1009 46 0 1.31 169 08:37 10.02.2020
2883 Clear -2 1009 61 0 1.24 183 08:19 10.02.2020
2884 Clear -2 1009 61 0 1.24 183 07:50 10.02.2020
2885 Clear -2 1009 61 0 1.24 183 07:27 10.02.2020
2886 Clear -2 1009 61 0 1.24 183 06:22 10.02.2020
2887 Clear -7 1012 47 0 2.84 139 04:42 10.02.2020
2888 Clear -7 1012 47 0 2.84 139 03:34 10.02.2020
2889 Clear -7 1012 47 0 2.84 139 02:54 10.02.2020
2890 Clear -10 1012 33 0 3.53 127 01:57 10.02.2020
2891 Clear -10 1013 35 0 3.85 129 00:51 10.02.2020
2892 Clear -10 1013 35 0 3.85 129 00:31 10.02.2020
2893 Clear -10 1013 35 0 3.85 129 23:57 09.02.2020
2894 Clear -10 1013 35 0 3.85 129 23:39 09.02.2020
2895 Clear -10 1013 33 0 3.79 130 23:19 09.02.2020
2896 Clear -10 1013 33 0 3.79 130 22:40 09.02.2020
2897 Clear -10 1013 33 0 3.79 130 22:21 09.02.2020
2898 Clear -10 1013 33 0 3.79 130 21:44 09.02.2020
2899 Clear -10 1013 33 0 3.79 130 21:25 09.02.2020
2900 Clear -10 1013 33 0 3.79 130 20:56 09.02.2020
2901 Clear -10 1013 33 0 3.79 130 20:38 09.02.2020
2902 Clouds -10 1015 34 0 3.53 133 20:18 09.02.2020
2903 Clouds -10 1015 34 0 3.53 133 19:40 09.02.2020
2904 Clouds -10 1015 34 0 3.53 133 19:21 09.02.2020
2905 Clouds -10 1015 34 0 3.53 133 18:57 09.02.2020
2906 Clouds -10 1015 34 0 3.53 133 18:57 09.02.2020
2907 Clouds -10 1015 34 0 3.53 133 18:38 09.02.2020
2908 Clouds -10 1015 34 0 3.53 133 18:20 09.02.2020
2909 Clouds -10 1015 34 0 3.53 133 17:42 09.02.2020
2910 Clouds -10 1015 34 0 3.53 133 17:22 09.02.2020
2911 Clouds -9 1016 37 0 3.67 130 16:56 09.02.2020
2912 Clouds -9 1016 37 0 3.67 130 16:56 09.02.2020
2913 Clouds -9 1016 37 0 3.67 130 16:37 09.02.2020
2914 Clouds -9 1016 37 0 3.67 130 16:18 09.02.2020
2915 Clouds -9 1016 37 0 3.67 130 15:54 09.02.2020
2916 Clouds -9 1016 37 0 3.67 130 15:36 09.02.2020
2917 Clouds -9 1016 37 0 3.67 130 15:18 09.02.2020
2918 Clouds -9 1016 37 0 3.67 130 14:41 09.02.2020
2919 Clouds -9 1016 37 0 3.67 130 14:23 09.02.2020
2920 Clouds -9 1015 38 0 3.46 135 13:47 09.02.2020
2921 Clouds -9 1015 40 0 3.54 134 13:28 09.02.2020
2922 Clouds -9 1015 40 0 3.54 134 12:58 09.02.2020
2923 Clouds -9 1015 40 0 3.54 134 12:40 09.02.2020
2924 Clouds -9 1015 40 0 3.54 134 12:19 09.02.2020
2925 Clouds -9 1015 40 0 3.54 134 11:55 09.02.2020
2926 Clouds -9 1015 40 0 3.54 134 11:36 09.02.2020
2927 Clouds -5 1014 54 0 2.88 140 11:18 09.02.2020
2928 Clouds -5 1014 54 0 2.88 140 10:42 09.02.2020
2929 Clouds -5 1014 54 0 2.88 140 10:22 09.02.2020
2930 Clouds -5 1014 54 0 2.88 140 09:47 09.02.2020
2931 Clouds -5 1014 54 0 2.88 140 09:28 09.02.2020
2932 Clouds -5 1014 54 0 2.88 140 08:55 09.02.2020
2933 Clouds -5 1014 54 0 2.88 140 08:37 09.02.2020
2934 Clear -3 1016 66 0 2.37 139 08:19 09.02.2020
2935 Clear -3 1016 66 0 2.37 139 07:48 09.02.2020
2936 Clear -3 1016 66 0 2.37 139 06:54 09.02.2020
2937 Clear -3 1016 66 0 2.37 139 06:36 09.02.2020
2938 Clear -3 1016 66 0 2.37 139 05:45 09.02.2020
2939 Clear -7 1022 56 0 3.03 133 05:20 09.02.2020
2940 Clear -7 1022 56 0 3.03 133 03:53 09.02.2020
2941 Clear -7 1022 56 0 3.03 133 02:47 09.02.2020
2942 Clear -7 1022 56 0 3.03 133 02:26 09.02.2020
2943 Clear -10 1023 50 0 3.3 133 01:35 09.02.2020
2944 Clear -11 1023 51 0 3.28 132 00:48 09.02.2020
2945 Clear -11 1023 51 0 3.28 132 00:27 09.02.2020
2946 Clear -11 1023 51 0 3.28 132 23:44 08.02.2020
2947 Clear -11 1023 51 0 3.28 132 23:22 08.02.2020
2948 Clear -10 1024 53 0 3.54 137 22:55 08.02.2020
2949 Clear -10 1024 53 0 3.54 137 22:36 08.02.2020
2950 Clear -10 1024 53 0 3.54 137 22:18 08.02.2020
2951 Clear -10 1024 53 0 3.54 137 21:41 08.02.2020
2952 Clear -10 1024 53 0 3.54 137 21:23 08.02.2020
2953 Clear -10 1024 53 0 3.54 137 20:57 08.02.2020
2954 Clear -10 1024 53 0 3.54 137 20:39 08.02.2020
2955 Clouds -10 1026 49 0 3.84 137 20:19 08.02.2020
2956 Clouds -10 1026 49 0 3.84 137 19:55 08.02.2020
2957 Clouds -10 1026 49 0 3.84 137 19:37 08.02.2020
2958 Clouds -10 1026 49 0 3.84 137 19:19 08.02.2020
2959 Clouds -10 1026 49 0 3.84 137 19:19 08.02.2020
2960 Clouds -10 1026 49 0 3.84 137 18:43 08.02.2020
2961 Clouds -10 1026 49 0 3.84 137 18:24 08.02.2020
2962 Clouds -10 1026 49 0 3.84 137 17:44 08.02.2020
2963 Clouds -10 1026 49 0 3.84 137 17:22 08.02.2020
2964 Clouds -10 1028 46 0 3.53 134 16:59 08.02.2020
2965 Clouds -10 1028 46 0 3.53 134 16:40 08.02.2020
2966 Clouds -10 1028 46 0 3.53 134 16:21 08.02.2020
2967 Clouds -10 1028 46 0 3.53 134 15:43 08.02.2020
2968 Clouds -10 1028 46 0 3.53 134 15:20 08.02.2020
2969 Clouds -10 1028 46 0 3.53 134 14:59 08.02.2020
2970 Clouds -10 1028 46 0 3.53 134 14:41 08.02.2020
2971 Clouds -10 1030 48 0 2.95 131 14:19 08.02.2020
2972 Clouds -10 1030 48 0 2.95 131 13:43 08.02.2020
2973 Clear -10 1029 45 0 3.06 133 13:23 08.02.2020
2974 Clear -10 1029 45 0 3.06 133 12:57 08.02.2020
2975 Clear -10 1029 45 0 3.06 133 12:38 08.02.2020
2976 Clear -10 1029 45 0 3.06 133 12:19 08.02.2020
2977 Clear -10 1029 45 0 3.06 133 11:43 08.02.2020
2978 Clear -10 1029 45 0 3.06 133 11:22 08.02.2020
2979 Clear -7 1028 60 0 1.55 145 10:57 08.02.2020
2980 Clear -7 1028 60 0 1.55 145 10:38 08.02.2020
2981 Clear -7 1028 60 0 1.55 145 10:20 08.02.2020
2982 Clear -7 1028 60 0 1.55 145 09:49 08.02.2020
2983 Clear -7 1028 60 0 1.55 145 09:24 08.02.2020
2984 Clear -7 1028 60 0 1.55 145 08:46 08.02.2020
2985 Clear -7 1028 60 0 1.47 141 08:24 08.02.2020
2986 Clouds -5 1030 63 0 1.23 160 07:53 08.02.2020
2987 Clouds -5 1030 63 0 1.23 160 07:34 08.02.2020
2988 Clouds -5 1030 63 0 1.23 160 06:54 08.02.2020
2989 Clouds -5 1030 63 0 1.23 160 06:21 08.02.2020
2990 Clouds -5 1030 63 0 1.23 160 05:34 08.02.2020
2991 Clouds -10 1034 59 0 1.85 120 04:54 08.02.2020
2992 Clouds -10 1034 59 0 1.85 120 04:24 08.02.2020
2993 Clouds -10 1034 59 0 1.85 120 03:37 08.02.2020
2994 Clouds -10 1034 59 0 1.85 120 02:29 08.02.2020
2995 Clouds -12 1034 55 0 1.77 125 01:31 08.02.2020
2996 Clouds -12 1034 55 0 1.85 123 00:46 08.02.2020
2997 Clouds -12 1034 55 0 1.85 123 00:25 08.02.2020
2998 Clouds -12 1034 55 0 1.85 123 23:57 07.02.2020
2999 Clouds -12 1034 55 0 1.85 123 23:39 07.02.2020
3000 Clear -14 1034 55 0 2.27 124 23:19 07.02.2020
3001 Clear -14 1034 55 0 2.27 124 22:41 07.02.2020
3002 Clear -14 1034 55 0 2.27 124 22:20 07.02.2020
3003 Clear -14 1034 55 0 2.27 124 21:57 07.02.2020
3004 Clear -14 1034 55 0 2.27 124 21:39 07.02.2020
3005 Clear -14 1034 55 0 2.27 124 21:19 07.02.2020
3006 Clear -14 1034 55 0 2.27 124 20:39 07.02.2020
3007 Clear -14 1035 55 0 2.49 131 20:19 07.02.2020
3008 Clear -14 1035 55 0 2.49 131 20:19 07.02.2020
3009 Clear -14 1035 55 0 2.49 131 19:55 07.02.2020
3010 Clear -14 1035 55 0 2.49 131 19:36 07.02.2020
3011 Clear -14 1035 55 0 2.49 131 19:18 07.02.2020
3012 Clear -14 1035 55 0 2.49 131 18:43 07.02.2020
3013 Clear -14 1035 55 0 2.49 131 18:25 07.02.2020
3014 Clear -14 1035 55 0 2.49 131 17:55 07.02.2020
3015 Clear -14 1035 55 0 2.49 131 17:37 07.02.2020
3016 Clear -14 1035 56 0 2.21 120 17:18 07.02.2020
3017 Clear -14 1035 56 0 2.21 120 16:42 07.02.2020
3018 Clear -14 1035 56 0 2.21 120 16:23 07.02.2020
3019 Clear -14 1035 56 0 2.21 120 15:53 07.02.2020
3020 Clear -14 1035 56 0 2.21 120 15:28 07.02.2020
3021 Clear -14 1035 56 0 2.21 120 15:28 07.02.2020
3022 Clear -14 1035 56 0 2.21 120 14:55 07.02.2020
3023 Clear -14 1035 56 0 2.21 120 14:37 07.02.2020
3024 Clear -15 1035 62 0 1.86 124 14:19 07.02.2020
3025 Clear -15 1035 62 0 1.86 124 13:56 07.02.2020
3026 Clear -15 1035 62 0 1.86 124 13:38 07.02.2020
3027 Clear -14 1034 62 0 2 127 13:18 07.02.2020
3028 Clear -14 1034 62 0 2 127 12:41 07.02.2020
3029 Clear -14 1034 62 0 2 127 12:23 07.02.2020
3030 Clear -14 1034 62 0 2 127 11:45 07.02.2020
3031 Clear -14 1034 62 0 2 127 11:23 07.02.2020
3032 Clear -11 1031 72 0 0.3 104 10:58 07.02.2020
3033 Clear -11 1031 72 0 0.3 104 10:38 07.02.2020
3034 Clear -11 1031 72 0 0.3 104 10:19 07.02.2020
3035 Clear -11 1031 72 0 0.3 104 09:41 07.02.2020
3036 Clear -11 1031 72 0 0.3 104 09:22 07.02.2020
3037 Clear -11 1031 72 0 0.3 104 09:22 07.02.2020
3038 Clear -11 1031 72 0 0.3 104 08:47 07.02.2020
3039 Clear -11 1031 72 0 0.3 104 08:23 07.02.2020
3040 Clear -10 1032 66 0 0.61 290 07:54 07.02.2020
3041 Clear -10 1032 66 0 0.61 290 07:33 07.02.2020
3042 Clear -10 1032 66 0 0.61 290 06:59 07.02.2020
3043 Clear -10 1032 66 0 0.61 290 06:39 07.02.2020
3044 Clear -10 1032 66 0 0.61 290 06:19 07.02.2020
3045 Clear -10 1032 66 0 0.61 290 05:37 07.02.2020
3046 Clear -13 1035 67 0 1.27 123 03:51 07.02.2020
3047 Clear -13 1035 67 0 1.27 123 02:23 07.02.2020
3048 Clear -16 1035 61 0 2.01 119 01:21 07.02.2020
3049 Clear -16 1035 61 0 2.01 119 00:28 07.02.2020
3050 Clear -16 1035 61 0 2.01 119 23:38 06.02.2020
3051 Clear -16 1033 61 0 1.75 131 23:19 06.02.2020
3052 Clear -16 1033 61 0 1.75 131 22:48 06.02.2020
3053 Clear -16 1033 61 0 1.75 131 22:27 06.02.2020
3054 Clear -16 1033 61 0 1.75 131 21:59 06.02.2020
3055 Clear -16 1033 61 0 1.75 131 21:36 06.02.2020
3056 Clear -16 1033 61 0 1.75 131 21:18 06.02.2020
3057 Clear -16 1033 61 0 1.75 131 20:55 06.02.2020
3058 Clear -16 1033 61 0 1.75 131 20:36 06.02.2020
3059 Clouds -16 1033 59 0 2.12 122 20:18 06.02.2020
3060 Clouds -16 1033 59 0 2.12 122 19:56 06.02.2020
3061 Clouds -16 1033 59 0 2.12 122 19:37 06.02.2020
3062 Clouds -16 1033 59 0 2.12 122 19:19 06.02.2020
3063 Clouds -16 1033 59 0 2.12 122 18:42 06.02.2020
3064 Clouds -16 1033 59 0 2.12 122 18:24 06.02.2020
3065 Clouds -16 1033 59 0 2.12 122 17:58 06.02.2020
3066 Clouds -16 1033 59 0 2.12 122 17:58 06.02.2020
3067 Clouds -16 1033 59 0 2.12 122 17:40 06.02.2020
3068 Clear -16 1033 58 0 2.44 123 17:20 06.02.2020
3069 Clear -16 1033 58 0 2.44 123 16:43 06.02.2020
3070 Clear -16 1033 58 0 2.44 123 16:25 06.02.2020
3071 Clear -16 1033 58 0 2.44 123 15:44 06.02.2020
3072 Clear -16 1033 58 0 2.44 123 15:24 06.02.2020
3073 Clear -16 1033 58 0 2.44 123 14:58 06.02.2020
3074 Clear -16 1033 58 0 2.44 123 14:58 06.02.2020
3075 Clear -16 1033 58 0 2.44 123 14:40 06.02.2020
3076 Clear -16 1033 58 0 2.44 123 14:22 06.02.2020
3077 Clear -15 1031 59 0 2.76 120 13:43 06.02.2020
3078 Clear -15 1031 59 0 2.76 120 13:25 06.02.2020
3079 Clouds -15 1031 59 0 2.71 120 12:45 06.02.2020
3080 Clouds -15 1031 59 0 2.71 120 12:20 06.02.2020
3081 Clouds -15 1031 59 0 2.71 120 11:58 06.02.2020
3082 Clouds -15 1031 59 0 2.71 120 11:40 06.02.2020
3083 Clear -11 1027 69 0 1.62 124 11:21 06.02.2020
3084 Clear -11 1027 69 0 1.62 124 10:57 06.02.2020
3085 Clear -11 1027 69 0 1.62 124 10:39 06.02.2020
3086 Clear -11 1027 69 0 1.62 124 10:21 06.02.2020
3087 Clear -11 1027 69 0 1.62 124 09:56 06.02.2020
3088 Clear -11 1027 69 0 1.62 124 09:37 06.02.2020
3089 Clear -11 1027 69 0 1.62 124 09:19 06.02.2020
3090 Clear -11 1027 69 0 1.62 124 08:41 06.02.2020
3091 Clear -11 1027 69 0 1.72 123 08:22 06.02.2020
3092 Clouds -9 1028 71 0 1.68 114 07:48 06.02.2020
3093 Clouds -9 1028 71 0 1.68 114 07:27 06.02.2020
3094 Clouds -9 1028 71 0 1.68 114 06:37 06.02.2020
3095 Clouds -9 1028 71 0 1.68 114 06:18 06.02.2020
3096 Clouds -14 1031 69 0 2.66 113 04:43 06.02.2020
3097 Clouds -14 1031 69 0 2.66 113 03:21 06.02.2020
3098 Clouds -14 1031 69 0 2.66 113 02:29 06.02.2020
3099 Clouds -16 1032 64 0 2.69 111 01:37 06.02.2020
3100 Clouds -16 1032 64 0 2.6 112 00:58 06.02.2020
3101 Clouds -16 1032 64 0 2.6 112 00:26 06.02.2020
3102 Clouds -16 1032 64 0 2.6 112 23:47 05.02.2020
3103 Clouds -16 1032 64 0 2.6 112 23:29 05.02.2020
3104 Clouds -16 1032 63 0 2.44 113 22:58 05.02.2020
3105 Clouds -16 1032 63 0 2.44 113 22:40 05.02.2020
3106 Clouds -16 1032 63 0 2.44 113 22:21 05.02.2020
3107 Clouds -16 1032 63 0 2.44 113 22:21 05.02.2020
3108 Clouds -16 1032 63 0 2.44 113 21:43 05.02.2020
3109 Clouds -16 1032 63 0 2.44 113 21:24 05.02.2020
3110 Clouds -16 1032 63 0 2.44 113 20:59 05.02.2020
3111 Clouds -16 1032 63 0 2.44 113 20:39 05.02.2020
3112 Clouds -16 1032 63 0 2.44 113 20:39 05.02.2020
3113 Clear -16 1033 59 0 2.45 111 20:19 05.02.2020
3114 Clear -16 1033 59 0 2.45 111 19:57 05.02.2020
3115 Clear -16 1033 59 0 2.45 111 19:38 05.02.2020
3116 Clear -16 1033 59 0 2.45 111 19:19 05.02.2020
3117 Clear -16 1033 59 0 2.45 111 19:19 05.02.2020
3118 Clear -16 1033 59 0 2.45 111 18:45 05.02.2020
3119 Clear -16 1033 59 0 2.45 111 18:22 05.02.2020
3120 Clear -16 1033 59 0 2.45 111 17:59 05.02.2020
3121 Clear -16 1033 59 0 2.45 111 17:37 05.02.2020
3122 Clear -16 1033 59 0 2.45 111 17:37 05.02.2020
3123 Clear -16 1033 57 0 2.06 108 17:18 05.02.2020
3124 Clear -16 1033 57 0 2.06 108 16:55 05.02.2020
3125 Clear -16 1033 57 0 2.06 108 16:37 05.02.2020
3126 Clear -16 1033 57 0 2.06 108 16:18 05.02.2020
3127 Clear -16 1033 57 0 2.06 108 15:41 05.02.2020
3128 Clear -16 1033 57 0 2.06 108 15:19 05.02.2020
3129 Clear -16 1033 57 0 2.06 108 14:55 05.02.2020
3130 Clear -16 1033 57 0 2.06 108 14:37 05.02.2020
3131 Clear -16 1032 60 0 1.74 104 14:19 05.02.2020
3132 Clear -16 1032 60 0 1.74 104 13:41 05.02.2020
3133 Clouds -16 1031 58 0 1.78 108 13:22 05.02.2020
3134 Clouds -16 1031 58 0 1.78 108 12:44 05.02.2020
3135 Clouds -16 1031 58 0 1.78 108 12:25 05.02.2020
3136 Clouds -16 1031 58 0 1.78 108 11:57 05.02.2020
3137 Clouds -16 1031 58 0 1.78 108 11:39 05.02.2020
3138 Clear -13 1028 66 0 0.4 295 11:20 05.02.2020
3139 Clear -13 1028 66 0 0.4 295 10:43 05.02.2020
3140 Clear -13 1028 66 0 0.4 295 10:25 05.02.2020
3141 Clear -13 1028 66 0 0.4 295 09:58 05.02.2020
3142 Clear -13 1028 66 0 0.4 295 09:38 05.02.2020
3143 Clear -13 1028 66 0 0.4 295 09:20 05.02.2020
3144 Clear -13 1028 66 0 0.4 295 08:44 05.02.2020
3145 Clear -13 1028 66 0 0.4 295 08:24 05.02.2020
3146 Clear -10 1028 58 0 0.82 278 07:55 05.02.2020
3147 Clear -10 1028 58 0 0.82 278 07:33 05.02.2020
3148 Clear -10 1028 58 0 0.82 278 06:50 05.02.2020
3149 Clear -10 1028 58 0 0.82 278 06:23 05.02.2020
3150 Clear -10 1028 58 0 0.82 278 05:54 05.02.2020
3151 Clear -14 1030 52 0 0.94 127 05:19 05.02.2020
3152 Clear -14 1030 52 0 0.94 127 04:45 05.02.2020
3153 Clear -14 1030 52 0 0.94 127 03:50 05.02.2020
3154 Clear -14 1030 52 0 0.94 127 02:25 05.02.2020
3155 Clear -18 1031 42 0 1.38 116 01:38 05.02.2020
3156 Clear -17 1031 40 0 1.43 118 00:43 05.02.2020
3157 Clear -17 1031 40 0 1.43 118 23:57 04.02.2020
3158 Clear -17 1031 40 0 1.43 118 23:37 04.02.2020
3159 Clear -18 1030 41 0 1.69 112 23:18 04.02.2020
3160 Clear -18 1030 41 0 1.69 112 22:42 04.02.2020
3161 Clear -18 1030 41 0 1.69 112 22:42 04.02.2020
3162 Clear -18 1030 41 0 1.69 112 22:22 04.02.2020
3163 Clear -18 1030 41 0 1.69 112 22:00 04.02.2020
3164 Clear -18 1030 41 0 1.69 112 21:41 04.02.2020
3165 Clear -18 1030 41 0 1.69 112 21:41 04.02.2020
3166 Clear -18 1030 41 0 1.69 112 21:19 04.02.2020
3167 Clear -18 1030 41 0 1.69 112 20:59 04.02.2020
3168 Clear -18 1030 41 0 1.69 112 20:39 04.02.2020
3169 Clear -18 1031 43 0 1.79 108 20:20 04.02.2020
3170 Clear -18 1031 43 0 1.74 108 20:20 04.02.2020
3171 Clear -18 1031 43 0 1.79 108 19:57 04.02.2020
3172 Clear -18 1031 43 0 1.79 108 19:39 04.02.2020
3173 Clear -18 1031 43 0 1.79 108 19:21 04.02.2020
3174 Clear -18 1031 43 0 1.79 108 18:55 04.02.2020
3175 Clear -18 1031 43 0 1.79 108 18:36 04.02.2020
3176 Clear -18 1031 43 0 1.79 108 18:36 04.02.2020
3177 Clear -18 1031 43 0 1.79 108 18:18 04.02.2020
3178 Clear -18 1031 43 0 1.79 108 17:42 04.02.2020
3179 Clear -19 1032 48 0 1.5 105 17:21 04.02.2020
3180 Clear -19 1032 48 0 1.5 105 16:55 04.02.2020
3181 Clear -19 1032 48 0 1.5 105 16:36 04.02.2020
3182 Clear -19 1032 48 0 1.5 105 16:18 04.02.2020
3183 Clear -19 1032 48 0 1.5 105 15:55 04.02.2020
3184 Clear -19 1032 48 0 1.5 105 15:37 04.02.2020
3185 Clear -19 1032 48 0 1.5 105 15:18 04.02.2020
3186 Clear -19 1032 48 0 1.5 105 14:41 04.02.2020
3187 Clear -19 1030 57 0 0.83 135 14:21 04.02.2020
3188 Clear -19 1030 57 0 0.83 135 13:56 04.02.2020
3189 Clear -19 1030 57 0 0.83 135 13:38 04.02.2020
3190 Clear -19 1029 54 0 1.31 118 13:18 04.02.2020
3191 Clear -19 1029 54 0 1.31 118 12:43 04.02.2020
3192 Clear -19 1029 54 0 1.31 118 12:24 04.02.2020
3193 Clear -19 1029 54 0 1.31 118 11:57 04.02.2020
3194 Clear -19 1029 54 0 1.31 118 11:57 04.02.2020
3195 Clear -19 1029 54 0 1.31 118 11:39 04.02.2020
3196 Clear -15 1027 65 0 0.34 162 11:19 04.02.2020
3197 Clear -15 1027 65 0 0.34 162 10:49 04.02.2020
3198 Clear -15 1027 65 0 0.34 162 10:27 04.02.2020
3199 Clear -15 1027 65 0 0.34 162 09:58 04.02.2020
3200 Clear -15 1027 65 0 0.34 162 09:39 04.02.2020
3201 Clear -15 1027 65 0 0.34 162 09:21 04.02.2020
3202 Clear -15 1027 65 0 0.34 162 08:47 04.02.2020
3203 Clear -15 1027 65 0 0.34 162 08:28 04.02.2020
3204 Clear -11 1027 60 0 0.91 277 07:56 04.02.2020
3205 Clear -11 1027 60 0 0.91 277 07:37 04.02.2020
3206 Clear -11 1027 60 0 0.91 277 07:18 04.02.2020
3207 Clear -11 1027 60 0 0.91 277 06:41 04.02.2020
3208 Clear -11 1027 60 0 0.91 277 05:35 04.02.2020
3209 Clear -15 1029 51 0 1.62 130 04:41 04.02.2020
3210 Clear -15 1029 51 0 1.62 130 03:49 04.02.2020
3211 Clear -15 1029 51 0 1.62 130 03:30 04.02.2020
3212 Clear -15 1029 51 0 1.62 130 02:48 04.02.2020
3213 Clear -15 1029 51 0 1.62 130 02:27 04.02.2020
3214 Clear -17 1030 45 0 2.34 128 01:46 04.02.2020
3215 Clear -17 1030 45 0 2.43 130 01:19 04.02.2020
3216 Clear -17 1030 45 0 2.43 130 00:23 04.02.2020
3217 Clear -17 1030 45 0 2.43 130 23:49 03.02.2020
3218 Clear -17 1030 45 0 2.43 130 23:49 03.02.2020
3219 Clear -17 1030 45 0 2.43 130 23:30 03.02.2020
3220 Clear -17 1029 50 0 2.97 118 22:58 03.02.2020
3221 Clear -17 1029 50 0 2.97 118 22:38 03.02.2020
3222 Clear -17 1029 50 0 2.97 118 22:19 03.02.2020
3223 Clear -17 1029 50 0 2.97 118 21:41 03.02.2020
3224 Clear -17 1029 50 0 2.97 118 21:20 03.02.2020
3225 Clear -17 1029 50 0 2.97 118 20:55 03.02.2020
3226 Clear -17 1029 50 0 2.97 118 20:37 03.02.2020
3227 Clear -17 1030 52 0 2.69 120 20:18 03.02.2020
3228 Clear -17 1030 50 0 2.83 119 19:41 03.02.2020
3229 Clear -17 1030 50 0 2.83 119 19:22 03.02.2020
3230 Clear -17 1030 50 0 2.83 119 18:57 03.02.2020
3231 Clear -17 1030 50 0 2.83 119 18:38 03.02.2020
3232 Clear -17 1030 50 0 2.83 119 18:20 03.02.2020
3233 Clear -17 1030 50 0 2.83 119 18:20 03.02.2020
3234 Clear -17 1030 50 0 2.83 119 17:56 03.02.2020
3235 Clear -17 1030 50 0 2.83 119 17:38 03.02.2020
3236 Clear -17 1030 52 0 2.62 117 17:18 03.02.2020
3237 Clear -17 1030 52 0 2.62 117 16:40 03.02.2020
3238 Clear -17 1030 52 0 2.62 117 16:21 03.02.2020
3239 Clear -17 1030 52 0 2.62 117 15:56 03.02.2020
3240 Clear -17 1030 52 0 2.62 117 15:38 03.02.2020
3241 Clear -17 1030 52 0 2.62 117 15:19 03.02.2020
3242 Clear -17 1030 52 0 2.62 117 14:45 03.02.2020
3243 Clear -17 1030 52 0 2.62 117 14:27 03.02.2020
3244 Clear -17 1029 55 0 2.19 116 13:59 03.02.2020
3245 Clear -17 1029 55 0 2.19 116 13:41 03.02.2020
3246 Clear -17 1030 57 0 2.13 115 13:20 03.02.2020
3247 Clear -17 1030 57 0 2.13 115 12:56 03.02.2020
3248 Clear -17 1030 57 0 2.13 115 12:37 03.02.2020
3249 Clear -17 1030 57 0 2.13 115 12:19 03.02.2020
3250 Clear -17 1030 57 0 2.13 115 11:40 03.02.2020
3251 Clear -14 1027 68 0 0.56 48 11:20 03.02.2020
3252 Clear -14 1027 68 0 0.56 48 11:20 03.02.2020
3253 Clear -14 1027 68 0 0.56 48 10:58 03.02.2020
3254 Clear -14 1027 68 0 0.56 48 10:39 03.02.2020
3255 Clear -14 1027 68 0 0.56 48 10:20 03.02.2020
3256 Clear -14 1027 68 0 0.56 48 09:41 03.02.2020
3257 Clear -14 1027 68 0 0.56 48 09:20 03.02.2020
3258 Clear -14 1027 68 0 0.56 48 08:41 03.02.2020
3259 Clear -14 1027 68 0 0.56 48 08:23 03.02.2020
3260 Clear -11 1028 61 0 0.32 341 07:58 03.02.2020
3261 Clear -11 1028 61 0 0.32 341 07:39 03.02.2020
3262 Clear -11 1028 61 0 0.32 341 07:20 03.02.2020
3263 Clear -11 1028 61 0 0.32 341 07:20 03.02.2020
3264 Clear -11 1028 61 0 0.32 341 07:20 03.02.2020
3265 Clear -11 1028 61 0 0.32 341 07:20 03.02.2020
3266 Clear -11 1028 61 0 0.32 341 06:43 03.02.2020
3267 Clear -11 1028 61 0 0.32 341 06:24 03.02.2020
3268 Clear -11 1028 61 0 0.32 341 05:36 03.02.2020
3269 Clear -16 1031 57 0 1.53 110 04:50 03.02.2020
3270 Clear -16 1031 57 0 1.53 110 02:58 03.02.2020
3271 Clear -16 1031 57 0 1.53 110 02:33 03.02.2020
3272 Clouds -18 1031 46 0 1.91 108 01:25 03.02.2020
3273 Clouds -18 1032 47 0 1.97 106 00:45 03.02.2020
3274 Clouds -18 1032 47 0 1.97 106 00:21 03.02.2020
3275 Clouds -18 1032 47 0 1.97 106 23:38 02.02.2020
3276 Clouds -19 1032 40 0 1.71 110 23:20 02.02.2020
3277 Clouds -19 1032 40 0 1.71 110 22:57 02.02.2020
3278 Clouds -19 1032 40 0 1.71 110 22:37 02.02.2020
3279 Clouds -19 1032 40 0 1.71 110 22:19 02.02.2020
3280 Clouds -19 1032 40 0 1.71 110 21:42 02.02.2020
3281 Clouds -19 1032 40 0 1.71 110 21:24 02.02.2020
3282 Clouds -19 1032 40 0 1.71 110 20:58 02.02.2020
3283 Clouds -19 1032 40 0 1.71 110 20:39 02.02.2020
3284 Clear -20 1034 34 0 1.44 111 20:21 02.02.2020
3285 Clear -20 1034 34 0 1.44 111 19:59 02.02.2020
3286 Clear -20 1034 34 0 1.44 111 19:41 02.02.2020
3287 Clear -20 1034 34 0 1.44 111 19:23 02.02.2020
3288 Clear -20 1034 34 0 1.44 111 18:57 02.02.2020
3289 Clear -20 1034 34 0 1.44 111 18:38 02.02.2020
3290 Clear -20 1034 34 0 1.44 111 18:20 02.02.2020
3291 Clear -20 1034 34 0 1.44 111 17:58 02.02.2020
3292 Clear -20 1034 34 0 1.44 111 17:38 02.02.2020
3293 Clear -20 1034 36 0 1.48 116 17:18 02.02.2020
3294 Clear -20 1034 36 0 1.48 116 16:58 02.02.2020
3295 Clear -20 1034 36 0 1.48 116 16:38 02.02.2020
3296 Clear -20 1034 36 0 1.48 116 16:19 02.02.2020
3297 Clear -20 1034 36 0 1.48 116 15:57 02.02.2020
3298 Clear -20 1034 36 0 1.48 116 15:38 02.02.2020
3299 Clear -20 1034 36 0 1.48 116 15:19 02.02.2020
3300 Clear -20 1034 36 0 1.48 116 15:19 02.02.2020
3301 Clear -20 1034 36 0 1.48 116 15:19 02.02.2020
3302 Clear -20 1034 36 0 1.48 116 14:44 02.02.2020
3303 Clear -20 1035 41 0 1.06 132 14:20 02.02.2020
3304 Clear -20 1035 41 0 1.06 132 13:59 02.02.2020
3305 Clear -20 1035 41 0 1.06 132 13:41 02.02.2020
3306 Clear -20 1034 41 0 1.08 122 13:22 02.02.2020
3307 Clear -20 1034 41 0 1.08 122 12:57 02.02.2020
3308 Clear -20 1034 41 0 1.08 122 12:39 02.02.2020
3309 Clear -21 1035 45 0 0.89 124 12:21 02.02.2020
3310 Clear -20 1034 41 0 1.08 122 11:43 02.02.2020
3311 Clear -16 1031 57 0 0.28 293 11:20 02.02.2020
3312 Clear -16 1031 57 0 0.28 293 10:58 02.02.2020
3313 Clear -16 1031 57 0 0.28 293 10:58 02.02.2020
3314 Clear -16 1031 57 0 0.28 293 10:40 02.02.2020
3315 Clear -16 1031 57 0 0.28 293 10:22 02.02.2020
3316 Clear -16 1031 57 0 0.28 293 09:59 02.02.2020
3317 Clear -16 1031 57 0 0.28 293 09:39 02.02.2020
3318 Clear -16 1031 57 0 0.28 293 09:21 02.02.2020
3319 Clear -16 1031 57 0 0.28 293 08:46 02.02.2020
3320 Clear -16 1031 58 0 0.35 318 08:26 02.02.2020
3321 Clear -12 1033 57 0 0.82 156 07:49 02.02.2020
3322 Clear -12 1033 57 0 0.82 156 07:30 02.02.2020
3323 Clear -12 1033 57 0 0.82 156 06:56 02.02.2020
3324 Clear -12 1033 57 0 0.82 156 06:37 02.02.2020
3325 Clear -12 1033 57 0 0.82 156 06:18 02.02.2020
3326 Clear -18 1037 54 0 2.14 125 05:20 02.02.2020
3327 Clear -18 1037 54 0 2.14 125 03:43 02.02.2020
3328 Clear -18 1037 54 0 2.14 125 03:22 02.02.2020
3329 Clear -22 1040 50 0 2.02 126 02:19 02.02.2020
3330 Clear -22 1040 50 0 2.02 126 01:50 02.02.2020
3331 Clear -22 1040 51 0 2.11 128 00:51 02.02.2020
3332 Clear -22 1040 51 0 2.11 128 00:25 02.02.2020
3333 Clear -22 1040 51 0 2.11 128 23:57 01.02.2020
3334 Clear -22 1040 51 0 2.11 128 23:57 01.02.2020
3335 Clear -22 1040 51 0 2.11 128 23:38 01.02.2020
3336 Clear -23 1041 59 0 1.48 125 23:19 01.02.2020
3337 Clear -23 1041 59 0 1.48 125 22:43 01.02.2020
3338 Clear -23 1041 59 0 1.48 125 22:18 01.02.2020
3339 Clear -23 1041 59 0 1.48 125 21:41 01.02.2020
3340 Clear -23 1041 59 0 1.48 125 21:19 01.02.2020
3341 Clear -23 1041 59 0 1.48 125 20:55 01.02.2020
3342 Clear -23 1041 59 0 1.48 125 20:37 01.02.2020
3343 Clear -24 1044 67 0 1.54 129 20:18 01.02.2020
3344 Clear -24 1044 67 0 1.54 129 19:55 01.02.2020
3345 Clear -24 1044 67 0 1.54 129 19:36 01.02.2020
3346 Clear -24 1044 67 0 1.54 129 19:18 01.02.2020
3347 Clear -24 1044 67 0 1.54 129 18:55 01.02.2020
3348 Clear -24 1044 67 0 1.54 129 18:36 01.02.2020
3349 Clear -24 1044 67 0 1.54 129 18:18 01.02.2020
3350 Clear -24 1044 67 0 1.54 129 17:45 01.02.2020
3351 Clear -25 1045 78 0 1.54 125 17:21 01.02.2020
3352 Clear -25 1045 78 0 1.54 125 16:59 01.02.2020
3353 Clear -25 1045 78 0 1.54 125 16:39 01.02.2020
3354 Clear -25 1045 78 0 1.54 125 16:20 01.02.2020
3355 Clear -25 1045 78 0 1.54 125 15:45 01.02.2020
3356 Clear -25 1045 78 0 1.54 125 15:27 01.02.2020
3357 Clear -25 1045 78 0 1.54 125 14:58 01.02.2020
3358 Clear -25 1045 78 0 1.54 125 14:39 01.02.2020
3359 Clouds -26 1045 84 0 1.67 118 14:20 01.02.2020
3360 Clouds -26 1045 84 0 1.67 118 13:45 01.02.2020
3361 Clouds -26 1045 85 0 1.89 117 13:21 01.02.2020
3362 Clouds -26 1045 85 0 1.89 117 12:44 01.02.2020
3363 Clouds -26 1045 85 0 1.89 117 12:26 01.02.2020
3364 Clouds -26 1045 85 0 1.89 117 11:57 01.02.2020
3365 Clouds -26 1045 85 0 1.89 117 11:38 01.02.2020
3366 Clouds -23 1042 81 0 0.46 268 11:19 01.02.2020
3367 Clouds -23 1042 81 0 0.46 268 10:55 01.02.2020
3368 Clouds -23 1042 81 0 0.46 268 10:37 01.02.2020
3369 Clouds -23 1042 81 0 0.46 268 10:37 01.02.2020
3370 Clouds -23 1042 81 0 0.46 268 10:19 01.02.2020
3371 Clouds -23 1042 81 0 0.46 268 09:42 01.02.2020
3372 Clouds -23 1042 81 0 0.46 268 09:23 01.02.2020
3373 Clouds -23 1042 81 0 0.46 268 08:59 01.02.2020
3374 Clouds -23 1042 81 0 0.46 268 08:38 01.02.2020
3375 Clouds -20 1041 81 0 2 278 07:47 01.02.2020
3376 Clouds -20 1041 81 0 2 278 07:25 01.02.2020
3377 Clouds -20 1041 81 0 2 278 07:25 01.02.2020
3378 Clouds -20 1041 81 0 2 278 07:25 01.02.2020
3379 Clouds -20 1041 81 0 2 278 06:50 01.02.2020
3380 Clouds -20 1041 81 0 2 278 06:19 01.02.2020
3381 Clouds -20 1041 81 0 2 278 05:51 01.02.2020
3382 Clouds -22 1042 70 0 0.59 286 03:40 01.02.2020
3383 Clouds -22 1042 70 0 0.59 286 03:20 01.02.2020
3384 Clouds -22 1042 70 0 0.59 286 02:41 01.02.2020
3385 Clouds -22 1042 70 0 0.59 286 02:22 01.02.2020
3386 Clouds -24 1041 52 0 0.62 92 01:48 01.02.2020
3387 Clouds -24 1041 52 0 0.62 92 01:28 01.02.2020
3388 Clouds -24 1041 53 0 0.89 97 00:25 01.02.2020
3389 Clouds -24 1041 53 0 0.89 97 23:42 31.01.2020
3390 Clouds -25 1039 45 0 1.23 107 23:19 31.01.2020
3391 Clouds -25 1039 45 0 1.23 107 22:58 31.01.2020
3392 Clouds -25 1039 45 0 1.23 107 22:58 31.01.2020
3393 Clouds -25 1039 45 0 1.23 107 22:40 31.01.2020
3394 Clouds -25 1039 45 0 1.23 107 22:21 31.01.2020
3395 Clouds -25 1039 45 0 1.23 107 21:55 31.01.2020
3396 Clouds -25 1039 45 0 1.23 107 21:37 31.01.2020
3397 Clouds -25 1039 45 0 1.23 107 21:19 31.01.2020
3398 Clouds -25 1039 45 0 1.23 107 20:55 31.01.2020
3399 Clouds -25 1039 45 0 1.23 107 20:37 31.01.2020
3400 Clouds -26 1040 40 0 0.99 138 20:18 31.01.2020
3401 Clouds -25 1039 39 0 0.96 144 19:55 31.01.2020
3402 Clouds -25 1039 39 0 0.96 144 19:36 31.01.2020
3403 Clouds -25 1039 39 0 0.96 144 19:18 31.01.2020
3404 Clouds -25 1039 39 0 0.96 144 18:39 31.01.2020
3405 Clouds -25 1039 39 0 0.96 144 18:20 31.01.2020
3406 Clouds -25 1039 39 0 0.96 144 17:46 31.01.2020
3407 Clouds -25 1039 39 0 0.96 144 17:46 31.01.2020
3408 Clouds -25 1039 39 0 0.96 144 17:28 31.01.2020
3409 Clouds -23 1038 42 0 0.91 151 16:58 31.01.2020
3410 Clouds -23 1038 42 0 0.91 151 16:38 31.01.2020
3411 Clouds -23 1038 42 0 0.91 151 16:19 31.01.2020
3412 Clouds -23 1038 42 0 0.91 151 15:58 31.01.2020
3413 Clouds -23 1038 42 0 0.91 151 15:40 31.01.2020
3414 Clouds -23 1038 42 0 0.91 151 15:20 31.01.2020
3415 Clouds -23 1038 42 0 0.91 151 14:44 31.01.2020
3416 Clouds -23 1038 42 0 0.91 151 14:24 31.01.2020
3417 Clouds -22 1037 41 0 1.53 135 13:56 31.01.2020
3418 Clouds -22 1037 41 0 1.53 135 13:38 31.01.2020
3419 Clouds -23 1038 41 0 1.69 137 13:20 31.01.2020
3420 Clouds -24 1038 38 0 1.73 138 12:45 31.01.2020
3421 Clouds -23 1038 41 0 1.69 137 12:24 31.01.2020
3422 Clouds -23 1038 41 0 1.69 137 11:55 31.01.2020
3423 Clouds -24 1038 38 0 1.73 138 11:37 31.01.2020
3424 Clouds -19 1034 55 0 1 133 11:19 31.01.2020
3425 Clouds -19 1034 55 0 1 133 10:43 31.01.2020
3426 Clouds -19 1034 55 0 1 133 10:22 31.01.2020
3427 Clouds -19 1034 55 0 1 133 10:22 31.01.2020
3428 Clouds -19 1034 55 0 1 133 09:58 31.01.2020
3429 Clouds -19 1034 55 0 1 133 09:39 31.01.2020
3430 Clouds -19 1034 55 0 1 133 09:39 31.01.2020
3431 Clouds -19 1034 55 0 1 133 09:39 31.01.2020
3432 Clouds -19 1034 55 0 1 133 09:19 31.01.2020
3433 Clouds -19 1034 55 0 1 133 08:53 31.01.2020
3434 Clouds -19 1034 55 0 1 133 08:28 31.01.2020
3435 Clear -17 1036 56 0 1.11 126 07:54 31.01.2020
3436 Clear -17 1036 56 0 1.11 126 07:26 31.01.2020
3437 Clear -17 1036 56 0 1.11 126 06:59 31.01.2020
3438 Clear -17 1036 56 0 1.11 126 06:27 31.01.2020
3439 Clear -17 1036 56 0 1.11 126 05:50 31.01.2020
3440 Clear -23 1040 51 0 2.56 116 04:57 31.01.2020
3441 Clear -23 1040 51 0 2.56 116 03:26 31.01.2020
3442 Clear -26 1041 49 0 2.67 118 01:40 31.01.2020
3443 Clear -26 1042 49 0 2.75 116 00:46 31.01.2020
3444 Clear -26 1042 49 0 2.75 116 00:27 31.01.2020
3445 Clear -26 1042 49 0 2.75 116 23:57 30.01.2020
3446 Clear -26 1042 49 0 2.75 116 23:26 30.01.2020
3447 Clear -26 1042 59 0 2.7 116 22:58 30.01.2020
3448 Clear -26 1042 59 0 2.7 116 22:37 30.01.2020
3449 Clear -26 1042 59 0 2.7 116 22:37 30.01.2020
3450 Clear -26 1042 59 0 2.7 116 22:37 30.01.2020
3451 Clear -26 1042 59 0 2.7 116 22:18 30.01.2020
3452 Clear -26 1042 59 0 2.7 116 21:57 30.01.2020
3453 Clear -26 1042 59 0 2.7 116 21:38 30.01.2020
3454 Clear -26 1042 59 0 2.7 116 21:38 30.01.2020
3455 Clear -26 1042 59 0 2.7 116 21:18 30.01.2020
3456 Clear -26 1042 59 0 2.7 116 21:18 30.01.2020
3457 Clear -26 1042 59 0 2.7 116 20:41 30.01.2020
3458 Clear -26 1042 59 0 2.7 116 20:22 30.01.2020
3459 Clear -26 1042 59 0 2.7 116 20:22 30.01.2020
3460 Clear -26 1043 66 0 2.51 117 19:57 30.01.2020
3461 Clear -26 1043 66 0 2.51 117 19:39 30.01.2020
3462 Clear -26 1043 66 0 2.51 117 19:19 30.01.2020
3463 Clear -26 1043 66 0 2.51 117 18:42 30.01.2020
3464 Clear -26 1043 66 0 2.51 117 18:22 30.01.2020
3465 Clear -26 1043 66 0 2.51 117 17:58 30.01.2020
3466 Clear -26 1043 66 0 2.51 117 17:39 30.01.2020
3467 Clear -25 1043 79 0 2.29 110 17:19 30.01.2020
3468 Clear -25 1043 79 0 2.29 110 16:58 30.01.2020
3469 Clear -25 1043 79 0 2.29 110 16:38 30.01.2020
3470 Clear -25 1043 79 0 2.29 110 16:20 30.01.2020
3471 Clear -25 1043 79 0 2.29 110 15:44 30.01.2020
3472 Clear -25 1043 79 0 2.29 110 15:20 30.01.2020
3473 Clear -25 1043 79 0 2.29 110 14:50 30.01.2020
3474 Clear -25 1043 79 0 2.29 110 14:27 30.01.2020
3475 Clear -25 1041 88 0 1.82 102 13:58 30.01.2020
3476 Clear -25 1041 88 0 1.82 102 13:58 30.01.2020
3477 Clear -25 1041 88 0 1.82 102 13:38 30.01.2020
3478 Clear -25 1040 89 0 1.62 101 13:20 30.01.2020
3479 Clear -25 1040 89 0 1.62 101 12:43 30.01.2020
3480 Clear -25 1040 89 0 1.62 101 12:24 30.01.2020
3481 Clear -25 1040 89 0 1.62 101 11:58 30.01.2020
3482 Clear -25 1040 89 0 1.62 101 11:40 30.01.2020
3483 Clear -21 1036 92 0 0.65 318 11:21 30.01.2020
3484 Clear -21 1036 92 0 0.65 318 10:43 30.01.2020
3485 Clear -21 1036 92 0 0.65 318 10:24 30.01.2020
3486 Clear -21 1036 92 0 0.65 318 09:56 30.01.2020
3487 Clear -21 1036 92 0 0.65 318 09:37 30.01.2020
3488 Clear -21 1036 92 0 0.65 318 09:19 30.01.2020
3489 Clear -21 1036 92 0 0.65 318 08:42 30.01.2020
3490 Clear -21 1036 92 0 0.65 318 08:22 30.01.2020
3491 Clouds -17 1034 85 0 1.28 288 07:52 30.01.2020
3492 Clouds -17 1034 85 0 1.28 288 07:52 30.01.2020
3493 Clouds -17 1034 85 0 1.28 288 07:32 30.01.2020
3494 Clouds -17 1034 85 0 1.28 288 06:47 30.01.2020
3495 Clouds -17 1034 85 0 1.28 288 06:29 30.01.2020
3496 Clouds -17 1034 85 0 1.28 288 05:47 30.01.2020
3497 Clouds -17 1034 85 0 1.28 288 05:24 30.01.2020
3498 Clouds -21 1036 97 0 0.58 190 03:56 30.01.2020
3499 Clouds -21 1036 97 0 0.58 190 03:37 30.01.2020
3500 Clouds -21 1036 97 0 0.58 190 02:48 30.01.2020
3501 Clouds -22 1034 100 0 0.8 166 00:53 30.01.2020
3502 Clouds -22 1034 100 0 0.8 166 00:21 30.01.2020
3503 Clouds -22 1034 100 0 0.8 166 23:48 29.01.2020
3504 Clouds -22 1034 100 0 0.8 166 23:22 29.01.2020
3505 Snow -19 1031 99 0 0.71 233 22:58 29.01.2020
3506 Snow -19 1031 99 0 0.71 233 22:39 29.01.2020
3507 Snow -19 1031 99 0 0.71 233 22:19 29.01.2020
3508 Snow -19 1031 99 0 0.71 233 21:58 29.01.2020
3509 Snow -19 1031 99 0 0.71 233 21:39 29.01.2020
3510 Snow -19 1031 99 0 0.71 233 21:39 29.01.2020
3511 Snow -19 1031 99 0 0.71 233 21:39 29.01.2020
3512 Snow -19 1031 99 0 0.71 233 21:19 29.01.2020
3513 Snow -19 1031 99 0 0.71 233 20:58 29.01.2020
3514 Snow -19 1031 99 0 0.71 233 20:38 29.01.2020
3515 Clouds -19 1031 76 0 1.67 197 20:20 29.01.2020
3516 Clouds -19 1031 76 0 1.67 197 19:56 29.01.2020
3517 Clouds -19 1031 76 0 1.67 197 19:37 29.01.2020
3518 Clouds -19 1031 76 0 1.67 197 19:37 29.01.2020
3519 Clouds -19 1031 76 0 1.67 197 19:37 29.01.2020
3520 Clouds -19 1031 76 0 1.67 197 19:19 29.01.2020
3521 Clouds -19 1031 76 0 1.67 197 18:46 29.01.2020
3522 Clouds -19 1031 76 0 1.67 197 18:19 29.01.2020
3523 Clouds -19 1031 76 0 1.67 197 17:58 29.01.2020
3524 Clouds -19 1031 76 0 1.67 197 17:58 29.01.2020
3525 Clouds -19 1031 76 0 1.67 197 17:39 29.01.2020
3526 Clouds -18 1029 70 0 1.71 163 17:21 29.01.2020
3527 Clouds -18 1029 70 0 1.71 163 17:21 29.01.2020
3528 Clouds -18 1029 70 0 1.71 163 16:41 29.01.2020
3529 Clouds -18 1029 70 0 1.71 163 16:23 29.01.2020
3530 Clouds -18 1029 70 0 1.71 163 15:56 29.01.2020
3531 Clouds -18 1029 70 0 1.71 163 15:56 29.01.2020
3532 Clouds -18 1029 70 0 1.71 163 15:37 29.01.2020
3533 Clouds -18 1029 70 0 1.71 163 15:18 29.01.2020
3534 Clouds -18 1029 70 0 1.71 163 14:42 29.01.2020
3535 Clear -17 1027 63 0 2.64 156 14:20 29.01.2020
3536 Clear -17 1027 63 0 2.64 156 13:54 29.01.2020
3537 Clear -17 1027 63 0 2.64 156 13:36 29.01.2020
3538 Clouds -17 1028 63 0 3.15 151 13:18 29.01.2020
3539 Clouds -17 1028 63 0 3.15 151 12:54 29.01.2020
3540 Clouds -17 1028 63 0 3.15 151 12:36 29.01.2020
3541 Clouds -17 1028 63 0 3.15 151 12:18 29.01.2020
3542 Clouds -17 1028 63 0 3.15 151 11:42 29.01.2020
3543 Clouds -12 1025 70 0 1.73 176 11:20 29.01.2020
3544 Clouds -12 1025 70 0 1.73 176 10:46 29.01.2020
3545 Clouds -12 1025 70 0 1.73 176 10:23 29.01.2020
3546 Clouds -12 1025 70 0 1.73 176 09:58 29.01.2020
3547 Clouds -12 1025 70 0 1.73 176 09:39 29.01.2020
3548 Clouds -12 1025 70 0 1.73 176 09:19 29.01.2020
3549 Clouds -12 1025 70 0 1.73 176 08:45 29.01.2020
3550 Clouds -13 1025 70 0 1.81 166 08:24 29.01.2020
3551 Clouds -10 1026 73 0 1.36 155 07:45 29.01.2020
3552 Clouds -10 1026 73 0 1.36 155 07:26 29.01.2020
3553 Clouds -10 1026 73 0 1.36 155 06:56 29.01.2020
3554 Clouds -10 1026 73 0 1.36 155 06:38 29.01.2020
3555 Clouds -10 1026 73 0 1.36 155 06:19 29.01.2020
3556 Clouds -10 1026 73 0 1.36 155 05:50 29.01.2020
3557 Clouds -10 1026 73 0 1.36 155 05:32 29.01.2020
3558 Clear -15 1029 69 0 2.58 138 04:39 29.01.2020
3559 Clear -15 1029 69 0 2.58 138 04:39 29.01.2020
3560 Clear -15 1029 69 0 2.58 138 03:59 29.01.2020
3561 Clear -15 1029 69 0 2.58 138 02:34 29.01.2020
3562 Clouds -17 1029 66 0 2.83 142 01:18 29.01.2020
3563 Clouds -17 1029 66 0 2.83 142 00:38 29.01.2020
3564 Clouds -17 1029 66 0 2.83 142 00:20 29.01.2020
3565 Clouds -17 1029 66 0 2.83 142 23:39 28.01.2020
3566 Clouds -16 1029 63 0 3.4 132 23:19 28.01.2020
3567 Clouds -16 1029 63 0 3.4 132 23:19 28.01.2020
3568 Clouds -16 1029 63 0 3.4 132 22:49 28.01.2020
3569 Clouds -16 1029 63 0 3.4 132 22:27 28.01.2020
3570 Clouds -16 1029 63 0 3.4 132 21:57 28.01.2020
3571 Clouds -16 1029 63 0 3.4 132 21:38 28.01.2020
3572 Clouds -16 1029 63 0 3.4 132 21:19 28.01.2020
3573 Clouds -16 1029 63 0 3.4 132 20:46 28.01.2020
3574 Clouds -16 1029 65 0 3.39 131 20:26 28.01.2020
3575 Clear -16 1030 64 0 3.37 132 19:55 28.01.2020
3576 Clear -16 1030 64 0 3.37 132 19:37 28.01.2020
3577 Clear -16 1030 64 0 3.37 132 19:19 28.01.2020
3578 Clear -16 1030 64 0 3.37 132 18:42 28.01.2020
3579 Clear -16 1030 64 0 3.37 132 18:23 28.01.2020
3580 Clear -16 1030 64 0 3.37 132 17:59 28.01.2020
3581 Clear -16 1030 64 0 3.37 132 17:40 28.01.2020
3582 Clear -16 1030 60 0 2.99 131 17:21 28.01.2020
3583 Clear -16 1030 60 0 2.99 131 16:59 28.01.2020
3584 Clear -16 1030 60 0 2.99 131 16:40 28.01.2020
3585 Clear -16 1030 60 0 2.99 131 16:22 28.01.2020
3586 Clear -16 1030 60 0 2.99 131 15:48 28.01.2020
3587 Clear -16 1030 60 0 2.99 131 15:19 28.01.2020
3588 Clear -16 1030 60 0 2.99 131 14:59 28.01.2020
3589 Clear -16 1030 60 0 2.99 131 14:41 28.01.2020
3590 Clear -16 1029 56 0 2.5 126 14:18 28.01.2020
3591 Clear -16 1029 56 0 2.5 126 13:42 28.01.2020
3592 Clear -16 1029 57 0 2.77 131 13:24 28.01.2020
3593 Clear -16 1029 57 0 2.77 131 12:44 28.01.2020
3594 Clear -16 1029 57 0 2.77 131 12:25 28.01.2020
3595 Clear -16 1029 57 0 2.77 131 11:58 28.01.2020
3596 Clear -16 1029 57 0 2.77 131 11:40 28.01.2020
3597 Clear -13 1027 63 0 1.59 139 11:21 28.01.2020
3598 Clear -13 1027 63 0 1.59 139 10:43 28.01.2020
3599 Clear -13 1027 63 0 1.59 139 10:24 28.01.2020
3600 Clear -13 1027 63 0 1.59 139 09:58 28.01.2020
3601 Clear -13 1027 63 0 1.59 139 09:38 28.01.2020
3602 Clear -13 1027 63 0 1.59 139 09:19 28.01.2020
3603 Clear -13 1027 63 0 1.59 139 08:44 28.01.2020
3604 Clear -13 1027 62 0 1.72 132 08:22 28.01.2020
3605 Clear -10 1027 67 0 1.45 131 07:42 28.01.2020
3606 Clear -10 1027 67 0 1.45 131 07:23 28.01.2020
3607 Clear -10 1027 67 0 1.45 131 06:44 28.01.2020
3608 Clear -10 1027 67 0 1.45 131 06:23 28.01.2020
3609 Clear -10 1027 67 0 1.45 131 05:35 28.01.2020
3610 Clear -15 1030 59 0 2.27 123 04:40 28.01.2020
3611 Clear -15 1030 59 0 2.27 123 03:41 28.01.2020
3612 Clear -15 1030 59 0 2.27 123 02:43 28.01.2020
3613 Clear -15 1030 59 0 2.27 123 02:24 28.01.2020
3614 Clear -17 1029 54 0 2.54 121 01:50 28.01.2020
3615 Clear -17 1029 56 0 2.57 121 00:58 28.01.2020
3616 Clear -17 1029 56 0 2.57 121 00:39 28.01.2020
3617 Clear -17 1029 56 0 2.57 121 00:19 28.01.2020
3618 Clear -17 1029 56 0 2.57 121 23:42 27.01.2020
3619 Clear -17 1028 55 0 2.38 122 23:18 27.01.2020
3620 Clear -17 1028 55 0 2.38 122 22:44 27.01.2020
3621 Clear -17 1028 55 0 2.38 122 22:20 27.01.2020
3622 Clear -17 1028 55 0 2.38 122 22:20 27.01.2020
3623 Clear -17 1028 55 0 2.38 122 22:20 27.01.2020
3624 Clear -17 1028 55 0 2.38 122 21:57 27.01.2020
3625 Clear -17 1028 55 0 2.38 122 21:38 27.01.2020
3626 Clear -17 1028 55 0 2.38 122 21:38 27.01.2020
3627 Clear -17 1028 55 0 2.38 122 21:18 27.01.2020
3628 Clear -17 1028 55 0 2.38 122 20:56 27.01.2020
3629 Clear -17 1028 55 0 2.38 122 20:37 27.01.2020
3630 Clear -17 1028 56 0 2.39 123 20:18 27.01.2020
3631 Clear -17 1028 56 0 2.39 123 19:42 27.01.2020
3632 Clear -17 1028 56 0 2.39 123 19:23 27.01.2020
3633 Clear -17 1028 56 0 2.39 123 18:58 27.01.2020
3634 Clear -17 1028 56 0 2.39 123 18:39 27.01.2020
3635 Clear -17 1028 56 0 2.39 123 18:20 27.01.2020
3636 Clear -17 1028 56 0 2.39 123 18:20 27.01.2020
3637 Clear -17 1028 56 0 2.39 123 17:57 27.01.2020
3638 Clear -17 1028 56 0 2.39 123 17:37 27.01.2020
3639 Clear -16 1027 55 0 2.42 120 17:18 27.01.2020
3640 Clear -16 1027 55 0 2.42 120 16:42 27.01.2020
3641 Clear -16 1027 55 0 2.42 120 16:24 27.01.2020
3642 Clear -16 1027 55 0 2.42 120 16:24 27.01.2020
3643 Clear -16 1027 55 0 2.42 120 15:56 27.01.2020
3644 Clear -16 1027 55 0 2.42 120 15:38 27.01.2020
3645 Clear -16 1027 55 0 2.42 120 15:19 27.01.2020
3646 Clear -16 1027 55 0 2.42 120 14:55 27.01.2020
3647 Clear -16 1027 55 0 2.42 120 14:36 27.01.2020
3648 Clouds -16 1027 56 0 1.97 123 14:18 27.01.2020
3649 Clouds -16 1027 56 0 1.97 123 13:42 27.01.2020
3650 Clouds -16 1027 56 0 1.97 123 13:21 27.01.2020
3651 Clouds -16 1027 56 0 1.97 123 13:21 27.01.2020
3652 Clouds -16 1027 56 0 1.88 125 12:56 27.01.2020
3653 Clouds -16 1027 56 0 1.88 125 12:37 27.01.2020
3654 Clouds -16 1027 56 0 1.88 125 12:19 27.01.2020
3655 Clouds -16 1027 56 0 1.88 125 11:41 27.01.2020
3656 Clouds -13 1024 65 0 0.55 117 11:21 27.01.2020
3657 Clouds -13 1024 65 0 0.55 117 10:43 27.01.2020
3658 Clouds -13 1024 65 0 0.55 117 10:25 27.01.2020
3659 Clouds -13 1024 65 0 0.55 117 09:57 27.01.2020
3660 Clouds -13 1024 65 0 0.55 117 09:38 27.01.2020
3661 Clouds -13 1024 65 0 0.55 117 09:18 27.01.2020
3662 Clouds -13 1024 65 0 0.55 117 08:43 27.01.2020
3663 Clouds -13 1024 61 0 0.92 115 08:22 27.01.2020
3664 Clouds -10 1024 62 0 0.54 125 07:54 27.01.2020
3665 Clouds -10 1024 62 0 0.54 125 07:35 27.01.2020
3666 Clouds -10 1024 62 0 0.54 125 06:53 27.01.2020
3667 Clouds -10 1024 62 0 0.54 125 06:25 27.01.2020
3668 Clouds -10 1024 62 0 0.54 125 05:24 27.01.2020
3669 Clouds -13 1027 57 0 1.74 125 03:49 27.01.2020
3670 Clouds -13 1027 57 0 1.74 125 02:38 27.01.2020
3671 Clouds -14 1026 55 0 1.93 128 01:29 27.01.2020
3672 Clouds -14 1026 55 0 1.93 128 00:57 27.01.2020
3673 Clouds -14 1026 55 0 1.93 128 00:36 27.01.2020
3674 Clouds -14 1026 55 0 1.93 128 00:18 27.01.2020
3675 Clouds -14 1026 55 0 1.93 128 00:18 27.01.2020
3676 Clouds -14 1026 55 0 1.93 128 23:41 26.01.2020
3677 Clouds -13 1026 58 0 2.15 130 23:19 26.01.2020
3678 Clouds -13 1026 58 0 2.15 130 22:54 26.01.2020
3679 Clouds -13 1026 58 0 2.15 130 22:36 26.01.2020
3680 Clouds -13 1026 58 0 2.15 130 22:18 26.01.2020
3681 Clouds -13 1026 58 0 2.15 130 21:55 26.01.2020
3682 Clouds -13 1026 58 0 2.15 130 21:37 26.01.2020
3683 Clouds -13 1026 58 0 2.15 130 21:18 26.01.2020
3684 Clouds -13 1026 58 0 2.15 130 21:18 26.01.2020
3685 Clouds -13 1026 58 0 2.15 130 20:55 26.01.2020
3686 Clouds -13 1026 58 0 2.15 130 20:36 26.01.2020
3687 Clouds -13 1027 57 0 2.25 122 20:18 26.01.2020
3688 Clouds -13 1027 57 0 2.25 122 19:41 26.01.2020
3689 Clouds -13 1027 57 0 2.25 122 19:21 26.01.2020
3690 Clouds -13 1027 57 0 2.25 122 18:59 26.01.2020
3691 Clouds -13 1027 57 0 2.25 122 18:40 26.01.2020
3692 Clouds -13 1027 57 0 2.25 122 18:21 26.01.2020
3693 Clouds -13 1027 57 0 2.25 122 17:57 26.01.2020
3694 Clouds -13 1027 57 0 2.25 122 17:38 26.01.2020
3695 Clouds -13 1028 55 0 2.27 117 17:18 26.01.2020
3696 Clouds -13 1028 55 0 2.27 117 17:18 26.01.2020
3697 Clouds -13 1028 55 0 2.27 117 16:57 26.01.2020
3698 Clouds -13 1028 55 0 2.27 117 16:39 26.01.2020
3699 Clouds -13 1028 55 0 2.27 117 16:20 26.01.2020
3700 Clouds -13 1028 55 0 2.27 117 15:46 26.01.2020
3701 Clouds -13 1028 55 0 2.27 117 15:22 26.01.2020
3702 Clouds -13 1028 55 0 2.27 117 14:58 26.01.2020
3703 Clouds -13 1028 55 0 2.27 117 14:39 26.01.2020
3704 Clouds -13 1028 55 0 2.21 119 14:19 26.01.2020
3705 Clouds -13 1028 55 0 2.21 119 13:41 26.01.2020
3706 Clouds -13 1028 55 0 2.21 119 13:20 26.01.2020
3707 Clouds -14 1028 55 0 2.21 121 12:57 26.01.2020
3708 Clouds -14 1028 55 0 2.21 121 12:38 26.01.2020
3709 Clouds -14 1028 55 0 2.21 121 12:19 26.01.2020
3710 Clouds -14 1028 55 0 2.21 121 11:57 26.01.2020
3711 Clouds -14 1028 55 0 2.21 121 11:37 26.01.2020
3712 Clouds -11 1026 64 0 1.83 129 11:18 26.01.2020
3713 Clouds -11 1026 64 0 1.83 129 10:56 26.01.2020
3714 Clouds -11 1026 64 0 1.83 129 10:38 26.01.2020
3715 Clouds -11 1026 64 0 1.83 129 10:19 26.01.2020
3716 Clouds -11 1026 64 0 1.83 129 10:19 26.01.2020
3717 Clouds -11 1026 64 0 1.83 129 09:56 26.01.2020
3718 Clouds -11 1026 64 0 1.83 129 09:37 26.01.2020
3719 Clouds -11 1026 64 0 1.83 129 09:19 26.01.2020
3720 Clouds -11 1026 64 0 1.83 129 08:41 26.01.2020
3721 Clouds -12 1026 63 0 1.75 126 08:22 26.01.2020
3722 Clouds -10 1026 71 0 1.97 129 07:50 26.01.2020
3723 Clouds -10 1026 71 0 1.97 129 07:27 26.01.2020
3724 Clouds -10 1026 71 0 1.97 129 06:55 26.01.2020
3725 Clouds -10 1026 71 0 1.97 129 06:25 26.01.2020
3726 Clouds -10 1026 71 0 1.97 129 05:29 26.01.2020
3727 Clear -15 1030 59 0 2.88 124 03:57 26.01.2020
3728 Clear -15 1030 59 0 2.88 124 02:38 26.01.2020
3729 Clouds -17 1030 55 0 3.52 124 01:45 26.01.2020
3730 Clouds -16 1030 55 0 3.56 124 01:23 26.01.2020
3731 Clouds -16 1030 55 0 3.56 124 00:42 26.01.2020
3732 Clouds -16 1030 55 0 3.56 124 00:24 26.01.2020
3733 Clouds -16 1030 55 0 3.56 124 23:40 25.01.2020
3734 Clear -16 1029 54 0 3.78 125 23:21 25.01.2020
3735 Clear -16 1029 54 0 3.78 125 22:56 25.01.2020
3736 Clear -16 1029 54 0 3.78 125 22:56 25.01.2020
3737 Clear -16 1029 54 0 3.78 125 22:36 25.01.2020
3738 Clear -16 1029 54 0 3.78 125 22:18 25.01.2020
3739 Clear -16 1029 54 0 3.78 125 21:55 25.01.2020
3740 Clear -16 1029 54 0 3.78 125 21:55 25.01.2020
3741 Clear -16 1029 54 0 3.78 125 21:36 25.01.2020
3742 Clear -16 1029 54 0 3.78 125 21:18 25.01.2020
3743 Clear -16 1029 54 0 3.78 125 20:43 25.01.2020
3744 Clear -16 1029 54 0 3.78 125 20:24 25.01.2020
3745 Clouds -16 1029 53 0 3.65 125 19:48 25.01.2020
3746 Clouds -16 1029 53 0 3.65 125 19:20 25.01.2020
3747 Clouds -16 1029 53 0 3.65 125 18:59 25.01.2020
3748 Clouds -16 1029 53 0 3.65 125 18:41 25.01.2020
3749 Clouds -16 1029 53 0 3.75 125 18:20 25.01.2020
3750 Clouds -16 1029 53 0 3.75 125 17:42 25.01.2020
3751 Clouds -16 1029 53 0 3.65 125 17:24 25.01.2020
3752 Clouds -15 1029 52 0 3.84 126 16:58 25.01.2020
3753 Clouds -15 1030 51 0 3.88 126 16:40 25.01.2020
3754 Clouds -15 1030 51 0 3.88 126 16:21 25.01.2020
3755 Clouds -15 1030 51 0 3.88 126 15:55 25.01.2020
3756 Clouds -15 1030 51 0 3.88 126 15:37 25.01.2020
3757 Clouds -15 1030 51 0 3.88 126 15:18 25.01.2020
3758 Clouds -15 1030 51 0 3.88 126 14:41 25.01.2020
3759 Clouds -15 1029 47 0 3.97 123 14:19 25.01.2020
3760 Clouds -15 1029 47 0 3.97 123 13:43 25.01.2020
3761 Clouds -15 1028 49 0 4.03 123 13:24 25.01.2020
3762 Clouds -15 1028 49 0 4.03 123 13:24 25.01.2020
3763 Clouds -15 1028 49 0 4.03 123 12:46 25.01.2020
3764 Clouds -15 1028 49 0 4.03 123 12:28 25.01.2020
3765 Clouds -15 1028 49 0 4.03 123 11:46 25.01.2020
3766 Clouds -15 1028 49 0 4.03 123 11:23 25.01.2020
3767 Clouds -12 1026 56 0 3.69 125 11:00 25.01.2020
3768 Clouds -12 1026 56 0 3.69 125 10:40 25.01.2020
3769 Clouds -12 1026 56 0 3.69 125 10:21 25.01.2020
3770 Clouds -12 1026 56 0 3.69 125 09:57 25.01.2020
3771 Clouds -12 1026 56 0 3.69 125 09:37 25.01.2020
3772 Clouds -12 1026 56 0 3.69 125 09:18 25.01.2020
3773 Clouds -12 1026 56 0 3.69 125 08:42 25.01.2020
3774 Clear -10 1025 64 0 3.51 129 07:53 25.01.2020
3775 Clear -10 1025 64 0 3.51 129 06:58 25.01.2020
3776 Clear -10 1025 64 0 3.51 129 06:31 25.01.2020
3777 Clear -10 1025 64 0 3.51 129 05:50 25.01.2020
3778 Clear -10 1025 64 0 3.51 129 05:30 25.01.2020
3779 Clear -14 1029 56 0 4.19 120 03:55 25.01.2020
3780 Clear -14 1029 56 0 4.19 120 03:34 25.01.2020
3781 Clear -14 1029 56 0 4.19 120 02:24 25.01.2020
3782 Clear -16 1030 50 0 4.52 117 01:53 25.01.2020
3783 Clear -16 1030 50 0 4.54 118 00:52 25.01.2020
3784 Clear -16 1030 50 0 4.54 118 00:27 25.01.2020
3785 Clear -16 1030 50 0 4.54 118 23:59 24.01.2020
3786 Clear -16 1030 50 0 4.54 118 23:59 24.01.2020
3787 Clear -16 1030 50 0 4.54 118 23:41 24.01.2020
3788 Clear -16 1030 50 0 4.54 118 23:41 24.01.2020
3789 Clear -16 1030 50 0 4.54 118 23:23 24.01.2020
3790 Clear -16 1030 51 0 4.31 120 22:46 24.01.2020
3791 Clear -16 1030 51 0 4.31 120 22:46 24.01.2020
3792 Clear -16 1030 51 0 4.31 120 22:25 24.01.2020
3793 Clear -16 1030 51 0 4.31 120 21:57 24.01.2020
3794 Clear -16 1030 51 0 4.31 120 21:38 24.01.2020
3795 Clear -16 1030 51 0 4.31 120 21:18 24.01.2020
3796 Clear -16 1030 51 0 4.31 120 20:42 24.01.2020
3797 Clear -16 1030 53 0 3.91 122 20:21 24.01.2020
3798 Clear -16 1030 53 0 3.91 122 19:57 24.01.2020
3799 Clear -16 1030 53 0 3.91 122 19:39 24.01.2020
3800 Clear -16 1030 53 0 3.91 122 19:21 24.01.2020
3801 Clear -16 1030 53 0 3.91 122 18:43 24.01.2020
3802 Clear -16 1030 53 0 3.91 122 18:43 24.01.2020
3803 Clear -16 1030 53 0 3.91 122 18:24 24.01.2020
3804 Clear -16 1030 53 0 3.91 122 17:56 24.01.2020
3805 Clear -16 1030 53 0 3.91 122 17:38 24.01.2020
3806 Clear -16 1032 52 0 3.74 120 17:18 24.01.2020
3807 Clear -16 1032 52 0 3.74 120 16:39 24.01.2020
3808 Clear -16 1032 52 0 3.74 120 16:21 24.01.2020
3809 Clear -16 1032 52 0 3.74 120 15:55 24.01.2020
3810 Clear -16 1032 52 0 3.74 120 15:37 24.01.2020
3811 Clear -16 1032 52 0 3.74 120 15:18 24.01.2020
3812 Clear -16 1032 52 0 3.74 120 14:41 24.01.2020
3813 Clear -16 1032 52 0 3.74 120 14:22 24.01.2020
3814 Clear -16 1032 52 0 3.31 123 13:44 24.01.2020
3815 Clear -16 1031 53 0 3.51 123 13:24 24.01.2020
3816 Clear -16 1031 53 0 3.51 123 12:45 24.01.2020
3817 Clear -16 1031 53 0 3.51 123 12:23 24.01.2020
3818 Clear -16 1031 53 0 3.51 123 11:58 24.01.2020
3819 Clear -16 1031 53 0 3.51 123 11:39 24.01.2020
3820 Clear -13 1031 58 0 2.55 130 11:18 24.01.2020
3821 Clear -13 1031 58 0 2.55 130 10:43 24.01.2020
3822 Clear -13 1031 58 0 2.55 130 10:21 24.01.2020
3823 Clear -13 1031 58 0 2.55 130 09:55 24.01.2020
3824 Clear -13 1031 58 0 2.55 130 09:37 24.01.2020
3825 Clear -13 1031 58 0 2.55 130 09:18 24.01.2020
3826 Clear -13 1031 58 0 2.55 130 08:39 24.01.2020
3827 Clear -11 1031 69 0 2.15 137 08:19 24.01.2020
3828 Clear -11 1031 69 0 2.15 137 07:49 24.01.2020
3829 Clear -11 1031 69 0 2.15 137 07:24 24.01.2020
3830 Clear -11 1031 69 0 2.15 137 06:45 24.01.2020
3831 Clear -11 1031 69 0 2.15 137 06:24 24.01.2020
3832 Clear -11 1031 69 0 2.15 137 05:43 24.01.2020
3833 Clear -16 1036 60 0 3.19 131 03:55 24.01.2020
3834 Clear -16 1036 60 0 3.19 131 02:43 24.01.2020
3835 Clear -16 1036 60 0 3.19 131 02:23 24.01.2020
3836 Clear -18 1038 60 0 3.46 131 01:39 24.01.2020
3837 Clear -18 1038 60 0 3.51 130 00:54 24.01.2020
3838 Clear -18 1038 60 0 3.51 130 00:19 24.01.2020
3839 Clear -18 1038 60 0 3.51 130 23:45 23.01.2020
3840 Clear -18 1038 60 0 3.51 130 23:26 23.01.2020
3841 Clear -19 1038 64 0 2.96 127 22:59 23.01.2020
3842 Clear -19 1038 64 0 2.96 127 22:37 23.01.2020
3843 Clear -19 1038 64 0 2.96 127 22:18 23.01.2020
3844 Clear -19 1038 64 0 2.96 127 21:55 23.01.2020
3845 Clear -19 1038 64 0 2.96 127 21:37 23.01.2020
3846 Clear -19 1038 64 0 2.96 127 21:19 23.01.2020
3847 Clear -19 1038 64 0 2.96 127 20:55 23.01.2020
3848 Clear -19 1038 64 0 2.96 127 20:37 23.01.2020
3849 Clear -19 1038 64 0 2.58 132 20:19 23.01.2020
3850 Clear -19 1038 64 0 2.58 132 19:44 23.01.2020
3851 Clear -19 1038 64 0 2.58 132 19:24 23.01.2020
3852 Clear -19 1038 64 0 2.58 132 18:59 23.01.2020
3853 Clear -19 1038 64 0 2.58 132 18:39 23.01.2020
3854 Clear -19 1038 64 0 2.58 132 18:20 23.01.2020
3855 Clear -19 1038 64 0 2.58 132 17:57 23.01.2020
3856 Clear -19 1038 64 0 2.58 132 17:38 23.01.2020
3857 Clear -19 1038 65 0 2.4 133 17:18 23.01.2020
3858 Clear -19 1038 65 0 2.4 133 16:39 23.01.2020
3859 Clear -19 1038 65 0 2.4 133 16:20 23.01.2020
3860 Clear -19 1038 65 0 2.4 133 15:58 23.01.2020
3861 Clear -19 1038 65 0 2.4 133 15:40 23.01.2020
3862 Clear -19 1038 65 0 2.4 133 15:19 23.01.2020
3863 Clear -19 1038 65 0 2.4 133 14:59 23.01.2020
3864 Clear -19 1038 65 0 2.4 133 14:41 23.01.2020
3865 Clear -19 1038 65 0 2.4 133 14:23 23.01.2020
3866 Clouds -20 1037 64 0 1.73 142 13:59 23.01.2020
3867 Clouds -20 1037 64 0 1.73 142 13:37 23.01.2020
3868 Clouds -19 1036 64 0 1.84 139 13:19 23.01.2020
3869 Clouds -19 1036 64 0 1.84 139 12:44 23.01.2020
3870 Clouds -19 1036 64 0 1.84 139 12:25 23.01.2020
3871 Clouds -19 1036 64 0 1.84 139 11:56 23.01.2020
3872 Clouds -19 1036 64 0 1.84 139 11:37 23.01.2020
3873 Clouds -19 1036 64 0 1.84 139 11:37 23.01.2020
3874 Clear -17 1033 71 0 0.7 222 11:18 23.01.2020
3875 Clear -17 1033 71 0 0.69 224 10:44 23.01.2020
3876 Clear -17 1033 71 0 0.69 224 10:22 23.01.2020
3877 Clear -17 1033 71 0 0.7 222 09:43 23.01.2020
3878 Clear -17 1033 71 0 0.7 222 09:25 23.01.2020
3879 Clear -17 1033 71 0 0.69 224 08:59 23.01.2020
3880 Clear -17 1033 71 0 0.69 224 08:40 23.01.2020
3881 Clear -17 1033 71 0 0.7 222 08:22 23.01.2020
3882 Clouds -13 1032 69 0 0.89 167 07:45 23.01.2020
3883 Clouds -13 1032 69 0 0.89 167 07:26 23.01.2020
3884 Clouds -13 1032 69 0 0.89 167 06:51 23.01.2020
3885 Clouds -13 1032 69 0 0.89 167 06:22 23.01.2020
3886 Clouds -13 1032 69 0 0.89 167 05:44 23.01.2020
3887 Clouds -18 1034 66 0 2.51 130 04:24 23.01.2020
3888 Clouds -18 1034 66 0 2.51 130 02:34 23.01.2020
3889 Clouds -19 1035 64 0 2.66 122 01:19 23.01.2020
3890 Clouds -19 1035 64 0 2.66 122 00:27 23.01.2020
3891 Clouds -19 1035 64 0 2.66 122 23:48 22.01.2020
3892 Clouds -19 1035 64 0 2.66 122 23:29 22.01.2020
3893 Clouds -20 1034 63 0 2.7 124 22:59 22.01.2020
3894 Clouds -20 1034 63 0 2.7 124 22:40 22.01.2020
3895 Clouds -20 1034 63 0 2.7 124 22:40 22.01.2020
3896 Clouds -20 1034 63 0 2.7 124 22:22 22.01.2020
3897 Clouds -20 1034 63 0 2.7 124 21:40 22.01.2020
3898 Clouds -20 1034 63 0 2.7 124 21:22 22.01.2020
3899 Clouds -20 1034 63 0 2.7 124 20:57 22.01.2020
3900 Clouds -20 1034 63 0 2.7 124 20:37 22.01.2020
3901 Clouds -20 1033 61 0 2.62 120 20:19 22.01.2020
3902 Clear -20 1034 61 0 2.78 119 19:56 22.01.2020
3903 Clear -20 1034 61 0 2.78 119 19:37 22.01.2020
3904 Clear -20 1034 61 0 2.78 119 19:18 22.01.2020
3905 Clear -20 1034 61 0 2.78 119 18:56 22.01.2020
3906 Clear -20 1034 61 0 2.78 119 18:37 22.01.2020
3907 Clear -20 1034 61 0 2.78 119 18:19 22.01.2020
3908 Clear -20 1034 61 0 2.78 119 17:40 22.01.2020
3909 Clear -20 1033 59 0 2.4 123 17:21 22.01.2020
3910 Clear -20 1033 59 0 2.4 123 16:58 22.01.2020
3911 Clear -20 1033 59 0 2.4 123 16:39 22.01.2020
3912 Clear -20 1033 59 0 2.4 123 16:21 22.01.2020
3913 Clear -20 1033 59 0 2.4 123 15:56 22.01.2020
3914 Clear -20 1033 59 0 2.4 123 15:38 22.01.2020
3915 Clear -20 1033 59 0 2.4 123 15:19 22.01.2020
3916 Clear -20 1033 59 0 2.4 123 14:40 22.01.2020
3917 Clouds -20 1032 63 0 2.06 122 14:21 22.01.2020
3918 Clouds -20 1032 63 0 2.06 122 13:59 22.01.2020
3919 Clouds -20 1032 63 0 2.06 122 13:38 22.01.2020
3920 Clouds -20 1031 62 0 2.07 123 13:19 22.01.2020
3921 Clouds -20 1031 62 0 2.07 123 12:57 22.01.2020
3922 Clouds -20 1031 62 0 2.07 123 12:39 22.01.2020
3923 Clouds -20 1031 62 0 2.07 123 12:20 22.01.2020
3924 Clouds -20 1031 62 0 2.07 123 11:58 22.01.2020
3925 Clouds -20 1031 62 0 2.07 123 11:39 22.01.2020
3926 Clouds -18 1028 69 0 0.7 150 11:19 22.01.2020
3927 Clouds -18 1028 69 0 0.7 150 11:19 22.01.2020
3928 Clouds -18 1028 69 0 0.7 150 10:54 22.01.2020
3929 Clouds -18 1028 69 0 0.7 150 10:36 22.01.2020
3930 Clouds -18 1028 69 0 0.7 150 10:18 22.01.2020
3931 Clouds -18 1028 69 0 0.7 150 09:41 22.01.2020
3932 Clouds -18 1028 69 0 0.7 150 09:23 22.01.2020
3933 Clouds -18 1028 69 0 0.7 150 08:57 22.01.2020
3934 Clouds -18 1028 69 0 0.7 150 08:38 22.01.2020
3935 Clouds -14 1027 71 0 0.86 233 08:20 22.01.2020
3936 Clouds -14 1027 71 0 0.86 233 07:45 22.01.2020
3937 Clouds -14 1027 71 0 0.86 233 07:27 22.01.2020
3938 Clouds -14 1027 71 0 0.86 233 06:38 22.01.2020
3939 Clouds -14 1027 71 0 0.86 233 06:19 22.01.2020
3940 Clouds -14 1027 71 0 0.86 233 06:19 22.01.2020
3941 Clouds -19 1029 74 0 1.15 155 04:27 22.01.2020
3942 Clouds -19 1029 74 0 1.15 155 03:29 22.01.2020
3943 Clouds -19 1029 74 0 1.15 155 02:49 22.01.2020
3944 Clouds -21 1027 77 0 1.3 153 01:30 22.01.2020
3945 Clouds -21 1027 78 0 0.94 146 00:40 22.01.2020
3946 Clouds -21 1027 78 0 0.94 146 00:19 22.01.2020
3947 Clouds -21 1027 78 0 0.94 146 23:37 21.01.2020
3948 Clouds -21 1027 78 0 0.94 146 23:37 21.01.2020
3949 Clouds -19 1025 73 0 1.3 152 23:19 21.01.2020
3950 Clouds -19 1025 73 0 1.3 152 22:42 21.01.2020
3951 Clouds -19 1025 73 0 1.3 152 22:24 21.01.2020
3952 Clouds -19 1025 73 0 1.3 152 21:58 21.01.2020
3953 Clouds -19 1025 73 0 1.3 152 21:39 21.01.2020
3954 Clouds -19 1025 73 0 1.3 152 21:21 21.01.2020
3955 Clouds -19 1025 73 0 1.3 152 20:58 21.01.2020
3956 Clouds -19 1025 73 0 1.3 152 20:39 21.01.2020
3957 Clouds -21 1024 71 0 1.59 154 20:20 21.01.2020
3958 Clouds -21 1024 71 0 1.59 154 19:58 21.01.2020
3959 Clouds -21 1024 71 0 1.59 154 19:39 21.01.2020
3960 Clouds -21 1024 71 0 1.59 154 19:21 21.01.2020
3961 Clouds -21 1024 71 0 1.59 154 18:57 21.01.2020
3962 Clouds -21 1024 71 0 1.59 154 18:39 21.01.2020
3963 Clouds -21 1024 71 0 1.59 154 18:39 21.01.2020
3964 Clouds -21 1024 71 0 1.59 154 18:20 21.01.2020
3965 Clouds -21 1024 71 0 1.59 154 17:56 21.01.2020
3966 Clouds -21 1024 71 0 1.59 154 17:38 21.01.2020
3967 Clouds -19 1024 64 0 2.05 153 17:18 21.01.2020
3968 Clouds -19 1024 64 0 2.05 153 16:38 21.01.2020
3969 Clouds -19 1024 64 0 2.05 153 16:19 21.01.2020
3970 Clouds -19 1024 64 0 2.05 153 15:58 21.01.2020
3971 Clouds -19 1024 64 0 2.05 153 15:38 21.01.2020
3972 Clouds -19 1024 64 0 2.05 153 15:19 21.01.2020
3973 Clouds -19 1024 64 0 2.05 153 14:39 21.01.2020
3974 Clouds -19 1024 64 0 2.05 153 14:39 21.01.2020
3975 Clear -20 1023 72 0 2.72 134 14:21 21.01.2020
3976 Clear -20 1023 72 0 2.72 134 13:43 21.01.2020
3977 Clear -20 1023 72 0 2.72 134 13:43 21.01.2020
3978 Clear -20 1023 72 0 2.72 134 13:20 21.01.2020
3979 Clear -20 1023 72 0 2.75 135 12:57 21.01.2020
3980 Clear -20 1023 72 0 2.75 135 12:39 21.01.2020
3981 Clear -20 1023 72 0 2.75 135 12:21 21.01.2020
3982 Clear -20 1023 72 0 2.75 135 11:41 21.01.2020
3983 Clear -20 1023 72 0 2.75 135 11:22 21.01.2020
3984 Clear -17 1021 78 0 1.25 181 11:00 21.01.2020
3985 Clear -17 1021 78 0 1.25 181 10:41 21.01.2020
3986 Clear -17 1021 78 0 1.25 181 10:22 21.01.2020
3987 Clear -17 1021 78 0 1.25 181 09:43 21.01.2020
3988 Clear -17 1021 78 0 1.25 181 09:43 21.01.2020
3989 Clear -17 1021 78 0 1.25 181 09:23 21.01.2020
3990 Clear -17 1021 78 0 1.25 181 08:58 21.01.2020
3991 Clear -17 1021 78 0 1.25 181 08:40 21.01.2020
3992 Clouds -14 1021 75 0 1.35 226 08:19 21.01.2020
3993 Clouds -14 1021 75 0 1.35 226 07:42 21.01.2020
3994 Clouds -14 1021 75 0 1.35 226 07:23 21.01.2020
3995 Clouds -14 1021 75 0 1.35 226 07:23 21.01.2020
3996 Clouds -14 1021 75 0 1.35 226 06:56 21.01.2020
3997 Clouds -14 1021 75 0 1.35 226 06:37 21.01.2020
3998 Clouds -14 1021 75 0 1.35 226 05:50 21.01.2020
3999 Clouds -17 1022 69 0 1.36 164 04:41 21.01.2020
4000 Clouds -17 1022 69 0 1.36 164 03:40 21.01.2020
4001 Clouds -17 1022 69 0 1.36 164 02:26 21.01.2020
4002 Clouds -18 1022 67 0 1.73 145 01:31 21.01.2020
4003 Clouds -18 1022 67 0 1.73 145 00:41 21.01.2020
4004 Clouds -18 1022 67 0 1.73 145 00:21 21.01.2020
4005 Clouds -18 1022 67 0 1.73 145 23:41 20.01.2020
4006 Clouds -18 1021 64 0 1.93 124 23:19 20.01.2020
4007 Clouds -18 1021 64 0 1.93 124 22:59 20.01.2020
4008 Clouds -18 1021 64 0 1.93 124 22:39 20.01.2020
4009 Clouds -18 1021 64 0 1.93 124 22:21 20.01.2020
4010 Clouds -18 1021 64 0 1.93 124 21:58 20.01.2020
4011 Clouds -18 1021 64 0 1.93 124 21:38 20.01.2020
4012 Clouds -18 1021 64 0 1.93 124 21:19 20.01.2020
4013 Clouds -18 1021 64 0 1.93 124 20:57 20.01.2020
4014 Clouds -18 1021 64 0 1.93 124 20:38 20.01.2020
4015 Clouds -19 1022 63 0 1.92 130 20:19 20.01.2020
4016 Clouds -19 1022 63 0 1.92 130 19:56 20.01.2020
4017 Clouds -19 1022 63 0 1.92 130 19:38 20.01.2020
4018 Clouds -19 1022 63 0 1.92 130 19:18 20.01.2020
4019 Clouds -19 1022 63 0 1.92 130 18:45 20.01.2020
4020 Clouds -19 1022 63 0 1.92 130 18:23 20.01.2020
4021 Clouds -19 1022 63 0 1.92 130 17:59 20.01.2020
4022 Clouds -19 1022 63 0 1.92 130 17:36 20.01.2020
4023 Clouds -19 1022 63 0 1.92 130 17:36 20.01.2020
4024 Clear -19 1022 66 0 2.01 125 17:18 20.01.2020
4025 Clear -19 1022 66 0 2.01 125 16:43 20.01.2020
4026 Clear -19 1022 66 0 2.01 125 16:25 20.01.2020
4027 Clear -19 1022 66 0 2.01 125 15:58 20.01.2020
4028 Clear -19 1022 66 0 2.01 125 15:39 20.01.2020
4029 Clear -19 1022 66 0 2.01 125 15:21 20.01.2020
4030 Clear -19 1022 66 0 2.01 125 14:44 20.01.2020
4031 Clear -19 1022 66 0 2.01 125 14:25 20.01.2020
4032 Clouds -19 1021 80 0 1.59 121 13:59 20.01.2020
4033 Clouds -19 1021 80 0 1.59 121 13:40 20.01.2020
4034 Clouds -19 1021 80 0 1.59 121 13:22 20.01.2020
4035 Clouds -19 1020 79 0 1.37 142 12:48 20.01.2020
4036 Clouds -19 1020 79 0 1.37 142 12:29 20.01.2020
4037 Clouds -19 1020 79 0 1.37 142 12:29 20.01.2020
4038 Clouds -19 1020 79 0 1.37 142 11:59 20.01.2020
4039 Clouds -19 1020 79 0 1.37 142 11:40 20.01.2020
4040 Clouds -15 1016 81 0 1.32 248 11:22 20.01.2020
4041 Clouds -15 1016 81 0 1.32 248 10:57 20.01.2020
4042 Clouds -15 1016 81 0 1.32 248 10:39 20.01.2020
4043 Clouds -15 1016 81 0 1.32 248 10:19 20.01.2020
4044 Clouds -15 1016 81 0 1.32 248 10:19 20.01.2020
4045 Clouds -15 1016 81 0 1.32 248 09:40 20.01.2020
4046 Clouds -15 1016 81 0 1.32 248 09:21 20.01.2020
4047 Clouds -15 1016 81 0 1.32 248 08:49 20.01.2020
4048 Clouds -16 1017 80 0 0.52 283 08:30 20.01.2020
4049 Clouds -11 1016 82 0 1.71 264 07:53 20.01.2020
4050 Clouds -11 1016 82 0 1.71 264 07:30 20.01.2020
4051 Clouds -11 1016 82 0 1.71 264 06:59 20.01.2020
4052 Clouds -11 1016 82 0 1.71 264 06:28 20.01.2020
4053 Clouds -11 1016 82 0 1.71 264 05:44 20.01.2020
4054 Clouds -11 1016 82 0 1.71 264 05:23 20.01.2020
4055 Clouds -13 1017 84 0 1.3 156 04:48 20.01.2020
4056 Clouds -13 1017 84 0 1.3 156 02:59 20.01.2020
4057 Clouds -14 1017 76 0 2.04 149 01:57 20.01.2020
4058 Clouds -14 1017 76 0 2.04 149 01:37 20.01.2020
4059 Clouds -15 1017 76 0 2.01 154 00:45 20.01.2020
4060 Clouds -15 1017 76 0 2.01 154 00:25 20.01.2020
4061 Clouds -15 1017 76 0 2.01 154 23:40 19.01.2020
4062 Clouds -15 1018 71 0 3.08 147 23:20 19.01.2020
4063 Clouds -15 1018 71 0 3.08 147 22:57 19.01.2020
4064 Clouds -15 1018 71 0 3.08 147 22:39 19.01.2020
4065 Clouds -15 1018 71 0 3.08 147 22:21 19.01.2020
4066 Clouds -15 1018 71 0 3.08 147 21:57 19.01.2020
4067 Clouds -15 1018 71 0 3.08 147 21:39 19.01.2020
4068 Clouds -15 1018 71 0 3.08 147 21:20 19.01.2020
4069 Clouds -15 1018 71 0 3.08 147 20:57 19.01.2020
4070 Clouds -15 1018 71 0 3.08 147 20:39 19.01.2020
4071 Clouds -16 1021 66 0 3.4 137 20:21 19.01.2020
4072 Clouds -16 1021 66 0 3.4 137 19:57 19.01.2020
4073 Clouds -16 1021 66 0 3.4 137 19:39 19.01.2020
4074 Clouds -16 1021 66 0 3.4 137 19:21 19.01.2020
4075 Clouds -16 1021 66 0 3.4 137 18:59 19.01.2020
4076 Clouds -16 1021 66 0 3.4 137 18:41 19.01.2020
4077 Clouds -16 1021 66 0 3.4 137 18:21 19.01.2020
4078 Clouds -16 1021 66 0 3.4 137 17:58 19.01.2020
4079 Clouds -16 1021 66 0 3.4 137 17:58 19.01.2020
4080 Clouds -16 1021 66 0 3.4 137 17:40 19.01.2020
4081 Clouds -18 1024 62 0 3.42 134 17:21 19.01.2020
4082 Clouds -18 1024 62 0 3.42 134 16:59 19.01.2020
4083 Clouds -18 1024 62 0 3.42 134 16:40 19.01.2020
4084 Clouds -18 1024 62 0 3.42 134 16:21 19.01.2020
4085 Clouds -18 1024 62 0 3.42 134 15:59 19.01.2020
4086 Clouds -18 1024 62 0 3.42 134 15:39 19.01.2020
4087 Clouds -18 1024 62 0 3.42 134 15:20 19.01.2020
4088 Clouds -18 1024 62 0 3.42 134 14:58 19.01.2020
4089 Clouds -18 1024 62 0 3.42 134 14:39 19.01.2020
4090 Clouds -17 1025 53 0 3.32 138 14:18 19.01.2020
4091 Clouds -17 1025 53 0 3.32 138 13:58 19.01.2020
4092 Clouds -17 1025 53 0 3.32 138 13:38 19.01.2020
4093 Clouds -17 1025 55 0 3.41 137 13:20 19.01.2020
4094 Clouds -17 1025 55 0 3.41 137 12:55 19.01.2020
4095 Clouds -17 1025 55 0 3.41 137 12:37 19.01.2020
4096 Clouds -17 1025 55 0 3.41 137 12:37 19.01.2020
4097 Clouds -17 1025 55 0 3.41 137 12:19 19.01.2020
4098 Clouds -17 1025 55 0 3.41 137 11:42 19.01.2020
4099 Clear -17 1026 55 0 3.39 124 11:21 19.01.2020
4100 Clear -17 1026 55 0 3.39 124 10:56 19.01.2020
4101 Clear -17 1026 55 0 3.39 124 10:56 19.01.2020
4102 Clear -17 1026 55 0 3.39 124 10:38 19.01.2020
4103 Clear -17 1026 55 0 3.39 124 10:19 19.01.2020
4104 Clear -17 1026 55 0 3.39 124 09:56 19.01.2020
4105 Clear -17 1026 55 0 3.39 124 09:56 19.01.2020
4106 Clear -17 1026 55 0 3.39 124 09:56 19.01.2020
4107 Clear -17 1026 55 0 3.39 124 09:56 19.01.2020
4108 Clear -17 1026 55 0 3.39 124 09:37 19.01.2020
4109 Clear -17 1026 55 0 3.39 124 09:18 19.01.2020
4110 Clear -17 1026 55 0 3.39 124 08:48 19.01.2020
4111 Clear -17 1026 55 0 3.39 124 08:28 19.01.2020
4112 Clear -16 1029 67 0 2.77 127 07:42 19.01.2020
4113 Clear -16 1029 67 0 2.77 127 07:22 19.01.2020
4114 Clear -16 1029 67 0 2.77 127 06:54 19.01.2020
4115 Clear -16 1029 67 0 2.77 127 06:21 19.01.2020
4116 Clear -20 1035 56 0 3.08 121 03:28 19.01.2020
4117 Clear -20 1035 56 0 3.08 121 02:26 19.01.2020
4118 Clear -22 1036 69 0 2.34 114 01:28 19.01.2020
4119 Clear -22 1036 69 0 2.34 114 00:54 19.01.2020
4120 Clear -22 1036 69 0 2.34 114 00:29 19.01.2020
4121 Clear -22 1036 69 0 2.34 114 23:59 18.01.2020
4122 Clear -22 1036 69 0 2.34 114 23:41 18.01.2020
4123 Clear -22 1036 69 0 2.34 114 23:23 18.01.2020
4124 Clear -23 1035 79 0 2 101 22:55 18.01.2020
4125 Clear -23 1035 79 0 2 101 22:37 18.01.2020
4126 Clear -23 1035 79 0 2 101 22:19 18.01.2020
4127 Clear -23 1035 79 0 2 101 21:57 18.01.2020
4128 Clear -23 1035 79 0 2 101 21:37 18.01.2020
4129 Clear -23 1035 79 0 2 101 21:19 18.01.2020
4130 Clear -23 1035 79 0 2 101 20:43 18.01.2020
4131 Clouds -23 1034 81 0 1.31 110 20:21 18.01.2020
4132 Clouds -22 1035 80 0 1.77 104 19:58 18.01.2020
4133 Clouds -22 1035 80 0 1.77 104 19:40 18.01.2020
4134 Clouds -22 1035 80 0 1.77 104 19:22 18.01.2020
4135 Clouds -22 1035 80 0 1.77 104 18:42 18.01.2020
4136 Clouds -22 1035 80 0 1.77 104 18:22 18.01.2020
4137 Clouds -22 1035 80 0 1.77 104 17:55 18.01.2020
4138 Clouds -22 1035 80 0 1.77 104 17:37 18.01.2020
4139 Clouds -22 1033 89 0 0.49 98 17:18 18.01.2020
4140 Clouds -22 1033 89 0 0.49 98 16:42 18.01.2020
4141 Clouds -22 1033 89 0 0.49 98 16:24 18.01.2020
4142 Clouds -22 1033 89 0 0.49 98 15:59 18.01.2020
4143 Clouds -22 1033 89 0 0.49 98 15:41 18.01.2020
4144 Clouds -22 1033 89 0 0.49 98 15:22 18.01.2020
4145 Clouds -22 1033 89 0 0.49 98 14:54 18.01.2020
4146 Clouds -22 1033 89 0 0.49 98 14:36 18.01.2020
4147 Snow -18 1029 95 0 1.36 271 14:18 18.01.2020
4148 Snow -18 1029 95 0 1.36 271 13:43 18.01.2020
4149 Snow -19 1029 99 0 1.25 276 13:24 18.01.2020
4150 Snow -19 1029 99 0 1.25 276 12:56 18.01.2020
4151 Snow -19 1029 99 0 1.25 276 12:38 18.01.2020
4152 Snow -19 1029 99 0 1.25 276 12:19 18.01.2020
4153 Snow -19 1029 99 0 1.25 276 11:44 18.01.2020
4154 Snow -14 1025 90 0 0.71 297 11:21 18.01.2020
4155 Snow -14 1025 90 0 0.71 297 10:56 18.01.2020
4156 Snow -14 1025 90 0 0.71 297 10:38 18.01.2020
4157 Snow -14 1025 90 0 0.71 297 10:18 18.01.2020
4158 Snow -14 1025 90 0 0.71 297 10:18 18.01.2020
4159 Snow -14 1025 90 0 0.71 297 09:42 18.01.2020
4160 Snow -14 1025 90 0 0.71 297 09:20 18.01.2020
4161 Snow -14 1025 90 0 0.71 297 08:55 18.01.2020
4162 Snow -14 1025 90 0 0.71 297 08:37 18.01.2020
4163 Clouds -14 1026 63 0 1.31 167 08:18 18.01.2020
4164 Clouds -14 1026 63 0 1.31 167 07:40 18.01.2020
4165 Clouds -14 1026 63 0 1.31 167 07:21 18.01.2020
4166 Clouds -14 1026 63 0 1.31 167 06:45 18.01.2020
4167 Clouds -14 1026 63 0 1.31 167 05:55 18.01.2020
4168 Clouds -19 1032 53 0 2.26 132 04:29 18.01.2020
4169 Clouds -19 1032 53 0 2.26 132 02:50 18.01.2020
4170 Clouds -23 1034 53 0 2.66 128 01:51 18.01.2020
4171 Clouds -23 1034 53 0 2.79 129 00:40 18.01.2020
4172 Clouds -23 1034 53 0 2.79 129 00:21 18.01.2020
4173 Clouds -23 1034 53 0 2.79 129 23:59 17.01.2020
4174 Clouds -23 1034 53 0 2.79 129 23:40 17.01.2020
4175 Clear -25 1037 60 0 2.11 128 23:19 17.01.2020
4176 Clear -25 1037 60 0 2.11 128 22:43 17.01.2020
4177 Clear -25 1037 60 0 2.11 128 22:21 17.01.2020
4178 Clear -25 1037 60 0 2.11 128 21:57 17.01.2020
4179 Clear -25 1037 60 0 2.11 128 21:39 17.01.2020
4180 Clear -25 1037 60 0 2.11 128 21:20 17.01.2020
4181 Clear -25 1037 60 0 2.11 128 20:55 17.01.2020
4182 Clear -25 1037 60 0 2.11 128 20:36 17.01.2020
4183 Clouds -26 1039 78 0 1.53 144 20:18 17.01.2020
4184 Clouds -26 1039 78 0 1.53 144 20:18 17.01.2020
4185 Clouds -26 1039 78 0 1.53 144 19:54 17.01.2020
4186 Clouds -26 1039 78 0 1.53 144 19:54 17.01.2020
4187 Clouds -26 1039 78 0 1.53 144 19:36 17.01.2020
4188 Clouds -26 1039 78 0 1.53 144 19:18 17.01.2020
4189 Clouds -26 1039 78 0 1.53 144 18:44 17.01.2020
4190 Clouds -26 1039 78 0 1.53 144 18:26 17.01.2020
4191 Clouds -26 1039 78 0 1.53 144 17:56 17.01.2020
4192 Clouds -26 1039 78 0 1.53 144 17:38 17.01.2020
4193 Clouds -27 1040 94 0 1.18 180 17:19 17.01.2020
4194 Clouds -27 1040 94 0 1.18 180 16:41 17.01.2020
4195 Clouds -27 1040 94 0 1.18 180 16:20 17.01.2020
4196 Clouds -27 1040 94 0 1.18 180 15:48 17.01.2020
4197 Clouds -27 1040 94 0 1.18 180 15:27 17.01.2020
4198 Clouds -27 1040 94 0 1.18 180 14:56 17.01.2020
4199 Clouds -27 1040 94 0 1.18 180 14:37 17.01.2020
4200 Clouds -25 1037 93 0 1.19 224 14:19 17.01.2020
4201 Clouds -25 1037 93 0 1.19 224 13:39 17.01.2020
4202 Clouds -25 1037 93 0 1.19 224 13:20 17.01.2020
4203 Clouds -25 1037 94 0 1.21 207 12:45 17.01.2020
4204 Clouds -25 1037 94 0 1.21 207 12:22 17.01.2020
4205 Clouds -25 1037 94 0 1.21 207 11:41 17.01.2020
4206 Clouds -21 1033 85 0 1.1 237 11:19 17.01.2020
4207 Clouds -21 1033 85 0 1.1 237 10:45 17.01.2020
4208 Clouds -21 1033 85 0 1.1 237 10:24 17.01.2020
4209 Clouds -21 1033 85 0 1.1 237 09:59 17.01.2020
4210 Clouds -21 1033 85 0 1.1 237 09:41 17.01.2020
4211 Clouds -21 1033 85 0 1.1 237 09:20 17.01.2020
4212 Clouds -21 1033 85 0 1.1 237 08:46 17.01.2020
4213 Clouds -21 1033 83 0 1.49 247 08:26 17.01.2020
4214 Clear -17 1031 80 0 2.19 236 07:56 17.01.2020
4215 Clear -17 1031 80 0 2.19 236 07:36 17.01.2020
4216 Clear -17 1031 80 0 2.19 236 07:18 17.01.2020
4217 Clear -17 1031 80 0 2.19 236 06:43 17.01.2020
4218 Clear -17 1031 80 0 2.19 236 05:59 17.01.2020
4219 Clouds -20 1034 81 0 1.86 191 03:44 17.01.2020
4220 Clouds -20 1034 81 0 1.86 191 02:55 17.01.2020
4221 Clouds -20 1034 81 0 1.86 191 02:28 17.01.2020
4222 Clouds -20 1032 85 0 1.78 198 01:32 17.01.2020
4223 Clouds -20 1032 85 0 1.78 198 00:55 17.01.2020
4224 Clouds -20 1032 85 0 1.78 198 00:28 17.01.2020
4225 Clouds -20 1032 85 0 1.78 198 23:50 16.01.2020
4226 Clouds -20 1032 85 0 1.78 198 23:26 16.01.2020
4227 Clouds -18 1030 64 0 0.53 196 22:58 16.01.2020
4228 Clouds -18 1030 64 0 0.53 196 22:40 16.01.2020
4229 Clouds -18 1030 64 0 0.53 196 22:21 16.01.2020
4230 Clouds -18 1030 64 0 0.53 196 21:55 16.01.2020
4231 Clouds -18 1030 64 0 0.53 196 21:37 16.01.2020
4232 Clouds -18 1030 64 0 0.53 196 21:18 16.01.2020
4233 Clouds -18 1030 64 0 0.53 196 20:56 16.01.2020
4234 Clouds -18 1030 64 0 0.53 196 20:37 16.01.2020
4235 Clouds -19 1030 65 0 1.58 145 20:18 16.01.2020
4236 Clouds -19 1030 65 0 1.58 145 20:18 16.01.2020
4237 Clouds -19 1030 65 0 1.58 145 19:41 16.01.2020
4238 Clouds -19 1030 65 0 1.58 145 19:23 16.01.2020
4239 Clouds -19 1030 65 0 1.58 145 18:58 16.01.2020
4240 Clouds -19 1030 65 0 1.58 145 18:39 16.01.2020
4241 Clouds -19 1030 65 0 1.58 145 18:21 16.01.2020
4242 Clouds -19 1030 65 0 1.58 145 17:59 16.01.2020
4243 Clouds -19 1030 65 0 1.58 145 17:41 16.01.2020
4244 Clouds -19 1032 73 0 1.36 122 17:21 16.01.2020
4245 Clouds -19 1032 73 0 1.36 122 16:56 16.01.2020
4246 Clouds -19 1032 73 0 1.36 122 16:37 16.01.2020
4247 Clouds -19 1032 73 0 1.36 122 16:18 16.01.2020
4248 Clouds -19 1032 73 0 1.36 122 15:44 16.01.2020
4249 Clouds -19 1032 73 0 1.36 122 15:21 16.01.2020
4250 Clouds -19 1032 73 0 1.36 122 14:55 16.01.2020
4251 Clouds -19 1032 73 0 1.36 122 14:37 16.01.2020
4252 Clouds -18 1032 76 0 0.91 110 14:18 16.01.2020
4253 Clouds -18 1032 76 0 0.91 110 13:43 16.01.2020
4254 Clouds -18 1032 74 0 0.85 102 13:24 16.01.2020
4255 Clouds -18 1032 74 0 0.85 102 12:46 16.01.2020
4256 Clouds -18 1032 74 0 0.85 102 12:28 16.01.2020
4257 Clouds -18 1032 74 0 0.85 102 11:57 16.01.2020
4258 Clouds -18 1032 74 0 0.85 102 11:39 16.01.2020
4259 Clouds -17 1031 74 0 0.33 353 11:21 16.01.2020
4260 Clouds -17 1031 74 0 0.33 353 10:39 16.01.2020
4261 Clouds -17 1031 74 0 0.33 353 10:21 16.01.2020
4262 Clouds -17 1031 74 0 0.33 353 09:58 16.01.2020
4263 Clouds -17 1031 74 0 0.33 353 09:39 16.01.2020
4264 Clouds -17 1031 74 0 0.33 353 09:21 16.01.2020
4265 Clouds -17 1031 74 0 0.33 353 08:52 16.01.2020
4266 Clouds -17 1031 74 0 0.33 353 08:34 16.01.2020
4267 Clouds -14 1032 71 0 0.79 313 07:59 16.01.2020
4268 Clouds -14 1032 71 0 0.79 313 07:39 16.01.2020
4269 Clouds -14 1032 71 0 0.79 313 07:20 16.01.2020
4270 Clouds -14 1032 71 0 0.79 313 06:43 16.01.2020
4271 Clouds -14 1032 71 0 0.79 313 05:59 16.01.2020
4272 Clouds -14 1032 71 0 0.79 313 05:40 16.01.2020
4273 Clouds -18 1034 64 0 1.04 92 04:37 16.01.2020
4274 Clouds -18 1034 64 0 1.04 92 04:37 16.01.2020
4275 Clouds -18 1034 64 0 1.04 92 03:28 16.01.2020
4276 Clouds -18 1034 64 0 1.04 92 02:42 16.01.2020
4277 Clouds -19 1033 64 0 1.33 119 00:54 16.01.2020
4278 Clouds -19 1033 64 0 1.33 119 00:24 16.01.2020
4279 Clouds -19 1033 64 0 1.33 119 23:50 15.01.2020
4280 Clouds -19 1033 64 0 1.33 119 23:50 15.01.2020
4281 Clouds -19 1033 64 0 1.33 119 23:23 15.01.2020
4282 Clouds -18 1032 63 0 1.68 132 22:59 15.01.2020
4283 Clouds -18 1032 63 0 1.68 132 22:41 15.01.2020
4284 Clouds -18 1032 63 0 1.68 132 22:19 15.01.2020
4285 Clouds -18 1032 63 0 1.68 132 21:58 15.01.2020
4286 Clouds -18 1032 63 0 1.68 132 21:40 15.01.2020
4287 Clouds -18 1032 63 0 1.68 132 21:21 15.01.2020
4288 Clouds -18 1032 63 0 1.68 132 20:58 15.01.2020
4289 Clouds -18 1032 63 0 1.68 132 20:58 15.01.2020
4290 Clouds -18 1032 63 0 1.68 132 20:40 15.01.2020
4291 Clouds -16 1032 63 0 1.58 132 20:21 15.01.2020
4292 Clouds -16 1032 63 0 1.58 132 19:55 15.01.2020
4293 Clouds -16 1032 63 0 1.58 132 19:55 15.01.2020
4294 Clouds -16 1032 63 0 1.58 132 19:37 15.01.2020
4295 Clouds -16 1032 63 0 1.58 132 19:19 15.01.2020
4296 Clouds -16 1032 63 0 1.58 132 18:57 15.01.2020
4297 Clouds -16 1032 63 0 1.58 132 18:38 15.01.2020
4298 Clouds -16 1032 63 0 1.58 132 18:20 15.01.2020
4299 Clouds -16 1032 63 0 1.58 132 18:20 15.01.2020
4300 Clouds -16 1032 63 0 1.58 132 17:58 15.01.2020
4301 Clouds -16 1032 63 0 1.58 132 17:39 15.01.2020
4302 Clouds -15 1032 61 0 1.68 134 17:20 15.01.2020
4303 Clouds -15 1032 61 0 1.68 134 16:42 15.01.2020
4304 Clouds -15 1032 61 0 1.68 134 16:24 15.01.2020
4305 Clouds -15 1032 61 0 1.68 134 15:59 15.01.2020
4306 Clouds -15 1032 61 0 1.68 134 15:41 15.01.2020
4307 Clouds -15 1032 61 0 1.68 134 15:20 15.01.2020
4308 Clouds -15 1032 61 0 1.68 134 14:45 15.01.2020
4309 Clouds -15 1032 60 0 1.98 132 14:21 15.01.2020
4310 Clouds -15 1032 60 0 1.98 132 13:56 15.01.2020
4311 Clouds -15 1032 60 0 1.98 132 13:38 15.01.2020
4312 Clouds -15 1031 61 0 2.03 134 13:20 15.01.2020
4313 Clouds -15 1031 61 0 2.03 134 12:55 15.01.2020
4314 Clouds -15 1031 61 0 2.03 134 12:36 15.01.2020
4315 Clouds -15 1031 61 0 2.03 134 12:18 15.01.2020
4316 Clouds -15 1031 61 0 2.03 134 11:38 15.01.2020
4317 Clouds -13 1030 65 0 1.97 135 11:20 15.01.2020
4318 Clouds -13 1030 65 0 1.97 135 10:47 15.01.2020
4319 Clouds -13 1030 65 0 1.97 135 10:28 15.01.2020
4320 Clouds -13 1030 65 0 1.97 135 09:58 15.01.2020
4321 Clouds -13 1030 65 0 1.97 135 09:39 15.01.2020
4322 Clouds -13 1030 65 0 1.97 135 09:19 15.01.2020
4323 Clouds -13 1030 65 0 1.97 135 08:44 15.01.2020
4324 Clouds -13 1030 65 0 1.97 135 08:24 15.01.2020
4325 Clouds -11 1030 71 0 2.29 119 07:54 15.01.2020
4326 Clouds -11 1030 71 0 2.29 119 07:33 15.01.2020
4327 Clouds -11 1030 71 0 2.29 119 06:52 15.01.2020
4328 Clouds -11 1030 71 0 2.29 119 06:28 15.01.2020
4329 Clouds -15 1033 62 0 3 114 04:56 15.01.2020
4330 Clouds -15 1033 62 0 3 114 02:48 15.01.2020
4331 Clouds -17 1033 54 0 3.04 115 01:48 15.01.2020
4332 Clouds -17 1033 55 0 3.11 115 01:21 15.01.2020
4333 Clouds -17 1033 55 0 3.11 115 00:37 15.01.2020
4334 Clouds -17 1033 55 0 3.11 115 00:19 15.01.2020
4335 Clouds -17 1033 55 0 3.11 115 23:46 14.01.2020
4336 Clouds -17 1033 55 0 3.11 115 23:24 14.01.2020
4337 Clouds -18 1032 57 0 3.13 118 22:57 14.01.2020
4338 Clouds -18 1032 57 0 3.13 118 22:38 14.01.2020
4339 Clouds -18 1032 57 0 3.13 118 22:18 14.01.2020
4340 Clouds -18 1032 57 0 3.13 118 21:56 14.01.2020
4341 Clouds -18 1032 57 0 3.13 118 21:37 14.01.2020
4342 Clouds -18 1032 57 0 3.13 118 21:19 14.01.2020
4343 Clouds -18 1032 57 0 3.13 118 20:42 14.01.2020
4344 Clouds -17 1032 60 0 2.95 117 20:22 14.01.2020
4345 Clouds -17 1032 58 0 2.52 114 19:57 14.01.2020
4346 Clouds -17 1032 58 0 2.52 114 19:57 14.01.2020
4347 Clouds -17 1032 58 0 2.52 114 19:38 14.01.2020
4348 Clouds -17 1032 58 0 2.52 114 19:20 14.01.2020
4349 Clouds -17 1032 58 0 2.52 114 18:59 14.01.2020
4350 Clouds -17 1032 58 0 2.52 114 18:40 14.01.2020
4351 Clouds -17 1032 58 0 2.52 114 18:19 14.01.2020
4352 Clouds -17 1032 58 0 2.52 114 18:19 14.01.2020
4353 Clouds -17 1032 58 0 2.52 114 17:39 14.01.2020
4354 Clouds -17 1032 56 0 1.88 117 17:20 14.01.2020
4355 Clouds -17 1032 56 0 1.88 117 16:59 14.01.2020
4356 Clouds -17 1032 56 0 1.88 117 16:41 14.01.2020
4357 Clouds -17 1032 56 0 1.88 117 16:21 14.01.2020
4358 Clouds -17 1032 56 0 1.88 117 15:55 14.01.2020
4359 Clouds -17 1032 56 0 1.88 117 15:37 14.01.2020
4360 Clouds -17 1032 56 0 1.88 117 15:18 14.01.2020
4361 Clouds -17 1032 56 0 1.88 117 14:43 14.01.2020
4362 Clouds -16 1031 58 0 1.6 119 14:20 14.01.2020
4363 Clouds -16 1031 58 0 1.6 119 13:43 14.01.2020
4364 Clouds -16 1030 58 0 1.61 125 13:20 14.01.2020
4365 Clouds -16 1030 58 0 1.61 125 12:59 14.01.2020
4366 Clouds -16 1030 58 0 1.61 125 12:40 14.01.2020
4367 Clouds -16 1030 58 0 1.61 125 12:20 14.01.2020
4368 Clouds -16 1030 58 0 1.61 125 12:20 14.01.2020
4369 Clouds -16 1030 58 0 1.61 125 12:20 14.01.2020
4370 Clouds -16 1030 58 0 1.61 125 11:43 14.01.2020
4371 Clouds -16 1030 58 0 1.61 125 11:23 14.01.2020
4372 Clouds -15 1027 64 0 1.14 110 10:58 14.01.2020
4373 Clouds -15 1027 64 0 1.14 110 10:39 14.01.2020
4374 Clouds -15 1027 64 0 1.14 110 10:20 14.01.2020
4375 Clouds -15 1027 64 0 1.14 110 09:57 14.01.2020
4376 Clouds -15 1027 64 0 1.14 110 09:39 14.01.2020
4377 Clouds -15 1027 64 0 1.14 110 09:20 14.01.2020
4378 Clouds -15 1027 64 0 1.14 110 08:44 14.01.2020
4379 Clouds -15 1027 64 0 1.14 110 08:23 14.01.2020
4380 Clouds -12 1026 72 0 1.11 155 07:53 14.01.2020
4381 Clouds -12 1026 72 0 1.11 155 07:31 14.01.2020
4382 Clouds -12 1026 72 0 1.11 155 06:51 14.01.2020
4383 Clouds -12 1026 72 0 1.11 155 06:27 14.01.2020
4384 Clouds -12 1026 72 0 1.11 155 05:25 14.01.2020
4385 Clouds -16 1028 64 0 2.55 118 03:51 14.01.2020
4386 Clouds -16 1028 64 0 2.55 118 03:51 14.01.2020
4387 Clouds -16 1028 64 0 2.55 118 02:42 14.01.2020
4388 Clear -19 1029 63 0 2.75 118 01:53 14.01.2020
4389 Clear -19 1029 64 0 2.88 116 00:49 14.01.2020
4390 Clear -19 1029 64 0 2.88 116 00:28 14.01.2020
4391 Clear -19 1029 64 0 2.88 116 23:54 13.01.2020
4392 Clear -19 1029 64 0 2.88 116 23:36 13.01.2020
4393 Clear -19 1030 68 0 2.32 114 23:18 13.01.2020
4394 Clear -19 1030 68 0 2.32 114 22:41 13.01.2020
4395 Clear -19 1030 68 0 2.32 114 22:21 13.01.2020
4396 Clear -19 1030 68 0 2.32 114 21:56 13.01.2020
4397 Clear -19 1030 68 0 2.32 114 21:37 13.01.2020
4398 Clear -19 1030 68 0 2.32 114 21:18 13.01.2020
4399 Clear -19 1030 68 0 2.32 114 20:57 13.01.2020
4400 Clear -19 1030 68 0 2.32 114 20:38 13.01.2020
4401 Clouds -19 1030 68 0 1.85 129 20:20 13.01.2020
4402 Clouds -19 1030 68 0 1.89 122 19:57 13.01.2020
4403 Clouds -19 1030 68 0 1.89 122 19:38 13.01.2020
4404 Clouds -19 1030 68 0 1.89 122 19:18 13.01.2020
4405 Clouds -19 1030 68 0 1.89 122 18:56 13.01.2020
4406 Clouds -19 1030 68 0 1.89 122 18:56 13.01.2020
4407 Clouds -19 1030 68 0 1.89 122 18:37 13.01.2020
4408 Clouds -19 1030 68 0 1.89 122 18:37 13.01.2020
4409 Clouds -19 1030 68 0 1.89 122 18:18 13.01.2020
4410 Clouds -19 1030 68 0 1.89 122 17:40 13.01.2020
4411 Clouds -19 1030 68 0 1.89 122 17:22 13.01.2020
4412 Clouds -19 1030 68 0 1.89 122 17:22 13.01.2020
4413 Clouds -19 1030 62 0 2.04 113 16:56 13.01.2020
4414 Clouds -19 1030 62 0 2.04 113 16:38 13.01.2020
4415 Clouds -19 1030 62 0 2.04 113 16:19 13.01.2020
4416 Clouds -19 1030 62 0 2.04 113 15:43 13.01.2020
4417 Clouds -19 1030 62 0 2.04 113 15:23 13.01.2020
4418 Clouds -19 1030 62 0 2.04 113 14:58 13.01.2020
4419 Clouds -19 1030 62 0 2.04 113 14:38 13.01.2020
4420 Clouds -20 1030 55 0 1.33 121 14:19 13.01.2020
4421 Clouds -20 1030 55 0 1.33 121 13:42 13.01.2020
4422 Clouds -20 1030 55 0 1.33 121 13:24 13.01.2020
4423 -273 0 0 0 0 0 12:59 13.01.2020
4424 Clouds -20 1030 56 0 1.22 138 12:41 13.01.2020
4425 Clouds -20 1030 56 0 1.22 138 12:22 13.01.2020
4426 Clouds -20 1030 56 0 1.22 138 11:57 13.01.2020
4427 Clouds -20 1030 56 0 1.22 138 11:37 13.01.2020
4428 Clouds -18 1028 61 0 0.53 158 11:19 13.01.2020
4429 Clouds -18 1028 61 0 0.53 158 10:55 13.01.2020
4430 Clouds -18 1028 61 0 0.53 158 10:37 13.01.2020
4431 Clouds -18 1028 61 0 0.53 158 10:19 13.01.2020
4432 Clouds -18 1028 61 0 0.53 158 09:43 13.01.2020
4433 Clouds -18 1028 61 0 0.53 158 09:23 13.01.2020
4434 Clouds -18 1028 61 0 0.53 158 08:56 13.01.2020
4435 Clouds -18 1028 61 0 0.53 158 08:36 13.01.2020
4436 Clouds -14 1027 68 0 0.47 161 08:18 13.01.2020
4437 Clouds -14 1027 68 0 0.47 161 07:42 13.01.2020
4438 Clouds -14 1027 68 0 0.47 161 07:21 13.01.2020
4439 Clouds -14 1027 68 0 0.47 161 06:37 13.01.2020
4440 Clouds -14 1027 68 0 0.47 161 06:37 13.01.2020
4441 Clouds -14 1027 68 0 0.47 161 05:37 13.01.2020
4442 Clouds -18 1029 56 0 1.66 139 04:56 13.01.2020
4443 Clouds -18 1029 56 0 1.66 139 03:38 13.01.2020
4444 Clouds -18 1029 56 0 1.66 139 02:49 13.01.2020
4445 Clouds -18 1029 56 0 1.66 139 02:30 13.01.2020
4446 Clouds -18 1029 56 0 1.66 139 02:30 13.01.2020
4447 Clouds -19 1030 47 0 2.33 130 01:33 13.01.2020
4448 Clouds -19 1030 47 0 2.33 130 00:44 13.01.2020
4449 Clouds -19 1030 47 0 2.33 130 00:26 13.01.2020
4450 Clouds -19 1030 47 0 2.33 130 23:57 12.01.2020
4451 Clouds -19 1030 47 0 2.33 130 23:39 12.01.2020
4452 Clouds -20 1031 52 0 2.77 126 23:21 12.01.2020
4453 Clouds -20 1031 52 0 2.77 126 22:43 12.01.2020
4454 Clouds -20 1031 52 0 2.77 126 22:43 12.01.2020
4455 Clouds -20 1031 52 0 2.77 126 22:25 12.01.2020
4456 Clouds -20 1031 52 0 2.77 126 21:59 12.01.2020
4457 Clouds -20 1031 52 0 2.77 126 21:40 12.01.2020
4458 Clouds -20 1031 52 0 2.77 126 21:20 12.01.2020
4459 Clouds -20 1031 52 0 2.77 126 20:58 12.01.2020
4460 Clouds -20 1031 52 0 2.77 126 20:39 12.01.2020
4461 Clear -22 1032 51 0 2.98 117 20:21 12.01.2020
4462 Clear -22 1032 51 0 2.98 117 19:56 12.01.2020
4463 Clear -22 1032 51 0 2.98 117 19:56 12.01.2020
4464 Clear -22 1032 51 0 2.98 117 19:38 12.01.2020
4465 Clear -22 1032 51 0 2.98 117 19:38 12.01.2020
4466 Clear -22 1032 51 0 2.98 117 19:19 12.01.2020
4467 Clear -22 1032 51 0 2.98 117 18:58 12.01.2020
4468 Clear -22 1032 51 0 2.98 117 18:58 12.01.2020
4469 Clear -22 1032 51 0 2.98 117 18:40 12.01.2020
4470 Clear -22 1032 51 0 2.98 117 18:40 12.01.2020
4471 Clear -22 1032 51 0 2.98 117 18:21 12.01.2020
4472 Clear -22 1032 51 0 2.98 117 17:58 12.01.2020
4473 Clear -22 1032 51 0 2.98 117 17:38 12.01.2020
4474 Clear -22 1034 56 0 2.76 121 17:19 12.01.2020
4475 Clear -22 1034 56 0 2.76 121 16:55 12.01.2020
4476 Clear -22 1034 56 0 2.76 121 16:37 12.01.2020
4477 Clear -22 1034 56 0 2.76 121 16:19 12.01.2020
4478 Clear -22 1034 56 0 2.76 121 15:42 12.01.2020
4479 Clear -22 1034 56 0 2.76 121 15:24 12.01.2020
4480 Clear -22 1034 56 0 2.76 121 14:57 12.01.2020
4481 Clear -22 1034 56 0 2.76 121 14:38 12.01.2020
4482 Clear -22 1034 68 0 2.45 120 14:19 12.01.2020
4483 Clear -22 1034 68 0 2.45 120 13:44 12.01.2020
4484 Clear -22 1034 68 0 2.45 120 13:44 12.01.2020
4485 Clear -22 1033 65 0 2.53 120 13:25 12.01.2020
4486 Clear -22 1033 65 0 2.53 120 12:59 12.01.2020
4487 Clear -22 1033 65 0 2.53 120 12:39 12.01.2020
4488 Clear -22 1033 65 0 2.53 120 12:20 12.01.2020
4489 Clear -22 1033 65 0 2.53 120 11:58 12.01.2020
4490 Clear -22 1033 65 0 2.53 120 11:39 12.01.2020
4491 Clear -20 1033 79 0 1.45 119 11:20 12.01.2020
4492 Clear -20 1033 79 0 1.45 119 10:41 12.01.2020
4493 Clear -20 1033 79 0 1.45 119 10:22 12.01.2020
4494 Clear -20 1033 79 0 1.45 119 09:57 12.01.2020
4495 Clear -20 1033 79 0 1.45 119 09:38 12.01.2020
4496 Clear -20 1033 79 0 1.45 119 09:19 12.01.2020
4497 Clear -20 1033 79 0 1.45 119 08:45 12.01.2020
4498 Clear -17 1034 82 0 1.04 138 08:20 12.01.2020
4499 Clear -17 1034 82 0 1.04 138 07:41 12.01.2020
4500 Clear -17 1034 82 0 1.04 138 07:23 12.01.2020
4501 Clear -17 1034 82 0 1.04 138 06:48 12.01.2020
4502 Clear -17 1034 82 0 1.04 138 06:29 12.01.2020
4503 Clear -17 1034 82 0 1.04 138 05:32 12.01.2020
4504 Clear -17 1034 82 0 1.04 138 05:32 12.01.2020
4505 Clear -22 1038 84 0 1.91 119 04:27 12.01.2020
4506 Clear -22 1038 84 0 1.91 119 03:24 12.01.2020
4507 Clear -22 1038 84 0 1.91 119 02:33 12.01.2020
4508 Clear -25 1039 90 0 1.77 125 01:51 12.01.2020
4509 Clear -25 1039 91 0 1.72 120 01:29 12.01.2020
4510 Clear -25 1039 91 0 1.72 120 00:41 12.01.2020
4511 Clear -25 1039 91 0 1.72 120 00:20 12.01.2020
4512 Clear -25 1039 91 0 1.72 120 00:20 12.01.2020
4513 Clear -25 1039 91 0 1.72 120 23:42 11.01.2020
4514 Clear -25 1040 97 0 1.31 124 23:20 11.01.2020
4515 Clear -25 1040 97 0 1.31 124 22:58 11.01.2020
4516 Clear -25 1040 97 0 1.31 124 22:58 11.01.2020
4517 Clear -25 1040 97 0 1.31 124 22:40 11.01.2020
4518 Clear -25 1040 97 0 1.31 124 22:20 11.01.2020
4519 Clear -25 1040 97 0 1.31 124 21:58 11.01.2020
4520 Clear -25 1040 97 0 1.31 124 21:40 11.01.2020
4521 Clear -25 1040 97 0 1.31 124 21:40 11.01.2020
4522 Clear -25 1040 97 0 1.31 124 21:18 11.01.2020
4523 Clear -25 1040 97 0 1.31 124 20:41 11.01.2020
4524 Clear -25 1040 97 0 1.31 124 20:22 11.01.2020
4525 Clouds -25 1039 100 0 0.85 120 19:58 11.01.2020
4526 Clouds -25 1039 100 0 0.85 120 19:39 11.01.2020
4527 Clouds -25 1039 100 0 0.85 120 19:21 11.01.2020
4528 Clouds -25 1039 100 0 0.85 120 18:58 11.01.2020
4529 Clouds -25 1039 100 0 0.85 120 18:38 11.01.2020
4530 Clouds -25 1039 100 0 0.85 120 18:20 11.01.2020
4531 Clouds -25 1039 100 0 0.85 120 17:57 11.01.2020
4532 Clouds -25 1039 100 0 0.85 120 17:39 11.01.2020
4533 Clouds -24 1039 99 0 0.5 121 17:19 11.01.2020
4534 Clouds -24 1039 99 0 0.5 121 16:45 11.01.2020
4535 Clouds -24 1039 99 0 0.5 121 16:27 11.01.2020
4536 Clouds -24 1039 99 0 0.5 121 15:59 11.01.2020
4537 Clouds -24 1039 99 0 0.5 121 15:40 11.01.2020
4538 Clouds -24 1039 99 0 0.5 121 15:22 11.01.2020
4539 Clouds -24 1039 99 0 0.5 121 14:57 11.01.2020
4540 Clouds -24 1039 99 0 0.5 121 14:38 11.01.2020
4541 Clouds -22 1037 94 0 0.18 303 14:20 11.01.2020
4542 Clouds -22 1037 94 0 0.18 303 13:40 11.01.2020
4543 Clouds -22 1037 98 0 0.25 11 13:20 11.01.2020
4544 Clouds -22 1037 98 0 0.25 11 12:58 11.01.2020
4545 Clouds -22 1037 98 0 0.25 11 12:39 11.01.2020
4546 Clouds -22 1037 98 0 0.25 11 12:21 11.01.2020
4547 Clouds -22 1037 98 0 0.25 11 11:47 11.01.2020
4548 Clouds -22 1037 98 0 0.25 11 11:26 11.01.2020
4549 Clouds -21 1035 97 0 0.65 338 10:50 11.01.2020
4550 Clouds -21 1035 97 0 0.65 338 10:30 11.01.2020
4551 Clouds -21 1035 97 0 0.65 338 09:57 11.01.2020
4552 Clouds -21 1035 97 0 0.65 338 09:37 11.01.2020
4553 Clouds -21 1035 97 0 0.65 338 09:19 11.01.2020
4554 Clouds -21 1035 97 0 0.65 338 08:41 11.01.2020
4555 Clouds -19 1034 93 0 1.18 302 08:21 11.01.2020
4556 Clouds -19 1034 93 0 1.18 302 07:44 11.01.2020
4557 Clouds -19 1034 93 0 1.18 302 07:25 11.01.2020
4558 Clouds -19 1034 93 0 1.18 302 06:48 11.01.2020
4559 Clouds -19 1034 93 0 1.18 302 05:34 11.01.2020
4560 Clouds -22 1036 96 0 1.3 99 04:46 11.01.2020
4561 Clouds -22 1036 96 0 1.3 99 04:27 11.01.2020
4562 Clouds -22 1036 96 0 1.3 99 02:49 11.01.2020
4563 Clouds -22 1035 100 0 0.82 98 01:57 11.01.2020
4564 Clouds -22 1035 100 0 0.82 98 01:38 11.01.2020
4565 Clouds -22 1035 99 0 0.86 100 01:18 11.01.2020
4566 Clouds -22 1035 99 0 0.86 100 00:38 11.01.2020
4567 Clouds -22 1035 99 0 0.86 100 23:59 10.01.2020
4568 Clouds -22 1035 99 0 0.86 100 23:40 10.01.2020
4569 Clouds -20 1034 99 0 0.7 72 23:21 10.01.2020
4570 Clouds -20 1034 99 0 0.7 72 22:55 10.01.2020
4571 Clouds -20 1034 99 0 0.7 72 22:37 10.01.2020
4572 Clouds -20 1034 99 0 0.7 72 22:18 10.01.2020
4573 Clouds -20 1034 99 0 0.7 72 21:55 10.01.2020
4574 Clouds -20 1034 99 0 0.7 72 21:36 10.01.2020
4575 Clouds -20 1034 99 0 0.7 72 21:18 10.01.2020
4576 Clouds -20 1034 99 0 0.7 72 20:42 10.01.2020
4577 Clouds -20 1034 99 0 0.7 72 20:24 10.01.2020
4578 Snow -20 1034 100 0 0.36 237 19:54 10.01.2020
4579 Snow -20 1034 100 0 0.36 237 19:36 10.01.2020
4580 Snow -20 1034 100 0 0.36 237 19:18 10.01.2020
4581 Snow -20 1034 100 0 0.36 237 18:41 10.01.2020
4582 Snow -20 1034 100 0 0.36 237 18:19 10.01.2020
4583 Snow -20 1034 100 0 0.36 237 17:57 10.01.2020
4584 Snow -20 1034 100 0 0.36 237 17:38 10.01.2020
4585 Snow -19 1033 99 0 0.6 234 17:20 10.01.2020
4586 Snow -19 1033 99 0 0.6 234 17:20 10.01.2020
4587 Snow -19 1033 99 0 0.6 234 16:55 10.01.2020
4588 Snow -19 1033 99 0 0.6 234 16:37 10.01.2020
4589 Snow -19 1033 99 0 0.6 234 16:19 10.01.2020
4590 Snow -19 1033 99 0 0.6 234 15:55 10.01.2020
4591 Snow -19 1033 99 0 0.6 234 15:36 10.01.2020
4592 Snow -19 1033 99 0 0.6 234 15:18 10.01.2020
4593 Snow -19 1033 99 0 0.6 234 14:42 10.01.2020
4594 Snow -17 1033 97 0 1.11 277 14:20 10.01.2020
4595 Snow -17 1033 97 0 1.11 277 13:59 10.01.2020
4596 Snow -17 1033 97 0 1.11 277 13:41 10.01.2020
4597 Snow -17 1032 97 0 1.18 274 13:23 10.01.2020
4598 Snow -17 1032 97 0 1.18 274 12:58 10.01.2020
4599 Snow -17 1032 97 0 1.18 274 12:38 10.01.2020
4600 Snow -17 1032 97 0 1.18 274 12:19 10.01.2020
4601 Snow -17 1032 97 0 1.18 274 11:55 10.01.2020
4602 Snow -17 1032 97 0 1.18 274 11:37 10.01.2020
4603 Snow -14 1031 96 0 0.93 303 11:18 10.01.2020
4604 Snow -14 1031 96 0 0.93 303 10:42 10.01.2020
4605 Snow -14 1031 96 0 0.93 303 10:24 10.01.2020
4606 Snow -14 1031 96 0 0.93 303 09:56 10.01.2020
4607 Snow -14 1031 96 0 0.93 303 09:56 10.01.2020
4608 Snow -14 1031 96 0 0.93 303 09:37 10.01.2020
4609 Snow -14 1031 96 0 0.93 303 09:19 10.01.2020
4610 Snow -14 1031 96 0 0.93 303 08:41 10.01.2020
4611 Snow -15 1031 96 0 0.91 325 08:23 10.01.2020
4612 Clouds -14 1031 83 0 0.39 4 07:45 10.01.2020
4613 Clouds -14 1031 83 0 0.39 4 07:26 10.01.2020
4614 Clouds -14 1031 83 0 0.39 4 06:46 10.01.2020
4615 Clouds -14 1031 83 0 0.39 4 06:26 10.01.2020
4616 Clouds -14 1031 83 0 0.39 4 05:51 10.01.2020
4617 Clouds -16 1034 66 0 1.73 151 03:37 10.01.2020
4618 Clouds -16 1034 66 0 1.73 151 03:18 10.01.2020
4619 Clouds -16 1034 66 0 1.73 151 02:49 10.01.2020
4620 Clouds -17 1034 59 0 1.98 121 01:44 10.01.2020
4621 Clouds -17 1034 59 0 1.98 121 01:26 10.01.2020
4622 Clouds -17 1034 59 0 1.98 117 00:40 10.01.2020
4623 Clouds -17 1034 59 0 1.98 117 23:58 09.01.2020
4624 Clouds -17 1034 59 0 1.98 117 23:39 09.01.2020
4625 Clouds -17 1036 58 0 2.42 110 23:20 09.01.2020
4626 Clouds -17 1036 58 0 2.42 110 22:57 09.01.2020
4627 Clouds -17 1036 58 0 2.42 110 22:39 09.01.2020
4628 Clouds -17 1036 58 0 2.42 110 22:19 09.01.2020
4629 Clouds -17 1036 58 0 2.42 110 21:57 09.01.2020
4630 Clouds -17 1036 58 0 2.42 110 21:37 09.01.2020
4631 Clouds -17 1036 58 0 2.42 110 21:19 09.01.2020
4632 Clouds -17 1036 58 0 2.42 110 20:57 09.01.2020
4633 Clouds -17 1036 58 0 2.42 110 20:39 09.01.2020
4634 Clouds -19 1038 54 0 2.6 111 20:19 09.01.2020
4635 Clouds -19 1037 56 0 2.65 110 19:57 09.01.2020
4636 Clouds -19 1037 56 0 2.65 110 19:37 09.01.2020
4637 Clouds -19 1037 56 0 2.65 110 19:19 09.01.2020
4638 Clouds -19 1037 56 0 2.65 110 18:55 09.01.2020
4639 Clouds -19 1037 56 0 2.65 110 18:36 09.01.2020
4640 Clouds -19 1037 56 0 2.65 110 18:18 09.01.2020
4641 Clouds -19 1037 56 0 2.65 110 17:41 09.01.2020
4642 Clouds -20 1039 60 0 2.71 110 17:18 09.01.2020
4643 Clouds -20 1039 60 0 2.71 110 16:49 09.01.2020
4644 Clouds -20 1039 60 0 2.71 110 16:24 09.01.2020
4645 Clouds -20 1039 60 0 2.71 110 15:59 09.01.2020
4646 Clouds -20 1039 60 0 2.71 110 15:40 09.01.2020
4647 Clouds -20 1039 60 0 2.71 110 15:19 09.01.2020
4648 Clouds -20 1039 60 0 2.71 110 14:42 09.01.2020
4649 Clouds -21 1039 65 0 2.22 100 14:22 09.01.2020
4650 Clouds -21 1039 65 0 2.22 100 13:57 09.01.2020
4651 Clouds -21 1039 65 0 2.22 100 13:39 09.01.2020
4652 Clouds -20 1039 65 0 2.14 99 13:20 09.01.2020
4653 Clouds -20 1039 65 0 2.14 99 12:59 09.01.2020
4654 Clouds -20 1039 65 0 2.14 99 12:40 09.01.2020
4655 Clouds -20 1039 65 0 2.14 99 12:20 09.01.2020
4656 Clouds -20 1039 65 0 2.14 99 11:57 09.01.2020
4657 Clouds -20 1039 65 0 2.14 99 11:38 09.01.2020
4658 Clouds -20 1037 68 0 1.19 83 11:20 09.01.2020
4659 Clouds -20 1037 68 0 1.19 83 10:43 09.01.2020
4660 Clouds -20 1037 68 0 1.19 83 10:22 09.01.2020
4661 Clouds -20 1037 68 0 1.19 83 09:56 09.01.2020
4662 Clouds -20 1037 68 0 1.19 83 09:38 09.01.2020
4663 Clouds -20 1037 68 0 1.19 83 09:18 09.01.2020
4664 Clouds -20 1037 68 0 1.19 83 08:55 09.01.2020
4665 Clouds -20 1037 68 0 1.19 83 08:37 09.01.2020
4666 Clear -17 1038 74 0 0.67 68 08:19 09.01.2020
4667 Clear -17 1038 74 0 0.67 68 07:42 09.01.2020
4668 Clear -17 1038 74 0 0.67 68 07:23 09.01.2020
4669 Clear -17 1038 74 0 0.67 68 06:38 09.01.2020
4670 Clear -17 1038 74 0 0.67 68 06:19 09.01.2020
4671 Clear -17 1038 74 0 0.67 68 05:44 09.01.2020
4672 Clear -22 1041 69 0 1.39 94 04:42 09.01.2020
4673 Clear -22 1041 69 0 1.39 94 03:30 09.01.2020
4674 Clear -22 1041 69 0 1.39 94 03:30 09.01.2020
4675 Clear -22 1041 69 0 1.39 94 02:48 09.01.2020
4676 Clear -22 1041 69 0 1.39 94 02:23 09.01.2020
4677 Clear -25 1041 77 0 1.59 100 01:35 09.01.2020
4678 Clear -24 1041 79 0 1.54 98 00:42 09.01.2020
4679 Clear -24 1041 79 0 1.54 98 00:21 09.01.2020
4680 Clear -24 1041 79 0 1.54 98 23:42 08.01.2020
4681 Clear -24 1041 79 0 1.54 98 23:24 08.01.2020
4682 Clear -25 1040 85 0 1.58 102 22:58 08.01.2020
4683 Clear -25 1040 85 0 1.58 102 22:38 08.01.2020
4684 Clear -25 1040 85 0 1.58 102 22:20 08.01.2020
4685 Clear -25 1040 85 0 1.58 102 21:56 08.01.2020
4686 Clear -25 1040 85 0 1.58 102 21:38 08.01.2020
4687 Clear -25 1040 85 0 1.58 102 21:19 08.01.2020
4688 Clear -25 1040 85 0 1.58 102 20:57 08.01.2020
4689 Clear -25 1040 85 0 1.58 102 20:38 08.01.2020
4690 Clear -25 1040 86 0 0.85 125 20:19 08.01.2020
4691 Clear -25 1040 86 0 0.85 125 19:55 08.01.2020
4692 Clear -25 1040 86 0 0.85 125 19:55 08.01.2020
4693 Clear -25 1040 86 0 0.85 125 19:36 08.01.2020
4694 Clear -25 1040 86 0 0.85 125 19:18 08.01.2020
4695 Clear -25 1040 86 0 0.85 125 18:54 08.01.2020
4696 Clear -25 1040 86 0 0.85 125 18:54 08.01.2020
4697 Clear -25 1040 86 0 0.85 125 18:36 08.01.2020
4698 Clear -25 1040 86 0 0.85 125 18:18 08.01.2020
4699 Clear -25 1040 86 0 0.85 125 18:18 08.01.2020
4700 Clear -25 1040 86 0 0.85 125 17:42 08.01.2020
4701 Clear -25 1040 86 0 0.85 125 17:23 08.01.2020
4702 Clear -25 1039 86 0 0.82 138 16:57 08.01.2020
4703 Clear -25 1039 86 0 0.82 138 16:39 08.01.2020
4704 Clear -25 1039 86 0 0.82 138 16:19 08.01.2020
4705 Clear -25 1039 86 0 0.82 138 16:19 08.01.2020
4706 Clear -25 1039 86 0 0.82 138 15:56 08.01.2020
4707 Clear -25 1039 86 0 0.82 138 15:38 08.01.2020
4708 Clear -25 1039 86 0 0.82 138 15:18 08.01.2020
4709 Clear -25 1039 86 0 0.82 138 14:41 08.01.2020
4710 Clear -24 1037 86 0 0.79 160 14:21 08.01.2020
4711 Clear -24 1037 86 0 0.79 160 13:56 08.01.2020
4712 Clear -24 1037 86 0 0.79 160 13:37 08.01.2020
4713 Clear -24 1036 85 0 0.92 162 13:18 08.01.2020
4714 Clear -24 1036 85 0 0.92 162 12:40 08.01.2020
4715 Clear -24 1036 85 0 0.92 162 12:18 08.01.2020
4716 Clear -24 1036 85 0 0.92 162 11:49 08.01.2020
4717 Clear -21 1034 82 0 0.34 216 11:20 08.01.2020
4718 Clear -21 1034 82 0 0.34 216 10:59 08.01.2020
4719 Clear -21 1034 82 0 0.34 216 10:41 08.01.2020
4720 Clear -21 1034 82 0 0.34 216 10:22 08.01.2020
4721 Clear -21 1034 82 0 0.34 216 09:58 08.01.2020
4722 Clear -21 1034 82 0 0.34 216 09:38 08.01.2020
4723 Clear -21 1034 82 0 0.34 216 09:18 08.01.2020
4724 Clear -21 1034 82 0 0.34 216 08:42 08.01.2020
4725 Clear -21 1034 80 0 0.33 214 08:23 08.01.2020
4726 Clear -17 1033 77 0 0.64 264 07:59 08.01.2020
4727 Clear -17 1033 77 0 0.64 264 07:59 08.01.2020
4728 Clear -17 1033 77 0 0.64 264 07:59 08.01.2020
4729 Clear -17 1033 77 0 0.64 264 07:41 08.01.2020
4730 Clear -17 1033 77 0 0.64 264 07:20 08.01.2020
4731 Clear -17 1033 77 0 0.64 264 06:42 08.01.2020
4732 Clear -17 1033 77 0 0.64 264 05:57 08.01.2020
4733 Clear -17 1033 77 0 0.64 264 05:27 08.01.2020
4734 Clear -21 1035 68 0 0.88 112 04:37 08.01.2020
4735 Clear -21 1035 68 0 0.88 112 02:48 08.01.2020
4736 Clear -21 1035 68 0 0.88 112 02:30 08.01.2020
4737 Clear -22 1034 66 0 1.21 132 01:58 08.01.2020
4738 Clear -22 1034 66 0 1.21 132 01:32 08.01.2020
4739 -273 0 0 0 0 0 00:52 08.01.2020
4740 Clear -22 1034 64 0 1.09 135 00:24 08.01.2020
4741 Clear -22 1034 64 0 1.09 135 23:46 07.01.2020
4742 Clear -21 1033 61 0 1.75 126 23:21 07.01.2020
4743 Clear -21 1033 61 0 1.75 126 23:21 07.01.2020
4744 Clear -21 1033 61 0 1.75 126 22:57 07.01.2020
4745 Clear -21 1033 61 0 1.75 126 22:38 07.01.2020
4746 Clear -21 1033 61 0 1.75 126 22:19 07.01.2020
4747 Clear -21 1033 61 0 1.75 126 21:42 07.01.2020
4748 Clear -21 1033 61 0 1.75 126 21:22 07.01.2020
4749 Clear -21 1033 61 0 1.75 126 20:58 07.01.2020
4750 Clear -21 1033 61 0 1.75 126 20:40 07.01.2020
4751 Clouds -20 1033 58 0 1.53 133 20:22 07.01.2020
4752 Clouds -20 1033 58 0 1.53 133 19:57 07.01.2020
4753 Clouds -20 1033 58 0 1.53 133 19:38 07.01.2020
4754 Clouds -20 1033 58 0 1.53 133 19:19 07.01.2020
4755 Clouds -20 1033 58 0 1.53 133 18:56 07.01.2020
4756 Clouds -20 1033 58 0 1.53 133 18:38 07.01.2020
4757 Clouds -20 1033 58 0 1.53 133 18:18 07.01.2020
4758 Clouds -20 1033 58 0 1.53 133 17:55 07.01.2020
4759 Clouds -20 1033 58 0 1.53 133 17:37 07.01.2020
4760 Clouds -18 1033 57 0 1.26 140 17:18 07.01.2020
4761 Clouds -18 1033 57 0 1.26 140 16:55 07.01.2020
4762 Clouds -18 1033 57 0 1.26 140 16:37 07.01.2020
4763 Clouds -18 1033 57 0 1.26 140 16:18 07.01.2020
4764 Clouds -18 1033 57 0 1.26 140 15:43 07.01.2020
4765 Clouds -18 1033 57 0 1.26 140 15:24 07.01.2020
4766 Clouds -18 1033 57 0 1.26 140 15:24 07.01.2020
4767 Clouds -18 1033 57 0 1.26 140 14:58 07.01.2020
4768 Clouds -18 1033 57 0 1.26 140 14:58 07.01.2020
4769 Clouds -18 1033 57 0 1.26 140 14:40 07.01.2020
4770 Clouds -16 1033 55 0 1.64 127 14:21 07.01.2020
4771 Clouds -16 1033 55 0 1.64 127 13:46 07.01.2020
4772 Clouds -17 1033 57 0 1.52 129 13:21 07.01.2020
4773 Clouds -17 1033 57 0 1.52 129 12:56 07.01.2020
4774 Clouds -17 1033 57 0 1.52 129 12:38 07.01.2020
4775 Clouds -17 1033 57 0 1.52 129 12:19 07.01.2020
4776 Clouds -17 1033 57 0 1.52 129 11:41 07.01.2020
4777 Clouds -17 1033 57 0 1.52 129 11:23 07.01.2020
4778 Clouds -16 1032 60 0 1.2 149 10:57 07.01.2020
4779 Clouds -16 1032 60 0 1.2 149 10:39 07.01.2020
4780 Clouds -16 1032 60 0 1.2 149 10:39 07.01.2020
4781 Clouds -16 1032 60 0 1.2 149 10:39 07.01.2020
4782 Clouds -16 1032 60 0 1.2 149 10:39 07.01.2020
4783 Clouds -16 1032 60 0 1.2 149 10:21 07.01.2020
4784 Clouds -16 1032 60 0 1.2 149 09:39 07.01.2020
4785 Clouds -16 1032 60 0 1.2 149 09:21 07.01.2020
4786 Clouds -16 1032 60 0 1.2 149 08:59 07.01.2020
4787 Clouds -16 1032 60 0 1.2 149 08:41 07.01.2020
4788 Clouds -13 1032 67 0 1.14 131 08:18 07.01.2020
4789 Clouds -13 1032 67 0 1.14 131 07:47 07.01.2020
4790 Clouds -13 1032 67 0 1.14 131 07:20 07.01.2020
4791 Clouds -13 1032 67 0 1.14 131 06:49 07.01.2020
4792 Clouds -13 1032 67 0 1.14 131 06:29 07.01.2020
4793 Clouds -13 1032 67 0 1.14 131 05:41 07.01.2020
4794 Clear -17 1035 53 0 2.22 123 03:47 07.01.2020
4795 Clear -17 1035 53 0 2.22 123 03:25 07.01.2020
4796 Clear -18 1035 52 0 2.35 123 02:19 07.01.2020
4797 Clear -18 1035 52 0 2.35 123 01:40 07.01.2020
4798 Clear -18 1035 53 0 2.27 124 00:58 07.01.2020
4799 Clear -18 1035 53 0 2.27 124 00:21 07.01.2020
4800 Clear -18 1035 53 0 2.27 124 00:21 07.01.2020
4801 Clear -18 1035 53 0 2.27 124 23:57 06.01.2020
4802 Clear -18 1035 53 0 2.27 124 23:38 06.01.2020
4803 Clear -17 1036 54 0 2.44 120 23:20 06.01.2020
4804 Clear -17 1036 54 0 2.44 120 22:44 06.01.2020
4805 Clear -17 1036 54 0 2.44 120 22:25 06.01.2020
4806 Clear -17 1036 54 0 2.44 120 21:59 06.01.2020
4807 Clear -17 1036 54 0 2.44 120 21:40 06.01.2020
4808 Clear -17 1036 54 0 2.44 120 21:21 06.01.2020
4809 Clear -17 1036 54 0 2.44 120 20:58 06.01.2020
4810 Clear -17 1036 54 0 2.44 120 20:40 06.01.2020
4811 Clear -17 1036 55 0 2.56 117 20:20 06.01.2020
4812 Clear -17 1036 54 0 2.5 116 19:57 06.01.2020
4813 Clear -17 1036 54 0 2.5 116 19:39 06.01.2020
4814 Clear -17 1036 54 0 2.5 116 19:20 06.01.2020
4815 Clear -17 1036 54 0 2.5 116 18:48 06.01.2020
4816 Clear -17 1036 54 0 2.5 116 18:25 06.01.2020
4817 Clear -17 1036 54 0 2.5 116 18:00 06.01.2020
4818 Clear -17 1036 54 0 2.5 116 17:39 06.01.2020
4819 Clear -17 1037 54 0 2.57 114 17:19 06.01.2020
4820 Clear -17 1037 54 0 2.57 114 16:55 06.01.2020
4821 Clear -17 1037 54 0 2.57 114 16:36 06.01.2020
4822 Clear -17 1037 54 0 2.57 114 16:18 06.01.2020
4823 Clear -17 1037 54 0 2.57 114 15:42 06.01.2020
4824 Clear -17 1037 54 0 2.57 114 15:20 06.01.2020
4825 Clear -17 1037 54 0 2.57 114 14:59 06.01.2020
4826 Clear -17 1037 54 0 2.57 114 14:41 06.01.2020
4827 Clear -17 1037 54 0 2.57 114 14:41 06.01.2020
4828 Clear -17 1037 52 0 2.35 114 14:21 06.01.2020
4829 Clear -17 1037 52 0 2.35 114 13:57 06.01.2020
4830 Clear -17 1037 52 0 2.35 114 13:38 06.01.2020
4831 Clear -17 1037 53 0 2.35 114 13:19 06.01.2020
4832 Clear -17 1037 53 0 2.35 114 12:43 06.01.2020
4833 Clear -17 1037 53 0 2.35 114 12:21 06.01.2020
4834 Clear -17 1037 53 0 2.35 114 11:58 06.01.2020
4835 Clear -17 1037 53 0 2.35 114 11:39 06.01.2020
4836 Clear -15 1036 58 0 1.58 117 11:21 06.01.2020
4837 Clear -15 1036 58 0 1.58 117 10:54 06.01.2020
4838 Clear -15 1036 58 0 1.58 117 10:36 06.01.2020
4839 Clear -15 1036 58 0 1.58 117 10:18 06.01.2020
4840 Clear -15 1036 58 0 1.58 117 09:37 06.01.2020
4841 Clear -15 1036 58 0 1.58 117 09:19 06.01.2020
4842 Clear -15 1036 58 0 1.58 117 08:43 06.01.2020
4843 Clear -15 1036 58 0 1.58 117 08:25 06.01.2020
4844 Clear -12 1036 67 0 0.71 123 07:53 06.01.2020
4845 Clear -12 1036 67 0 0.71 123 07:28 06.01.2020
4846 Clear -12 1036 67 0 0.71 123 06:45 06.01.2020
4847 Clear -12 1036 67 0 0.71 123 06:20 06.01.2020
4848 Clear -12 1036 67 0 0.71 123 05:45 06.01.2020
4849 Clear -16 1038 52 0 1.98 117 04:37 06.01.2020
4850 Clear -16 1038 52 0 1.98 117 04:18 06.01.2020
4851 Clear -16 1038 52 0 1.98 117 02:46 06.01.2020
4852 Clear -16 1038 52 0 1.98 117 02:23 06.01.2020
4853 Clear -18 1037 50 0 2.11 115 01:44 06.01.2020
4854 Clouds -18 1037 51 0 2.12 121 01:24 06.01.2020
4855 Clouds -18 1037 51 0 2.12 121 00:41 06.01.2020
4856 Clouds -18 1037 51 0 2.12 121 00:20 06.01.2020
4857 Clouds -18 1037 51 0 2.12 121 23:41 05.01.2020
4858 Clouds -18 1037 51 0 2.12 121 23:22 05.01.2020
4859 Clouds -17 1037 50 0 2.23 114 22:56 05.01.2020
4860 Clouds -17 1037 50 0 2.23 114 22:37 05.01.2020
4861 Clouds -17 1037 50 0 2.23 114 22:19 05.01.2020
4862 Clouds -17 1037 50 0 2.23 114 21:54 05.01.2020
4863 Clouds -17 1037 50 0 2.23 114 21:36 05.01.2020
4864 Clouds -17 1037 50 0 2.23 114 21:18 05.01.2020
4865 Clouds -17 1037 50 0 2.23 114 21:18 05.01.2020
4866 Clouds -17 1037 50 0 2.23 114 20:54 05.01.2020
4867 Clouds -17 1037 50 0 2.23 114 20:36 05.01.2020
4868 Clouds -17 1037 50 0 2.23 114 20:36 05.01.2020
4869 Clouds -17 1037 50 0 1.89 111 20:18 05.01.2020
4870 Clouds -17 1037 50 0 1.89 111 19:41 05.01.2020
4871 Clouds -17 1037 50 0 1.89 111 19:21 05.01.2020
4872 Clouds -17 1037 50 0 1.89 111 18:56 05.01.2020
4873 Clouds -17 1037 50 0 1.89 111 18:38 05.01.2020
4874 Clouds -17 1037 50 0 1.89 111 18:20 05.01.2020
4875 Clouds -17 1037 50 0 1.89 111 17:59 05.01.2020
4876 Clouds -17 1037 50 0 1.89 111 17:59 05.01.2020
4877 Clouds -17 1037 50 0 1.89 111 17:39 05.01.2020
4878 Clouds -17 1036 48 0 1.9 117 17:20 05.01.2020
4879 Clouds -17 1036 48 0 1.9 117 16:57 05.01.2020
4880 Clouds -17 1036 48 0 1.9 117 16:39 05.01.2020
4881 Clouds -17 1036 48 0 1.9 117 16:20 05.01.2020
4882 Clouds -17 1036 48 0 1.9 117 15:40 05.01.2020
4883 Clouds -17 1036 48 0 1.9 117 15:22 05.01.2020
4884 Clouds -17 1036 48 0 1.9 117 15:22 05.01.2020
4885 Clouds -17 1036 48 0 1.9 117 14:57 05.01.2020
4886 Clouds -17 1036 48 0 1.9 117 14:39 05.01.2020
4887 Clouds -16 1035 52 0 2.06 95 14:21 05.01.2020
4888 Clouds -16 1035 52 0 2.06 95 13:58 05.01.2020
4889 Clouds -16 1035 52 0 2.06 95 13:38 05.01.2020
4890 Clouds -16 1035 52 0 2.06 95 13:20 05.01.2020
4891 Clouds -15 1035 53 0 1.51 100 12:56 05.01.2020
4892 Clouds -15 1035 53 0 1.51 100 12:38 05.01.2020
4893 Clouds -15 1035 53 0 1.51 100 12:19 05.01.2020
4894 Clouds -15 1035 53 0 1.51 100 11:54 05.01.2020
4895 Clouds -15 1035 53 0 1.51 100 11:54 05.01.2020
4896 Clouds -15 1035 53 0 1.51 100 11:36 05.01.2020
4897 Clouds -15 1035 53 0 1.51 100 11:36 05.01.2020
4898 Clouds -15 1034 64 0 0.93 77 11:18 05.01.2020
4899 Clouds -15 1034 64 0 0.93 77 10:40 05.01.2020
4900 Clouds -15 1034 64 0 0.93 77 10:20 05.01.2020
4901 Clouds -15 1034 64 0 0.93 77 09:43 05.01.2020
4902 Clouds -15 1034 64 0 0.93 77 09:22 05.01.2020
4903 Clouds -15 1034 64 0 0.93 77 08:56 05.01.2020
4904 Clouds -15 1034 64 0 0.93 77 08:38 05.01.2020
4905 Clear -13 1034 71 0 0.6 60 08:20 05.01.2020
4906 Clear -13 1034 71 0 0.6 60 07:39 05.01.2020
4907 Clear -13 1034 71 0 0.6 60 07:21 05.01.2020
4908 Clear -13 1034 71 0 0.6 60 06:47 05.01.2020
4909 Clear -13 1034 71 0 0.6 60 05:39 05.01.2020
4910 Clear -17 1036 70 0 1.79 105 04:56 05.01.2020
4911 Clear -17 1036 70 0 1.79 105 04:19 05.01.2020
4912 Clear -17 1036 70 0 1.79 105 03:31 05.01.2020
4913 Clear -17 1036 70 0 1.79 105 02:33 05.01.2020
4914 Clear -20 1036 78 0 1.75 108 01:49 05.01.2020
4915 Clear -20 1035 79 0 1.78 110 01:20 05.01.2020
4916 Clear -20 1035 79 0 1.78 110 00:57 05.01.2020
4917 Clear -20 1035 79 0 1.78 110 00:39 05.01.2020
4918 Clear -20 1035 79 0 1.78 110 00:19 05.01.2020
4919 Clear -20 1035 79 0 1.78 110 23:41 04.01.2020
4920 Clear -20 1035 81 0 1.45 103 23:20 04.01.2020
4921 Clear -20 1035 81 0 1.45 103 22:56 04.01.2020
4922 Clear -20 1035 81 0 1.45 103 22:38 04.01.2020
4923 Clear -20 1035 81 0 1.45 103 22:20 04.01.2020
4924 Clear -20 1035 81 0 1.45 103 21:55 04.01.2020
4925 Clear -20 1035 81 0 1.45 103 21:36 04.01.2020
4926 Clear -20 1035 81 0 1.45 103 21:18 04.01.2020
4927 Clear -20 1035 81 0 1.45 103 20:41 04.01.2020
4928 Clear -20 1035 81 0 1.31 113 20:22 04.01.2020
4929 Clear -20 1034 81 0 1.15 113 19:57 04.01.2020
4930 Clear -20 1034 81 0 1.15 113 19:39 04.01.2020
4931 Clear -20 1034 81 0 1.15 113 19:21 04.01.2020
4932 Clear -20 1034 81 0 1.15 113 18:57 04.01.2020
4933 Clear -20 1034 81 0 1.15 113 18:38 04.01.2020
4934 Clear -20 1034 81 0 1.15 113 18:19 04.01.2020
4935 Clear -20 1034 81 0 1.15 113 17:42 04.01.2020
4936 Clear -20 1034 81 0 1.15 113 17:42 04.01.2020
4937 Clear -20 1034 81 0 1.15 113 17:24 04.01.2020
4938 Clear -20 1034 81 0 1.15 113 17:24 04.01.2020
4939 Clear -20 1033 82 0 1.1 114 16:59 04.01.2020
4940 Clear -20 1033 82 0 1.1 114 16:40 04.01.2020
4941 Clear -20 1033 82 0 1.1 114 16:22 04.01.2020
4942 Clear -20 1033 82 0 1.1 114 16:22 04.01.2020
4943 Clear -20 1033 82 0 1.1 114 15:56 04.01.2020
4944 Clear -20 1033 82 0 1.1 114 15:38 04.01.2020
4945 Clear -20 1033 82 0 1.1 114 15:19 04.01.2020
4946 Clear -20 1033 82 0 1.1 114 14:54 04.01.2020
4947 Clear -20 1033 82 0 1.1 114 14:36 04.01.2020
4948 Clouds -19 1031 82 0 0.91 120 14:18 04.01.2020
4949 Clouds -19 1031 82 0 0.91 120 13:39 04.01.2020
4950 Clouds -19 1031 82 0 0.91 120 13:39 04.01.2020
4951 Clouds -19 1031 83 0 0.8 117 13:20 04.01.2020
4952 Clouds -19 1031 83 0 0.8 117 12:59 04.01.2020
4953 Clouds -19 1031 83 0 0.8 117 12:41 04.01.2020
4954 Clouds -19 1031 83 0 0.8 117 12:19 04.01.2020
4955 Clouds -19 1031 83 0 0.8 117 11:57 04.01.2020
4956 Clouds -19 1031 83 0 0.8 117 11:38 04.01.2020
4957 Clouds -16 1027 79 0 0.45 118 11:19 04.01.2020
4958 Clouds -16 1027 79 0 0.45 118 10:41 04.01.2020
4959 Clouds -16 1027 79 0 0.45 118 10:22 04.01.2020
4960 Clouds -16 1027 79 0 0.45 118 09:50 04.01.2020
4961 Clouds -16 1027 79 0 0.45 118 09:26 04.01.2020
4962 Clouds -16 1027 79 0 0.45 118 08:58 04.01.2020
4963 Clouds -16 1027 79 0 0.45 118 08:39 04.01.2020
4964 Clouds -11 1027 76 0 0.71 287 08:20 04.01.2020
4965 Clouds -11 1027 76 0 0.71 287 07:42 04.01.2020
4966 Clouds -11 1027 76 0 0.71 287 06:52 04.01.2020
4967 Clouds -11 1027 76 0 0.71 287 06:33 04.01.2020
4968 Clouds -14 1030 71 0 2.02 127 05:18 04.01.2020
4969 Clouds -14 1030 71 0 2.02 127 04:33 04.01.2020
4970 Clouds -14 1030 71 0 2.02 127 03:43 04.01.2020
4971 Clouds -14 1030 71 0 2.02 127 03:18 04.01.2020
4972 Clouds -16 1029 68 0 2.8 119 02:21 04.01.2020
4973 Clouds -16 1029 68 0 2.8 119 01:53 04.01.2020
4974 Clouds -16 1029 68 0 2.8 119 01:30 04.01.2020
4975 Clear -16 1030 69 0 2.68 120 00:41 04.01.2020
4976 Clear -16 1030 69 0 2.68 120 00:22 04.01.2020
4977 Clear -16 1030 69 0 2.68 120 23:42 03.01.2020
4978 Clear -16 1030 69 0 2.68 120 23:23 03.01.2020
4979 Clear -15 1029 68 0 2.73 123 22:41 03.01.2020
4980 Clear -15 1029 68 0 2.73 123 22:20 03.01.2020
4981 Clear -15 1029 68 0 2.73 123 21:58 03.01.2020
4982 Clear -15 1029 68 0 2.73 123 21:38 03.01.2020
4983 Clear -15 1029 68 0 2.73 123 21:19 03.01.2020
4984 Clear -15 1029 68 0 2.73 123 21:19 03.01.2020
4985 Clear -15 1029 68 0 2.73 123 20:58 03.01.2020
4986 Clear -15 1029 68 0 2.73 123 20:40 03.01.2020
4987 Clear -15 1030 66 0 3.04 118 20:18 03.01.2020
4988 Clear -15 1030 66 0 3.04 118 19:56 03.01.2020
4989 Clear -15 1030 66 0 3.04 118 19:37 03.01.2020
4990 Clear -15 1030 66 0 3.04 118 19:19 03.01.2020
4991 Clear -15 1030 66 0 3.04 118 18:43 03.01.2020
4992 Clear -15 1030 66 0 3.04 118 18:24 03.01.2020
4993 Clear -15 1030 66 0 3.04 118 17:55 03.01.2020
4994 Clear -15 1030 66 0 3.04 118 17:37 03.01.2020
4995 Clear -15 1030 66 0 3.04 118 17:37 03.01.2020
4996 Clear -14 1030 64 0 2.99 122 17:18 03.01.2020
4997 Clear -14 1030 64 0 2.99 122 17:18 03.01.2020
4998 Clear -14 1030 64 0 2.99 122 16:42 03.01.2020
4999 Clear -14 1030 64 0 2.99 122 16:22 03.01.2020
5000 Clear -14 1030 64 0 2.99 122 15:44 03.01.2020
5001 Clear -14 1030 64 0 2.99 122 15:19 03.01.2020
5002 Clear -14 1030 64 0 2.99 122 14:59 03.01.2020
5003 Clear -14 1030 64 0 2.99 122 14:38 03.01.2020
5004 Clear -13 1031 62 0 2.94 118 14:19 03.01.2020
5005 Clear -13 1031 62 0 2.94 118 13:44 03.01.2020
5006 Clear -13 1030 62 0 2.95 117 13:24 03.01.2020
5007 Clear -13 1030 62 0 2.95 117 12:58 03.01.2020
5008 Clear -13 1030 62 0 2.95 117 12:39 03.01.2020
5009 Clear -13 1030 62 0 2.95 117 12:21 03.01.2020
5010 Clear -13 1030 62 0 2.95 117 11:44 03.01.2020
5011 Clear -11 1028 66 0 2.48 115 11:21 03.01.2020
5012 Clear -11 1028 66 0 2.48 115 10:44 03.01.2020
5013 Clear -11 1028 66 0 2.48 115 10:26 03.01.2020
5014 Clear -11 1028 66 0 2.48 115 09:58 03.01.2020
5015 Clear -11 1028 66 0 2.48 115 09:39 03.01.2020
5016 Clear -11 1028 66 0 2.48 115 09:21 03.01.2020
5017 Clear -11 1028 66 0 2.48 115 08:56 03.01.2020
5018 Clear -11 1028 66 0 2.48 115 08:38 03.01.2020
5019 Clear -9 1030 71 0 2.12 122 08:19 03.01.2020
5020 Clear -9 1030 71 0 2.12 122 07:40 03.01.2020
5021 Clear -9 1030 71 0 2.12 122 07:18 03.01.2020
5022 Clear -9 1030 71 0 2.12 122 07:18 03.01.2020
5023 Clear -9 1030 71 0 2.12 122 06:47 03.01.2020
5024 Clear -9 1030 71 0 2.12 122 06:29 03.01.2020
5025 Clear -9 1030 71 0 2.12 122 05:39 03.01.2020
5026 Clear -13 1032 63 0 2.88 117 04:21 03.01.2020
5027 Clear -13 1032 63 0 2.88 117 02:56 03.01.2020
5028 Clear -13 1032 63 0 2.88 117 02:33 03.01.2020
5029 Clear -14 1033 61 0 2.99 117 01:42 03.01.2020
5030 Clear -14 1033 61 0 2.99 117 01:42 03.01.2020
5031 Clear -14 1033 58 0 2.92 119 00:50 03.01.2020
5032 Clear -14 1033 58 0 2.92 119 00:29 03.01.2020
5033 Clear -14 1033 58 0 2.92 119 23:55 02.01.2020
5034 Clear -14 1033 58 0 2.92 119 23:37 02.01.2020
5035 Clear -14 1033 48 0 2.96 116 23:18 02.01.2020
5036 Clear -14 1033 48 0 2.96 116 22:45 02.01.2020
5037 Clear -14 1033 48 0 2.96 116 22:21 02.01.2020
5038 Clear -14 1033 48 0 2.96 116 21:59 02.01.2020
5039 Clear -14 1033 48 0 2.96 116 21:41 02.01.2020
5040 Clear -14 1033 48 0 2.96 116 21:23 02.01.2020
5041 Clear -14 1033 48 0 2.96 116 20:58 02.01.2020
5042 Clear -14 1033 48 0 2.96 116 20:39 02.01.2020
5043 Clear -14 1034 44 0 2.99 118 20:20 02.01.2020
5044 Clear -14 1034 44 0 2.99 118 19:55 02.01.2020
5045 Clear -14 1034 44 0 2.99 118 19:37 02.01.2020
5046 Clear -14 1034 44 0 2.99 118 19:37 02.01.2020
5047 Clear -14 1034 44 0 2.99 118 19:19 02.01.2020
5048 Clear -14 1034 44 0 2.99 118 18:56 02.01.2020
5049 Clear -14 1034 44 0 2.99 118 18:37 02.01.2020
5050 Clear -14 1034 44 0 2.99 118 18:19 02.01.2020
5051 Clear -14 1034 44 0 2.99 118 17:55 02.01.2020
5052 Clear -14 1034 44 0 2.99 118 17:36 02.01.2020
5053 Clear -14 1034 44 0 3.2 120 17:18 02.01.2020
5054 Clear -14 1034 44 0 3.2 120 17:18 02.01.2020
5055 Clear -14 1034 44 0 3.2 120 16:54 02.01.2020
5056 Clear -14 1034 44 0 3.2 120 16:36 02.01.2020
5057 Clear -14 1034 44 0 3.2 120 16:18 02.01.2020
5058 Clear -14 1034 44 0 3.2 120 15:41 02.01.2020
5059 Clear -14 1034 44 0 3.2 120 15:23 02.01.2020
5060 Clear -14 1034 44 0 3.2 120 14:57 02.01.2020
5061 Clear -14 1034 44 0 3.2 120 14:57 02.01.2020
5062 Clear -14 1034 44 0 3.2 120 14:37 02.01.2020
5063 Clear -14 1034 47 0 2.99 118 14:18 02.01.2020
5064 Clear -14 1034 47 0 2.99 118 13:55 02.01.2020
5065 Clear -14 1034 47 0 2.97 118 13:36 02.01.2020
5066 Clear -14 1034 47 0 2.97 118 12:58 02.01.2020
5067 Clear -14 1034 47 0 2.97 118 12:39 02.01.2020
5068 Clear -14 1034 47 0 2.97 118 12:20 02.01.2020
5069 Clear -14 1034 47 0 2.97 118 11:41 02.01.2020
5070 Clear -12 1032 56 0 2.19 124 11:20 02.01.2020
5071 Clear -12 1032 56 0 2.19 124 10:45 02.01.2020
5072 Clear -12 1032 56 0 2.19 124 10:27 02.01.2020
5073 Clear -12 1032 56 0 2.19 124 09:56 02.01.2020
5074 Clear -12 1032 56 0 2.19 124 09:35 02.01.2020
5075 Clear -12 1032 56 0 2.19 124 08:53 02.01.2020
5076 Clear -12 1032 56 0 2.25 121 08:32 02.01.2020
5077 Clear -9 1032 66 0 1.93 134 07:58 02.01.2020
5078 Clear -9 1032 66 0 1.93 134 07:31 02.01.2020
5079 Clear -9 1032 66 0 1.93 134 06:57 02.01.2020
5080 Clear -9 1032 66 0 1.93 134 06:39 02.01.2020
5081 Clear -9 1032 66 0 1.93 134 05:38 02.01.2020
5082 Clear -13 1035 55 0 2.39 129 04:34 02.01.2020
5083 Clear -13 1035 55 0 2.39 129 03:23 02.01.2020
5084 Clear -15 1034 53 0 2.28 127 02:20 02.01.2020
5085 Clear -15 1034 53 0 2.28 127 01:48 02.01.2020
5086 Clear -15 1034 53 0 2.28 127 01:23 02.01.2020
5087 Clear -14 1034 55 0 2.28 128 00:38 02.01.2020
5088 Clear -14 1034 55 0 2.28 128 00:38 02.01.2020
5089 Clear -14 1034 55 0 2.28 128 00:19 02.01.2020
5090 Clear -14 1034 55 0 2.28 128 23:41 01.01.2020
5091 Clear -14 1033 56 0 2.2 130 23:21 01.01.2020
5092 Clear -14 1033 56 0 2.2 130 22:38 01.01.2020
5093 Clear -14 1033 56 0 2.2 130 22:20 01.01.2020
5094 Clear -14 1033 56 0 2.2 130 21:58 01.01.2020
5095 Clear -14 1033 56 0 2.2 130 21:39 01.01.2020
5096 Clear -14 1033 56 0 2.2 130 21:20 01.01.2020
5097 Clear -14 1033 56 0 2.2 130 20:56 01.01.2020
5098 Clear -14 1033 56 0 2.2 130 20:38 01.01.2020
5099 Clear -14 1032 57 0 2.27 129 20:19 01.01.2020
5100 Clouds -15 1032 58 0 2.08 130 19:55 01.01.2020
5101 Clouds -15 1032 58 0 2.08 130 19:55 01.01.2020
5102 Clouds -15 1032 58 0 2.08 130 19:55 01.01.2020
5103 Clouds -15 1032 58 0 2.08 130 19:55 01.01.2020
5104 Clouds -15 1032 58 0 2.08 130 19:37 01.01.2020
5105 Clouds -15 1032 58 0 2.08 130 19:19 01.01.2020
5106 Clouds -15 1032 58 0 2.08 130 18:56 01.01.2020
5107 Clouds -15 1032 58 0 2.08 130 18:36 01.01.2020
5108 Clouds -15 1032 58 0 2.08 130 18:18 01.01.2020
5109 Clouds -15 1032 58 0 2.08 130 17:56 01.01.2020
5110 Clouds -15 1032 58 0 2.08 130 17:38 01.01.2020
5111 Clouds -14 1031 57 0 2.14 137 17:19 01.01.2020
5112 Clouds -14 1031 57 0 2.14 137 16:42 01.01.2020
5113 Clouds -14 1031 57 0 2.14 137 16:23 01.01.2020
5114 Clouds -14 1031 57 0 2.14 137 15:58 01.01.2020
5115 Clouds -14 1031 57 0 2.14 137 15:40 01.01.2020
5116 Clouds -14 1031 57 0 2.14 137 15:21 01.01.2020
5117 Clouds -14 1031 57 0 2.14 137 14:59 01.01.2020
5118 Clouds -14 1031 57 0 2.14 137 14:40 01.01.2020
5119 Clouds -12 1031 58 0 2.36 130 14:21 01.01.2020
5120 Clouds -12 1031 58 0 2.36 130 13:56 01.01.2020
5121 Clouds -12 1031 58 0 2.36 130 13:37 01.01.2020
5122 Clouds -12 1031 58 0 2.36 130 13:37 01.01.2020
5123 Clouds -12 1031 58 0 2.36 130 13:37 01.01.2020
5124 Clouds -12 1030 57 0 2.65 133 13:18 01.01.2020
5125 Clouds -12 1030 57 0 2.65 133 12:56 01.01.2020
5126 Clouds -12 1030 57 0 2.65 133 12:56 01.01.2020
5127 Clouds -12 1030 57 0 2.65 133 12:38 01.01.2020
5128 Clouds -12 1030 57 0 2.65 133 12:18 01.01.2020
5129 Clouds -12 1030 57 0 2.65 133 11:43 01.01.2020
5130 Clouds -12 1030 57 0 2.65 133 11:23 01.01.2020
5131 Clouds -11 1029 64 0 2.4 135 10:59 01.01.2020
5132 Clouds -11 1029 64 0 2.4 135 10:41 01.01.2020
5133 Clouds -11 1029 64 0 2.4 135 10:21 01.01.2020
5134 Clouds -11 1029 64 0 2.4 135 10:21 01.01.2020
5135 Clouds -11 1029 64 0 2.4 135 09:58 01.01.2020
5136 Clouds -11 1029 64 0 2.4 135 09:37 01.01.2020
5137 Clouds -11 1029 64 0 2.4 135 09:18 01.01.2020
5138 Clouds -11 1029 64 0 2.4 135 09:18 01.01.2020
5139 Clouds -11 1029 64 0 2.4 135 08:55 01.01.2020
5140 Clouds -11 1029 64 0 2.4 135 08:36 01.01.2020
5141 Clear -10 1029 70 0 1.87 135 08:18 01.01.2020
5142 Clear -10 1029 70 0 1.87 135 07:54 01.01.2020
5143 Clear -10 1029 70 0 1.87 135 07:35 01.01.2020
5144 Clear -10 1029 70 0 1.87 135 06:44 01.01.2020
5145 Clear -10 1029 70 0 1.87 135 06:20 01.01.2020
5146 Clear -13 1032 62 0 2.49 122 05:22 01.01.2020
5147 Clear -13 1032 62 0 2.49 122 03:45 01.01.2020
5148 Clear -13 1032 62 0 2.49 122 03:23 01.01.2020
5149 Clear -13 1032 62 0 2.49 122 02:57 01.01.2020
5150 Clear -13 1032 62 0 2.49 122 02:35 01.01.2020
5151 Clear -15 1031 64 0 2.33 118 01:56 01.01.2020
5152 Clear -15 1031 64 0 2.33 118 01:38 01.01.2020
5153 Clear -15 1031 64 0 2.5 119 01:19 01.01.2020
5154 Clear -15 1031 64 0 2.5 119 00:44 01.01.2020
5155 Clear -15 1031 64 0 2.5 119 00:25 01.01.2020
5156 Clear -15 1031 64 0 2.5 119 23:41 31.12.2019
5157 Clear -15 1030 63 0 1.77 122 23:21 31.12.2019
5158 Clear -15 1030 63 0 1.77 122 22:57 31.12.2019
5159 Clear -15 1030 63 0 1.77 122 22:39 31.12.2019
5160 Clear -15 1030 63 0 1.77 122 22:20 31.12.2019
5161 Clear -15 1030 63 0 1.77 122 21:57 31.12.2019
5162 Clear -15 1030 63 0 1.77 122 21:38 31.12.2019
5163 Clear -15 1030 63 0 1.77 122 21:20 31.12.2019
5164 Clear -15 1030 63 0 1.77 122 20:55 31.12.2019
5165 Clear -15 1030 63 0 1.77 122 20:36 31.12.2019
5166 Clear -16 1029 60 0 1.16 129 20:18 31.12.2019
5167 Clouds -16 1029 60 0 1.17 128 19:42 31.12.2019
5168 Clouds -16 1029 60 0 1.17 128 19:24 31.12.2019
5169 Clouds -16 1029 60 0 1.17 128 18:59 31.12.2019
5170 Clouds -16 1029 60 0 1.17 128 18:40 31.12.2019
5171 Clouds -16 1029 60 0 1.17 128 18:20 31.12.2019
5172 Clouds -16 1029 60 0 1.17 128 17:57 31.12.2019
5173 Clouds -16 1029 60 0 1.17 128 17:38 31.12.2019
5174 Clouds -15 1029 54 0 1.2 144 17:19 31.12.2019
5175 Clouds -15 1029 54 0 1.2 144 16:57 31.12.2019
5176 Clouds -15 1029 54 0 1.2 144 16:38 31.12.2019
5177 Clouds -15 1029 54 0 1.2 144 16:19 31.12.2019
5178 Clouds -15 1029 54 0 1.2 144 15:57 31.12.2019
5179 Clouds -15 1029 54 0 1.2 144 15:39 31.12.2019
5180 Clouds -15 1029 54 0 1.2 144 15:21 31.12.2019
5181 Clouds -15 1029 54 0 1.2 144 14:58 31.12.2019
5182 Clouds -15 1029 54 0 1.2 144 14:39 31.12.2019
5183 Clouds -15 1027 52 0 1.2 139 14:19 31.12.2019
5184 Clouds -15 1027 52 0 1.2 139 13:58 31.12.2019
5185 Clouds -15 1027 52 0 1.2 139 13:40 31.12.2019
5186 Clouds -14 1027 50 0 1.38 141 13:21 31.12.2019
5187 Clouds -14 1027 50 0 1.38 141 12:58 31.12.2019
5188 Clouds -14 1027 50 0 1.38 141 12:40 31.12.2019
5189 Clouds -14 1027 50 0 1.38 141 12:20 31.12.2019
5190 Clouds -14 1027 50 0 1.38 141 11:56 31.12.2019
5191 Clouds -14 1027 50 0 1.38 141 11:38 31.12.2019
5192 Clouds -14 1027 50 0 1.38 141 11:38 31.12.2019
5193 Clouds -14 1026 57 0 0.63 176 11:20 31.12.2019
5194 Clouds -14 1026 57 0 0.63 176 10:58 31.12.2019
5195 Clouds -14 1026 57 0 0.63 176 10:38 31.12.2019
5196 Clouds -14 1026 57 0 0.63 176 10:20 31.12.2019
5197 Clouds -14 1026 57 0 0.63 176 09:59 31.12.2019
5198 Clouds -14 1026 57 0 0.63 176 09:39 31.12.2019
5199 Clouds -14 1026 57 0 0.63 176 09:20 31.12.2019
5200 Clouds -14 1026 57 0 0.63 176 08:57 31.12.2019
5201 Clouds -14 1026 57 0 0.63 176 08:39 31.12.2019
5202 Clear -10 1025 62 0 1.3 149 08:19 31.12.2019
5203 Clear -10 1025 62 0 1.3 149 07:43 31.12.2019
5204 Clear -10 1025 62 0 1.3 149 07:21 31.12.2019
5205 Clear -10 1025 62 0 1.3 149 06:50 31.12.2019
5206 Clear -10 1025 62 0 1.3 149 05:57 31.12.2019
5207 Clear -14 1028 45 0 2.42 126 04:29 31.12.2019
5208 Clear -14 1028 45 0 2.42 126 03:28 31.12.2019
5209 Clear -14 1028 45 0 2.42 126 02:54 31.12.2019
5210 Clear -16 1029 30 0 2.61 127 02:18 31.12.2019
5211 Clear -16 1029 30 0 2.61 127 01:42 31.12.2019
5212 Clear -16 1029 30 0 2.69 126 01:23 31.12.2019
5213 Clear -16 1029 30 0 2.69 126 00:46 31.12.2019
5214 Clear -16 1029 30 0 2.69 126 00:22 31.12.2019
5215 Clear -16 1029 30 0 2.69 126 23:56 30.12.2019
5216 Clear -16 1029 30 0 2.69 126 23:38 30.12.2019
5217 Clear -17 1031 27 0 2.55 124 23:20 30.12.2019
5218 Clear -17 1031 27 0 2.55 124 22:57 30.12.2019
5219 Clear -17 1031 27 0 2.55 124 22:38 30.12.2019
5220 Clear -17 1031 27 0 2.55 124 22:19 30.12.2019
5221 Clear -17 1031 27 0 2.55 124 21:56 30.12.2019
5222 Clear -17 1031 27 0 2.55 124 21:38 30.12.2019
5223 Clear -17 1031 27 0 2.55 124 21:18 30.12.2019
5224 Clear -17 1031 27 0 2.55 124 20:56 30.12.2019
5225 Clear -17 1031 27 0 2.55 124 20:38 30.12.2019
5226 Clear -18 1033 26 0 2.55 129 20:19 30.12.2019
5227 Clear -18 1033 25 0 2.46 124 19:57 30.12.2019
5228 Clear -18 1033 25 0 2.46 124 19:37 30.12.2019
5229 Clear -18 1033 25 0 2.46 124 19:19 30.12.2019
5230 Clear -18 1033 25 0 2.46 124 18:56 30.12.2019
5231 Clear -18 1033 25 0 2.46 124 18:37 30.12.2019
5232 Clear -18 1033 25 0 2.46 124 18:19 30.12.2019
5233 Clear -18 1033 25 0 2.46 124 17:55 30.12.2019
5234 Clear -18 1033 25 0 2.46 124 17:36 30.12.2019
5235 Clear -19 1035 23 0 2.32 132 17:18 30.12.2019
5236 Clear -19 1035 23 0 2.32 132 16:54 30.12.2019
5237 Clear -19 1035 23 0 2.32 132 16:36 30.12.2019
5238 Clear -19 1035 23 0 2.32 132 16:18 30.12.2019
5239 Clear -19 1035 23 0 2.32 132 15:54 30.12.2019
5240 Clear -19 1035 23 0 2.32 132 15:36 30.12.2019
5241 Clear -19 1035 23 0 2.32 132 15:18 30.12.2019
5242 Clear -19 1035 23 0 2.32 132 14:42 30.12.2019
5243 Clouds -19 1035 24 0 2.1 135 14:19 30.12.2019
5244 Clouds -19 1035 24 0 2.1 135 13:54 30.12.2019
5245 Clouds -19 1035 24 0 2.1 135 13:36 30.12.2019
5246 Clouds -18 1034 26 0 2.1 135 13:18 30.12.2019
5247 Clouds -18 1034 26 0 2.1 135 12:42 30.12.2019
5248 Clouds -18 1034 26 0 2.1 135 12:20 30.12.2019
5249 Clouds -18 1034 26 0 2.1 135 11:58 30.12.2019
5250 Clouds -18 1034 26 0 2.1 135 11:39 30.12.2019
5251 Clouds -15 1034 37 0 2.08 138 11:19 30.12.2019
5252 Clouds -15 1034 37 0 2.08 138 10:43 30.12.2019
5253 Clouds -15 1034 37 0 2.08 138 10:21 30.12.2019
5254 Clouds -15 1034 37 0 2.08 138 09:57 30.12.2019
5255 Clouds -15 1034 37 0 2.08 138 09:37 30.12.2019
5256 Clouds -15 1034 37 0 2.08 138 09:19 30.12.2019
5257 Clouds -15 1034 37 0 2.08 138 08:49 30.12.2019
5258 Clouds -15 1034 39 0 1.78 138 08:23 30.12.2019
5259 Clouds -14 1034 49 0 2.23 127 07:55 30.12.2019
5260 Clouds -14 1034 49 0 2.23 127 07:33 30.12.2019
5261 Clouds -14 1034 49 0 2.23 127 06:51 30.12.2019
5262 Clear -18 1039 30 0 2.78 123 04:56 30.12.2019
5263 Clear -18 1039 30 0 2.78 123 03:53 30.12.2019
5264 Clear -18 1039 30 0 2.78 123 02:50 30.12.2019
5265 Clear -18 1039 30 0 2.78 123 02:32 30.12.2019
5266 Clear -21 1041 17 0 2.83 125 01:50 30.12.2019
5267 Clear -21 1040 18 0 2.96 126 01:20 30.12.2019
5268 Clear -21 1040 18 0 2.96 126 00:43 30.12.2019
5269 Clear -21 1040 18 0 2.96 126 00:18 30.12.2019
5270 Clear -21 1040 18 0 2.96 126 23:39 29.12.2019
5271 Clear -22 1042 17 0 2.86 118 23:21 29.12.2019
5272 Clear -22 1042 17 0 2.86 118 22:42 29.12.2019
5273 Clear -22 1042 17 0 2.86 118 22:23 29.12.2019
5274 Clear -22 1042 17 0 2.86 118 21:59 29.12.2019
5275 Clear -22 1042 17 0 2.86 118 21:41 29.12.2019
5276 Clear -22 1042 17 0 2.86 118 21:20 29.12.2019
5277 Clear -22 1042 17 0 2.86 118 21:20 29.12.2019
5278 Clear -22 1042 17 0 2.86 118 20:57 29.12.2019
5279 Clear -22 1042 17 0 2.86 118 20:39 29.12.2019
5280 Clear -24 1044 16 0 2.51 115 20:20 29.12.2019
5281 Clear -24 1044 16 0 2.51 115 19:58 29.12.2019
5282 Clear -24 1044 16 0 2.51 115 19:39 29.12.2019
5283 Clear -24 1044 16 0 2.51 115 19:20 29.12.2019
5284 Clear -24 1044 16 0 2.51 115 18:57 29.12.2019
5285 Clear -24 1044 16 0 2.51 115 18:38 29.12.2019
5286 Clear -24 1044 16 0 2.51 115 18:19 29.12.2019
5287 Clear -24 1044 16 0 2.51 115 17:57 29.12.2019
5288 Clear -24 1044 16 0 2.51 115 17:39 29.12.2019
5289 Clear -26 1046 27 0 2.32 121 17:20 29.12.2019
5290 Clear -26 1046 27 0 2.32 121 16:56 29.12.2019
5291 Clear -26 1046 27 0 2.32 121 16:37 29.12.2019
5292 Clear -26 1046 27 0 2.32 121 16:19 29.12.2019
5293 Clear -26 1046 27 0 2.32 121 15:57 29.12.2019
5294 Clear -26 1046 27 0 2.32 121 15:38 29.12.2019
5295 Clear -26 1046 27 0 2.32 121 15:19 29.12.2019
5296 Clear -26 1046 27 0 2.32 121 14:56 29.12.2019
5297 Clear -26 1046 27 0 2.32 121 14:38 29.12.2019
5298 Clear -28 1046 34 0 2.22 109 14:18 29.12.2019
5299 Clear -28 1046 34 0 2.22 109 13:57 29.12.2019
5300 Clear -28 1046 34 0 2.22 109 13:37 29.12.2019
5301 Clear -28 1046 34 0 2.22 109 13:37 29.12.2019
5302 Clear -28 1046 35 0 2.26 108 13:18 29.12.2019
5303 Clear -28 1046 35 0 2.26 108 13:18 29.12.2019
5304 Clear -28 1046 35 0 2.26 108 12:44 29.12.2019
5305 Clear -28 1046 35 0 2.26 108 12:25 29.12.2019
5306 Clear -28 1046 35 0 2.26 108 12:25 29.12.2019
5307 Clear -28 1046 35 0 2.26 108 11:56 29.12.2019
5308 Clear -28 1046 35 0 2.26 108 11:38 29.12.2019
5309 Clear -29 1045 47 0 0.82 110 11:20 29.12.2019
5310 Clear -29 1045 47 0 0.82 110 10:42 29.12.2019
5311 Clear -29 1045 47 0 0.82 110 10:23 29.12.2019
5312 Clear -29 1045 47 0 0.82 110 09:57 29.12.2019
5313 Clear -29 1045 47 0 0.82 110 09:38 29.12.2019
5314 Clear -29 1045 47 0 0.82 110 09:20 29.12.2019
5315 Clear -29 1045 47 0 0.82 110 08:47 29.12.2019
5316 Clear -29 1045 47 0 0.82 110 08:24 29.12.2019
5317 Clear -25 1044 62 0 0.52 116 07:55 29.12.2019
5318 Clear -25 1044 62 0 0.52 116 07:28 29.12.2019
5319 Clear -25 1044 62 0 0.52 116 06:53 29.12.2019
5320 Clear -25 1044 62 0 0.52 116 06:24 29.12.2019
5321 Clear -25 1044 62 0 0.52 116 05:51 29.12.2019
5322 Clear -30 1047 49 0 1.7 102 04:36 29.12.2019
5323 Clear -30 1047 49 0 1.7 102 03:51 29.12.2019
5324 Clear -30 1047 49 0 1.7 102 03:20 29.12.2019
5325 Clear -32 1048 54 0 1.95 102 02:20 29.12.2019
5326 Clear -32 1048 54 0 1.95 102 01:31 29.12.2019
5327 Clear -32 1048 55 0 1.98 103 00:57 29.12.2019
5328 Clear -32 1048 55 0 1.98 103 00:39 29.12.2019
5329 Clear -32 1048 55 0 1.98 103 00:21 29.12.2019
5330 Clear -32 1048 55 0 1.98 103 23:42 28.12.2019
5331 Clear -33 1047 60 0 1.63 108 23:18 28.12.2019
5332 Clear -33 1047 60 0 1.63 108 22:39 28.12.2019
5333 Clear -33 1047 60 0 1.63 108 22:20 28.12.2019
5334 Clear -33 1047 60 0 1.63 108 22:20 28.12.2019
5335 Clear -33 1047 60 0 1.63 108 21:58 28.12.2019
5336 Clear -33 1047 60 0 1.63 108 21:39 28.12.2019
5337 Clear -33 1047 60 0 1.63 108 21:39 28.12.2019
5338 Clear -33 1047 60 0 1.63 108 21:20 28.12.2019
5339 Clear -33 1047 60 0 1.63 108 20:57 28.12.2019
5340 Clear -33 1047 60 0 1.63 108 20:37 28.12.2019
5341 Clear -33 1046 64 0 1.71 108 20:19 28.12.2019
5342 Clear -33 1046 64 0 1.71 108 19:55 28.12.2019
5343 Clear -33 1046 64 0 1.71 108 19:37 28.12.2019
5344 Clear -33 1046 64 0 1.71 108 19:18 28.12.2019
5345 Clear -33 1046 64 0 1.71 108 18:56 28.12.2019
5346 Clear -33 1046 64 0 1.71 108 18:38 28.12.2019
5347 Clear -33 1046 64 0 1.71 108 18:18 28.12.2019
5348 Clear -33 1046 64 0 1.71 108 17:42 28.12.2019
5349 Clear -32 1045 77 0 2.11 96 17:21 28.12.2019
5350 Clear -32 1045 77 0 2.11 96 16:58 28.12.2019
5351 Clear -32 1045 77 0 2.11 96 16:40 28.12.2019
5352 Clear -32 1045 77 0 2.11 96 16:21 28.12.2019
5353 Clear -32 1045 77 0 2.11 96 15:43 28.12.2019
5354 Clear -32 1045 77 0 2.11 96 15:22 28.12.2019
5355 Clear -32 1045 77 0 2.11 96 14:55 28.12.2019
5356 Clear -32 1045 77 0 2.11 96 14:37 28.12.2019
5357 Clear -32 1042 91 0 1.36 86 14:18 28.12.2019
5358 Clear -32 1042 91 0 1.36 86 13:42 28.12.2019
5359 Clear -32 1042 90 0 1.47 89 13:21 28.12.2019
5360 Clear -32 1042 90 0 1.47 89 13:21 28.12.2019
5361 Clear -32 1042 90 0 1.47 89 12:58 28.12.2019
5362 Clear -32 1042 90 0 1.47 89 12:40 28.12.2019
5363 Clear -32 1042 90 0 1.47 89 12:21 28.12.2019
5364 Clear -32 1042 90 0 1.47 89 11:40 28.12.2019
5365 Clear -30 1036 90 0 0.97 322 11:21 28.12.2019
5366 Clear -30 1036 90 0 0.97 322 10:57 28.12.2019
5367 Clear -30 1036 90 0 0.97 322 10:38 28.12.2019
5368 Clear -30 1036 90 0 0.97 322 10:19 28.12.2019
5369 Clear -30 1036 90 0 0.97 322 09:54 28.12.2019
5370 Clear -30 1036 90 0 0.97 322 09:36 28.12.2019
5371 Clear -30 1036 90 0 0.97 322 09:18 28.12.2019
5372 Clear -30 1036 90 0 0.97 322 08:42 28.12.2019
5373 Clear -30 1036 89 0 0.8 336 08:23 28.12.2019
5374 Clouds -24 1033 78 0 1.46 303 07:47 28.12.2019
5375 Clouds -24 1033 78 0 1.46 303 07:22 28.12.2019
5376 Clouds -24 1033 78 0 1.46 303 05:46 28.12.2019
5377 Clouds -28 1032 69 0 0.72 306 03:48 28.12.2019
5378 Clouds -28 1032 69 0 0.72 306 02:51 28.12.2019
5379 Clouds -28 1028 78 0 0.24 151 02:20 28.12.2019
5380 Clouds -28 1028 78 0 0.24 151 01:55 28.12.2019
5381 Clouds -27 1028 71 0 0.44 266 01:23 28.12.2019
5382 Clouds -27 1028 71 0 0.44 266 00:48 28.12.2019
5383 Clouds -27 1028 71 0 0.44 266 00:30 28.12.2019
5384 Clouds -27 1028 71 0 0.44 266 23:58 27.12.2019
5385 Clouds -27 1028 71 0 0.44 266 23:58 27.12.2019
5386 Clouds -27 1028 71 0 0.44 266 23:38 27.12.2019
5387 Clouds -24 1024 94 0 1.54 31 23:18 27.12.2019
5388 Clouds -24 1024 94 0 1.54 31 22:55 27.12.2019
5389 Clouds -24 1024 94 0 1.54 31 22:37 27.12.2019
5390 Clouds -24 1024 94 0 1.54 31 22:19 27.12.2019
5391 Clouds -24 1024 94 0 1.54 31 21:43 27.12.2019
5392 Clouds -24 1024 94 0 1.54 31 21:24 27.12.2019
5393 Clouds -24 1024 94 0 1.54 31 20:45 27.12.2019
5394 Clouds -24 1024 94 0 1.54 31 20:26 27.12.2019
5395 Snow -20 1021 99 0 1.32 39 19:59 27.12.2019
5396 Snow -20 1021 99 0 1.32 39 19:40 27.12.2019
5397 Snow -20 1021 99 0 1.32 39 19:19 27.12.2019
5398 Snow -20 1021 99 0 1.32 39 18:56 27.12.2019
5399 Snow -20 1021 99 0 1.32 39 18:37 27.12.2019
5400 Snow -20 1021 99 0 1.32 39 18:18 27.12.2019
5401 Snow -20 1021 99 0 1.32 39 17:55 27.12.2019
5402 Snow -20 1021 99 0 1.32 39 17:55 27.12.2019
5403 Snow -20 1021 99 0 1.32 39 17:37 27.12.2019
5404 Snow -16 1018 97 0 1.72 302 17:18 27.12.2019
5405 Snow -16 1018 97 0 1.72 302 16:41 27.12.2019
5406 Snow -16 1018 97 0 1.72 302 16:23 27.12.2019
5407 Snow -16 1018 97 0 1.72 302 15:58 27.12.2019
5408 Snow -16 1018 97 0 1.72 302 15:37 27.12.2019
5409 Snow -16 1018 97 0 1.72 302 15:37 27.12.2019
5410 Snow -16 1018 97 0 1.72 302 15:19 27.12.2019
5411 Snow -16 1018 97 0 1.72 302 14:56 27.12.2019
5412 Snow -16 1018 97 0 1.72 302 14:38 27.12.2019
5413 Snow -14 1017 96 0 1.65 260 14:19 27.12.2019
5414 Snow -14 1017 96 0 1.65 260 13:47 27.12.2019
5415 Snow -14 1016 96 0 1.28 253 13:24 27.12.2019
5416 Snow -14 1016 96 0 1.28 253 12:53 27.12.2019
5417 Snow -14 1016 96 0 1.28 253 12:32 27.12.2019
5418 Snow -14 1016 96 0 1.28 253 11:59 27.12.2019
5419 Snow -14 1016 96 0 1.28 253 11:41 27.12.2019
5420 Snow -13 1014 95 0 2 243 11:20 27.12.2019
5421 Snow -13 1014 95 0 2 243 10:47 27.12.2019
5422 Snow -13 1014 95 0 2 243 10:24 27.12.2019
5423 Snow -13 1014 95 0 2 243 09:58 27.12.2019
5424 Snow -13 1014 95 0 2 243 09:39 27.12.2019
5425 Snow -13 1014 95 0 2 243 09:21 27.12.2019
5426 Snow -13 1014 95 0 2 243 08:49 27.12.2019
5427 Snow -13 1014 95 0 2 243 08:30 27.12.2019
5428 Snow -12 1015 84 0 1.98 219 07:48 27.12.2019
5429 Snow -12 1015 84 0 1.98 219 07:25 27.12.2019
5430 Snow -12 1015 84 0 1.98 219 06:33 27.12.2019
5431 Snow -12 1016 85 0 1.04 218 04:48 27.12.2019
5432 Snow -12 1016 85 0 1.04 218 02:35 27.12.2019
5433 Clouds -15 1018 68 0 1.28 162 01:48 27.12.2019
5434 Clouds -15 1018 68 0 1.28 162 01:23 27.12.2019
5435 Clouds -15 1018 68 0 1.73 156 00:52 27.12.2019
5436 Clouds -15 1018 68 0 1.73 156 00:34 27.12.2019
5437 Clouds -15 1018 68 0 1.73 156 23:57 26.12.2019
5438 Clouds -15 1018 68 0 1.73 156 23:38 26.12.2019
5439 Clouds -17 1020 70 0 2.47 136 23:20 26.12.2019
5440 Clouds -17 1020 70 0 2.47 136 22:42 26.12.2019
5441 Clouds -17 1020 70 0 2.47 136 22:21 26.12.2019
5442 Clouds -17 1020 70 0 2.47 136 21:56 26.12.2019
5443 Clouds -17 1020 70 0 2.47 136 21:37 26.12.2019
5444 Clouds -17 1020 70 0 2.47 136 21:19 26.12.2019
5445 Clouds -17 1020 70 0 2.47 136 20:44 26.12.2019
5446 Clouds -18 1021 71 0 1.98 158 20:22 26.12.2019
5447 Clouds -18 1021 71 0 1.98 158 19:58 26.12.2019
5448 Clouds -18 1021 71 0 1.98 158 19:39 26.12.2019
5449 Clouds -18 1021 71 0 1.98 158 19:20 26.12.2019
5450 Clouds -18 1021 71 0 1.98 158 18:57 26.12.2019
5451 Clouds -18 1021 71 0 1.98 158 18:38 26.12.2019
5452 Clouds -18 1021 71 0 1.98 158 18:19 26.12.2019
5453 Clouds -18 1021 71 0 1.98 158 17:42 26.12.2019
5454 Clouds -18 1022 64 0 1.8 180 17:22 26.12.2019
5455 Clouds -18 1022 64 0 1.8 180 16:58 26.12.2019
5456 Clouds -18 1022 64 0 1.8 180 16:39 26.12.2019
5457 Clouds -18 1022 64 0 1.8 180 16:20 26.12.2019
5458 Clouds -18 1022 64 0 1.8 180 15:41 26.12.2019
5459 Clouds -18 1022 64 0 1.8 180 15:20 26.12.2019
5460 Clouds -18 1022 64 0 1.8 180 14:54 26.12.2019
5461 Clouds -18 1022 64 0 1.8 180 14:36 26.12.2019
5462 Clouds -15 1022 61 0 1.1 186 14:18 26.12.2019
5463 Clouds -15 1022 61 0 1.1 186 13:42 26.12.2019
5464 Clouds -15 1022 61 0 1.1 186 13:20 26.12.2019
5465 Clouds -14 1021 64 0 1.36 205 12:56 26.12.2019
5466 Clouds -14 1021 64 0 1.36 205 12:56 26.12.2019
5467 Clouds -14 1021 64 0 1.36 205 12:37 26.12.2019
5468 Clouds -14 1021 64 0 1.36 205 12:19 26.12.2019
5469 Clouds -14 1021 64 0 1.36 205 11:56 26.12.2019
5470 Clouds -14 1021 64 0 1.36 205 11:37 26.12.2019
5471 Clouds -14 1021 64 0 1.36 205 11:37 26.12.2019
5472 Clouds -13 1020 62 0 1.4 237 11:19 26.12.2019
5473 Clouds -13 1020 62 0 1.4 237 10:41 26.12.2019
5474 Clouds -13 1020 62 0 1.4 237 10:18 26.12.2019
5475 Clouds -13 1020 62 0 1.4 237 09:43 26.12.2019
5476 Clouds -13 1020 62 0 1.4 237 09:25 26.12.2019
5477 Clouds -13 1020 62 0 1.4 237 08:42 26.12.2019
5478 Clouds -13 1020 65 0 0.88 222 08:23 26.12.2019
5479 Clouds -11 1021 66 0 1.36 251 07:52 26.12.2019
5480 Clouds -11 1021 66 0 1.36 251 07:26 26.12.2019
5481 Clouds -11 1021 66 0 1.36 251 06:48 26.12.2019
5482 Clouds -11 1021 66 0 1.36 251 06:30 26.12.2019
5483 Clouds -11 1021 66 0 1.36 251 05:43 26.12.2019
5484 Clouds -13 1024 57 0 1.17 196 04:38 26.12.2019
5485 Clouds -13 1024 57 0 1.17 196 03:47 26.12.2019
5486 Clouds -13 1024 57 0 1.17 196 02:50 26.12.2019
5487 Clouds -13 1024 57 0 1.17 196 02:32 26.12.2019
5488 Clouds -15 1026 45 0 1.22 156 01:46 26.12.2019
5489 Clouds -15 1026 45 0 1.22 156 01:26 26.12.2019
5490 Clouds -15 1026 48 0 1.12 172 00:48 26.12.2019
5491 Clouds -15 1026 48 0 1.12 172 00:24 26.12.2019
5492 Clouds -15 1026 48 0 1.12 172 00:24 26.12.2019
5493 Clouds -15 1026 48 0 1.12 172 00:24 26.12.2019
5494 Clouds -15 1026 48 0 1.12 172 23:58 25.12.2019
5495 Clouds -15 1026 48 0 1.12 172 23:38 25.12.2019
5496 Clouds -16 1027 43 0 1.15 150 23:20 25.12.2019
5497 Clouds -16 1027 43 0 1.15 150 22:58 25.12.2019
5498 Clouds -16 1027 43 0 1.15 150 22:38 25.12.2019
5499 Clouds -16 1027 43 0 1.15 150 22:38 25.12.2019
5500 Clouds -16 1027 43 0 1.15 150 22:19 25.12.2019
5501 Clouds -16 1027 43 0 1.15 150 21:57 25.12.2019
5502 Clouds -16 1027 43 0 1.15 150 21:39 25.12.2019
5503 Clouds -16 1027 43 0 1.15 150 21:19 25.12.2019
5504 Clouds -16 1027 43 0 1.15 150 20:41 25.12.2019
5505 Clouds -17 1031 49 0 1.17 137 20:21 25.12.2019
5506 Clouds -17 1031 49 0 1.17 137 19:59 25.12.2019
5507 Clouds -17 1031 49 0 1.17 137 19:41 25.12.2019
5508 Clouds -17 1031 49 0 1.17 137 19:22 25.12.2019
5509 Clouds -17 1031 49 0 1.17 137 18:54 25.12.2019
5510 Clouds -17 1031 49 0 1.17 137 18:36 25.12.2019
5511 Clouds -17 1031 49 0 1.17 137 18:18 25.12.2019
5512 Clouds -17 1031 49 0 1.17 137 17:40 25.12.2019
5513 Clouds -20 1033 53 0 1.62 123 17:18 25.12.2019
5514 Clouds -20 1033 53 0 1.62 123 16:55 25.12.2019
5515 Clouds -20 1033 53 0 1.62 123 16:37 25.12.2019
5516 Clouds -20 1033 53 0 1.62 123 16:18 25.12.2019
5517 Clouds -20 1033 53 0 1.62 123 15:56 25.12.2019
5518 Clouds -20 1033 53 0 1.62 123 15:37 25.12.2019
5519 Clouds -20 1033 53 0 1.62 123 15:18 25.12.2019
5520 Clouds -20 1033 53 0 1.62 123 14:55 25.12.2019
5521 Clouds -20 1033 53 0 1.62 123 14:37 25.12.2019
5522 Clouds -21 1036 56 0 1.84 128 14:18 25.12.2019
5523 Clouds -21 1036 56 0 1.84 128 13:42 25.12.2019
5524 Clouds -21 1036 56 0 1.84 128 13:21 25.12.2019
5525 Clouds -21 1037 57 0 1.99 128 12:44 25.12.2019
5526 Clouds -21 1037 57 0 1.99 128 12:22 25.12.2019
5527 Clouds -21 1037 57 0 1.99 128 11:58 25.12.2019
5528 Clouds -21 1037 57 0 1.99 128 11:40 25.12.2019
5529 Clear -23 1037 66 0 1.14 127 11:21 25.12.2019
5530 Clear -23 1037 66 0 1.14 127 10:39 25.12.2019
5531 Clear -23 1037 66 0 1.14 127 10:21 25.12.2019
5532 Clear -23 1037 66 0 1.14 127 09:59 25.12.2019
5533 Clear -23 1037 66 0 1.14 127 09:40 25.12.2019
5534 Clear -23 1037 66 0 1.14 127 09:22 25.12.2019
5535 Clear -23 1037 66 0 1.14 127 08:43 25.12.2019
5536 Clear -23 1037 66 0 1.14 127 08:23 25.12.2019
5537 Clouds -21 1038 83 0 0.57 139 07:43 25.12.2019
5538 Clouds -21 1038 83 0 0.57 139 07:22 25.12.2019
5539 Clouds -21 1038 83 0 0.57 139 06:24 25.12.2019
5540 Clouds -21 1038 83 0 0.57 139 05:50 25.12.2019
5541 Clouds -26 1041 91 0 1.44 121 04:44 25.12.2019
5542 Clouds -26 1041 91 0 1.44 121 04:24 25.12.2019
5543 Clouds -26 1041 91 0 1.44 121 03:43 25.12.2019
5544 Clouds -26 1041 91 0 1.44 121 02:58 25.12.2019
5545 Clouds -26 1041 91 0 1.44 121 02:29 25.12.2019
5546 Clouds -28 1041 99 0 1.63 121 01:44 25.12.2019
5547 Clouds -28 1041 99 0 1.61 122 01:19 25.12.2019
5548 Clouds -28 1041 99 0 1.61 122 00:41 25.12.2019
5549 Clouds -28 1041 99 0 1.61 122 00:23 25.12.2019
5550 Clouds -28 1041 99 0 1.61 122 00:23 25.12.2019
5551 Clouds -28 1041 99 0 1.61 122 23:39 24.12.2019
5552 Clouds -26 1039 100 0 0.89 132 23:20 24.12.2019
5553 Clouds -26 1039 100 0 0.89 132 22:42 24.12.2019
5554 Clouds -26 1039 100 0 0.89 132 22:24 24.12.2019
5555 Clouds -26 1039 100 0 0.89 132 21:59 24.12.2019
5556 Clouds -26 1039 100 0 0.89 132 21:41 24.12.2019
5557 Clouds -26 1039 100 0 0.89 132 21:20 24.12.2019
5558 Clouds -26 1039 100 0 0.89 132 20:42 24.12.2019
5559 Snow -26 1039 100 0 0.72 185 20:22 24.12.2019
5560 Snow -26 1039 100 0 0.72 185 19:49 24.12.2019
5561 Snow -26 1039 100 0 0.72 185 19:22 24.12.2019
5562 Snow -26 1039 100 0 0.72 185 18:59 24.12.2019
5563 Snow -26 1039 100 0 0.72 185 18:40 24.12.2019
5564 Snow -26 1039 100 0 0.72 185 18:18 24.12.2019
5565 Snow -26 1039 100 0 0.72 185 18:18 24.12.2019
5566 Snow -26 1039 100 0 0.72 185 17:44 24.12.2019
5567 Clouds -25 1037 100 0 0.76 221 17:22 24.12.2019
5568 Clouds -25 1037 100 0 0.76 221 16:58 24.12.2019
5569 Clouds -25 1037 100 0 0.76 221 16:39 24.12.2019
5570 Clouds -25 1037 100 0 0.76 221 16:21 24.12.2019
5571 Clouds -25 1037 100 0 0.76 221 15:57 24.12.2019
5572 Clouds -25 1037 100 0 0.76 221 15:37 24.12.2019
5573 Clouds -25 1037 100 0 0.76 221 15:37 24.12.2019
5574 Clouds -25 1037 100 0 0.76 221 15:19 24.12.2019
5575 Clouds -25 1037 100 0 0.76 221 14:58 24.12.2019
5576 Clouds -25 1037 100 0 0.76 221 14:39 24.12.2019
5577 Clouds -24 1035 99 0 0.64 208 14:21 24.12.2019
5578 Clouds -24 1035 99 0 0.64 208 13:56 24.12.2019
5579 Clouds -24 1035 99 0 0.64 208 13:37 24.12.2019
5580 Clouds -24 1035 100 0 0.61 224 13:19 24.12.2019
5581 Clouds -24 1035 100 0 0.61 224 12:56 24.12.2019
5582 Clouds -24 1035 100 0 0.61 224 12:56 24.12.2019
5583 Clouds -24 1035 100 0 0.61 224 12:37 24.12.2019
5584 Clouds -24 1035 100 0 0.61 224 12:19 24.12.2019
5585 Clouds -24 1035 100 0 0.61 224 12:19 24.12.2019
5586 Clouds -24 1035 100 0 0.61 224 11:56 24.12.2019
5587 Clouds -24 1035 100 0 0.61 224 11:37 24.12.2019
5588 Clouds -24 1035 100 0 0.61 224 11:37 24.12.2019
5589 Clouds -24 1031 92 0 0.9 198 11:19 24.12.2019
5590 Clouds -24 1031 92 0 0.9 198 10:56 24.12.2019
5591 Clouds -24 1031 92 0 0.9 198 10:37 24.12.2019
5592 Clouds -24 1031 92 0 0.9 198 10:19 24.12.2019
5593 Clouds -24 1031 92 0 0.9 198 09:55 24.12.2019
5594 Clouds -24 1031 92 0 0.9 198 09:37 24.12.2019
5595 Clouds -24 1031 92 0 0.9 198 09:37 24.12.2019
5596 Clouds -24 1031 92 0 0.9 198 09:19 24.12.2019
5597 Clouds -24 1031 92 0 0.9 198 08:45 24.12.2019
5598 Clouds -24 1031 92 0 0.9 198 08:24 24.12.2019
5599 Clouds -20 1030 91 0 1.34 243 07:46 24.12.2019
5600 Clouds -20 1030 91 0 1.34 243 07:26 24.12.2019
5601 Clouds -20 1030 91 0 1.34 243 06:58 24.12.2019
5602 Clouds -20 1030 91 0 1.34 243 06:38 24.12.2019
5603 Clouds -20 1030 91 0 1.34 243 06:19 24.12.2019
5604 Clouds -20 1030 91 0 1.34 243 05:46 24.12.2019
5605 Clouds -24 1030 91 0 0.88 223 05:18 24.12.2019
5606 Clouds -24 1030 91 0 0.88 223 03:55 24.12.2019
5607 Clouds -24 1030 91 0 0.88 223 03:25 24.12.2019
5608 Clouds -24 1030 91 0 0.88 223 02:25 24.12.2019
5609 Clouds -25 1029 100 0 1.22 131 01:52 24.12.2019
5610 Clouds -25 1029 100 0 1.06 134 01:23 24.12.2019
5611 Clouds -25 1029 100 0 1.06 134 00:47 24.12.2019
5612 Clouds -25 1029 100 0 1.06 134 00:26 24.12.2019
5613 Clouds -25 1029 100 0 1.06 134 23:59 23.12.2019
5614 Clouds -25 1029 100 0 1.06 134 23:41 23.12.2019
5615 Clouds -25 1029 100 0 1.06 134 23:23 23.12.2019
5616 Snow -22 1026 100 0 0.74 233 22:56 23.12.2019
5617 Snow -22 1026 100 0 0.74 233 22:56 23.12.2019
5618 Snow -22 1026 100 0 0.74 233 22:56 23.12.2019
5619 Snow -22 1026 100 0 0.74 233 22:37 23.12.2019
5620 Snow -22 1026 100 0 0.74 233 22:19 23.12.2019
5621 Snow -22 1026 100 0 0.74 233 21:55 23.12.2019
5622 Snow -22 1026 100 0 0.74 233 21:55 23.12.2019
5623 Snow -22 1026 100 0 0.74 233 21:36 23.12.2019
5624 Snow -22 1026 100 0 0.74 233 21:18 23.12.2019
5625 Snow -22 1026 100 0 0.74 233 20:57 23.12.2019
5626 Snow -22 1026 100 0 0.74 233 20:39 23.12.2019
5627 Snow -22 1026 100 0 0.74 233 20:39 23.12.2019
5628 Snow -21 1026 100 0 0.8 242 20:18 23.12.2019
5629 Snow -21 1026 100 0 0.8 242 19:56 23.12.2019
5630 Snow -21 1026 100 0 0.8 242 19:38 23.12.2019
5631 Snow -21 1026 100 0 0.8 242 19:19 23.12.2019
5632 Snow -21 1026 100 0 0.8 242 18:58 23.12.2019
5633 Snow -21 1026 100 0 0.8 242 18:58 23.12.2019
5634 Snow -21 1026 100 0 0.8 242 18:38 23.12.2019
5635 Snow -21 1026 100 0 0.8 242 18:20 23.12.2019
5636 Snow -21 1026 100 0 0.8 242 17:56 23.12.2019
5637 Snow -21 1026 100 0 0.8 242 17:38 23.12.2019
5638 Snow -21 1025 100 0 1.04 197 17:19 23.12.2019
5639 Snow -21 1025 100 0 1.04 197 17:19 23.12.2019
5640 Snow -21 1025 100 0 1.04 197 16:55 23.12.2019
5641 Snow -21 1025 100 0 1.04 197 16:55 23.12.2019
5642 Snow -21 1025 100 0 1.04 197 16:36 23.12.2019
5643 Snow -21 1025 100 0 1.04 197 16:18 23.12.2019
5644 Snow -21 1025 100 0 1.04 197 15:55 23.12.2019
5645 Snow -21 1025 100 0 1.04 197 15:36 23.12.2019
5646 Snow -21 1025 100 0 1.04 197 15:18 23.12.2019
5647 Snow -21 1025 100 0 1.04 197 14:45 23.12.2019
5648 Snow -21 1025 100 0 1.04 197 14:26 23.12.2019
5649 Snow -19 1024 99 0 1.35 259 13:59 23.12.2019
5650 Snow -19 1024 99 0 1.35 259 13:41 23.12.2019
5651 Snow -19 1024 99 0 1.55 250 13:22 23.12.2019
5652 Snow -19 1024 99 0 1.55 250 12:58 23.12.2019
5653 Snow -19 1024 99 0 1.55 250 12:58 23.12.2019
5654 Snow -19 1024 99 0 1.55 250 12:39 23.12.2019
5655 Snow -19 1024 99 0 1.55 250 12:20 23.12.2019
5656 Snow -19 1024 99 0 1.55 250 11:55 23.12.2019
5657 Snow -19 1024 99 0 1.55 250 11:37 23.12.2019
5658 Snow -16 1022 97 0 2.08 277 11:18 23.12.2019
5659 Snow -16 1022 97 0 2.08 277 10:54 23.12.2019
5660 Snow -16 1022 97 0 2.08 277 10:36 23.12.2019
5661 Snow -16 1022 97 0 2.08 277 10:18 23.12.2019
5662 Snow -16 1022 97 0 2.08 277 10:18 23.12.2019
5663 Snow -16 1022 97 0 2.08 277 09:40 23.12.2019
5664 Snow -16 1022 97 0 2.08 277 09:22 23.12.2019
5665 Snow -16 1022 97 0 2.08 277 08:58 23.12.2019
5666 Snow -16 1022 97 0 2.08 277 08:40 23.12.2019
5667 Snow -14 1021 94 0 2.32 286 08:22 23.12.2019
5668 Snow -14 1021 94 0 2.32 286 07:48 23.12.2019
5669 Snow -14 1021 94 0 2.32 286 07:21 23.12.2019
5670 Snow -14 1021 94 0 2.32 286 06:57 23.12.2019
5671 Snow -14 1021 94 0 2.32 286 06:27 23.12.2019
5672 Snow -14 1021 94 0 2.32 286 05:56 23.12.2019
5673 Snow -14 1021 94 0 2.32 286 05:29 23.12.2019
5674 Snow -14 1023 95 0 0.75 235 04:34 23.12.2019
5675 Snow -14 1023 95 0 0.75 235 03:26 23.12.2019
5676 Snow -14 1023 95 0 0.75 235 02:42 23.12.2019
5677 Clouds -16 1025 93 0 1.08 144 02:19 23.12.2019
5678 Clouds -16 1025 93 0 1.08 144 01:43 23.12.2019
5679 Clouds -16 1025 82 0 1.28 122 01:25 23.12.2019
5680 Clouds -16 1025 82 0 1.28 122 00:43 23.12.2019
5681 Clouds -16 1025 82 0 1.28 122 00:23 23.12.2019
5682 Clouds -16 1025 82 0 1.28 122 23:40 22.12.2019
5683 Clouds -17 1025 80 0 2.27 120 23:22 22.12.2019
5684 Clouds -17 1025 80 0 2.27 120 22:58 22.12.2019
5685 Clouds -17 1025 80 0 2.27 120 22:58 22.12.2019
5686 Clouds -17 1025 80 0 2.27 120 22:40 22.12.2019
5687 Clouds -17 1025 80 0 2.27 120 22:21 22.12.2019
5688 Clouds -17 1025 80 0 2.27 120 21:58 22.12.2019
5689 Clouds -17 1025 80 0 2.27 120 21:58 22.12.2019
5690 Clouds -17 1025 80 0 2.27 120 21:40 22.12.2019
5691 Clouds -17 1025 80 0 2.27 120 21:21 22.12.2019
5692 Clouds -17 1025 80 0 2.27 120 20:58 22.12.2019
5693 Clouds -17 1025 80 0 2.27 120 20:39 22.12.2019
5694 Clouds -17 1025 79 0 2.64 121 20:19 22.12.2019
5695 Clouds -17 1025 79 0 2.64 121 19:56 22.12.2019
5696 Clouds -17 1025 79 0 2.64 121 19:37 22.12.2019
5697 Clouds -17 1025 79 0 2.64 121 19:19 22.12.2019
5698 Clouds -17 1025 79 0 2.64 121 18:41 22.12.2019
5699 Clouds -17 1025 79 0 2.64 121 18:23 22.12.2019
5700 Clouds -17 1025 79 0 2.64 121 17:56 22.12.2019
5701 Clouds -17 1025 79 0 2.64 121 17:37 22.12.2019
5702 Clouds -17 1025 79 0 2.64 121 17:37 22.12.2019
5703 Clouds -18 1025 78 0 2.59 128 17:18 22.12.2019
5704 Clouds -18 1025 78 0 2.59 128 16:57 22.12.2019
5705 Clouds -18 1025 78 0 2.59 128 16:38 22.12.2019
5706 Clouds -18 1025 78 0 2.59 128 16:19 22.12.2019
5707 Clouds -18 1025 78 0 2.59 128 15:56 22.12.2019
5708 Clouds -18 1025 78 0 2.59 128 15:37 22.12.2019
5709 Clouds -18 1025 78 0 2.59 128 15:19 22.12.2019
5710 Clouds -18 1025 78 0 2.59 128 14:54 22.12.2019
5711 Clouds -18 1025 78 0 2.59 128 14:36 22.12.2019
5712 Clouds -17 1025 66 0 2.67 122 14:18 22.12.2019
5713 Clouds -17 1025 66 0 2.67 122 13:55 22.12.2019
5714 Clouds -17 1025 66 0 2.67 122 13:36 22.12.2019
5715 Clouds -17 1024 68 0 2.8 122 13:18 22.12.2019
5716 Clouds -17 1024 68 0 2.8 122 13:18 22.12.2019
5717 Clouds -17 1024 68 0 2.8 122 13:18 22.12.2019
5718 Clouds -17 1024 68 0 2.8 122 12:54 22.12.2019
5719 Clouds -17 1024 68 0 2.8 122 12:54 22.12.2019
5720 Clouds -17 1024 68 0 2.8 122 12:54 22.12.2019
5721 Clouds -17 1024 68 0 2.8 122 12:36 22.12.2019
5722 Clouds -17 1024 68 0 2.8 122 12:18 22.12.2019
5723 Clouds -17 1024 68 0 2.8 122 11:39 22.12.2019
5724 Clouds -14 1022 65 0 2.24 126 11:21 22.12.2019
5725 Clouds -14 1022 65 0 2.24 126 10:59 22.12.2019
5726 Clouds -14 1022 65 0 2.24 126 10:40 22.12.2019
5727 Clouds -14 1022 65 0 2.24 126 10:21 22.12.2019
5728 Clouds -14 1022 65 0 2.24 126 09:59 22.12.2019
5729 Clouds -14 1022 65 0 2.24 126 09:40 22.12.2019
5730 Clouds -14 1022 65 0 2.24 126 09:21 22.12.2019
5731 Clouds -14 1022 65 0 2.24 126 08:59 22.12.2019
5732 Clouds -14 1022 65 0 2.24 126 08:37 22.12.2019
5733 Clouds -12 1022 72 0 2.12 119 08:18 22.12.2019
5734 Clouds -12 1022 72 0 2.12 119 08:18 22.12.2019
5735 Clouds -12 1022 72 0 2.12 119 08:18 22.12.2019
5736 Clouds -12 1022 72 0 2.15 118 07:38 22.12.2019
5737 Clouds -12 1022 72 0 2.15 118 07:19 22.12.2019
5738 Clouds -12 1022 72 0 2.15 118 06:40 22.12.2019
5739 Clouds -12 1022 72 0 2.15 118 05:53 22.12.2019
5740 Clouds -16 1025 65 0 2.65 119 05:21 22.12.2019
5741 Clouds -16 1025 65 0 2.65 119 04:29 22.12.2019
5742 Clouds -16 1025 65 0 2.65 119 03:52 22.12.2019
5743 Clouds -16 1025 65 0 2.65 119 02:38 22.12.2019
5744 Clouds -17 1026 60 0 2.8 114 01:42 22.12.2019
5745 Clouds -17 1026 60 0 2.8 114 01:22 22.12.2019
5746 Clouds -17 1026 61 0 2.72 115 00:45 22.12.2019
5747 Clouds -17 1026 61 0 2.72 115 00:22 22.12.2019
5748 Clouds -17 1026 61 0 2.72 115 23:55 21.12.2019
5749 Clouds -17 1026 61 0 2.72 115 23:37 21.12.2019
5750 Clouds -19 1026 56 0 2.64 118 23:18 21.12.2019
5751 Clouds -19 1026 56 0 2.64 118 22:40 21.12.2019
5752 Clouds -19 1026 56 0 2.64 118 22:40 21.12.2019
5753 Clouds -19 1026 56 0 2.64 118 22:19 21.12.2019
5754 Clouds -19 1026 56 0 2.64 118 22:19 21.12.2019
5755 Clouds -19 1026 56 0 2.64 118 21:57 21.12.2019
5756 Clouds -19 1026 56 0 2.64 118 21:37 21.12.2019
5757 Clouds -19 1026 56 0 2.64 118 21:19 21.12.2019
5758 Clouds -19 1026 56 0 2.64 118 20:58 21.12.2019
5759 Clouds -19 1026 56 0 2.64 118 20:39 21.12.2019
5760 Clear -20 1028 56 0 2.29 115 20:21 21.12.2019
5761 Clear -20 1028 56 0 2.29 115 19:58 21.12.2019
5762 Clear -20 1028 56 0 2.29 115 19:40 21.12.2019
5763 Clear -20 1028 56 0 2.29 115 19:19 21.12.2019
5764 Clear -20 1028 56 0 2.29 115 19:19 21.12.2019
5765 Clear -20 1028 56 0 2.29 115 18:45 21.12.2019
5766 Clear -20 1028 56 0 2.29 115 18:24 21.12.2019
5767 Clear -20 1028 56 0 2.29 115 17:57 21.12.2019
5768 Clear -20 1028 56 0 2.29 115 17:39 21.12.2019
5769 Clear -20 1028 56 0 2.29 115 17:39 21.12.2019
5770 Clear -21 1028 68 0 2.14 99 17:21 21.12.2019
5771 Clear -21 1028 68 0 2.14 99 16:58 21.12.2019
5772 Clear -21 1028 68 0 2.14 99 16:40 21.12.2019
5773 Clear -21 1028 68 0 2.14 99 16:18 21.12.2019
5774 Clear -21 1028 68 0 2.14 99 16:18 21.12.2019
5775 Clear -21 1028 68 0 2.14 99 15:57 21.12.2019
5776 Clear -21 1028 68 0 2.14 99 15:57 21.12.2019
5777 Clear -21 1028 68 0 2.14 99 15:38 21.12.2019
5778 Clear -21 1028 68 0 2.14 99 15:19 21.12.2019
5779 Clear -21 1028 68 0 2.14 99 14:55 21.12.2019
5780 Clear -21 1028 68 0 2.14 99 14:37 21.12.2019
5781 Clouds -22 1028 82 0 1.64 101 14:18 21.12.2019
5782 Clouds -22 1028 82 0 1.64 101 13:54 21.12.2019
5783 Clouds -22 1028 82 0 1.64 101 13:36 21.12.2019
5784 Clouds -22 1028 81 0 1.57 102 13:18 21.12.2019
5785 Clouds -22 1028 81 0 1.57 102 12:54 21.12.2019
5786 Clouds -22 1028 81 0 1.57 102 12:36 21.12.2019
5787 Clouds -22 1028 81 0 1.57 102 12:36 21.12.2019
5788 Clouds -22 1028 81 0 1.57 102 12:18 21.12.2019
5789 Clouds -22 1028 81 0 1.57 102 11:41 21.12.2019
5790 Clouds -22 1028 81 0 1.57 102 11:41 21.12.2019
5791 Clouds -22 1028 81 0 1.57 102 11:23 21.12.2019
5792 Clouds -21 1025 98 0 0.8 131 10:42 21.12.2019
5793 Clouds -21 1025 98 0 0.8 131 10:23 21.12.2019
5794 Clouds -21 1025 98 0 0.8 131 10:23 21.12.2019
5795 Clouds -21 1025 98 0 0.8 131 09:59 21.12.2019
5796 Clouds -21 1025 98 0 0.8 131 09:41 21.12.2019
5797 Clouds -21 1025 98 0 0.8 131 09:20 21.12.2019
5798 Clouds -21 1025 98 0 0.8 131 08:56 21.12.2019
5799 Clouds -21 1025 98 0 0.8 131 08:37 21.12.2019
5800 Clouds -17 1024 97 0 1.15 257 08:18 21.12.2019
5801 Clouds -17 1024 98 0 1.12 262 07:41 21.12.2019
5802 Clouds -17 1024 98 0 1.12 262 07:21 21.12.2019
5803 Clouds -17 1024 98 0 1.12 262 06:43 21.12.2019
5804 Clouds -17 1024 98 0 1.12 262 06:25 21.12.2019
5805 Clouds -17 1024 98 0 1.12 262 05:47 21.12.2019
5806 Clouds -20 1026 99 0 1.35 198 04:57 21.12.2019
5807 Clouds -20 1026 99 0 1.35 198 03:56 21.12.2019
5808 Clouds -20 1026 99 0 1.35 198 02:50 21.12.2019
5809 Snow -19 1024 99 0 0.99 208 01:55 21.12.2019
5810 Snow -19 1024 99 0 0.99 208 01:27 21.12.2019
5811 Snow -19 1025 100 0 1.14 210 00:51 21.12.2019
5812 Snow -19 1025 100 0 1.14 210 00:31 21.12.2019
5813 Snow -19 1025 100 0 1.14 210 23:56 20.12.2019
5814 Snow -19 1025 100 0 1.14 210 23:37 20.12.2019
5815 Snow -16 1022 97 0 1.71 270 23:18 20.12.2019
5816 Snow -16 1022 97 0 1.71 270 22:40 20.12.2019
5817 Snow -16 1022 97 0 1.71 270 22:21 20.12.2019
5818 Snow -16 1022 97 0 1.71 270 21:57 20.12.2019
5819 Snow -16 1022 97 0 1.71 270 21:39 20.12.2019
5820 Snow -16 1022 97 0 1.71 270 21:18 20.12.2019
5821 Snow -16 1022 97 0 1.71 270 20:39 20.12.2019
5822 Snow -15 1020 96 0 0.83 349 20:19 20.12.2019
5823 Snow -14 1020 96 0 0.91 314 19:57 20.12.2019
5824 Snow -14 1020 96 0 0.91 314 19:57 20.12.2019
5825 Snow -14 1020 96 0 0.91 314 19:57 20.12.2019
5826 Snow -14 1020 96 0 0.91 314 19:39 20.12.2019
5827 Snow -14 1020 96 0 0.91 314 19:19 20.12.2019
5828 Snow -14 1020 96 0 0.91 314 18:42 20.12.2019
5829 Snow -14 1020 96 0 0.91 314 18:24 20.12.2019
5830 Snow -14 1020 96 0 0.91 314 17:59 20.12.2019
5831 Snow -14 1020 96 0 0.91 314 17:41 20.12.2019
5832 Clouds -15 1020 79 0 2.92 138 17:21 20.12.2019
5833 Clouds -15 1020 79 0 2.92 138 17:21 20.12.2019
5834 Clouds -15 1020 79 0 2.92 138 16:59 20.12.2019
5835 Clouds -15 1020 79 0 2.92 138 16:39 20.12.2019
5836 Clouds -15 1020 79 0 2.92 138 16:20 20.12.2019
5837 Clouds -15 1020 79 0 2.92 138 15:56 20.12.2019
5838 Clouds -15 1020 79 0 2.92 138 15:38 20.12.2019
5839 Clouds -15 1020 79 0 2.92 138 15:19 20.12.2019
5840 Clouds -15 1020 79 0 2.92 138 14:43 20.12.2019
5841 Clouds -15 1020 79 0 2.92 138 14:25 20.12.2019
5842 Clouds -14 1022 67 0 2.98 117 13:59 20.12.2019
5843 Clouds -14 1022 67 0 2.98 117 13:41 20.12.2019
5844 Clouds -14 1021 67 0 3.12 117 13:20 20.12.2019
5845 Clouds -14 1021 67 0 3.12 117 12:57 20.12.2019
5846 Clouds -14 1021 67 0 3.12 117 12:37 20.12.2019
5847 Clouds -14 1021 67 0 3.12 117 12:19 20.12.2019
5848 Clouds -14 1021 67 0 3.12 117 11:58 20.12.2019
5849 Clouds -14 1021 67 0 3.12 117 11:39 20.12.2019
5850 Clouds -15 1022 66 0 2.37 118 11:19 20.12.2019
5851 Clouds -15 1022 66 0 2.37 118 10:57 20.12.2019
5852 Clouds -15 1022 66 0 2.37 118 10:57 20.12.2019
5853 Clouds -15 1022 66 0 2.37 118 10:38 20.12.2019
5854 Clouds -15 1022 66 0 2.37 118 10:20 20.12.2019
5855 Clouds -15 1022 66 0 2.37 118 09:44 20.12.2019
5856 Clouds -15 1022 66 0 2.37 118 09:22 20.12.2019
5857 Clouds -15 1022 66 0 2.37 118 09:22 20.12.2019
5858 Clouds -15 1022 66 0 2.37 118 08:59 20.12.2019
5859 Clouds -15 1022 66 0 2.37 118 08:41 20.12.2019
5860 Clouds -14 1025 72 0 1.53 125 08:21 20.12.2019
5861 Clouds -14 1025 72 0 1.53 125 07:57 20.12.2019
5862 Clouds -14 1025 72 0 1.53 125 07:38 20.12.2019
5863 Clouds -14 1025 72 0 1.53 125 07:18 20.12.2019
5864 Clouds -14 1025 72 0 1.53 125 06:48 20.12.2019
5865 Clouds -14 1025 72 0 1.53 125 06:29 20.12.2019
5866 Clouds -14 1025 72 0 1.53 125 05:49 20.12.2019
5867 Clear -18 1028 64 0 2.09 121 05:20 20.12.2019
5868 Clear -18 1028 64 0 2.09 121 03:50 20.12.2019
5869 Clear -18 1028 64 0 2.09 121 03:21 20.12.2019
5870 Clear -18 1028 64 0 2.09 121 02:31 20.12.2019
5871 Clear -20 1029 66 0 2 109 01:36 20.12.2019
5872 Clear -20 1029 66 0 2.03 107 00:58 20.12.2019
5873 Clear -20 1029 66 0 2.03 107 00:36 20.12.2019
5874 Clear -20 1029 66 0 2.03 107 23:58 19.12.2019
5875 Clear -20 1029 66 0 2.03 107 23:40 19.12.2019
5876 Clear -21 1030 69 0 1.38 122 23:21 19.12.2019
5877 Clear -21 1030 69 0 1.38 122 23:21 19.12.2019
5878 Clear -21 1030 69 0 1.38 122 22:40 19.12.2019
5879 Clear -21 1030 69 0 1.38 122 22:22 19.12.2019
5880 Clear -21 1030 69 0 1.38 122 21:59 19.12.2019
5881 Clear -21 1030 69 0 1.38 122 21:41 19.12.2019
5882 Clear -21 1030 69 0 1.38 122 21:20 19.12.2019
5883 Clear -21 1030 69 0 1.38 122 20:58 19.12.2019
5884 Clear -21 1030 69 0 1.38 122 20:38 19.12.2019
5885 Clear -22 1031 72 0 1.09 118 20:20 19.12.2019
5886 Clear -21 1031 70 0 1.34 119 19:58 19.12.2019
5887 Clear -21 1031 70 0 1.34 119 19:40 19.12.2019
5888 Clear -21 1031 70 0 1.34 119 19:19 19.12.2019
5889 Clear -21 1031 70 0 1.34 119 19:19 19.12.2019
5890 Clear -21 1031 70 0 1.34 119 19:19 19.12.2019
5891 Clear -21 1031 70 0 1.34 119 19:19 19.12.2019
5892 Clear -21 1031 70 0 1.34 119 19:19 19.12.2019
5893 Clear -21 1031 70 0 1.34 119 18:58 19.12.2019
5894 Clear -21 1031 70 0 1.34 119 18:40 19.12.2019
5895 Clear -21 1031 70 0 1.34 119 18:20 19.12.2019
5896 Clear -21 1031 70 0 1.34 119 17:56 19.12.2019
5897 Clear -21 1031 70 0 1.34 119 17:38 19.12.2019
5898 Clear -21 1032 77 0 1.69 117 17:18 19.12.2019
5899 Clear -21 1032 77 0 1.69 117 17:18 19.12.2019
5900 Clear -21 1032 77 0 1.69 117 16:56 19.12.2019
5901 Clear -21 1032 77 0 1.69 117 16:37 19.12.2019
5902 Clear -21 1032 77 0 1.69 117 16:19 19.12.2019
5903 Clear -21 1032 77 0 1.69 117 15:57 19.12.2019
5904 Clear -21 1032 77 0 1.69 117 15:57 19.12.2019
5905 Clear -21 1032 77 0 1.69 117 15:37 19.12.2019
5906 Clear -21 1032 77 0 1.69 117 15:19 19.12.2019
5907 Clear -21 1032 77 0 1.69 117 15:19 19.12.2019
5908 Clear -21 1032 77 0 1.69 117 14:44 19.12.2019
5909 Clear -22 1033 83 0 1.47 112 14:20 19.12.2019
5910 Clear -22 1033 83 0 1.47 112 13:59 19.12.2019
5911 Clear -22 1033 83 0 1.47 112 13:38 19.12.2019
5912 Clear -22 1033 82 0 1.49 115 13:19 19.12.2019
5913 Clear -22 1033 82 0 1.49 115 12:57 19.12.2019
5914 Clear -22 1033 82 0 1.49 115 12:39 19.12.2019
5915 Clear -22 1033 82 0 1.49 115 12:19 19.12.2019
5916 Clear -22 1033 82 0 1.49 115 11:58 19.12.2019
5917 Clear -22 1033 82 0 1.49 115 11:40 19.12.2019
5918 Clear -21 1032 86 0 0.95 121 11:18 19.12.2019
5919 Clear -21 1032 86 0 0.95 121 10:58 19.12.2019
5920 Clear -21 1032 86 0 0.95 121 10:38 19.12.2019
5921 Clear -21 1032 86 0 0.95 121 10:20 19.12.2019
5922 Clear -21 1032 86 0 0.95 121 09:54 19.12.2019
5923 Clear -21 1032 86 0 0.95 121 09:36 19.12.2019
5924 Clear -21 1032 86 0 0.95 121 09:18 19.12.2019
5925 Clear -21 1032 86 0 0.95 121 08:41 19.12.2019
5926 Clear -18 1034 86 0 0.37 134 08:20 19.12.2019
5927 Clear -18 1034 86 0 0.3 145 07:59 19.12.2019
5928 Clear -18 1034 86 0 0.3 145 07:38 19.12.2019
5929 Clear -18 1034 86 0 0.3 145 07:20 19.12.2019
5930 Clear -18 1034 86 0 0.3 145 06:50 19.12.2019
5931 Clear -18 1034 86 0 0.3 145 06:30 19.12.2019
5932 Clear -18 1034 86 0 0.3 145 05:55 19.12.2019
5933 Clear -18 1034 86 0 0.3 145 05:36 19.12.2019
5934 Clear -22 1037 89 0 1.33 120 04:52 19.12.2019
5935 Clear -22 1037 89 0 1.33 120 03:23 19.12.2019
5936 Clear -22 1037 89 0 1.33 120 02:23 19.12.2019
5937 Clouds -24 1038 96 0 1.7 106 01:23 19.12.2019
5938 Clouds -24 1038 96 0 1.7 106 00:43 19.12.2019
5939 Clouds -24 1038 96 0 1.7 106 00:24 19.12.2019
5940 Clouds -24 1038 96 0 1.7 106 23:57 18.12.2019
5941 Clouds -24 1038 96 0 1.7 106 23:38 18.12.2019
5942 Clouds -24 1038 99 0 0.79 121 23:18 18.12.2019
5943 Clouds -24 1038 99 0 0.79 121 22:55 18.12.2019
5944 Clouds -24 1038 99 0 0.79 121 22:36 18.12.2019
5945 Clouds -24 1038 99 0 0.79 121 22:18 18.12.2019
5946 Clouds -24 1038 99 0 0.79 121 21:55 18.12.2019
5947 Clouds -24 1038 99 0 0.79 121 21:37 18.12.2019
5948 Clouds -24 1038 99 0 0.79 121 21:18 18.12.2019
5949 Clouds -24 1038 99 0 0.79 121 20:54 18.12.2019
5950 Clouds -24 1038 99 0 0.79 121 20:36 18.12.2019
5951 Clouds -21 1039 92 0 0.56 134 20:18 18.12.2019
5952 Clouds -21 1039 88 0 0.82 120 19:54 18.12.2019
5953 Clouds -21 1039 88 0 0.82 120 19:36 18.12.2019
5954 Clouds -21 1039 88 0 0.82 120 19:18 18.12.2019
5955 Clouds -21 1039 88 0 0.82 120 18:43 18.12.2019
5956 Clouds -21 1039 88 0 0.82 120 18:25 18.12.2019
5957 Clouds -21 1039 88 0 0.82 120 17:56 18.12.2019
5958 Clouds -21 1039 88 0 0.82 120 17:38 18.12.2019
5959 Clouds -22 1039 87 0 1 118 17:19 18.12.2019
5960 Clouds -22 1039 87 0 1 118 16:43 18.12.2019
5961 Clouds -22 1039 87 0 1 118 16:43 18.12.2019
5962 Clouds -22 1039 87 0 1 118 16:43 18.12.2019
5963 Clouds -22 1039 87 0 1 118 16:25 18.12.2019
5964 Clouds -22 1039 87 0 1 118 15:59 18.12.2019
5965 Clouds -22 1039 87 0 1 118 15:40 18.12.2019
5966 Clouds -22 1039 87 0 1 118 15:21 18.12.2019
5967 Clouds -22 1039 87 0 1 118 14:59 18.12.2019
5968 Clouds -22 1039 87 0 1 118 14:40 18.12.2019
5969 Clouds -24 1040 90 0 1.16 100 14:20 18.12.2019
5970 Clouds -24 1040 90 0 1.16 100 13:56 18.12.2019
5971 Clouds -24 1040 90 0 1.16 100 13:37 18.12.2019
5972 Clouds -24 1040 86 0 1.27 106 13:19 18.12.2019
5973 Clouds -24 1040 86 0 1.27 106 13:19 18.12.2019
5974 Clouds -24 1040 86 0 1.27 106 12:57 18.12.2019
5975 Clouds -24 1040 86 0 1.27 106 12:37 18.12.2019
5976 Clouds -24 1040 86 0 1.27 106 12:19 18.12.2019
5977 Clouds -24 1040 86 0 1.27 106 11:55 18.12.2019
5978 Clouds -24 1040 86 0 1.27 106 11:36 18.12.2019
5979 Clouds -22 1039 85 0 0.88 101 11:18 18.12.2019
5980 Clouds -22 1039 85 0 0.88 101 10:55 18.12.2019
5981 Clouds -22 1039 85 0 0.88 101 10:37 18.12.2019
5982 Clouds -22 1039 85 0 0.88 101 10:18 18.12.2019
5983 Clouds -22 1039 85 0 0.88 101 09:21 18.12.2019
5984 Clouds -22 1039 85 0 0.88 101 08:58 18.12.2019
5985 Clouds -22 1039 85 0 0.88 101 08:39 18.12.2019
5986 Clouds -18 1039 83 0 0.45 10 08:21 18.12.2019
5987 Clouds -19 1039 82 0 0.41 30 07:43 18.12.2019
5988 Clouds -19 1039 82 0 0.41 30 07:22 18.12.2019
5989 Clouds -19 1039 82 0 0.41 30 06:53 18.12.2019
5990 Clouds -19 1039 82 0 0.41 30 06:26 18.12.2019
5991 Clouds -19 1039 82 0 0.41 30 05:43 18.12.2019
5992 Clouds -22 1042 76 0 1.2 94 04:37 18.12.2019
5993 Clouds -22 1042 76 0 1.2 94 02:50 18.12.2019
5994 Clouds -22 1042 76 0 1.2 94 02:30 18.12.2019
5995 Clear -25 1042 78 0 1.18 100 01:47 18.12.2019
5996 Clear -25 1042 78 0 1.18 100 01:29 18.12.2019
5997 Clear -24 1042 78 0 1.13 98 00:59 18.12.2019
5998 Clear -24 1042 78 0 1.13 98 00:40 18.12.2019
5999 Clear -24 1042 78 0 1.13 98 00:21 18.12.2019
6000 Clear -24 1042 78 0 1.13 98 23:54 17.12.2019
6001 Clear -24 1042 78 0 1.13 98 23:36 17.12.2019
6002 Clear -24 1041 84 0 1.32 98 23:18 17.12.2019
6003 Clear -24 1041 84 0 1.32 98 23:18 17.12.2019
6004 Clear -24 1041 84 0 1.32 98 22:54 17.12.2019
6005 Clear -24 1041 84 0 1.32 98 22:36 17.12.2019
6006 Clear -24 1041 84 0 1.32 98 22:18 17.12.2019
6007 Clear -24 1041 84 0 1.32 98 21:55 17.12.2019
6008 Clear -24 1041 84 0 1.32 98 21:36 17.12.2019
6009 Clear -24 1041 84 0 1.32 98 21:18 17.12.2019
6010 Clear -24 1041 84 0 1.32 98 20:40 17.12.2019
6011 Clear -24 1041 90 0 1.34 93 20:19 17.12.2019
6012 Clear -24 1041 90 0 1.36 98 19:59 17.12.2019
6013 Clear -24 1041 90 0 1.36 98 19:41 17.12.2019
6014 Clear -24 1041 90 0 1.36 98 19:20 17.12.2019
6015 Clear -24 1041 90 0 1.36 98 18:58 17.12.2019
6016 Clear -24 1041 90 0 1.36 98 18:39 17.12.2019
6017 Clear -24 1041 90 0 1.36 98 18:21 17.12.2019
6018 Clear -24 1041 90 0 1.36 98 17:55 17.12.2019
6019 Clear -24 1041 90 0 1.36 98 17:37 17.12.2019
6020 Clear -24 1042 89 0 1.32 92 17:18 17.12.2019
6021 Clear -24 1042 89 0 1.32 92 16:55 17.12.2019
6022 Clear -24 1042 89 0 1.32 92 16:55 17.12.2019
6023 Clear -24 1042 89 0 1.32 92 16:37 17.12.2019
6024 Clear -24 1042 89 0 1.32 92 16:18 17.12.2019
6025 Clear -24 1042 89 0 1.32 92 15:38 17.12.2019
6026 Clear -24 1042 89 0 1.32 92 15:20 17.12.2019
6027 Clear -24 1042 89 0 1.32 92 14:57 17.12.2019
6028 Clear -24 1042 89 0 1.32 92 14:39 17.12.2019
6029 Clear -24 1041 85 0 1.08 101 14:19 17.12.2019
6030 Clear -24 1041 85 0 1.08 101 13:59 17.12.2019
6031 Clear -24 1041 85 0 1.08 101 13:41 17.12.2019
6032 Clear -24 1041 87 0 1.04 98 13:19 17.12.2019
6033 Clear -24 1041 87 0 1.04 98 12:59 17.12.2019
6034 Clear -24 1041 87 0 1.04 98 12:39 17.12.2019
6035 Clear -24 1041 87 0 1.04 98 12:18 17.12.2019
6036 Clear -24 1041 87 0 1.04 98 11:57 17.12.2019
6037 Clear -24 1041 87 0 1.04 98 11:37 17.12.2019
6038 Clear -22 1039 79 0 0.32 113 11:18 17.12.2019
6039 Clear -22 1039 79 0 0.32 113 10:57 17.12.2019
6040 Clear -22 1039 79 0 0.32 113 10:39 17.12.2019
6041 Clear -22 1039 79 0 0.32 113 10:39 17.12.2019
6042 Clear -22 1039 79 0 0.32 113 10:19 17.12.2019
6043 Clear -22 1039 79 0 0.32 113 09:56 17.12.2019
6044 Clear -22 1039 79 0 0.32 113 09:38 17.12.2019
6045 Clear -22 1039 79 0 0.32 113 09:38 17.12.2019
6046 Clear -22 1039 79 0 0.32 113 09:18 17.12.2019
6047 Clear -22 1039 79 0 0.32 113 08:54 17.12.2019
6048 Clear -22 1039 79 0 0.32 113 08:36 17.12.2019
6049 Clear -18 1038 75 0 0.19 302 08:18 17.12.2019
6050 Clear -18 1038 74 0 0.25 294 07:42 17.12.2019
6051 Clear -18 1038 74 0 0.25 294 07:22 17.12.2019
6052 Clear -18 1038 74 0 0.25 294 06:50 17.12.2019
6053 Clear -18 1038 74 0 0.25 294 06:32 17.12.2019
6054 Clear -18 1038 74 0 0.25 294 05:42 17.12.2019
6055 Clear -18 1038 74 0 0.25 294 05:42 17.12.2019
6056 Clear -22 1041 61 0 1.2 111 04:58 17.12.2019
6057 Clear -22 1041 61 0 1.2 111 03:59 17.12.2019
6058 Clear -22 1041 61 0 1.2 111 02:26 17.12.2019
6059 Clear -24 1041 57 0 1.79 110 01:22 17.12.2019
6060 Clear -24 1041 57 0 1.79 110 00:47 17.12.2019
6061 Clear -24 1041 57 0 1.79 110 00:22 17.12.2019
6062 Clear -24 1041 57 0 1.79 110 23:57 16.12.2019
6063 Clear -24 1041 57 0 1.79 110 23:38 16.12.2019
6064 Clear -23 1041 57 0 2.02 113 23:18 16.12.2019
6065 Clear -23 1041 57 0 2.02 113 22:54 16.12.2019
6066 Clear -23 1041 57 0 2.02 113 22:36 16.12.2019
6067 Clear -23 1041 57 0 2.02 113 22:18 16.12.2019
6068 Clear -23 1041 57 0 2.02 113 21:54 16.12.2019
6069 Clear -23 1041 57 0 2.02 113 21:36 16.12.2019
6070 Clear -23 1041 57 0 2.02 113 21:18 16.12.2019
6071 Clear -23 1041 57 0 2.02 113 20:54 16.12.2019
6072 Clear -23 1041 57 0 2.02 113 20:36 16.12.2019
6073 Clear -24 1042 59 0 2.06 102 20:18 16.12.2019
6074 Clear -24 1042 59 0 2.06 102 19:54 16.12.2019
6075 Clear -24 1042 59 0 2.06 102 19:36 16.12.2019
6076 Clear -24 1042 59 0 2.06 102 19:18 16.12.2019
6077 Clear -24 1042 59 0 2.06 102 19:18 16.12.2019
6078 Clear -24 1042 59 0 2.06 102 18:42 16.12.2019
6079 Clear -24 1042 59 0 2.06 102 18:42 16.12.2019
6080 Clear -24 1042 59 0 2.06 102 18:20 16.12.2019
6081 Clear -24 1042 59 0 2.06 102 18:20 16.12.2019
6082 Clear -24 1042 59 0 2.06 102 17:59 16.12.2019
6083 Clear -24 1042 59 0 2.06 102 17:40 16.12.2019
6084 Clear -24 1042 60 0 1.91 105 17:22 16.12.2019
6085 Clear -24 1042 60 0 1.91 105 16:58 16.12.2019
6086 Clear -24 1042 60 0 1.91 105 16:39 16.12.2019
6087 Clear -24 1042 60 0 1.91 105 16:39 16.12.2019
6088 Clear -24 1042 60 0 1.91 105 16:20 16.12.2019
6089 Clear -24 1042 60 0 1.91 105 15:59 16.12.2019
6090 Clear -24 1042 60 0 1.91 105 15:39 16.12.2019
6091 Clear -24 1042 60 0 1.91 105 15:21 16.12.2019
6092 Clear -24 1042 60 0 1.91 105 14:57 16.12.2019
6093 Clear -24 1042 60 0 1.91 105 14:37 16.12.2019
6094 Clear -24 1042 60 0 1.91 105 14:37 16.12.2019
6095 Clear -24 1042 60 0 1.91 105 14:37 16.12.2019
6096 Clear -24 1041 63 0 1.9 99 14:19 16.12.2019
6097 Clear -24 1041 63 0 1.9 99 13:56 16.12.2019
6098 Clear -24 1041 63 0 1.9 99 13:38 16.12.2019
6099 Clear -24 1041 63 0 1.9 99 13:38 16.12.2019
6100 Clear -23 1041 63 0 2.03 99 13:19 16.12.2019
6101 Clear -23 1041 63 0 2.03 99 13:19 16.12.2019
6102 Clear -23 1041 63 0 2.03 99 12:58 16.12.2019
6103 Clear -23 1041 63 0 1.98 98 12:39 16.12.2019
6104 Clear -23 1041 63 0 1.98 98 12:19 16.12.2019
6105 Clear -23 1041 63 0 1.98 98 11:58 16.12.2019
6106 Clear -23 1041 63 0 2.03 99 11:40 16.12.2019
6107 Clear -22 1039 70 0 0.95 94 11:20 16.12.2019
6108 Clear -22 1039 69 0 0.82 84 10:57 16.12.2019
6109 Clear -22 1039 69 0 0.82 84 10:39 16.12.2019
6110 Clear -22 1039 69 0 0.82 84 10:39 16.12.2019
6111 Clear -22 1039 69 0 0.82 84 10:19 16.12.2019
6112 Clear -22 1039 70 0 0.95 94 09:45 16.12.2019
6113 Clear -22 1039 69 0 0.82 84 09:27 16.12.2019
6114 Clear -22 1039 69 0 0.82 84 09:27 16.12.2019
6115 Clear -22 1039 69 0 0.82 84 08:56 16.12.2019
6116 Clear -22 1039 70 0 0.95 94 08:37 16.12.2019
6117 Clear -18 1037 75 0 0.35 48 08:18 16.12.2019
6118 Clear -18 1038 75 0 0.24 12 07:44 16.12.2019
6119 Clear -18 1038 75 0 0.24 12 07:22 16.12.2019
6120 Clear -18 1038 75 0 0.24 12 06:45 16.12.2019
6121 Clear -18 1038 75 0 0.24 12 06:22 16.12.2019
6122 Clear -18 1038 75 0 0.24 12 05:49 16.12.2019
6123 Clear -18 1038 75 0 0.24 12 05:30 16.12.2019
6124 Clear -21 1039 70 0 0.66 104 04:22 16.12.2019
6125 Clouds -22 1038 78 0 1.41 96 02:19 16.12.2019
6126 Clouds -22 1038 78 0 1.41 96 01:44 16.12.2019
6127 Clouds -22 1037 72 0 1.53 92 00:42 16.12.2019
6128 Clouds -22 1037 72 0 1.53 92 00:24 16.12.2019
6129 Clouds -22 1037 72 0 1.53 92 23:58 15.12.2019
6130 Clouds -22 1037 72 0 1.53 92 23:38 15.12.2019
6131 Clouds -19 1035 88 0 1.5 72 23:19 15.12.2019
6132 Clouds -19 1035 88 0 1.5 72 22:55 15.12.2019
6133 Clouds -19 1035 88 0 1.5 72 22:37 15.12.2019
6134 Clouds -19 1035 88 0 1.5 72 22:18 15.12.2019
6135 Clouds -19 1035 88 0 1.5 72 21:55 15.12.2019
6136 Clouds -19 1035 88 0 1.5 72 21:37 15.12.2019
6137 Clouds -19 1035 88 0 1.5 72 21:19 15.12.2019
6138 Clouds -19 1035 88 0 1.5 72 20:55 15.12.2019
6139 Clouds -19 1035 88 0 1.5 72 20:55 15.12.2019
6140 Clouds -19 1035 88 0 1.5 72 20:37 15.12.2019
6141 Clouds -19 1032 93 0 1.41 71 20:18 15.12.2019
6142 Clouds -18 1032 96 0 1.31 79 19:56 15.12.2019
6143 Clouds -19 1032 93 0 1.41 71 19:38 15.12.2019
6144 Clouds -18 1032 96 0 1.31 79 19:18 15.12.2019
6145 Clouds -19 1032 93 0 1.41 71 18:55 15.12.2019
6146 Clouds -19 1032 93 0 1.41 71 18:37 15.12.2019
6147 Clouds -18 1032 96 0 1.31 79 18:18 15.12.2019
6148 Clouds -18 1032 96 0 1.31 79 17:55 15.12.2019
6149 Clouds -18 1032 96 0 1.31 79 17:36 15.12.2019
6150 Clouds -18 1030 91 0 1.11 88 17:18 15.12.2019
6151 Clouds -18 1030 91 0 1.11 88 16:43 15.12.2019
6152 Clouds -18 1030 91 0 1.11 88 16:23 15.12.2019
6153 Clouds -18 1030 93 0 1.18 93 15:57 15.12.2019
6154 Clouds -18 1030 91 0 1.11 88 15:39 15.12.2019
6155 Clouds -18 1030 91 0 1.11 88 15:19 15.12.2019
6156 Clouds -18 1030 91 0 1.11 88 14:56 15.12.2019
6157 Clouds -18 1030 91 0 1.11 88 14:38 15.12.2019
6158 Clouds -18 1030 91 0 1.11 88 14:38 15.12.2019
6159 Clouds -15 1029 86 0 0.32 52 14:19 15.12.2019
6160 Clouds -15 1029 86 0 0.32 52 13:59 15.12.2019
6161 Clouds -15 1028 86 0 0.45 79 13:39 15.12.2019
6162 Clouds -15 1028 86 0 0.45 79 13:20 15.12.2019
6163 Clouds -15 1028 86 0 0.45 79 12:57 15.12.2019
6164 Clouds -15 1028 86 0 0.45 79 12:57 15.12.2019
6165 Clouds -15 1028 86 0 0.45 79 12:39 15.12.2019
6166 Clouds -15 1028 86 0 0.45 79 12:21 15.12.2019
6167 Clouds -15 1028 86 0 0.45 79 11:59 15.12.2019
6168 Clouds -15 1028 86 0 0.45 79 11:37 15.12.2019
6169 Clouds -12 1025 79 0 0.76 295 11:19 15.12.2019
6170 Clouds -12 1025 79 0 0.76 295 10:55 15.12.2019
6171 Clouds -12 1025 79 0 0.76 295 10:37 15.12.2019
6172 Clouds -12 1025 79 0 0.76 295 10:19 15.12.2019
6173 Clouds -12 1025 79 0 0.76 295 09:41 15.12.2019
6174 Clouds -12 1025 79 0 0.76 295 09:20 15.12.2019
6175 Clouds -12 1025 79 0 0.76 295 08:59 15.12.2019
6176 Clouds -12 1025 79 0 0.76 295 08:41 15.12.2019
6177 Clouds -9 1022 73 0 0.19 214 08:22 15.12.2019
6178 Clouds -9 1022 73 0 0.19 214 08:22 15.12.2019
6179 Clouds -9 1022 73 0 0.19 214 07:56 15.12.2019
6180 Clouds -9 1022 73 0 0.19 214 07:36 15.12.2019
6181 Clouds -9 1022 73 0 0.19 214 06:56 15.12.2019
6182 Clouds -9 1022 73 0 0.19 214 06:21 15.12.2019
6183 Clouds -9 1022 73 0 0.19 214 05:37 15.12.2019
6184 Clouds -11 1023 55 0 0.51 160 05:18 15.12.2019
6185 Clouds -11 1023 55 0 0.51 160 03:54 15.12.2019
6186 Clouds -11 1023 55 0 0.51 160 02:34 15.12.2019
6187 Clouds -12 1021 50 0 1.01 133 01:50 15.12.2019
6188 Clouds -12 1021 50 0 1.01 133 01:28 15.12.2019
6189 Clouds -12 1022 50 0 0.79 138 00:59 15.12.2019
6190 Clouds -12 1022 50 0 0.79 138 00:41 15.12.2019
6191 Clouds -12 1022 50 0 0.79 138 00:23 15.12.2019
6192 Clouds -12 1022 50 0 0.79 138 23:40 14.12.2019
6193 Clouds -12 1022 50 0 0.79 138 23:40 14.12.2019
6194 Clouds -12 1022 50 0 0.79 138 23:40 14.12.2019
6195 Clouds -10 1020 51 0 1.96 136 23:21 14.12.2019
6196 Clouds -10 1020 51 0 1.96 136 22:58 14.12.2019
6197 Clouds -10 1020 51 0 1.96 136 22:58 14.12.2019
6198 Clouds -10 1020 51 0 1.96 136 22:58 14.12.2019
6199 Clouds -10 1020 51 0 1.96 136 22:40 14.12.2019
6200 Clouds -10 1020 51 0 1.96 136 22:21 14.12.2019
6201 Clouds -10 1020 51 0 1.96 136 21:56 14.12.2019
6202 Clouds -10 1020 51 0 1.96 136 21:38 14.12.2019
6203 Clouds -10 1020 51 0 1.96 136 21:19 14.12.2019
6204 Clouds -10 1020 51 0 1.96 136 21:19 14.12.2019
6205 Clouds -10 1020 51 0 1.96 136 21:19 14.12.2019
6206 Clouds -10 1020 51 0 1.96 136 20:56 14.12.2019
6207 Clouds -10 1020 51 0 1.96 136 20:38 14.12.2019
6208 Clouds -10 1021 50 0 2.87 120 20:19 14.12.2019
6209 Clouds -10 1021 50 0 2.87 120 19:55 14.12.2019
6210 Clouds -10 1021 50 0 2.87 120 19:36 14.12.2019
6211 Clouds -10 1021 50 0 2.87 120 19:18 14.12.2019
6212 Clouds -10 1021 50 0 2.87 120 18:55 14.12.2019
6213 Clouds -10 1021 50 0 2.87 120 18:36 14.12.2019
6214 Clouds -10 1021 50 0 2.87 120 18:18 14.12.2019
6215 Clouds -10 1021 50 0 2.87 120 17:42 14.12.2019
6216 Clouds -12 1022 48 0 2.85 122 17:22 14.12.2019
6217 Clouds -12 1022 48 0 2.85 122 16:55 14.12.2019
6218 Clouds -12 1022 48 0 2.85 122 16:37 14.12.2019
6219 Clouds -12 1022 48 0 2.85 122 16:18 14.12.2019
6220 Clouds -12 1022 48 0 2.85 122 15:41 14.12.2019
6221 Clouds -12 1022 48 0 2.85 122 15:20 14.12.2019
6222 Clouds -12 1022 48 0 2.85 122 14:57 14.12.2019
6223 Clouds -12 1022 48 0 2.85 122 14:38 14.12.2019
6224 Clear -13 1023 46 0 3.09 116 14:19 14.12.2019
6225 Clear -13 1023 46 0 3.09 116 13:45 14.12.2019
6226 Clear -13 1023 46 0 3.17 120 13:20 14.12.2019
6227 Clear -13 1022 47 0 3.19 118 12:59 14.12.2019
6228 Clear -13 1023 46 0 3.17 120 12:40 14.12.2019
6229 Clear -13 1023 46 0 3.17 120 12:21 14.12.2019
6230 Clear -13 1023 46 0 3.17 120 12:21 14.12.2019
6231 Clear -13 1022 47 0 3.19 118 11:59 14.12.2019
6232 Clear -13 1023 46 0 3.17 120 11:39 14.12.2019
6233 Clear -12 1022 46 0 2.45 117 11:20 14.12.2019
6234 Clear -12 1022 46 0 2.45 117 10:57 14.12.2019
6235 Clear -12 1022 51 0 2.47 122 10:39 14.12.2019
6236 Clear -12 1022 51 0 2.47 122 10:21 14.12.2019
6237 Clear -12 1022 51 0 2.47 122 09:57 14.12.2019
6238 Clear -12 1022 51 0 2.47 122 09:38 14.12.2019
6239 Clear -12 1022 51 0 2.47 122 09:18 14.12.2019
6240 Clear -12 1022 51 0 2.47 122 08:42 14.12.2019
6241 Clear -10 1022 61 0 1.51 122 08:19 14.12.2019
6242 Clear -10 1022 60 0 1.49 124 07:44 14.12.2019
6243 Clear -10 1022 60 0 1.49 124 07:23 14.12.2019
6244 Clear -10 1022 60 0 1.49 124 06:56 14.12.2019
6245 Clear -10 1022 60 0 1.49 124 06:37 14.12.2019
6246 Clear -10 1022 60 0 1.49 124 05:57 14.12.2019
6247 Clear -13 1025 49 0 2.26 129 04:47 14.12.2019
6248 Clear -13 1025 49 0 2.26 129 02:31 14.12.2019
6249 Clear -15 1025 48 0 2.17 115 01:49 14.12.2019
6250 Clear -15 1025 48 0 2.17 115 01:31 14.12.2019
6251 Clear -15 1025 47 0 2.17 116 00:45 14.12.2019
6252 Clear -15 1025 47 0 2.17 116 00:27 14.12.2019
6253 Clear -15 1025 47 0 2.17 116 23:54 13.12.2019
6254 Clear -15 1025 47 0 2.17 116 23:36 13.12.2019
6255 Clear -15 1025 50 0 2.47 121 23:18 13.12.2019
6256 Clear -15 1025 50 0 2.47 121 22:40 13.12.2019
6257 Clear -15 1025 50 0 2.47 121 22:19 13.12.2019
6258 Clear -15 1025 50 0 2.47 121 21:55 13.12.2019
6259 Clear -15 1025 50 0 2.47 121 21:37 13.12.2019
6260 Clear -15 1025 50 0 2.47 121 21:19 13.12.2019
6261 Clear -15 1025 50 0 2.47 121 20:40 13.12.2019
6262 Clear -15 1025 53 0 2.73 121 20:21 13.12.2019
6263 Clear -15 1025 53 0 2.73 121 19:58 13.12.2019
6264 Clear -15 1025 53 0 2.73 121 19:40 13.12.2019
6265 Clear -15 1025 53 0 2.73 121 19:21 13.12.2019
6266 Clear -15 1025 53 0 2.73 121 18:58 13.12.2019
6267 Clear -15 1025 53 0 2.73 121 18:40 13.12.2019
6268 Clear -15 1025 53 0 2.73 121 18:19 13.12.2019
6269 Clear -15 1025 53 0 2.73 121 18:19 13.12.2019
6270 Clear -15 1025 53 0 2.73 121 17:42 13.12.2019
6271 Clear -15 1025 54 0 3.31 125 17:19 13.12.2019
6272 Clear -15 1025 54 0 3.31 125 16:59 13.12.2019
6273 Clear -15 1025 54 0 3.31 125 16:39 13.12.2019
6274 Clear -15 1025 54 0 3.31 125 16:20 13.12.2019
6275 Clear -15 1025 54 0 3.31 125 16:20 13.12.2019
6276 Clear -15 1025 54 0 3.31 125 15:43 13.12.2019
6277 Clear -15 1025 54 0 3.31 125 15:23 13.12.2019
6278 Clear -15 1025 54 0 3.31 125 14:58 13.12.2019
6279 Clear -15 1025 54 0 3.31 125 14:40 13.12.2019
6280 Clouds -15 1025 54 0 3.53 123 14:20 13.12.2019
6281 Clouds -15 1025 54 0 3.53 123 13:56 13.12.2019
6282 Clouds -15 1025 54 0 3.53 123 13:37 13.12.2019
6283 Clouds -15 1024 54 0 3.48 122 13:19 13.12.2019
6284 Clouds -15 1024 54 0 3.48 122 12:42 13.12.2019
6285 Clouds -15 1024 54 0 3.48 122 12:20 13.12.2019
6286 Clouds -15 1024 54 0 3.48 122 12:20 13.12.2019
6287 Clouds -15 1024 54 0 3.48 122 11:57 13.12.2019
6288 Clouds -15 1024 54 0 3.48 122 11:39 13.12.2019
6289 Clouds -13 1024 56 0 3.72 133 11:19 13.12.2019
6290 Clouds -13 1024 56 0 3.72 133 10:41 13.12.2019
6291 Clouds -13 1024 56 0 3.72 133 10:22 13.12.2019
6292 Clouds -13 1024 56 0 3.72 133 09:54 13.12.2019
6293 Clouds -13 1024 56 0 3.72 133 09:36 13.12.2019
6294 Clouds -13 1024 56 0 3.72 133 09:18 13.12.2019
6295 Clouds -13 1024 56 0 3.72 133 09:18 13.12.2019
6296 Clouds -13 1024 56 0 3.72 133 08:40 13.12.2019
6297 Clouds -11 1024 63 0 3.76 129 08:22 13.12.2019
6298 Clouds -11 1024 63 0 3.76 129 07:44 13.12.2019
6299 Clouds -11 1024 63 0 3.76 129 07:20 13.12.2019
6300 Clouds -11 1024 63 0 3.76 129 06:50 13.12.2019
6301 Clouds -11 1024 63 0 3.76 129 06:28 13.12.2019
6302 Clouds -11 1024 63 0 3.76 129 05:44 13.12.2019
6303 Clouds -11 1024 63 0 3.76 129 05:24 13.12.2019
6304 Clouds -13 1027 53 0 4.16 123 04:35 13.12.2019
6305 Clouds -13 1027 53 0 4.16 123 03:31 13.12.2019
6306 Clouds -13 1027 53 0 4.16 123 02:32 13.12.2019
6307 Clouds -14 1027 43 0 4.5 123 01:42 13.12.2019
6308 Clouds -14 1027 42 0 4.49 123 00:53 13.12.2019
6309 Clouds -14 1027 42 0 4.49 123 00:34 13.12.2019
6310 Clouds -14 1027 42 0 4.49 123 23:57 12.12.2019
6311 Clouds -14 1027 42 0 4.49 123 23:37 12.12.2019
6312 Clear -14 1028 40 0 4.26 121 23:19 12.12.2019
6313 Clear -14 1028 40 0 4.26 121 22:42 12.12.2019
6314 Clear -14 1028 40 0 4.26 121 22:23 12.12.2019
6315 Clear -14 1028 40 0 4.26 121 21:57 12.12.2019
6316 Clear -14 1028 40 0 4.26 121 21:39 12.12.2019
6317 Clear -14 1028 40 0 4.26 121 21:20 12.12.2019
6318 Clear -14 1028 40 0 4.26 121 20:59 12.12.2019
6319 Clear -14 1028 40 0 4.26 121 20:41 12.12.2019
6320 Clear -14 1028 40 0 4.39 121 20:23 12.12.2019
6321 Clear -14 1029 39 0 3.87 115 19:59 12.12.2019
6322 Clear -14 1029 39 0 3.87 115 19:41 12.12.2019
6323 Clear -14 1029 39 0 3.87 115 19:21 12.12.2019
6324 Clear -14 1029 39 0 3.87 115 18:58 12.12.2019
6325 Clear -14 1029 39 0 3.87 115 18:39 12.12.2019
6326 Clear -14 1029 39 0 3.87 115 18:20 12.12.2019
6327 Clear -14 1029 39 0 3.87 115 17:57 12.12.2019
6328 Clear -14 1029 39 0 3.87 115 17:39 12.12.2019
6329 Clear -14 1031 42 0 3.44 113 17:20 12.12.2019
6330 Clear -14 1031 42 0 3.44 113 16:57 12.12.2019
6331 Clear -14 1031 42 0 3.44 113 16:38 12.12.2019
6332 Clear -14 1031 42 0 3.44 113 16:20 12.12.2019
6333 Clear -14 1031 42 0 3.44 113 15:56 12.12.2019
6334 Clear -14 1031 42 0 3.44 113 15:37 12.12.2019
6335 Clear -14 1031 42 0 3.44 113 15:18 12.12.2019
6336 Clear -14 1031 42 0 3.44 113 14:38 12.12.2019
6337 Clouds -14 1031 55 0 2.96 109 14:20 12.12.2019
6338 Clouds -14 1031 55 0 2.96 109 13:58 12.12.2019
6339 Clouds -14 1031 55 0 2.96 109 13:39 12.12.2019
6340 Clear -14 1031 55 0 2.9 108 13:21 12.12.2019
6341 Clear -14 1031 55 0 2.9 108 12:58 12.12.2019
6342 Clear -14 1031 55 0 2.9 108 12:40 12.12.2019
6343 Clear -14 1031 55 0 2.9 108 12:21 12.12.2019
6344 Clear -14 1031 55 0 2.9 108 11:56 12.12.2019
6345 Clear -14 1031 55 0 2.9 108 11:38 12.12.2019
6346 Clear -13 1030 57 0 1.75 104 11:19 12.12.2019
6347 Clear -13 1030 57 0 1.75 104 10:55 12.12.2019
6348 Clear -13 1030 57 0 1.75 104 10:55 12.12.2019
6349 Clear -13 1030 57 0 1.75 104 10:37 12.12.2019
6350 Clear -13 1030 57 0 1.75 104 10:19 12.12.2019
6351 Clear -13 1030 57 0 1.75 104 09:42 12.12.2019
6352 Clear -13 1030 57 0 1.75 104 09:24 12.12.2019
6353 Clear -13 1030 57 0 1.75 104 08:58 12.12.2019
6354 Clear -13 1030 57 0 1.75 104 08:38 12.12.2019
6355 Clear -13 1030 57 0 1.75 104 08:38 12.12.2019
6356 Clouds -11 1028 62 0 0.96 61 08:20 12.12.2019
6357 Clouds -11 1028 62 0 0.96 61 07:46 12.12.2019
6358 Clouds -11 1028 62 0 0.96 61 07:25 12.12.2019
6359 Clouds -11 1028 62 0 0.96 61 06:54 12.12.2019
6360 Clouds -11 1028 62 0 0.96 61 06:33 12.12.2019
6361 Clouds -11 1028 62 0 0.96 61 05:40 12.12.2019
6362 Clouds -15 1030 46 0 1.04 69 04:52 12.12.2019
6363 Clouds -15 1030 46 0 1.04 69 04:52 12.12.2019
6364 Clouds -15 1030 46 0 1.04 69 03:31 12.12.2019
6365 Clouds -15 1030 46 0 1.04 69 02:38 12.12.2019
6366 Clouds -16 1028 45 0 0.91 86 02:20 12.12.2019
6367 Clouds -16 1028 45 0 0.91 86 01:40 12.12.2019
6368 Clouds -16 1028 45 0 0.76 91 01:22 12.12.2019
6369 Clouds -16 1028 45 0 0.76 91 00:46 12.12.2019
6370 Clouds -16 1028 45 0 0.76 91 00:20 12.12.2019
6371 Clouds -16 1028 45 0 0.76 91 23:44 11.12.2019
6372 Clouds -15 1027 45 0 0.89 98 23:21 11.12.2019
6373 Clouds -15 1027 45 0 0.89 98 22:57 11.12.2019
6374 Clouds -15 1027 45 0 0.89 98 22:39 11.12.2019
6375 Clouds -15 1027 45 0 0.89 98 22:20 11.12.2019
6376 Clouds -15 1027 45 0 0.89 98 21:57 11.12.2019
6377 Clouds -15 1027 45 0 0.89 98 21:38 11.12.2019
6378 Clouds -15 1027 45 0 0.89 98 21:19 11.12.2019
6379 Clouds -15 1027 45 0 0.89 98 20:56 11.12.2019
6380 Clouds -15 1027 45 0 0.89 98 20:37 11.12.2019
6381 Clear -14 1025 45 0 1.34 115 20:19 11.12.2019
6382 Clear -14 1025 45 0 1.34 115 19:57 11.12.2019
6383 Clear -14 1025 45 0 1.34 115 19:39 11.12.2019
6384 Clear -14 1025 45 0 1.34 115 19:19 11.12.2019
6385 Clear -14 1025 45 0 1.34 115 18:41 11.12.2019
6386 Clear -14 1025 45 0 1.34 115 18:21 11.12.2019
6387 Clear -14 1025 45 0 1.34 115 17:57 11.12.2019
6388 Clear -14 1025 45 0 1.34 115 17:57 11.12.2019
6389 Clear -14 1025 45 0 1.34 115 17:39 11.12.2019
6390 Clear -14 1025 45 0 1.71 119 17:18 11.12.2019
6391 Clear -14 1025 45 0 1.71 119 16:57 11.12.2019
6392 Clear -14 1025 45 0 1.71 119 16:57 11.12.2019
6393 Clear -14 1025 45 0 1.71 119 16:38 11.12.2019
6394 Clear -14 1025 45 0 1.71 119 16:38 11.12.2019
6395 Clear -14 1025 45 0 1.71 119 16:38 11.12.2019
6396 Clear -14 1025 45 0 1.71 119 16:20 11.12.2019
6397 Clear -14 1025 45 0 1.71 119 15:59 11.12.2019
6398 Clear -14 1025 45 0 1.71 119 15:39 11.12.2019
6399 Clear -14 1025 45 0 1.71 119 15:21 11.12.2019
6400 Clear -14 1025 45 0 1.71 119 14:56 11.12.2019
6401 Clear -14 1025 45 0 1.71 119 14:37 11.12.2019
6402 Clear -14 1025 46 0 1.84 117 14:19 11.12.2019
6403 Clear -14 1025 46 0 1.84 117 13:55 11.12.2019
6404 Clear -14 1025 46 0 1.84 117 13:36 11.12.2019
6405 Clear -13 1025 46 0 1.94 117 13:18 11.12.2019
6406 Clear -13 1025 46 0 1.94 117 12:55 11.12.2019
6407 Clear -13 1025 46 0 1.94 117 12:37 11.12.2019
6408 Clear -13 1025 46 0 1.94 117 12:18 11.12.2019
6409 Clear -13 1025 46 0 1.94 117 11:56 11.12.2019
6410 Clear -13 1025 46 0 1.94 117 11:37 11.12.2019
6411 Clear -13 1025 46 0 1.94 117 11:37 11.12.2019
6412 Clear -12 1024 50 0 1.11 115 11:18 11.12.2019
6413 Clear -12 1024 50 0 1.11 115 10:44 11.12.2019
6414 Clear -12 1024 50 0 1.11 115 10:25 11.12.2019
6415 Clear -12 1024 50 0 1.11 115 09:58 11.12.2019
6416 Clear -12 1024 50 0 1.11 115 09:38 11.12.2019
6417 Clear -12 1024 50 0 1.11 115 09:38 11.12.2019
6418 Clear -12 1024 50 0 1.11 115 09:20 11.12.2019
6419 Clear -12 1024 50 0 1.11 115 08:57 11.12.2019
6420 Clear -12 1024 50 0 1.11 115 08:37 11.12.2019
6421 Clear -9 1025 60 0 0.52 126 08:18 11.12.2019
6422 Clear -9 1025 60 0 0.52 126 07:45 11.12.2019
6423 Clear -9 1025 60 0 0.52 126 07:25 11.12.2019
6424 Clear -9 1025 60 0 0.52 126 06:47 11.12.2019
6425 Clear -9 1025 60 0 0.52 126 06:25 11.12.2019
6426 Clear -9 1025 60 0 0.52 126 05:58 11.12.2019
6427 Clear -9 1025 60 0 0.52 126 05:37 11.12.2019
6428 Clear -12 1029 48 0 1.47 122 04:55 11.12.2019
6429 Clear -12 1029 48 0 1.47 122 03:41 11.12.2019
6430 Clear -12 1029 48 0 1.47 122 02:39 11.12.2019
6431 Clear -14 1029 49 0 1.63 115 01:22 11.12.2019
6432 Clear -14 1029 49 0 1.63 115 00:45 11.12.2019
6433 Clear -14 1029 49 0 1.63 115 00:21 11.12.2019
6434 Clear -14 1029 49 0 1.63 115 23:46 10.12.2019
6435 Clear -14 1029 49 0 1.63 115 23:27 10.12.2019
6436 Clear -15 1029 51 0 1.5 116 22:57 10.12.2019
6437 Clear -15 1029 51 0 1.5 116 22:39 10.12.2019
6438 Clear -15 1029 51 0 1.5 116 22:21 10.12.2019
6439 Clear -15 1029 51 0 1.5 116 21:54 10.12.2019
6440 Clear -15 1029 51 0 1.5 116 21:54 10.12.2019
6441 Clear -15 1029 51 0 1.5 116 21:36 10.12.2019
6442 Clear -15 1029 51 0 1.5 116 21:18 10.12.2019
6443 Clear -15 1029 51 0 1.5 116 20:56 10.12.2019
6444 Clear -15 1029 51 0 1.5 116 20:56 10.12.2019
6445 Clear -15 1029 51 0 1.5 116 20:37 10.12.2019
6446 Clear -15 1030 52 0 1.89 119 20:18 10.12.2019
6447 Clear -15 1030 53 0 1.9 121 19:44 10.12.2019
6448 Clear -15 1030 53 0 1.9 121 19:26 10.12.2019
6449 Clear -15 1030 53 0 1.9 121 18:59 10.12.2019
6450 Clear -15 1030 53 0 1.9 121 18:39 10.12.2019
6451 Clear -15 1030 53 0 1.9 121 18:20 10.12.2019
6452 Clear -15 1030 53 0 1.9 121 17:55 10.12.2019
6453 Clear -15 1030 53 0 1.9 121 17:37 10.12.2019
6454 Clear -15 1031 56 0 1.93 116 17:19 10.12.2019
6455 Clear -15 1031 56 0 1.93 116 16:42 10.12.2019
6456 Clear -15 1031 56 0 1.93 116 16:20 10.12.2019
6457 Clear -15 1031 56 0 1.93 116 16:20 10.12.2019
6458 Clear -15 1031 56 0 1.93 116 15:55 10.12.2019
6459 Clear -15 1031 56 0 1.93 116 15:37 10.12.2019
6460 Clear -15 1031 56 0 1.93 116 15:18 10.12.2019
6461 Clear -15 1031 56 0 1.93 116 15:18 10.12.2019
6462 Clear -15 1031 56 0 1.93 116 14:55 10.12.2019
6463 Clear -15 1031 56 0 1.93 116 14:36 10.12.2019
6464 Clear -16 1031 61 0 1.98 105 14:18 10.12.2019
6465 Clear -16 1031 61 0 1.98 105 13:56 10.12.2019
6466 Clear -16 1031 61 0 1.98 105 13:56 10.12.2019
6467 Clear -16 1031 61 0 1.98 105 13:37 10.12.2019
6468 Clear -16 1031 61 0 1.98 105 13:18 10.12.2019
6469 Clear -16 1031 60 0 1.96 104 12:40 10.12.2019
6470 Clear -16 1031 60 0 1.96 104 12:40 10.12.2019
6471 Clear -16 1031 60 0 1.96 104 12:21 10.12.2019
6472 Clear -16 1031 60 0 1.96 104 11:42 10.12.2019
6473 Clear -16 1031 60 0 1.96 104 11:23 10.12.2019
6474 Clear -15 1030 64 0 1.08 107 10:56 10.12.2019
6475 Clear -15 1030 64 0 1.08 107 10:37 10.12.2019
6476 Clear -15 1030 64 0 1.08 107 10:19 10.12.2019
6477 Clear -15 1030 64 0 1.08 107 09:55 10.12.2019
6478 Clear -15 1030 64 0 1.08 107 09:37 10.12.2019
6479 Clear -15 1030 64 0 1.08 107 09:19 10.12.2019
6480 Clear -15 1030 64 0 1.08 107 08:54 10.12.2019
6481 Clear -15 1030 64 0 1.08 107 08:36 10.12.2019
6482 Clear -12 1031 73 0 0.42 75 08:18 10.12.2019
6483 Clear -12 1031 73 0 0.42 75 07:43 10.12.2019
6484 Clear -12 1031 73 0 0.42 75 07:24 10.12.2019
6485 Clear -12 1031 73 0 0.42 75 06:46 10.12.2019
6486 Clear -12 1031 73 0 0.42 75 06:19 10.12.2019
6487 Clear -12 1031 73 0 0.42 75 05:54 10.12.2019
6488 Clear -16 1033 65 0 1.4 91 04:52 10.12.2019
6489 Clear -16 1033 65 0 1.4 91 03:38 10.12.2019
6490 Clear -16 1033 65 0 1.4 91 02:46 10.12.2019
6491 Clouds -18 1034 59 0 1.68 86 01:45 10.12.2019
6492 Clouds -18 1034 61 0 1.75 89 01:21 10.12.2019
6493 Clouds -18 1034 61 0 1.75 89 00:42 10.12.2019
6494 Clouds -18 1034 61 0 1.75 89 00:21 10.12.2019
6495 Clouds -18 1034 61 0 1.75 89 23:42 09.12.2019
6496 Clouds -18 1034 61 0 1.75 89 23:42 09.12.2019
6497 Clouds -18 1034 61 0 1.75 89 23:23 09.12.2019
6498 Clouds -18 1034 61 0 1.75 89 23:23 09.12.2019
6499 Clouds -18 1033 58 0 1.81 95 22:58 09.12.2019
6500 Clouds -18 1033 58 0 1.81 95 22:40 09.12.2019
6501 Clouds -18 1033 58 0 1.81 95 22:20 09.12.2019
6502 Clouds -18 1033 58 0 1.81 95 21:57 09.12.2019
6503 Clouds -18 1033 58 0 1.81 95 21:38 09.12.2019
6504 Clouds -18 1033 58 0 1.81 95 21:19 09.12.2019
6505 Clouds -18 1033 58 0 1.81 95 20:57 09.12.2019
6506 Clouds -18 1033 58 0 1.81 95 20:57 09.12.2019
6507 Clouds -18 1033 58 0 1.81 95 20:39 09.12.2019
6508 Clouds -16 1033 60 0 0.85 84 20:20 09.12.2019
6509 Clouds -16 1034 58 0 0.76 105 19:56 09.12.2019
6510 Clouds -16 1034 58 0 0.76 105 19:37 09.12.2019
6511 Clouds -16 1034 58 0 0.76 105 19:19 09.12.2019
6512 Clouds -16 1034 58 0 0.76 105 18:56 09.12.2019
6513 Clouds -16 1034 58 0 0.76 105 18:38 09.12.2019
6514 Clouds -16 1034 58 0 0.76 105 18:19 09.12.2019
6515 Clouds -16 1034 58 0 0.76 105 17:57 09.12.2019
6516 Clouds -16 1034 58 0 0.76 105 17:39 09.12.2019
6517 Clouds -18 1035 68 0 2.19 90 17:20 09.12.2019
6518 Clouds -18 1035 68 0 2.19 90 16:56 09.12.2019
6519 Clouds -18 1035 68 0 2.19 90 16:37 09.12.2019
6520 Clouds -18 1035 68 0 2.19 90 16:19 09.12.2019
6521 Clouds -18 1035 68 0 2.19 90 15:55 09.12.2019
6522 Clouds -18 1035 68 0 2.19 90 15:37 09.12.2019
6523 Clouds -18 1035 68 0 2.19 90 15:19 09.12.2019
6524 Clouds -18 1035 68 0 2.19 90 14:42 09.12.2019
6525 Clouds -19 1036 96 0 1.74 91 14:19 09.12.2019
6526 Clouds -19 1036 96 0 1.74 91 13:59 09.12.2019
6527 Clouds -19 1036 96 0 1.74 91 13:39 09.12.2019
6528 Clouds -19 1036 91 0 1.78 94 13:20 09.12.2019
6529 Clouds -19 1036 91 0 1.78 94 12:57 09.12.2019
6530 Clouds -19 1036 91 0 1.78 94 12:38 09.12.2019
6531 Clouds -19 1036 91 0 1.78 94 12:20 09.12.2019
6532 Clouds -19 1036 91 0 1.78 94 11:58 09.12.2019
6533 Clouds -19 1036 91 0 1.78 94 11:39 09.12.2019
6534 Clouds -17 1033 100 0 1.24 3 11:21 09.12.2019
6535 Clouds -17 1033 100 0 1.24 3 10:55 09.12.2019
6536 Clouds -17 1033 100 0 1.24 3 10:37 09.12.2019
6537 Clouds -17 1033 100 0 1.24 3 10:18 09.12.2019
6538 Clouds -17 1033 100 0 1.24 3 09:41 09.12.2019
6539 Clouds -17 1033 100 0 1.24 3 09:22 09.12.2019
6540 Clouds -17 1033 100 0 1.24 3 08:55 09.12.2019
6541 Clouds -17 1033 100 0 1.24 3 08:37 09.12.2019
6542 Clouds -12 1031 99 0 1.97 303 08:19 09.12.2019
6543 Clouds -12 1031 99 0 1.97 303 07:42 09.12.2019
6544 Clouds -12 1031 99 0 1.97 303 07:24 09.12.2019
6545 Clouds -12 1031 99 0 1.97 303 06:54 09.12.2019
6546 Clouds -12 1031 99 0 1.97 303 06:27 09.12.2019
6547 Clouds -12 1031 99 0 1.97 303 05:30 09.12.2019
6548 Snow -13 1029 100 0 2.09 298 04:51 09.12.2019
6549 Snow -13 1029 100 0 2.09 298 04:20 09.12.2019
6550 Snow -13 1029 100 0 2.09 298 02:27 09.12.2019
6551 Snow -10 1024 96 0 3.54 285 01:44 09.12.2019
6552 Snow -9 1024 96 0 3.37 281 00:55 09.12.2019
6553 Snow -9 1024 96 0 3.37 281 00:32 09.12.2019
6554 Snow -9 1024 96 0 3.37 281 23:54 08.12.2019
6555 Snow -9 1024 96 0 3.37 281 23:36 08.12.2019
6556 Snow -9 1021 95 0 1.01 224 23:18 08.12.2019
6557 Snow -9 1021 95 0 1.01 224 22:56 08.12.2019
6558 Snow -9 1021 95 0 1.01 224 22:37 08.12.2019
6559 Snow -9 1021 95 0 1.01 224 22:18 08.12.2019
6560 Snow -9 1021 95 0 1.01 224 21:54 08.12.2019
6561 Snow -9 1021 95 0 1.01 224 21:36 08.12.2019
6562 Snow -9 1021 95 0 1.01 224 21:18 08.12.2019
6563 Snow -9 1021 95 0 1.01 224 20:54 08.12.2019
6564 Snow -9 1021 95 0 1.01 224 20:54 08.12.2019
6565 Snow -9 1021 95 0 1.01 224 20:36 08.12.2019
6566 Clouds -10 1021 70 0 0.63 198 20:18 08.12.2019
6567 Clouds -10 1021 70 0 0.63 198 19:42 08.12.2019
6568 Clouds -10 1021 70 0 0.63 198 19:24 08.12.2019
6569 Clouds -10 1021 70 0 0.63 198 18:56 08.12.2019
6570 Clouds -10 1021 70 0 0.63 198 18:37 08.12.2019
6571 Clouds -10 1021 70 0 0.63 198 18:19 08.12.2019
6572 Clouds -10 1021 70 0 0.63 198 17:57 08.12.2019
6573 Clouds -10 1021 70 0 0.63 198 17:39 08.12.2019
6574 Clouds -11 1023 67 0 1.47 150 17:20 08.12.2019
6575 Clouds -11 1023 67 0 1.47 150 16:58 08.12.2019
6576 Clouds -11 1023 67 0 1.47 150 16:40 08.12.2019
6577 Clouds -11 1023 67 0 1.47 150 16:21 08.12.2019
6578 Clouds -11 1023 67 0 1.47 150 15:57 08.12.2019
6579 Clouds -11 1023 67 0 1.47 150 15:37 08.12.2019
6580 Clouds -11 1023 67 0 1.47 150 15:18 08.12.2019
6581 Clouds -11 1023 67 0 1.47 150 14:44 08.12.2019
6582 Clouds -11 1023 67 0 1.47 150 14:25 08.12.2019
6583 Clouds -12 1023 67 0 1.15 139 13:59 08.12.2019
6584 Clouds -12 1023 67 0 1.15 139 13:40 08.12.2019
6585 Clouds -12 1023 67 0 1.15 139 13:22 08.12.2019
6586 Clouds -11 1023 66 0 0.89 136 12:58 08.12.2019
6587 Clouds -11 1023 66 0 0.89 136 12:58 08.12.2019
6588 Clouds -11 1023 66 0 0.89 136 12:38 08.12.2019
6589 Clouds -11 1023 66 0 0.89 136 12:18 08.12.2019
6590 Clouds -11 1023 66 0 0.89 136 11:57 08.12.2019
6591 Clouds -11 1023 66 0 0.89 136 11:37 08.12.2019
6592 Clouds -10 1022 69 0 1 216 11:19 08.12.2019
6593 Clouds -10 1022 69 0 1 216 10:40 08.12.2019
6594 Clouds -10 1022 69 0 1 216 10:22 08.12.2019
6595 Clouds -10 1022 69 0 1 216 09:58 08.12.2019
6596 Clouds -10 1022 69 0 1 216 09:40 08.12.2019
6597 Clouds -10 1022 69 0 1 216 09:21 08.12.2019
6598 Clouds -10 1022 69 0 1 216 08:59 08.12.2019
6599 Clouds -10 1022 69 0 1 216 08:41 08.12.2019
6600 Clouds -6 1022 75 0 1.29 244 08:22 08.12.2019
6601 Clouds -6 1022 75 0 1.29 244 07:49 08.12.2019
6602 Clouds -6 1022 75 0 1.29 244 07:21 08.12.2019
6603 Clouds -6 1022 75 0 1.29 244 06:53 08.12.2019
6604 Clouds -6 1022 75 0 1.29 244 06:23 08.12.2019
6605 Clouds -6 1022 75 0 1.29 244 05:58 08.12.2019
6606 Clouds -8 1024 74 0 1.64 174 05:22 08.12.2019
6607 Clouds -8 1024 74 0 1.64 174 04:20 08.12.2019
6608 Clouds -8 1024 74 0 1.64 174 03:38 08.12.2019
6609 Clouds -8 1024 74 0 1.64 174 02:41 08.12.2019
6610 Clouds -10 1024 54 0 1.16 197 01:57 08.12.2019
6611 Clouds -10 1024 54 0 1.16 197 01:34 08.12.2019
6612 Clouds -10 1024 54 0 1.09 192 00:45 08.12.2019
6613 Clouds -10 1024 54 0 1.09 192 00:21 08.12.2019
6614 Clouds -10 1024 54 0 1.09 192 23:57 07.12.2019
6615 Clouds -10 1024 54 0 1.09 192 23:36 07.12.2019
6616 Clouds -11 1025 52 0 0.82 176 23:18 07.12.2019
6617 Clouds -11 1025 52 0 0.82 176 22:54 07.12.2019
6618 Clouds -11 1025 52 0 0.82 176 22:36 07.12.2019
6619 Clouds -11 1025 52 0 0.82 176 22:18 07.12.2019
6620 Clouds -11 1025 52 0 0.82 176 21:55 07.12.2019
6621 Clouds -11 1025 52 0 0.82 176 21:36 07.12.2019
6622 Clouds -11 1025 52 0 0.82 176 21:18 07.12.2019
6623 Clouds -11 1025 52 0 0.82 176 20:38 07.12.2019
6624 Clouds -11 1026 52 0 1.24 145 20:20 07.12.2019
6625 Clouds -11 1026 52 0 1.24 145 19:57 07.12.2019
6626 Clouds -11 1026 52 0 1.24 145 19:39 07.12.2019
6627 Clouds -11 1026 52 0 1.24 145 19:21 07.12.2019
6628 Clouds -11 1026 52 0 1.24 145 18:58 07.12.2019
6629 Clouds -11 1026 52 0 1.24 145 18:39 07.12.2019
6630 Clouds -11 1026 52 0 1.24 145 18:18 07.12.2019
6631 Clouds -11 1026 52 0 1.24 145 17:55 07.12.2019
6632 Clouds -11 1026 52 0 1.24 145 17:37 07.12.2019
6633 Clouds -12 1027 49 0 1.67 140 17:18 07.12.2019
6634 Clouds -12 1027 49 0 1.67 140 16:55 07.12.2019
6635 Clouds -12 1027 49 0 1.67 140 16:36 07.12.2019
6636 Clouds -12 1027 49 0 1.67 140 16:18 07.12.2019
6637 Clouds -12 1027 49 0 1.67 140 15:40 07.12.2019
6638 Clouds -12 1027 49 0 1.67 140 15:22 07.12.2019
6639 Clouds -12 1027 49 0 1.67 140 14:43 07.12.2019
6640 Clear -14 1028 56 0 1.79 133 14:20 07.12.2019
6641 Clear -14 1028 56 0 1.79 133 13:59 07.12.2019
6642 Clear -14 1028 56 0 1.79 133 13:39 07.12.2019
6643 Clear -14 1028 56 0 1.79 133 13:20 07.12.2019
6644 Clear -14 1028 58 0 1.62 135 13:20 07.12.2019
6645 Clear -14 1028 58 0 1.62 135 12:55 07.12.2019
6646 Clear -14 1028 58 0 1.62 135 12:37 07.12.2019
6647 Clear -14 1028 58 0 1.62 135 12:18 07.12.2019
6648 Clear -14 1028 58 0 1.62 135 11:41 07.12.2019
6649 Clear -14 1028 58 0 1.62 135 11:23 07.12.2019
6650 Clear -13 1026 57 0 1.08 177 10:56 07.12.2019
6651 Clear -13 1026 57 0 1.08 177 10:36 07.12.2019
6652 Clear -13 1026 57 0 1.08 177 10:18 07.12.2019
6653 Clear -13 1026 57 0 1.08 177 09:39 07.12.2019
6654 Clear -13 1026 57 0 1.08 177 09:21 07.12.2019
6655 Clear -13 1026 57 0 1.08 177 08:46 07.12.2019
6656 Clear -12 1026 57 0 1.27 208 08:25 07.12.2019
6657 Clear -12 1026 57 0 1.27 208 08:25 07.12.2019
6658 Clear -12 1026 57 0 1.27 208 08:25 07.12.2019
6659 Clouds -8 1025 60 0 1.45 240 07:53 07.12.2019
6660 Clouds -8 1025 60 0 1.45 240 07:29 07.12.2019
6661 Clouds -8 1025 60 0 1.45 240 06:53 07.12.2019
6662 Clouds -8 1025 60 0 1.45 240 06:27 07.12.2019
6663 Clouds -8 1025 60 0 1.45 240 05:49 07.12.2019
6664 Clouds -8 1026 54 0 0.71 230 04:48 07.12.2019
6665 Clouds -8 1026 54 0 0.71 230 03:51 07.12.2019
6666 Clouds -8 1026 54 0 0.71 230 02:23 07.12.2019
6667 Clouds -9 1026 38 0 1.5 159 01:51 07.12.2019
6668 Clouds -9 1026 38 0 1.5 159 01:25 07.12.2019
6669 Clouds -9 1026 41 0 0.88 145 00:36 07.12.2019
6670 Clouds -9 1026 41 0 0.88 145 00:18 07.12.2019
6671 Clouds -9 1026 41 0 0.88 145 23:42 06.12.2019
6672 Clear -11 1028 29 0 2.2 132 23:20 06.12.2019
6673 Clear -11 1028 29 0 2.2 132 22:39 06.12.2019
6674 Clear -11 1028 29 0 2.2 132 22:21 06.12.2019
6675 Clear -11 1028 29 0 2.2 132 21:59 06.12.2019
6676 Clear -11 1028 29 0 2.2 132 21:41 06.12.2019
6677 Clear -11 1028 29 0 2.2 132 21:21 06.12.2019
6678 Clear -11 1028 29 0 2.2 132 20:59 06.12.2019
6679 Clear -11 1028 29 0 2.2 132 20:41 06.12.2019
6680 Clear -12 1028 32 0 2.27 131 20:20 06.12.2019
6681 Clear -12 1028 32 0 2.27 131 19:42 06.12.2019
6682 Clear -12 1028 32 0 2.27 131 19:24 06.12.2019
6683 Clear -12 1028 32 0 2.27 131 18:59 06.12.2019
6684 Clear -12 1028 32 0 2.27 131 18:40 06.12.2019
6685 Clear -12 1028 32 0 2.27 131 18:21 06.12.2019
6686 Clear -12 1028 32 0 2.27 131 17:58 06.12.2019
6687 Clear -12 1028 32 0 2.27 131 17:40 06.12.2019
6688 Clear -12 1028 32 0 2.27 131 17:40 06.12.2019
6689 Clear -12 1030 36 0 2.62 129 17:22 06.12.2019
6690 Clear -12 1030 36 0 2.62 129 16:57 06.12.2019
6691 Clear -12 1030 36 0 2.62 129 16:37 06.12.2019
6692 Clear -12 1030 36 0 2.62 129 16:19 06.12.2019
6693 Clear -12 1030 36 0 2.62 129 15:41 06.12.2019
6694 Clear -12 1030 36 0 2.62 129 15:22 06.12.2019
6695 Clear -12 1030 36 0 2.62 129 14:58 06.12.2019
6696 Clear -12 1030 36 0 2.62 129 14:40 06.12.2019
6697 Clouds -12 1030 45 0 2.53 131 14:20 06.12.2019
6698 Clouds -12 1030 45 0 2.53 131 13:46 06.12.2019
6699 Clouds -12 1030 45 0 2.53 131 13:27 06.12.2019
6700 Clouds -11 1029 44 0 2.46 132 12:58 06.12.2019
6701 Clouds -11 1029 44 0 2.46 132 12:39 06.12.2019
6702 Clouds -11 1029 44 0 2.46 132 12:21 06.12.2019
6703 Clouds -11 1029 44 0 2.46 132 11:42 06.12.2019
6704 Clouds -11 1029 44 0 2.46 132 11:23 06.12.2019
6705 Clouds -9 1029 53 0 2.15 127 10:56 06.12.2019
6706 Clouds -9 1029 53 0 2.15 127 10:38 06.12.2019
6707 Clouds -9 1029 53 0 2.15 127 10:20 06.12.2019
6708 Clouds -9 1029 53 0 2.15 127 09:55 06.12.2019
6709 Clouds -9 1029 53 0 2.15 127 09:36 06.12.2019
6710 Clouds -9 1029 53 0 2.15 127 09:18 06.12.2019
6711 Clouds -9 1029 53 0 2.15 127 08:42 06.12.2019
6712 Clouds -9 1029 54 0 2.18 124 08:24 06.12.2019
6713 Clouds -7 1030 61 0 2 124 07:42 06.12.2019
6714 Clouds -7 1030 61 0 2 124 07:22 06.12.2019
6715 Clouds -7 1030 61 0 2 124 06:48 06.12.2019
6716 Clouds -7 1030 61 0 2 124 06:25 06.12.2019
6717 Clouds -7 1030 61 0 2 124 05:48 06.12.2019
6718 Clear -11 1033 48 0 2.6 121 02:51 06.12.2019
6719 Clear -13 1034 33 0 2.65 118 01:45 06.12.2019
6720 Clear -13 1034 34 0 2.75 117 00:51 06.12.2019
6721 Clear -13 1034 34 0 2.75 117 00:23 06.12.2019
6722 Clear -13 1034 34 0 2.75 117 23:52 05.12.2019
6723 Clear -13 1034 30 0 2.54 118 23:21 05.12.2019
6724 Clear -13 1034 30 0 2.54 118 22:58 05.12.2019
6725 Clear -13 1034 30 0 2.54 118 22:39 05.12.2019
6726 Clear -13 1034 30 0 2.54 118 22:20 05.12.2019
6727 Clear -13 1034 30 0 2.54 118 21:58 05.12.2019
6728 Clear -13 1034 30 0 2.54 118 21:40 05.12.2019
6729 Clear -13 1034 30 0 2.54 118 21:21 05.12.2019
6730 Clear -13 1034 30 0 2.54 118 20:57 05.12.2019
6731 Clear -13 1034 30 0 2.54 118 20:38 05.12.2019
6732 Clear -13 1034 30 0 2.54 118 20:38 05.12.2019
6733 Clear -14 1036 28 0 2.31 114 20:19 05.12.2019
6734 Clear -14 1036 28 0 2.31 114 19:43 05.12.2019
6735 Clear -14 1036 28 0 2.31 114 19:25 05.12.2019
6736 Clear -14 1036 28 0 2.31 114 18:59 05.12.2019
6737 Clear -14 1036 28 0 2.31 114 18:39 05.12.2019
6738 Clear -14 1036 28 0 2.31 114 18:20 05.12.2019
6739 Clear -14 1036 28 0 2.31 114 17:56 05.12.2019
6740 Clear -14 1036 28 0 2.31 114 17:37 05.12.2019
6741 Clear -14 1036 28 0 2.22 120 17:18 05.12.2019
6742 Clear -14 1036 28 0 2.22 120 16:40 05.12.2019
6743 Clear -14 1036 28 0 2.22 120 16:22 05.12.2019
6744 Clear -14 1036 28 0 2.22 120 15:59 05.12.2019
6745 Clear -14 1036 28 0 2.22 120 15:40 05.12.2019
6746 Clear -14 1036 28 0 2.22 120 15:21 05.12.2019
6747 Clear -14 1036 28 0 2.22 120 14:57 05.12.2019
6748 Clear -14 1036 28 0 2.22 120 14:39 05.12.2019
6749 Clouds -13 1036 34 0 1.93 119 14:20 05.12.2019
6750 Clouds -13 1036 34 0 1.93 119 13:59 05.12.2019
6751 Clouds -13 1036 34 0 1.93 119 13:40 05.12.2019
6752 Clouds -13 1036 39 0 1.76 118 13:21 05.12.2019
6753 Clouds -13 1036 39 0 1.76 118 12:59 05.12.2019
6754 Clouds -13 1036 39 0 1.76 118 12:40 05.12.2019
6755 Clouds -13 1036 39 0 1.76 118 12:22 05.12.2019
6756 Clouds -13 1036 39 0 1.76 118 11:56 05.12.2019
6757 Clouds -13 1036 39 0 1.76 118 11:37 05.12.2019
6758 Clouds -10 1035 46 0 0.98 151 11:18 05.12.2019
6759 Clouds -10 1035 46 0 0.98 151 10:54 05.12.2019
6760 Clouds -10 1035 46 0 0.98 151 10:36 05.12.2019
6761 Clouds -10 1035 46 0 0.98 151 10:18 05.12.2019
6762 Clouds -10 1035 46 0 0.98 151 09:42 05.12.2019
6763 Clouds